<?xml version="1.0" encoding="UTF-8" standalone="no" ?>
<gpx xmlns="http://www.topografix.com/GPX/1/1" xmlns:xsi="http://www.w3.org/2001/XMLSchema-instance" xsi:schemaLocation="http://www.topografix.com/GPX/1/1 http://www.topografix.com/GPX/1/1/gpx.xsd" version="1.1" creator="VisuGPX - https://www.visugpx.com">
  <metadata>
    <name>SDR Belledonne 04/2019</name>
    <desc><![CDATA[SDr en belledonne 13/04 14/04 ]]></desc>
  </metadata>
  <trk>
    <name><![CDATA[20190415134240-Rv23G]]></name>
    <trkseg>
      <trkpt lat="45.22864" lon="5.99233">
        <ele>1286.5999755859</ele>
        <time>2019-04-14T07:12:23.009Z</time>
      </trkpt>
      <trkpt lat="45.22864" lon="5.99233">
        <ele>1279.9853474849</ele>
        <time>2019-04-14T07:12:25.009Z</time>
      </trkpt>
      <trkpt lat="45.22863" lon="5.99234">
        <ele>1279</ele>
        <time>2019-04-14T07:13:19.009Z</time>
      </trkpt>
      <trkpt lat="45.22863" lon="5.99234">
        <ele>1278.9948855254</ele>
        <time>2019-04-14T07:13:21.009Z</time>
      </trkpt>
      <trkpt lat="45.22862" lon="5.99234">
        <ele>1278</ele>
        <time>2019-04-14T07:15:37.009Z</time>
      </trkpt>
      <trkpt lat="45.22857" lon="5.99239">
        <ele>1278</ele>
        <time>2019-04-14T07:15:51.009Z</time>
      </trkpt>
      <trkpt lat="45.22854" lon="5.99244">
        <ele>1278</ele>
        <time>2019-04-14T07:15:56.009Z</time>
      </trkpt>
      <trkpt lat="45.22846" lon="5.99254">
        <ele>1279</ele>
        <time>2019-04-14T07:16:06.009Z</time>
      </trkpt>
      <trkpt lat="45.22838" lon="5.99262">
        <ele>1281</ele>
        <time>2019-04-14T07:16:18.009Z</time>
      </trkpt>
      <trkpt lat="45.22829" lon="5.99268">
        <ele>1281</ele>
        <time>2019-04-14T07:16:30.009Z</time>
      </trkpt>
      <trkpt lat="45.22819" lon="5.99275">
        <ele>1282</ele>
        <time>2019-04-14T07:16:41.009Z</time>
      </trkpt>
      <trkpt lat="45.22811" lon="5.99282">
        <ele>1282.9779968</ele>
        <time>2019-04-14T07:16:50.009Z</time>
      </trkpt>
      <trkpt lat="45.22801" lon="5.99286">
        <ele>1284</ele>
        <time>2019-04-14T07:16:58.009Z</time>
      </trkpt>
      <trkpt lat="45.22793" lon="5.99294">
        <ele>1285</ele>
        <time>2019-04-14T07:17:08.009Z</time>
      </trkpt>
      <trkpt lat="45.22785" lon="5.99301">
        <ele>1287</ele>
        <time>2019-04-14T07:17:19.009Z</time>
      </trkpt>
      <trkpt lat="45.22777" lon="5.9931">
        <ele>1287</ele>
        <time>2019-04-14T07:17:27.009Z</time>
      </trkpt>
      <trkpt lat="45.22771" lon="5.99317">
        <ele>1288</ele>
        <time>2019-04-14T07:17:34.009Z</time>
      </trkpt>
      <trkpt lat="45.22766" lon="5.99325">
        <ele>1289</ele>
        <time>2019-04-14T07:17:41.009Z</time>
      </trkpt>
      <trkpt lat="45.2276" lon="5.99331">
        <ele>1289</ele>
        <time>2019-04-14T07:17:49.009Z</time>
      </trkpt>
      <trkpt lat="45.22755" lon="5.99337">
        <ele>1290</ele>
        <time>2019-04-14T07:17:55.009Z</time>
      </trkpt>
      <trkpt lat="45.2275" lon="5.99343">
        <ele>1292</ele>
        <time>2019-04-14T07:18:01.009Z</time>
      </trkpt>
      <trkpt lat="45.22744" lon="5.9935">
        <ele>1292</ele>
        <time>2019-04-14T07:18:07.009Z</time>
      </trkpt>
      <trkpt lat="45.22739" lon="5.99357">
        <ele>1293</ele>
        <time>2019-04-14T07:18:13.009Z</time>
      </trkpt>
      <trkpt lat="45.22733" lon="5.99363">
        <ele>1293.4889984</ele>
        <time>2019-04-14T07:18:20.009Z</time>
      </trkpt>
      <trkpt lat="45.22727" lon="5.99369">
        <ele>1294</ele>
        <time>2019-04-14T07:18:26.009Z</time>
      </trkpt>
      <trkpt lat="45.22721" lon="5.99375">
        <ele>1294</ele>
        <time>2019-04-14T07:18:33.009Z</time>
      </trkpt>
      <trkpt lat="45.22715" lon="5.99381">
        <ele>1294.4889984</ele>
        <time>2019-04-14T07:18:40.009Z</time>
      </trkpt>
      <trkpt lat="45.22708" lon="5.99386">
        <ele>1295</ele>
        <time>2019-04-14T07:18:46.009Z</time>
      </trkpt>
      <trkpt lat="45.22703" lon="5.9939">
        <ele>1296</ele>
        <time>2019-04-14T07:18:52.009Z</time>
      </trkpt>
      <trkpt lat="45.22698" lon="5.99394">
        <ele>1296</ele>
        <time>2019-04-14T07:18:58.009Z</time>
      </trkpt>
      <trkpt lat="45.22692" lon="5.99399">
        <ele>1297</ele>
        <time>2019-04-14T07:19:05.009Z</time>
      </trkpt>
      <trkpt lat="45.22686" lon="5.99403">
        <ele>1298</ele>
        <time>2019-04-14T07:19:11.009Z</time>
      </trkpt>
      <trkpt lat="45.22682" lon="5.99407">
        <ele>1298</ele>
        <time>2019-04-14T07:19:16.009Z</time>
      </trkpt>
      <trkpt lat="45.22676" lon="5.99412">
        <ele>1300</ele>
        <time>2019-04-14T07:19:21.009Z</time>
      </trkpt>
      <trkpt lat="45.2267" lon="5.99416">
        <ele>1300</ele>
        <time>2019-04-14T07:19:27.009Z</time>
      </trkpt>
      <trkpt lat="45.22663" lon="5.99419">
        <ele>1301</ele>
        <time>2019-04-14T07:19:34.009Z</time>
      </trkpt>
      <trkpt lat="45.22657" lon="5.99426">
        <ele>1303</ele>
        <time>2019-04-14T07:19:44.009Z</time>
      </trkpt>
      <trkpt lat="45.22649" lon="5.9943">
        <ele>1304</ele>
        <time>2019-04-14T07:19:52.009Z</time>
      </trkpt>
      <trkpt lat="45.22642" lon="5.99433">
        <ele>1304</ele>
        <time>2019-04-14T07:19:58.009Z</time>
      </trkpt>
      <trkpt lat="45.22635" lon="5.99439">
        <ele>1306</ele>
        <time>2019-04-14T07:20:06.009Z</time>
      </trkpt>
      <trkpt lat="45.22629" lon="5.99443">
        <ele>1307</ele>
        <time>2019-04-14T07:20:13.009Z</time>
      </trkpt>
      <trkpt lat="45.22624" lon="5.9945">
        <ele>1308</ele>
        <time>2019-04-14T07:20:22.009Z</time>
      </trkpt>
      <trkpt lat="45.22619" lon="5.99458">
        <ele>1308</ele>
        <time>2019-04-14T07:20:29.009Z</time>
      </trkpt>
      <trkpt lat="45.22613" lon="5.99466">
        <ele>1308</ele>
        <time>2019-04-14T07:20:36.009Z</time>
      </trkpt>
      <trkpt lat="45.22608" lon="5.99474">
        <ele>1310</ele>
        <time>2019-04-14T07:20:43.009Z</time>
      </trkpt>
      <trkpt lat="45.22602" lon="5.99482">
        <ele>1310</ele>
        <time>2019-04-14T07:20:52.009Z</time>
      </trkpt>
      <trkpt lat="45.22597" lon="5.99492">
        <ele>1311</ele>
        <time>2019-04-14T07:21:01.009Z</time>
      </trkpt>
      <trkpt lat="45.2259" lon="5.995">
        <ele>1311.9779968</ele>
        <time>2019-04-14T07:21:10.009Z</time>
      </trkpt>
      <trkpt lat="45.22584" lon="5.99507">
        <ele>1313</ele>
        <time>2019-04-14T07:21:18.009Z</time>
      </trkpt>
      <trkpt lat="45.22576" lon="5.99513">
        <ele>1314</ele>
        <time>2019-04-14T07:21:26.009Z</time>
      </trkpt>
      <trkpt lat="45.22568" lon="5.99521">
        <ele>1315</ele>
        <time>2019-04-14T07:21:36.009Z</time>
      </trkpt>
      <trkpt lat="45.22559" lon="5.99526">
        <ele>1316</ele>
        <time>2019-04-14T07:21:44.009Z</time>
      </trkpt>
      <trkpt lat="45.22553" lon="5.99536">
        <ele>1318</ele>
        <time>2019-04-14T07:21:54.009Z</time>
      </trkpt>
      <trkpt lat="45.22547" lon="5.99545">
        <ele>1319</ele>
        <time>2019-04-14T07:22:02.009Z</time>
      </trkpt>
      <trkpt lat="45.2254" lon="5.99555">
        <ele>1319</ele>
        <time>2019-04-14T07:22:08.009Z</time>
      </trkpt>
      <trkpt lat="45.22535" lon="5.99562">
        <ele>1321</ele>
        <time>2019-04-14T07:22:15.009Z</time>
      </trkpt>
      <trkpt lat="45.2253" lon="5.99569">
        <ele>1321.4889984</ele>
        <time>2019-04-14T07:22:20.009Z</time>
      </trkpt>
      <trkpt lat="45.22526" lon="5.99576">
        <ele>1322</ele>
        <time>2019-04-14T07:22:25.009Z</time>
      </trkpt>
      <trkpt lat="45.22522" lon="5.99583">
        <ele>1322.4889984</ele>
        <time>2019-04-14T07:22:30.009Z</time>
      </trkpt>
      <trkpt lat="45.22518" lon="5.99589">
        <ele>1323</ele>
        <time>2019-04-14T07:22:35.009Z</time>
      </trkpt>
      <trkpt lat="45.22514" lon="5.99598">
        <ele>1324</ele>
        <time>2019-04-14T07:22:41.009Z</time>
      </trkpt>
      <trkpt lat="45.22512" lon="5.99608">
        <ele>1324</ele>
        <time>2019-04-14T07:22:47.009Z</time>
      </trkpt>
      <trkpt lat="45.22511" lon="5.99618">
        <ele>1325</ele>
        <time>2019-04-14T07:22:53.009Z</time>
      </trkpt>
      <trkpt lat="45.22509" lon="5.99627">
        <ele>1325</ele>
        <time>2019-04-14T07:22:59.009Z</time>
      </trkpt>
      <trkpt lat="45.22509" lon="5.99637">
        <ele>1326</ele>
        <time>2019-04-14T07:23:05.009Z</time>
      </trkpt>
      <trkpt lat="45.22509" lon="5.99647">
        <ele>1327</ele>
        <time>2019-04-14T07:23:12.009Z</time>
      </trkpt>
      <trkpt lat="45.2251" lon="5.99656">
        <ele>1327</ele>
        <time>2019-04-14T07:23:19.009Z</time>
      </trkpt>
      <trkpt lat="45.22512" lon="5.99666">
        <ele>1328</ele>
        <time>2019-04-14T07:23:26.009Z</time>
      </trkpt>
      <trkpt lat="45.22512" lon="5.99676">
        <ele>1329</ele>
        <time>2019-04-14T07:23:33.009Z</time>
      </trkpt>
      <trkpt lat="45.22512" lon="5.99686">
        <ele>1329</ele>
        <time>2019-04-14T07:23:39.009Z</time>
      </trkpt>
      <trkpt lat="45.22512" lon="5.99696">
        <ele>1331</ele>
        <time>2019-04-14T07:23:45.009Z</time>
      </trkpt>
      <trkpt lat="45.2251" lon="5.9971">
        <ele>1331</ele>
        <time>2019-04-14T07:23:56.009Z</time>
      </trkpt>
      <trkpt lat="45.22507" lon="5.99725">
        <ele>1333</ele>
        <time>2019-04-14T07:24:06.009Z</time>
      </trkpt>
      <trkpt lat="45.22505" lon="5.9974">
        <ele>1334</ele>
        <time>2019-04-14T07:24:16.009Z</time>
      </trkpt>
      <trkpt lat="45.22505" lon="5.99755">
        <ele>1335</ele>
        <time>2019-04-14T07:24:25.009Z</time>
      </trkpt>
      <trkpt lat="45.22505" lon="5.99771">
        <ele>1336</ele>
        <time>2019-04-14T07:24:35.009Z</time>
      </trkpt>
      <trkpt lat="45.22501" lon="5.99784">
        <ele>1336</ele>
        <time>2019-04-14T07:24:43.009Z</time>
      </trkpt>
      <trkpt lat="45.22498" lon="5.99798">
        <ele>1336</ele>
        <time>2019-04-14T07:24:53.009Z</time>
      </trkpt>
      <trkpt lat="45.22492" lon="5.9981">
        <ele>1337</ele>
        <time>2019-04-14T07:25:04.009Z</time>
      </trkpt>
      <trkpt lat="45.22485" lon="5.99821">
        <ele>1339</ele>
        <time>2019-04-14T07:25:13.009Z</time>
      </trkpt>
      <trkpt lat="45.22478" lon="5.99831">
        <ele>1339</ele>
        <time>2019-04-14T07:25:23.009Z</time>
      </trkpt>
      <trkpt lat="45.2247" lon="5.99839">
        <ele>1340</ele>
        <time>2019-04-14T07:25:34.009Z</time>
      </trkpt>
      <trkpt lat="45.2246" lon="5.99843">
        <ele>1341</ele>
        <time>2019-04-14T07:25:41.009Z</time>
      </trkpt>
      <trkpt lat="45.22452" lon="5.99852">
        <ele>1341</ele>
        <time>2019-04-14T07:25:50.009Z</time>
      </trkpt>
      <trkpt lat="45.22448" lon="5.99862">
        <ele>1341</ele>
        <time>2019-04-14T07:25:57.009Z</time>
      </trkpt>
      <trkpt lat="45.22448" lon="5.99873">
        <ele>1341</ele>
        <time>2019-04-14T07:26:04.009Z</time>
      </trkpt>
      <trkpt lat="45.22449" lon="5.99884">
        <ele>1342</ele>
        <time>2019-04-14T07:26:13.009Z</time>
      </trkpt>
      <trkpt lat="45.2245" lon="5.99899">
        <ele>1345</ele>
        <time>2019-04-14T07:26:33.009Z</time>
      </trkpt>
      <trkpt lat="45.22453" lon="5.99912">
        <ele>1348</ele>
        <time>2019-04-14T07:26:54.009Z</time>
      </trkpt>
      <trkpt lat="45.22456" lon="5.99925">
        <ele>1351</ele>
        <time>2019-04-14T07:27:12.009Z</time>
      </trkpt>
      <trkpt lat="45.22457" lon="5.9994">
        <ele>1353</ele>
        <time>2019-04-14T07:27:26.009Z</time>
      </trkpt>
      <trkpt lat="45.22456" lon="5.99954">
        <ele>1355.9779968</ele>
        <time>2019-04-14T07:27:40.009Z</time>
      </trkpt>
      <trkpt lat="45.22453" lon="5.99968">
        <ele>1358</ele>
        <time>2019-04-14T07:27:56.009Z</time>
      </trkpt>
      <trkpt lat="45.22448" lon="5.9998">
        <ele>1359</ele>
        <time>2019-04-14T07:28:12.009Z</time>
      </trkpt>
      <trkpt lat="45.22441" lon="5.99992">
        <ele>1361</ele>
        <time>2019-04-14T07:28:24.009Z</time>
      </trkpt>
      <trkpt lat="45.22438" lon="6.00003">
        <ele>1363</ele>
        <time>2019-04-14T07:28:37.009Z</time>
      </trkpt>
      <trkpt lat="45.22435" lon="6.00016">
        <ele>1366</ele>
        <time>2019-04-14T07:28:58.009Z</time>
      </trkpt>
      <trkpt lat="45.22433" lon="6.00029">
        <ele>1369</ele>
        <time>2019-04-14T07:29:19.009Z</time>
      </trkpt>
      <trkpt lat="45.2243" lon="6.00043">
        <ele>1372</ele>
        <time>2019-04-14T07:29:45.009Z</time>
      </trkpt>
      <trkpt lat="45.22427" lon="6.00057">
        <ele>1375</ele>
        <time>2019-04-14T07:30:05.009Z</time>
      </trkpt>
      <trkpt lat="45.22423" lon="6.00071">
        <ele>1378</ele>
        <time>2019-04-14T07:30:24.009Z</time>
      </trkpt>
      <trkpt lat="45.22417" lon="6.00083">
        <ele>1382</ele>
        <time>2019-04-14T07:30:44.009Z</time>
      </trkpt>
      <trkpt lat="45.22414" lon="6.00093">
        <ele>1385</ele>
        <time>2019-04-14T07:31:01.009Z</time>
      </trkpt>
      <trkpt lat="45.22406" lon="6.00102">
        <ele>1387</ele>
        <time>2019-04-14T07:31:17.009Z</time>
      </trkpt>
      <trkpt lat="45.22404" lon="6.00115">
        <ele>1389</ele>
        <time>2019-04-14T07:31:36.009Z</time>
      </trkpt>
      <trkpt lat="45.22396" lon="6.00124">
        <ele>1392</ele>
        <time>2019-04-14T07:31:53.009Z</time>
      </trkpt>
      <trkpt lat="45.22386" lon="6.00128">
        <ele>1394</ele>
        <time>2019-04-14T07:32:06.009Z</time>
      </trkpt>
      <trkpt lat="45.22377" lon="6.00134">
        <ele>1396</ele>
        <time>2019-04-14T07:32:17.009Z</time>
      </trkpt>
      <trkpt lat="45.22368" lon="6.00141">
        <ele>1400</ele>
        <time>2019-04-14T07:32:37.009Z</time>
      </trkpt>
      <trkpt lat="45.22368" lon="6.00153">
        <ele>1401.4889984</ele>
        <time>2019-04-14T07:33:00.009Z</time>
      </trkpt>
      <trkpt lat="45.22364" lon="6.00157">
        <ele>1403</ele>
        <time>2019-04-14T07:33:49.009Z</time>
      </trkpt>
      <trkpt lat="45.22361" lon="6.00161">
        <ele>1402</ele>
        <time>2019-04-14T07:36:36.009Z</time>
      </trkpt>
      <trkpt lat="45.22358" lon="6.00163">
        <ele>1402</ele>
        <time>2019-04-14T07:36:40.009Z</time>
      </trkpt>
      <trkpt lat="45.22354" lon="6.00167">
        <ele>1402</ele>
        <time>2019-04-14T07:36:45.009Z</time>
      </trkpt>
      <trkpt lat="45.22349" lon="6.0017">
        <ele>1404</ele>
        <time>2019-04-14T07:36:51.009Z</time>
      </trkpt>
      <trkpt lat="45.22344" lon="6.00175">
        <ele>1404</ele>
        <time>2019-04-14T07:36:58.009Z</time>
      </trkpt>
      <trkpt lat="45.22339" lon="6.00181">
        <ele>1404</ele>
        <time>2019-04-14T07:37:04.009Z</time>
      </trkpt>
      <trkpt lat="45.22332" lon="6.00189">
        <ele>1405</ele>
        <time>2019-04-14T07:37:18.009Z</time>
      </trkpt>
      <trkpt lat="45.22323" lon="6.00196">
        <ele>1407</ele>
        <time>2019-04-14T07:37:26.009Z</time>
      </trkpt>
      <trkpt lat="45.22315" lon="6.00203">
        <ele>1408</ele>
        <time>2019-04-14T07:37:37.009Z</time>
      </trkpt>
      <trkpt lat="45.22308" lon="6.00214">
        <ele>1411</ele>
        <time>2019-04-14T07:38:00.009Z</time>
      </trkpt>
      <trkpt lat="45.22306" lon="6.00223">
        <ele>1413</ele>
        <time>2019-04-14T07:38:11.009Z</time>
      </trkpt>
      <trkpt lat="45.22307" lon="6.00238">
        <ele>1415</ele>
        <time>2019-04-14T07:38:25.009Z</time>
      </trkpt>
      <trkpt lat="45.22308" lon="6.00252">
        <ele>1419.4889984</ele>
        <time>2019-04-14T07:38:40.009Z</time>
      </trkpt>
      <trkpt lat="45.22314" lon="6.00264">
        <ele>1421</ele>
        <time>2019-04-14T07:38:55.009Z</time>
      </trkpt>
      <trkpt lat="45.2232" lon="6.00276">
        <ele>1425</ele>
        <time>2019-04-14T07:39:09.009Z</time>
      </trkpt>
      <trkpt lat="45.22323" lon="6.0029">
        <ele>1427</ele>
        <time>2019-04-14T07:39:21.009Z</time>
      </trkpt>
      <trkpt lat="45.22326" lon="6.00302">
        <ele>1429</ele>
        <time>2019-04-14T07:39:33.009Z</time>
      </trkpt>
      <trkpt lat="45.22329" lon="6.00315">
        <ele>1430</ele>
        <time>2019-04-14T07:39:43.009Z</time>
      </trkpt>
      <trkpt lat="45.22333" lon="6.00328">
        <ele>1432</ele>
        <time>2019-04-14T07:39:54.009Z</time>
      </trkpt>
      <trkpt lat="45.22334" lon="6.00335">
        <ele>1432</ele>
        <time>2019-04-14T07:39:59.009Z</time>
      </trkpt>
      <trkpt lat="45.22336" lon="6.00342">
        <ele>1434</ele>
        <time>2019-04-14T07:40:05.009Z</time>
      </trkpt>
      <trkpt lat="45.22335" lon="6.00353">
        <ele>1435</ele>
        <time>2019-04-14T07:40:16.009Z</time>
      </trkpt>
      <trkpt lat="45.22333" lon="6.00363">
        <ele>1436</ele>
        <time>2019-04-14T07:40:25.009Z</time>
      </trkpt>
      <trkpt lat="45.2233" lon="6.00368">
        <ele>1436.9779968</ele>
        <time>2019-04-14T07:40:30.009Z</time>
      </trkpt>
      <trkpt lat="45.22322" lon="6.00376">
        <ele>1439</ele>
        <time>2019-04-14T07:40:41.009Z</time>
      </trkpt>
      <trkpt lat="45.22317" lon="6.0038">
        <ele>1439</ele>
        <time>2019-04-14T07:40:48.009Z</time>
      </trkpt>
      <trkpt lat="45.22315" lon="6.00383">
        <ele>1440</ele>
        <time>2019-04-14T07:40:52.009Z</time>
      </trkpt>
      <trkpt lat="45.22311" lon="6.0039">
        <ele>1441</ele>
        <time>2019-04-14T07:41:03.009Z</time>
      </trkpt>
      <trkpt lat="45.22305" lon="6.00397">
        <ele>1443</ele>
        <time>2019-04-14T07:41:12.009Z</time>
      </trkpt>
      <trkpt lat="45.22298" lon="6.004">
        <ele>1446.9779968</ele>
        <time>2019-04-14T07:41:25.009Z</time>
      </trkpt>
      <trkpt lat="45.22292" lon="6.00405">
        <ele>1449</ele>
        <time>2019-04-14T07:41:36.009Z</time>
      </trkpt>
      <trkpt lat="45.22288" lon="6.00403">
        <ele>1450</ele>
        <time>2019-04-14T07:41:42.009Z</time>
      </trkpt>
      <trkpt lat="45.22283" lon="6.00407">
        <ele>1450.4889984</ele>
        <time>2019-04-14T07:41:50.009Z</time>
      </trkpt>
      <trkpt lat="45.22281" lon="6.00414">
        <ele>1451.4889984</ele>
        <time>2019-04-14T07:42:00.009Z</time>
      </trkpt>
      <trkpt lat="45.22275" lon="6.00418">
        <ele>1452</ele>
        <time>2019-04-14T07:42:08.009Z</time>
      </trkpt>
      <trkpt lat="45.22267" lon="6.00422">
        <ele>1456</ele>
        <time>2019-04-14T07:42:24.009Z</time>
      </trkpt>
      <trkpt lat="45.22261" lon="6.00431">
        <ele>1460</ele>
        <time>2019-04-14T07:42:45.009Z</time>
      </trkpt>
      <trkpt lat="45.22252" lon="6.00436">
        <ele>1462.9779968</ele>
        <time>2019-04-14T07:43:00.009Z</time>
      </trkpt>
      <trkpt lat="45.22245" lon="6.00436">
        <ele>1468</ele>
        <time>2019-04-14T07:43:24.009Z</time>
      </trkpt>
      <trkpt lat="45.2224" lon="6.00448">
        <ele>1471</ele>
        <time>2019-04-14T07:43:41.009Z</time>
      </trkpt>
      <trkpt lat="45.22238" lon="6.00462">
        <ele>1473</ele>
        <time>2019-04-14T07:43:58.009Z</time>
      </trkpt>
      <trkpt lat="45.22238" lon="6.0047">
        <ele>1475</ele>
        <time>2019-04-14T07:44:09.009Z</time>
      </trkpt>
      <trkpt lat="45.22237" lon="6.00478">
        <ele>1477</ele>
        <time>2019-04-14T07:44:17.009Z</time>
      </trkpt>
      <trkpt lat="45.22238" lon="6.00485">
        <ele>1478</ele>
        <time>2019-04-14T07:44:25.009Z</time>
      </trkpt>
      <trkpt lat="45.22239" lon="6.00491">
        <ele>1480</ele>
        <time>2019-04-14T07:44:33.009Z</time>
      </trkpt>
      <trkpt lat="45.22242" lon="6.00501">
        <ele>1482</ele>
        <time>2019-04-14T07:44:48.009Z</time>
      </trkpt>
      <trkpt lat="45.22244" lon="6.00511">
        <ele>1485.9779968</ele>
        <time>2019-04-14T07:45:10.009Z</time>
      </trkpt>
      <trkpt lat="45.22243" lon="6.00517">
        <ele>1488</ele>
        <time>2019-04-14T07:45:29.009Z</time>
      </trkpt>
      <trkpt lat="45.22235" lon="6.00528">
        <ele>1491</ele>
        <time>2019-04-14T07:45:48.009Z</time>
      </trkpt>
      <trkpt lat="45.22228" lon="6.00533">
        <ele>1495</ele>
        <time>2019-04-14T07:46:00.009Z</time>
      </trkpt>
      <trkpt lat="45.2223" lon="6.00539">
        <ele>1496</ele>
        <time>2019-04-14T07:46:08.009Z</time>
      </trkpt>
      <trkpt lat="45.22227" lon="6.00553">
        <ele>1499</ele>
        <time>2019-04-14T07:46:23.009Z</time>
      </trkpt>
      <trkpt lat="45.2222" lon="6.00559">
        <ele>1501</ele>
        <time>2019-04-14T07:46:37.009Z</time>
      </trkpt>
      <trkpt lat="45.22217" lon="6.00568">
        <ele>1503</ele>
        <time>2019-04-14T07:46:48.009Z</time>
      </trkpt>
      <trkpt lat="45.22217" lon="6.00576">
        <ele>1507</ele>
        <time>2019-04-14T07:47:12.009Z</time>
      </trkpt>
      <trkpt lat="45.22217" lon="6.00582">
        <ele>1507</ele>
        <time>2019-04-14T07:47:19.009Z</time>
      </trkpt>
      <trkpt lat="45.22219" lon="6.00592">
        <ele>1508</ele>
        <time>2019-04-14T07:47:29.009Z</time>
      </trkpt>
      <trkpt lat="45.22218" lon="6.00607">
        <ele>1512</ele>
        <time>2019-04-14T07:47:43.009Z</time>
      </trkpt>
      <trkpt lat="45.22223" lon="6.00617">
        <ele>1515</ele>
        <time>2019-04-14T07:47:55.009Z</time>
      </trkpt>
      <trkpt lat="45.22227" lon="6.00631">
        <ele>1518</ele>
        <time>2019-04-14T07:48:13.009Z</time>
      </trkpt>
      <trkpt lat="45.22233" lon="6.00641">
        <ele>1520</ele>
        <time>2019-04-14T07:48:30.009Z</time>
      </trkpt>
      <trkpt lat="45.22236" lon="6.00647">
        <ele>1522</ele>
        <time>2019-04-14T07:48:39.009Z</time>
      </trkpt>
      <trkpt lat="45.22238" lon="6.00651">
        <ele>1524</ele>
        <time>2019-04-14T07:48:45.009Z</time>
      </trkpt>
      <trkpt lat="45.2224" lon="6.0066">
        <ele>1526</ele>
        <time>2019-04-14T07:48:58.009Z</time>
      </trkpt>
      <trkpt lat="45.22243" lon="6.00674">
        <ele>1529</ele>
        <time>2019-04-14T07:49:40.009Z</time>
      </trkpt>
      <trkpt lat="45.22241" lon="6.00686">
        <ele>1531</ele>
        <time>2019-04-14T07:49:49.009Z</time>
      </trkpt>
      <trkpt lat="45.22239" lon="6.00701">
        <ele>1532</ele>
        <time>2019-04-14T07:50:00.009Z</time>
      </trkpt>
      <trkpt lat="45.22235" lon="6.00715">
        <ele>1532</ele>
        <time>2019-04-14T07:50:10.009Z</time>
      </trkpt>
      <trkpt lat="45.22235" lon="6.00729">
        <ele>1535</ele>
        <time>2019-04-14T07:50:25.009Z</time>
      </trkpt>
      <trkpt lat="45.22238" lon="6.00742">
        <ele>1537</ele>
        <time>2019-04-14T07:50:39.009Z</time>
      </trkpt>
      <trkpt lat="45.22234" lon="6.00756">
        <ele>1542</ele>
        <time>2019-04-14T07:50:52.009Z</time>
      </trkpt>
      <trkpt lat="45.2223" lon="6.0077">
        <ele>1543</ele>
        <time>2019-04-14T07:51:27.009Z</time>
      </trkpt>
      <trkpt lat="45.22232" lon="6.00783">
        <ele>1546</ele>
        <time>2019-04-14T07:52:46.009Z</time>
      </trkpt>
      <trkpt lat="45.22229" lon="6.00797">
        <ele>1548</ele>
        <time>2019-04-14T07:53:10.009Z</time>
      </trkpt>
      <trkpt lat="45.22228" lon="6.00812">
        <ele>1554</ele>
        <time>2019-04-14T07:53:27.009Z</time>
      </trkpt>
      <trkpt lat="45.22228" lon="6.00826">
        <ele>1556</ele>
        <time>2019-04-14T07:53:44.009Z</time>
      </trkpt>
      <trkpt lat="45.2223" lon="6.00841">
        <ele>1562</ele>
        <time>2019-04-14T07:54:02.009Z</time>
      </trkpt>
      <trkpt lat="45.22233" lon="6.00855">
        <ele>1563</ele>
        <time>2019-04-14T07:54:19.009Z</time>
      </trkpt>
      <trkpt lat="45.22238" lon="6.00867">
        <ele>1567</ele>
        <time>2019-04-14T07:54:33.009Z</time>
      </trkpt>
      <trkpt lat="45.22244" lon="6.00878">
        <ele>1569</ele>
        <time>2019-04-14T07:54:47.009Z</time>
      </trkpt>
      <trkpt lat="45.22245" lon="6.00893">
        <ele>1571.9779968</ele>
        <time>2019-04-14T07:55:01.009Z</time>
      </trkpt>
      <trkpt lat="45.22247" lon="6.00907">
        <ele>1575.9779968</ele>
        <time>2019-04-14T07:55:21.009Z</time>
      </trkpt>
      <trkpt lat="45.22255" lon="6.00911">
        <ele>1579</ele>
        <time>2019-04-14T07:55:34.009Z</time>
      </trkpt>
      <trkpt lat="45.22249" lon="6.00922">
        <ele>1579.9779968</ele>
        <time>2019-04-14T07:55:51.009Z</time>
      </trkpt>
      <trkpt lat="45.22239" lon="6.00928">
        <ele>1583</ele>
        <time>2019-04-14T07:56:05.009Z</time>
      </trkpt>
      <trkpt lat="45.2223" lon="6.00936">
        <ele>1587</ele>
        <time>2019-04-14T07:56:25.009Z</time>
      </trkpt>
      <trkpt lat="45.22232" lon="6.00951">
        <ele>1591</ele>
        <time>2019-04-14T07:56:44.009Z</time>
      </trkpt>
      <trkpt lat="45.22231" lon="6.00966">
        <ele>1595</ele>
        <time>2019-04-14T07:56:59.009Z</time>
      </trkpt>
      <trkpt lat="45.22232" lon="6.0098">
        <ele>1597</ele>
        <time>2019-04-14T07:57:14.009Z</time>
      </trkpt>
      <trkpt lat="45.22237" lon="6.00993">
        <ele>1599</ele>
        <time>2019-04-14T07:57:27.009Z</time>
      </trkpt>
      <trkpt lat="45.22237" lon="6.01008">
        <ele>1601.4889984</ele>
        <time>2019-04-14T07:57:41.009Z</time>
      </trkpt>
      <trkpt lat="45.22234" lon="6.01022">
        <ele>1604</ele>
        <time>2019-04-14T07:57:53.009Z</time>
      </trkpt>
      <trkpt lat="45.22235" lon="6.01036">
        <ele>1606</ele>
        <time>2019-04-14T07:58:08.009Z</time>
      </trkpt>
      <trkpt lat="45.22235" lon="6.01051">
        <ele>1608.4889984</ele>
        <time>2019-04-14T07:58:21.009Z</time>
      </trkpt>
      <trkpt lat="45.22231" lon="6.01064">
        <ele>1611</ele>
        <time>2019-04-14T07:58:32.009Z</time>
      </trkpt>
      <trkpt lat="45.22231" lon="6.01078">
        <ele>1613</ele>
        <time>2019-04-14T07:58:45.009Z</time>
      </trkpt>
      <trkpt lat="45.22234" lon="6.01092">
        <ele>1614</ele>
        <time>2019-04-14T07:58:59.009Z</time>
      </trkpt>
      <trkpt lat="45.22235" lon="6.01107">
        <ele>1618</ele>
        <time>2019-04-14T07:59:14.009Z</time>
      </trkpt>
      <trkpt lat="45.22234" lon="6.01121">
        <ele>1620</ele>
        <time>2019-04-14T07:59:25.009Z</time>
      </trkpt>
      <trkpt lat="45.22236" lon="6.01136">
        <ele>1622</ele>
        <time>2019-04-14T07:59:37.009Z</time>
      </trkpt>
      <trkpt lat="45.22241" lon="6.01148">
        <ele>1623.4669952</ele>
        <time>2019-04-14T07:59:51.009Z</time>
      </trkpt>
      <trkpt lat="45.22247" lon="6.0116">
        <ele>1626.9779968</ele>
        <time>2019-04-14T08:00:01.009Z</time>
      </trkpt>
      <trkpt lat="45.2225" lon="6.01173">
        <ele>1631</ele>
        <time>2019-04-14T08:00:15.009Z</time>
      </trkpt>
      <trkpt lat="45.22255" lon="6.01187">
        <ele>1631</ele>
        <time>2019-04-14T08:00:28.009Z</time>
      </trkpt>
      <trkpt lat="45.22258" lon="6.01201">
        <ele>1632.9779968</ele>
        <time>2019-04-14T08:00:41.009Z</time>
      </trkpt>
      <trkpt lat="45.22252" lon="6.01213">
        <ele>1636</ele>
        <time>2019-04-14T08:00:53.009Z</time>
      </trkpt>
      <trkpt lat="45.22247" lon="6.01225">
        <ele>1637</ele>
        <time>2019-04-14T08:01:06.009Z</time>
      </trkpt>
      <trkpt lat="45.22241" lon="6.01236">
        <ele>1641</ele>
        <time>2019-04-14T08:01:22.009Z</time>
      </trkpt>
      <trkpt lat="45.22234" lon="6.01248">
        <ele>1643</ele>
        <time>2019-04-14T08:01:36.009Z</time>
      </trkpt>
      <trkpt lat="45.22231" lon="6.01262">
        <ele>1646</ele>
        <time>2019-04-14T08:01:52.009Z</time>
      </trkpt>
      <trkpt lat="45.22228" lon="6.01276">
        <ele>1650</ele>
        <time>2019-04-14T08:02:07.009Z</time>
      </trkpt>
      <trkpt lat="45.2223" lon="6.0129">
        <ele>1651</ele>
        <time>2019-04-14T08:02:20.009Z</time>
      </trkpt>
      <trkpt lat="45.22235" lon="6.01303">
        <ele>1655</ele>
        <time>2019-04-14T08:02:37.009Z</time>
      </trkpt>
      <trkpt lat="45.22243" lon="6.0131">
        <ele>1659</ele>
        <time>2019-04-14T08:02:53.009Z</time>
      </trkpt>
      <trkpt lat="45.22253" lon="6.01307">
        <ele>1662</ele>
        <time>2019-04-14T08:03:05.009Z</time>
      </trkpt>
      <trkpt lat="45.22263" lon="6.01303">
        <ele>1662</ele>
        <time>2019-04-14T08:03:17.009Z</time>
      </trkpt>
      <trkpt lat="45.22274" lon="6.01303">
        <ele>1665</ele>
        <time>2019-04-14T08:03:34.009Z</time>
      </trkpt>
      <trkpt lat="45.22284" lon="6.01307">
        <ele>1666</ele>
        <time>2019-04-14T08:03:44.009Z</time>
      </trkpt>
      <trkpt lat="45.22281" lon="6.01321">
        <ele>1670.4889984</ele>
        <time>2019-04-14T08:04:01.009Z</time>
      </trkpt>
      <trkpt lat="45.2228" lon="6.01335">
        <ele>1673</ele>
        <time>2019-04-14T08:04:14.009Z</time>
      </trkpt>
      <trkpt lat="45.2228" lon="6.0135">
        <ele>1674</ele>
        <time>2019-04-14T08:04:26.009Z</time>
      </trkpt>
      <trkpt lat="45.22273" lon="6.01361">
        <ele>1676</ele>
        <time>2019-04-14T08:04:37.009Z</time>
      </trkpt>
      <trkpt lat="45.22264" lon="6.01367">
        <ele>1676</ele>
        <time>2019-04-14T08:04:48.009Z</time>
      </trkpt>
      <trkpt lat="45.22255" lon="6.01375">
        <ele>1678</ele>
        <time>2019-04-14T08:05:00.009Z</time>
      </trkpt>
      <trkpt lat="45.22246" lon="6.01381">
        <ele>1682</ele>
        <time>2019-04-14T08:05:13.009Z</time>
      </trkpt>
      <trkpt lat="45.22238" lon="6.01389">
        <ele>1683</ele>
        <time>2019-04-14T08:05:22.009Z</time>
      </trkpt>
      <trkpt lat="45.22231" lon="6.014">
        <ele>1684</ele>
        <time>2019-04-14T08:05:35.009Z</time>
      </trkpt>
      <trkpt lat="45.22228" lon="6.01414">
        <ele>1686.9779968</ele>
        <time>2019-04-14T08:05:51.009Z</time>
      </trkpt>
      <trkpt lat="45.22228" lon="6.0143">
        <ele>1691</ele>
        <time>2019-04-14T08:06:04.009Z</time>
      </trkpt>
      <trkpt lat="45.22225" lon="6.01443">
        <ele>1691</ele>
        <time>2019-04-14T08:06:58.009Z</time>
      </trkpt>
      <trkpt lat="45.2223" lon="6.01452">
        <ele>1692</ele>
        <time>2019-04-14T08:07:10.009Z</time>
      </trkpt>
      <trkpt lat="45.22236" lon="6.01464">
        <ele>1693</ele>
        <time>2019-04-14T08:07:22.009Z</time>
      </trkpt>
      <trkpt lat="45.2224" lon="6.01477">
        <ele>1693.4889984</ele>
        <time>2019-04-14T08:07:31.009Z</time>
      </trkpt>
      <trkpt lat="45.2224" lon="6.01491">
        <ele>1694</ele>
        <time>2019-04-14T08:07:41.009Z</time>
      </trkpt>
      <trkpt lat="45.22239" lon="6.01505">
        <ele>1694</ele>
        <time>2019-04-14T08:07:48.009Z</time>
      </trkpt>
      <trkpt lat="45.22241" lon="6.01518">
        <ele>1694</ele>
        <time>2019-04-14T08:07:55.009Z</time>
      </trkpt>
      <trkpt lat="45.22243" lon="6.0153">
        <ele>1694</ele>
        <time>2019-04-14T08:08:01.009Z</time>
      </trkpt>
      <trkpt lat="45.22244" lon="6.0154">
        <ele>1694</ele>
        <time>2019-04-14T08:08:07.009Z</time>
      </trkpt>
      <trkpt lat="45.22247" lon="6.01551">
        <ele>1694</ele>
        <time>2019-04-14T08:08:14.009Z</time>
      </trkpt>
      <trkpt lat="45.22249" lon="6.01562">
        <ele>1694</ele>
        <time>2019-04-14T08:08:21.009Z</time>
      </trkpt>
      <trkpt lat="45.22251" lon="6.01575">
        <ele>1694</ele>
        <time>2019-04-14T08:08:29.009Z</time>
      </trkpt>
      <trkpt lat="45.22253" lon="6.01585">
        <ele>1694</ele>
        <time>2019-04-14T08:08:36.009Z</time>
      </trkpt>
      <trkpt lat="45.22254" lon="6.016">
        <ele>1695</ele>
        <time>2019-04-14T08:08:46.009Z</time>
      </trkpt>
      <trkpt lat="45.22257" lon="6.01611">
        <ele>1695</ele>
        <time>2019-04-14T08:08:53.009Z</time>
      </trkpt>
      <trkpt lat="45.22257" lon="6.01627">
        <ele>1695</ele>
        <time>2019-04-14T08:08:59.009Z</time>
      </trkpt>
      <trkpt lat="45.22258" lon="6.01642">
        <ele>1694</ele>
        <time>2019-04-14T08:09:06.009Z</time>
      </trkpt>
      <trkpt lat="45.22259" lon="6.01656">
        <ele>1694</ele>
        <time>2019-04-14T08:09:13.009Z</time>
      </trkpt>
      <trkpt lat="45.2226" lon="6.0167">
        <ele>1694</ele>
        <time>2019-04-14T08:09:19.009Z</time>
      </trkpt>
      <trkpt lat="45.22259" lon="6.01686">
        <ele>1694</ele>
        <time>2019-04-14T08:09:27.009Z</time>
      </trkpt>
      <trkpt lat="45.22261" lon="6.01699">
        <ele>1694</ele>
        <time>2019-04-14T08:09:35.009Z</time>
      </trkpt>
      <trkpt lat="45.22263" lon="6.01712">
        <ele>1693</ele>
        <time>2019-04-14T08:09:43.009Z</time>
      </trkpt>
      <trkpt lat="45.22263" lon="6.01726">
        <ele>1693</ele>
        <time>2019-04-14T08:09:51.009Z</time>
      </trkpt>
      <trkpt lat="45.22262" lon="6.0174">
        <ele>1693</ele>
        <time>2019-04-14T08:09:59.009Z</time>
      </trkpt>
      <trkpt lat="45.22256" lon="6.01751">
        <ele>1692</ele>
        <time>2019-04-14T08:10:06.009Z</time>
      </trkpt>
      <trkpt lat="45.22246" lon="6.01756">
        <ele>1693</ele>
        <time>2019-04-14T08:10:17.009Z</time>
      </trkpt>
      <trkpt lat="45.22236" lon="6.01754">
        <ele>1695</ele>
        <time>2019-04-14T08:10:32.009Z</time>
      </trkpt>
      <trkpt lat="45.22226" lon="6.01757">
        <ele>1697</ele>
        <time>2019-04-14T08:10:44.009Z</time>
      </trkpt>
      <trkpt lat="45.22219" lon="6.01768">
        <ele>1699</ele>
        <time>2019-04-14T08:10:57.009Z</time>
      </trkpt>
      <trkpt lat="45.22217" lon="6.01783">
        <ele>1700</ele>
        <time>2019-04-14T08:11:09.009Z</time>
      </trkpt>
      <trkpt lat="45.22224" lon="6.01794">
        <ele>1702</ele>
        <time>2019-04-14T08:11:19.009Z</time>
      </trkpt>
      <trkpt lat="45.22231" lon="6.01803">
        <ele>1703</ele>
        <time>2019-04-14T08:11:26.009Z</time>
      </trkpt>
      <trkpt lat="45.22237" lon="6.01815">
        <ele>1703</ele>
        <time>2019-04-14T08:11:38.009Z</time>
      </trkpt>
      <trkpt lat="45.2224" lon="6.01828">
        <ele>1705</ele>
        <time>2019-04-14T08:11:49.009Z</time>
      </trkpt>
      <trkpt lat="45.22243" lon="6.01843">
        <ele>1709</ele>
        <time>2019-04-14T08:12:03.009Z</time>
      </trkpt>
      <trkpt lat="45.22241" lon="6.01857">
        <ele>1710</ele>
        <time>2019-04-14T08:12:13.009Z</time>
      </trkpt>
      <trkpt lat="45.22245" lon="6.01871">
        <ele>1712</ele>
        <time>2019-04-14T08:12:24.009Z</time>
      </trkpt>
      <trkpt lat="45.22245" lon="6.01879">
        <ele>1712</ele>
        <time>2019-04-14T08:12:29.009Z</time>
      </trkpt>
      <trkpt lat="45.22245" lon="6.01886">
        <ele>1713</ele>
        <time>2019-04-14T08:12:34.009Z</time>
      </trkpt>
      <trkpt lat="45.22247" lon="6.019">
        <ele>1714</ele>
        <time>2019-04-14T08:16:19.009Z</time>
      </trkpt>
      <trkpt lat="45.22245" lon="6.01915">
        <ele>1716</ele>
        <time>2019-04-14T08:16:29.009Z</time>
      </trkpt>
      <trkpt lat="45.22244" lon="6.01927">
        <ele>1718</ele>
        <time>2019-04-14T08:16:40.009Z</time>
      </trkpt>
      <trkpt lat="45.22243" lon="6.01941">
        <ele>1719</ele>
        <time>2019-04-14T08:16:52.009Z</time>
      </trkpt>
      <trkpt lat="45.22241" lon="6.01951">
        <ele>1719</ele>
        <time>2019-04-14T08:16:59.009Z</time>
      </trkpt>
      <trkpt lat="45.2224" lon="6.01966">
        <ele>1719</ele>
        <time>2019-04-14T08:17:08.009Z</time>
      </trkpt>
      <trkpt lat="45.22242" lon="6.01979">
        <ele>1719</ele>
        <time>2019-04-14T08:17:19.009Z</time>
      </trkpt>
      <trkpt lat="45.22245" lon="6.01993">
        <ele>1722</ele>
        <time>2019-04-14T08:17:33.009Z</time>
      </trkpt>
      <trkpt lat="45.22247" lon="6.02006">
        <ele>1724</ele>
        <time>2019-04-14T08:17:47.009Z</time>
      </trkpt>
      <trkpt lat="45.22248" lon="6.02021">
        <ele>1728</ele>
        <time>2019-04-14T08:18:15.009Z</time>
      </trkpt>
      <trkpt lat="45.22248" lon="6.02035">
        <ele>1729</ele>
        <time>2019-04-14T08:18:27.009Z</time>
      </trkpt>
      <trkpt lat="45.22246" lon="6.02049">
        <ele>1731</ele>
        <time>2019-04-14T08:18:40.009Z</time>
      </trkpt>
      <trkpt lat="45.22248" lon="6.02063">
        <ele>1735</ele>
        <time>2019-04-14T08:18:55.009Z</time>
      </trkpt>
      <trkpt lat="45.22252" lon="6.02077">
        <ele>1737.9676768722</ele>
        <time>2019-04-14T08:19:11.009Z</time>
      </trkpt>
      <trkpt lat="45.22253" lon="6.02091">
        <ele>1741</ele>
        <time>2019-04-14T08:19:27.009Z</time>
      </trkpt>
      <trkpt lat="45.22252" lon="6.02105">
        <ele>1743</ele>
        <time>2019-04-14T08:19:39.009Z</time>
      </trkpt>
      <trkpt lat="45.22252" lon="6.02118">
        <ele>1743</ele>
        <time>2019-04-14T08:19:48.009Z</time>
      </trkpt>
      <trkpt lat="45.22247" lon="6.02131">
        <ele>1743</ele>
        <time>2019-04-14T08:19:59.009Z</time>
      </trkpt>
      <trkpt lat="45.22242" lon="6.02144">
        <ele>1744</ele>
        <time>2019-04-14T08:20:08.009Z</time>
      </trkpt>
      <trkpt lat="45.22239" lon="6.02158">
        <ele>1747</ele>
        <time>2019-04-14T08:20:22.009Z</time>
      </trkpt>
      <trkpt lat="45.22237" lon="6.02171">
        <ele>1749</ele>
        <time>2019-04-14T08:22:05.009Z</time>
      </trkpt>
      <trkpt lat="45.2223" lon="6.02184">
        <ele>1751</ele>
        <time>2019-04-14T08:22:16.009Z</time>
      </trkpt>
      <trkpt lat="45.22223" lon="6.02196">
        <ele>1753</ele>
        <time>2019-04-14T08:22:28.009Z</time>
      </trkpt>
      <trkpt lat="45.22215" lon="6.02203">
        <ele>1753</ele>
        <time>2019-04-14T08:22:46.009Z</time>
      </trkpt>
      <trkpt lat="45.22212" lon="6.02218">
        <ele>1755</ele>
        <time>2019-04-14T08:23:53.009Z</time>
      </trkpt>
      <trkpt lat="45.22206" lon="6.0223">
        <ele>1757</ele>
        <time>2019-04-14T08:24:15.009Z</time>
      </trkpt>
      <trkpt lat="45.22198" lon="6.02241">
        <ele>1758</ele>
        <time>2019-04-14T08:24:29.009Z</time>
      </trkpt>
      <trkpt lat="45.2219" lon="6.02249">
        <ele>1761.4669952</ele>
        <time>2019-04-14T08:24:41.009Z</time>
      </trkpt>
      <trkpt lat="45.22186" lon="6.02262">
        <ele>1764</ele>
        <time>2019-04-14T08:25:09.009Z</time>
      </trkpt>
      <trkpt lat="45.22176" lon="6.02269">
        <ele>1768</ele>
        <time>2019-04-14T08:25:23.009Z</time>
      </trkpt>
      <trkpt lat="45.22167" lon="6.02276">
        <ele>1769</ele>
        <time>2019-04-14T08:25:34.009Z</time>
      </trkpt>
      <trkpt lat="45.22157" lon="6.02277">
        <ele>1771</ele>
        <time>2019-04-14T08:25:45.009Z</time>
      </trkpt>
      <trkpt lat="45.22147" lon="6.02276">
        <ele>1775</ele>
        <time>2019-04-14T08:26:02.009Z</time>
      </trkpt>
      <trkpt lat="45.22137" lon="6.02275">
        <ele>1779</ele>
        <time>2019-04-14T08:26:24.009Z</time>
      </trkpt>
      <trkpt lat="45.22127" lon="6.02272">
        <ele>1781.4889984</ele>
        <time>2019-04-14T08:26:41.009Z</time>
      </trkpt>
      <trkpt lat="45.22118" lon="6.02266">
        <ele>1782</ele>
        <time>2019-04-14T08:26:50.009Z</time>
      </trkpt>
      <trkpt lat="45.22112" lon="6.02278">
        <ele>1789</ele>
        <time>2019-04-14T08:27:13.009Z</time>
      </trkpt>
      <trkpt lat="45.22102" lon="6.02276">
        <ele>1790</ele>
        <time>2019-04-14T08:27:32.009Z</time>
      </trkpt>
      <trkpt lat="45.22092" lon="6.02272">
        <ele>1793</ele>
        <time>2019-04-14T08:28:00.009Z</time>
      </trkpt>
      <trkpt lat="45.22083" lon="6.02266">
        <ele>1797</ele>
        <time>2019-04-14T08:28:12.009Z</time>
      </trkpt>
      <trkpt lat="45.22074" lon="6.02262">
        <ele>1801</ele>
        <time>2019-04-14T08:28:35.009Z</time>
      </trkpt>
      <trkpt lat="45.22067" lon="6.02269">
        <ele>1803</ele>
        <time>2019-04-14T08:28:49.009Z</time>
      </trkpt>
      <trkpt lat="45.2206" lon="6.02279">
        <ele>1807</ele>
        <time>2019-04-14T08:29:04.009Z</time>
      </trkpt>
      <trkpt lat="45.22063" lon="6.02291">
        <ele>1810</ele>
        <time>2019-04-14T08:29:31.009Z</time>
      </trkpt>
      <trkpt lat="45.22054" lon="6.02292">
        <ele>1812</ele>
        <time>2019-04-14T08:29:54.009Z</time>
      </trkpt>
      <trkpt lat="45.22044" lon="6.02294">
        <ele>1814</ele>
        <time>2019-04-14T08:30:09.009Z</time>
      </trkpt>
      <trkpt lat="45.22037" lon="6.02302">
        <ele>1818</ele>
        <time>2019-04-14T08:30:22.009Z</time>
      </trkpt>
      <trkpt lat="45.22031" lon="6.02311">
        <ele>1819</ele>
        <time>2019-04-14T08:30:38.009Z</time>
      </trkpt>
      <trkpt lat="45.22025" lon="6.0232">
        <ele>1822.4889984</ele>
        <time>2019-04-14T08:30:51.009Z</time>
      </trkpt>
      <trkpt lat="45.2202" lon="6.02328">
        <ele>1824.5110016</ele>
        <time>2019-04-14T08:31:08.009Z</time>
      </trkpt>
      <trkpt lat="45.22014" lon="6.02337">
        <ele>1828</ele>
        <time>2019-04-14T08:31:22.009Z</time>
      </trkpt>
      <trkpt lat="45.22008" lon="6.02347">
        <ele>1829</ele>
        <time>2019-04-14T08:32:14.009Z</time>
      </trkpt>
      <trkpt lat="45.22" lon="6.02356">
        <ele>1833</ele>
        <time>2019-04-14T08:32:34.009Z</time>
      </trkpt>
      <trkpt lat="45.21993" lon="6.02363">
        <ele>1833</ele>
        <time>2019-04-14T08:32:49.009Z</time>
      </trkpt>
      <trkpt lat="45.21987" lon="6.02371">
        <ele>1837</ele>
        <time>2019-04-14T08:33:06.009Z</time>
      </trkpt>
      <trkpt lat="45.21977" lon="6.02369">
        <ele>1841</ele>
        <time>2019-04-14T08:33:27.009Z</time>
      </trkpt>
      <trkpt lat="45.21972" lon="6.02362">
        <ele>1842</ele>
        <time>2019-04-14T08:33:35.009Z</time>
      </trkpt>
      <trkpt lat="45.21967" lon="6.0235">
        <ele>1846</ele>
        <time>2019-04-14T08:33:57.009Z</time>
      </trkpt>
      <trkpt lat="45.21957" lon="6.02353">
        <ele>1850</ele>
        <time>2019-04-14T08:34:13.009Z</time>
      </trkpt>
      <trkpt lat="45.21949" lon="6.02357">
        <ele>1850</ele>
        <time>2019-04-14T08:34:30.009Z</time>
      </trkpt>
      <trkpt lat="45.21941" lon="6.02366">
        <ele>1854</ele>
        <time>2019-04-14T08:34:50.009Z</time>
      </trkpt>
      <trkpt lat="45.21935" lon="6.02376">
        <ele>1858</ele>
        <time>2019-04-14T08:35:08.009Z</time>
      </trkpt>
      <trkpt lat="45.21929" lon="6.0239">
        <ele>1864</ele>
        <time>2019-04-14T08:35:28.009Z</time>
      </trkpt>
      <trkpt lat="45.21928" lon="6.02404">
        <ele>1868</ele>
        <time>2019-04-14T08:35:50.009Z</time>
      </trkpt>
      <trkpt lat="45.21927" lon="6.0241">
        <ele>1871</ele>
        <time>2019-04-14T08:35:58.009Z</time>
      </trkpt>
      <trkpt lat="45.21923" lon="6.02423">
        <ele>1876</ele>
        <time>2019-04-14T08:36:22.009Z</time>
      </trkpt>
      <trkpt lat="45.21916" lon="6.02418">
        <ele>1879</ele>
        <time>2019-04-14T08:36:42.009Z</time>
      </trkpt>
      <trkpt lat="45.21906" lon="6.02415">
        <ele>1883</ele>
        <time>2019-04-14T08:37:06.009Z</time>
      </trkpt>
      <trkpt lat="45.21896" lon="6.02409">
        <ele>1887</ele>
        <time>2019-04-14T08:37:23.009Z</time>
      </trkpt>
      <trkpt lat="45.21888" lon="6.02401">
        <ele>1890</ele>
        <time>2019-04-14T08:37:44.009Z</time>
      </trkpt>
      <trkpt lat="45.21878" lon="6.02395">
        <ele>1894</ele>
        <time>2019-04-14T08:38:04.009Z</time>
      </trkpt>
      <trkpt lat="45.21869" lon="6.02389">
        <ele>1898</ele>
        <time>2019-04-14T08:38:27.009Z</time>
      </trkpt>
      <trkpt lat="45.2186" lon="6.02382">
        <ele>1901</ele>
        <time>2019-04-14T08:38:42.009Z</time>
      </trkpt>
      <trkpt lat="45.21852" lon="6.02376">
        <ele>1902</ele>
        <time>2019-04-14T08:38:54.009Z</time>
      </trkpt>
      <trkpt lat="45.21848" lon="6.02373">
        <ele>1902</ele>
        <time>2019-04-14T08:39:00.009Z</time>
      </trkpt>
      <trkpt lat="45.21851" lon="6.02385">
        <ele>1906</ele>
        <time>2019-04-14T08:39:16.009Z</time>
      </trkpt>
      <trkpt lat="45.21852" lon="6.02395">
        <ele>1908</ele>
        <time>2019-04-14T08:39:30.009Z</time>
      </trkpt>
      <trkpt lat="45.21851" lon="6.02401">
        <ele>1908</ele>
        <time>2019-04-14T08:39:38.009Z</time>
      </trkpt>
      <trkpt lat="45.21845" lon="6.02403">
        <ele>1913.4889984</ele>
        <time>2019-04-14T08:40:06.009Z</time>
      </trkpt>
      <trkpt lat="45.21843" lon="6.02411">
        <ele>1917</ele>
        <time>2019-04-14T08:40:33.009Z</time>
      </trkpt>
      <trkpt lat="45.21844" lon="6.02416">
        <ele>1918</ele>
        <time>2019-04-14T08:40:39.009Z</time>
      </trkpt>
      <trkpt lat="45.21845" lon="6.02423">
        <ele>1918</ele>
        <time>2019-04-14T08:40:49.009Z</time>
      </trkpt>
      <trkpt lat="45.21846" lon="6.0243">
        <ele>1921</ele>
        <time>2019-04-14T08:40:59.009Z</time>
      </trkpt>
      <trkpt lat="45.21848" lon="6.02439">
        <ele>1925</ele>
        <time>2019-04-14T08:41:12.009Z</time>
      </trkpt>
      <trkpt lat="45.21849" lon="6.02449">
        <ele>1926</ele>
        <time>2019-04-14T08:41:24.009Z</time>
      </trkpt>
      <trkpt lat="45.2185" lon="6.0246">
        <ele>1927</ele>
        <time>2019-04-14T08:41:40.009Z</time>
      </trkpt>
      <trkpt lat="45.21852" lon="6.0247">
        <ele>1930</ele>
        <time>2019-04-14T08:41:49.009Z</time>
      </trkpt>
      <trkpt lat="45.21854" lon="6.02478">
        <ele>1932</ele>
        <time>2019-04-14T08:41:58.009Z</time>
      </trkpt>
      <trkpt lat="45.21859" lon="6.02484">
        <ele>1934</ele>
        <time>2019-04-14T08:42:07.009Z</time>
      </trkpt>
      <trkpt lat="45.2186" lon="6.02493">
        <ele>1936</ele>
        <time>2019-04-14T08:42:19.009Z</time>
      </trkpt>
      <trkpt lat="45.21859" lon="6.025">
        <ele>1938</ele>
        <time>2019-04-14T08:42:28.009Z</time>
      </trkpt>
      <trkpt lat="45.21858" lon="6.02509">
        <ele>1939</ele>
        <time>2019-04-14T08:42:37.009Z</time>
      </trkpt>
      <trkpt lat="45.21858" lon="6.02518">
        <ele>1942.4889984</ele>
        <time>2019-04-14T08:42:51.009Z</time>
      </trkpt>
      <trkpt lat="45.21858" lon="6.02526">
        <ele>1945</ele>
        <time>2019-04-14T08:43:00.009Z</time>
      </trkpt>
      <trkpt lat="45.21858" lon="6.02534">
        <ele>1947.4889984</ele>
        <time>2019-04-14T08:43:11.009Z</time>
      </trkpt>
      <trkpt lat="45.21857" lon="6.02542">
        <ele>1950</ele>
        <time>2019-04-14T08:43:24.009Z</time>
      </trkpt>
      <trkpt lat="45.21858" lon="6.02551">
        <ele>1952</ele>
        <time>2019-04-14T08:43:35.009Z</time>
      </trkpt>
      <trkpt lat="45.21849" lon="6.02545">
        <ele>1954</ele>
        <time>2019-04-14T08:44:00.009Z</time>
      </trkpt>
      <trkpt lat="45.21847" lon="6.02552">
        <ele>1958</ele>
        <time>2019-04-14T08:44:28.009Z</time>
      </trkpt>
      <trkpt lat="45.21847" lon="6.02561">
        <ele>1959</ele>
        <time>2019-04-14T08:44:38.009Z</time>
      </trkpt>
      <trkpt lat="45.21848" lon="6.02565">
        <ele>1960</ele>
        <time>2019-04-14T08:44:45.009Z</time>
      </trkpt>
      <trkpt lat="45.21848" lon="6.02572">
        <ele>1963</ele>
        <time>2019-04-14T08:45:33.009Z</time>
      </trkpt>
      <trkpt lat="45.21848" lon="6.02582">
        <ele>1962</ele>
        <time>2019-04-14T08:47:16.009Z</time>
      </trkpt>
      <trkpt lat="45.21847" lon="6.02596">
        <ele>1962</ele>
        <time>2019-04-14T08:47:28.009Z</time>
      </trkpt>
      <trkpt lat="45.21845" lon="6.02609">
        <ele>1965</ele>
        <time>2019-04-14T08:47:39.009Z</time>
      </trkpt>
      <trkpt lat="45.2184" lon="6.02621">
        <ele>1967.4889984</ele>
        <time>2019-04-14T08:47:51.009Z</time>
      </trkpt>
      <trkpt lat="45.2184" lon="6.02629">
        <ele>1968</ele>
        <time>2019-04-14T08:47:59.009Z</time>
      </trkpt>
      <trkpt lat="45.21839" lon="6.02637">
        <ele>1969</ele>
        <time>2019-04-14T08:48:06.009Z</time>
      </trkpt>
      <trkpt lat="45.21838" lon="6.02645">
        <ele>1970.5110016</ele>
        <time>2019-04-14T08:48:13.009Z</time>
      </trkpt>
      <trkpt lat="45.21836" lon="6.02653">
        <ele>1971</ele>
        <time>2019-04-14T08:48:20.009Z</time>
      </trkpt>
      <trkpt lat="45.21834" lon="6.02661">
        <ele>1971</ele>
        <time>2019-04-14T08:48:26.009Z</time>
      </trkpt>
      <trkpt lat="45.21834" lon="6.02667">
        <ele>1971</ele>
        <time>2019-04-14T08:48:34.009Z</time>
      </trkpt>
      <trkpt lat="45.21833" lon="6.02674">
        <ele>1972</ele>
        <time>2019-04-14T08:48:47.009Z</time>
      </trkpt>
      <trkpt lat="45.21831" lon="6.02681">
        <ele>1972</ele>
        <time>2019-04-14T08:48:51.009Z</time>
      </trkpt>
      <trkpt lat="45.2183" lon="6.02688">
        <ele>1972</ele>
        <time>2019-04-14T08:48:55.009Z</time>
      </trkpt>
      <trkpt lat="45.2183" lon="6.02694">
        <ele>1971.5110016</ele>
        <time>2019-04-14T08:48:59.009Z</time>
      </trkpt>
      <trkpt lat="45.21829" lon="6.02703">
        <ele>1970</ele>
        <time>2019-04-14T08:49:05.009Z</time>
      </trkpt>
      <trkpt lat="45.21829" lon="6.02712">
        <ele>1970.9779968</ele>
        <time>2019-04-14T08:49:11.009Z</time>
      </trkpt>
      <trkpt lat="45.21827" lon="6.02721">
        <ele>1972</ele>
        <time>2019-04-14T08:49:17.009Z</time>
      </trkpt>
      <trkpt lat="45.21824" lon="6.0273">
        <ele>1973</ele>
        <time>2019-04-14T08:49:25.009Z</time>
      </trkpt>
      <trkpt lat="45.21823" lon="6.02737">
        <ele>1973</ele>
        <time>2019-04-14T08:49:30.009Z</time>
      </trkpt>
      <trkpt lat="45.21822" lon="6.02744">
        <ele>1975</ele>
        <time>2019-04-14T08:49:36.009Z</time>
      </trkpt>
      <trkpt lat="45.21822" lon="6.0275">
        <ele>1975</ele>
        <time>2019-04-14T08:49:42.009Z</time>
      </trkpt>
      <trkpt lat="45.2182" lon="6.02756">
        <ele>1975</ele>
        <time>2019-04-14T08:49:46.009Z</time>
      </trkpt>
      <trkpt lat="45.21819" lon="6.02761">
        <ele>1975</ele>
        <time>2019-04-14T08:49:50.009Z</time>
      </trkpt>
      <trkpt lat="45.21818" lon="6.02768">
        <ele>1977</ele>
        <time>2019-04-14T08:49:55.009Z</time>
      </trkpt>
      <trkpt lat="45.21818" lon="6.02776">
        <ele>1978</ele>
        <time>2019-04-14T08:50:01.009Z</time>
      </trkpt>
      <trkpt lat="45.21815" lon="6.02783">
        <ele>1978</ele>
        <time>2019-04-14T08:50:06.009Z</time>
      </trkpt>
      <trkpt lat="45.21812" lon="6.02788">
        <ele>1978</ele>
        <time>2019-04-14T08:50:11.009Z</time>
      </trkpt>
      <trkpt lat="45.2181" lon="6.02794">
        <ele>1977</ele>
        <time>2019-04-14T08:50:16.009Z</time>
      </trkpt>
      <trkpt lat="45.21808" lon="6.028">
        <ele>1977.9779968</ele>
        <time>2019-04-14T08:50:21.009Z</time>
      </trkpt>
      <trkpt lat="45.21805" lon="6.02806">
        <ele>1979</ele>
        <time>2019-04-14T08:50:26.009Z</time>
      </trkpt>
      <trkpt lat="45.21803" lon="6.02812">
        <ele>1981</ele>
        <time>2019-04-14T08:50:32.009Z</time>
      </trkpt>
      <trkpt lat="45.218" lon="6.02819">
        <ele>1981</ele>
        <time>2019-04-14T08:50:38.009Z</time>
      </trkpt>
      <trkpt lat="45.21798" lon="6.02826">
        <ele>1982</ele>
        <time>2019-04-14T08:50:44.009Z</time>
      </trkpt>
      <trkpt lat="45.21796" lon="6.02833">
        <ele>1981</ele>
        <time>2019-04-14T08:50:50.009Z</time>
      </trkpt>
      <trkpt lat="45.21794" lon="6.02839">
        <ele>1983</ele>
        <time>2019-04-14T08:50:55.009Z</time>
      </trkpt>
      <trkpt lat="45.21792" lon="6.02845">
        <ele>1984</ele>
        <time>2019-04-14T08:51:01.009Z</time>
      </trkpt>
      <trkpt lat="45.21789" lon="6.02852">
        <ele>1984</ele>
        <time>2019-04-14T08:51:07.009Z</time>
      </trkpt>
      <trkpt lat="45.21786" lon="6.02858">
        <ele>1985</ele>
        <time>2019-04-14T08:51:13.009Z</time>
      </trkpt>
      <trkpt lat="45.21784" lon="6.02864">
        <ele>1985</ele>
        <time>2019-04-14T08:51:18.009Z</time>
      </trkpt>
      <trkpt lat="45.21781" lon="6.02872">
        <ele>1987</ele>
        <time>2019-04-14T08:51:25.009Z</time>
      </trkpt>
      <trkpt lat="45.21777" lon="6.02881">
        <ele>1989</ele>
        <time>2019-04-14T08:51:34.009Z</time>
      </trkpt>
      <trkpt lat="45.21773" lon="6.02895">
        <ele>1990.4889984</ele>
        <time>2019-04-14T08:51:46.009Z</time>
      </trkpt>
      <trkpt lat="45.21769" lon="6.02908">
        <ele>1993</ele>
        <time>2019-04-14T08:52:00.009Z</time>
      </trkpt>
      <trkpt lat="45.21769" lon="6.02917">
        <ele>1993</ele>
        <time>2019-04-14T08:52:08.009Z</time>
      </trkpt>
      <trkpt lat="45.21769" lon="6.02929">
        <ele>1997.4889984</ele>
        <time>2019-04-14T08:52:21.009Z</time>
      </trkpt>
      <trkpt lat="45.21769" lon="6.02934">
        <ele>1998</ele>
        <time>2019-04-14T08:52:25.009Z</time>
      </trkpt>
      <trkpt lat="45.2177" lon="6.02942">
        <ele>2000</ele>
        <time>2019-04-14T08:52:32.009Z</time>
      </trkpt>
      <trkpt lat="45.21773" lon="6.02954">
        <ele>2001</ele>
        <time>2019-04-14T08:52:44.009Z</time>
      </trkpt>
      <trkpt lat="45.21771" lon="6.02962">
        <ele>2002</ele>
        <time>2019-04-14T08:53:00.009Z</time>
      </trkpt>
      <trkpt lat="45.21769" lon="6.02967">
        <ele>2001</ele>
        <time>2019-04-14T08:53:16.009Z</time>
      </trkpt>
      <trkpt lat="45.21766" lon="6.02967">
        <ele>1998</ele>
        <time>2019-04-14T08:56:34.009Z</time>
      </trkpt>
      <trkpt lat="45.21763" lon="6.02967">
        <ele>1998</ele>
        <time>2019-04-14T08:56:39.009Z</time>
      </trkpt>
      <trkpt lat="45.2176" lon="6.02967">
        <ele>1997</ele>
        <time>2019-04-14T08:56:42.009Z</time>
      </trkpt>
      <trkpt lat="45.21757" lon="6.02965">
        <ele>1997</ele>
        <time>2019-04-14T08:56:45.009Z</time>
      </trkpt>
      <trkpt lat="45.21753" lon="6.02966">
        <ele>1995</ele>
        <time>2019-04-14T08:59:46.009Z</time>
      </trkpt>
      <trkpt lat="45.2175" lon="6.0296">
        <ele>1994</ele>
        <time>2019-04-14T09:00:16.009Z</time>
      </trkpt>
      <trkpt lat="45.21747" lon="6.02955">
        <ele>1994</ele>
        <time>2019-04-14T09:00:19.009Z</time>
      </trkpt>
      <trkpt lat="45.21744" lon="6.0295">
        <ele>1994</ele>
        <time>2019-04-14T09:00:24.009Z</time>
      </trkpt>
      <trkpt lat="45.21741" lon="6.02943">
        <ele>1994</ele>
        <time>2019-04-14T09:00:32.009Z</time>
      </trkpt>
      <trkpt lat="45.21736" lon="6.02933">
        <ele>1995</ele>
        <time>2019-04-14T09:00:47.009Z</time>
      </trkpt>
      <trkpt lat="45.21735" lon="6.02919">
        <ele>2001</ele>
        <time>2019-04-14T09:01:04.009Z</time>
      </trkpt>
      <trkpt lat="45.21736" lon="6.02908">
        <ele>2001</ele>
        <time>2019-04-14T09:01:17.009Z</time>
      </trkpt>
      <trkpt lat="45.21735" lon="6.02899">
        <ele>2004</ele>
        <time>2019-04-14T09:01:25.009Z</time>
      </trkpt>
      <trkpt lat="45.21727" lon="6.02901">
        <ele>2005</ele>
        <time>2019-04-14T09:01:39.009Z</time>
      </trkpt>
      <trkpt lat="45.21721" lon="6.02905">
        <ele>2008</ele>
        <time>2019-04-14T09:01:52.009Z</time>
      </trkpt>
      <trkpt lat="45.21713" lon="6.02905">
        <ele>2011</ele>
        <time>2019-04-14T09:02:04.009Z</time>
      </trkpt>
      <trkpt lat="45.21708" lon="6.029">
        <ele>2014</ele>
        <time>2019-04-14T09:02:19.009Z</time>
      </trkpt>
      <trkpt lat="45.21707" lon="6.02891">
        <ele>2016</ele>
        <time>2019-04-14T09:02:33.009Z</time>
      </trkpt>
      <trkpt lat="45.21702" lon="6.02887">
        <ele>2019.4889984</ele>
        <time>2019-04-14T09:02:51.009Z</time>
      </trkpt>
      <trkpt lat="45.217" lon="6.02877">
        <ele>2022</ele>
        <time>2019-04-14T09:03:04.009Z</time>
      </trkpt>
      <trkpt lat="45.21695" lon="6.02874">
        <ele>2022</ele>
        <time>2019-04-14T09:03:13.009Z</time>
      </trkpt>
      <trkpt lat="45.2169" lon="6.02873">
        <ele>2022</ele>
        <time>2019-04-14T09:03:16.009Z</time>
      </trkpt>
      <trkpt lat="45.21682" lon="6.02867">
        <ele>2020</ele>
        <time>2019-04-14T09:03:26.009Z</time>
      </trkpt>
      <trkpt lat="45.21674" lon="6.02866">
        <ele>2020</ele>
        <time>2019-04-14T09:03:34.009Z</time>
      </trkpt>
      <trkpt lat="45.21668" lon="6.02865">
        <ele>2019.5110016</ele>
        <time>2019-04-14T09:03:41.009Z</time>
      </trkpt>
      <trkpt lat="45.21661" lon="6.02865">
        <ele>2019</ele>
        <time>2019-04-14T09:03:48.009Z</time>
      </trkpt>
      <trkpt lat="45.21651" lon="6.02868">
        <ele>2019.9779968</ele>
        <time>2019-04-14T09:04:01.009Z</time>
      </trkpt>
      <trkpt lat="45.21643" lon="6.02863">
        <ele>2023</ele>
        <time>2019-04-14T09:04:12.009Z</time>
      </trkpt>
      <trkpt lat="45.21638" lon="6.02857">
        <ele>2024</ele>
        <time>2019-04-14T09:04:26.009Z</time>
      </trkpt>
      <trkpt lat="45.21632" lon="6.0285">
        <ele>2027</ele>
        <time>2019-04-14T09:04:38.009Z</time>
      </trkpt>
      <trkpt lat="45.21625" lon="6.02839">
        <ele>2029</ele>
        <time>2019-04-14T09:04:52.009Z</time>
      </trkpt>
      <trkpt lat="45.21621" lon="6.02834">
        <ele>2029</ele>
        <time>2019-04-14T09:04:59.009Z</time>
      </trkpt>
      <trkpt lat="45.21613" lon="6.02825">
        <ele>2035</ele>
        <time>2019-04-14T09:05:12.009Z</time>
      </trkpt>
      <trkpt lat="45.21604" lon="6.02818">
        <ele>2038</ele>
        <time>2019-04-14T09:05:28.009Z</time>
      </trkpt>
      <trkpt lat="45.21596" lon="6.02812">
        <ele>2041</ele>
        <time>2019-04-14T09:05:43.009Z</time>
      </trkpt>
      <trkpt lat="45.21589" lon="6.02803">
        <ele>2046</ele>
        <time>2019-04-14T09:06:02.009Z</time>
      </trkpt>
      <trkpt lat="45.21581" lon="6.02806">
        <ele>2048</ele>
        <time>2019-04-14T09:06:13.009Z</time>
      </trkpt>
      <trkpt lat="45.21575" lon="6.02803">
        <ele>2050</ele>
        <time>2019-04-14T09:06:29.009Z</time>
      </trkpt>
      <trkpt lat="45.2157" lon="6.02798">
        <ele>2052</ele>
        <time>2019-04-14T09:06:35.009Z</time>
      </trkpt>
      <trkpt lat="45.21566" lon="6.02792">
        <ele>2052</ele>
        <time>2019-04-14T09:06:41.009Z</time>
      </trkpt>
      <trkpt lat="45.21563" lon="6.02788">
        <ele>2052</ele>
        <time>2019-04-14T09:06:46.009Z</time>
      </trkpt>
      <trkpt lat="45.21559" lon="6.02787">
        <ele>2054</ele>
        <time>2019-04-14T09:07:40.009Z</time>
      </trkpt>
      <trkpt lat="45.21556" lon="6.02786">
        <ele>2054</ele>
        <time>2019-04-14T09:07:44.009Z</time>
      </trkpt>
      <trkpt lat="45.21552" lon="6.02784">
        <ele>2054</ele>
        <time>2019-04-14T09:07:48.009Z</time>
      </trkpt>
      <trkpt lat="45.21548" lon="6.02781">
        <ele>2056</ele>
        <time>2019-04-14T09:07:53.009Z</time>
      </trkpt>
      <trkpt lat="45.21544" lon="6.02778">
        <ele>2058</ele>
        <time>2019-04-14T09:08:00.009Z</time>
      </trkpt>
      <trkpt lat="45.21539" lon="6.02776">
        <ele>2056</ele>
        <time>2019-04-14T09:08:06.009Z</time>
      </trkpt>
      <trkpt lat="45.21535" lon="6.02776">
        <ele>2058</ele>
        <time>2019-04-14T09:08:13.009Z</time>
      </trkpt>
      <trkpt lat="45.21531" lon="6.02776">
        <ele>2061</ele>
        <time>2019-04-14T09:08:18.009Z</time>
      </trkpt>
      <trkpt lat="45.21527" lon="6.02774">
        <ele>2060</ele>
        <time>2019-04-14T09:08:25.009Z</time>
      </trkpt>
      <trkpt lat="45.21524" lon="6.0277">
        <ele>2063.5110016</ele>
        <time>2019-04-14T09:08:32.009Z</time>
      </trkpt>
      <trkpt lat="45.21521" lon="6.02764">
        <ele>2065.5110016</ele>
        <time>2019-04-14T09:08:40.009Z</time>
      </trkpt>
      <trkpt lat="45.21518" lon="6.02761">
        <ele>2068</ele>
        <time>2019-04-14T09:08:47.009Z</time>
      </trkpt>
      <trkpt lat="45.21515" lon="6.02756">
        <ele>2068</ele>
        <time>2019-04-14T09:08:54.009Z</time>
      </trkpt>
      <trkpt lat="45.21513" lon="6.02751">
        <ele>2068</ele>
        <time>2019-04-14T09:09:00.009Z</time>
      </trkpt>
      <trkpt lat="45.21511" lon="6.02745">
        <ele>2069</ele>
        <time>2019-04-14T09:09:07.009Z</time>
      </trkpt>
      <trkpt lat="45.21507" lon="6.02739">
        <ele>2071</ele>
        <time>2019-04-14T09:09:13.009Z</time>
      </trkpt>
      <trkpt lat="45.21503" lon="6.02733">
        <ele>2072</ele>
        <time>2019-04-14T09:09:22.009Z</time>
      </trkpt>
      <trkpt lat="45.21498" lon="6.02729">
        <ele>2072</ele>
        <time>2019-04-14T09:09:29.009Z</time>
      </trkpt>
      <trkpt lat="45.21494" lon="6.02725">
        <ele>2075</ele>
        <time>2019-04-14T09:09:37.009Z</time>
      </trkpt>
      <trkpt lat="45.21492" lon="6.02715">
        <ele>2075</ele>
        <time>2019-04-14T09:09:49.009Z</time>
      </trkpt>
      <trkpt lat="45.21484" lon="6.02706">
        <ele>2079</ele>
        <time>2019-04-14T09:10:04.009Z</time>
      </trkpt>
      <trkpt lat="45.21479" lon="6.02698">
        <ele>2083</ele>
        <time>2019-04-14T09:10:54.009Z</time>
      </trkpt>
      <trkpt lat="45.21478" lon="6.02694">
        <ele>2083</ele>
        <time>2019-04-14T09:10:58.009Z</time>
      </trkpt>
      <trkpt lat="45.21477" lon="6.02692">
        <ele>2083.9779968</ele>
        <time>2019-04-14T09:11:01.009Z</time>
      </trkpt>
      <trkpt lat="45.21476" lon="6.02688">
        <ele>2085</ele>
        <time>2019-04-14T09:11:04.009Z</time>
      </trkpt>
      <trkpt lat="45.21474" lon="6.02683">
        <ele>2086</ele>
        <time>2019-04-14T09:11:34.009Z</time>
      </trkpt>
      <trkpt lat="45.21472" lon="6.02679">
        <ele>2086</ele>
        <time>2019-04-14T09:11:38.009Z</time>
      </trkpt>
      <trkpt lat="45.21472" lon="6.02675">
        <ele>2086</ele>
        <time>2019-04-14T09:11:54.009Z</time>
      </trkpt>
      <trkpt lat="45.21472" lon="6.02668">
        <ele>2088</ele>
        <time>2019-04-14T09:12:02.009Z</time>
      </trkpt>
      <trkpt lat="45.21469" lon="6.02664">
        <ele>2089</ele>
        <time>2019-04-14T09:12:16.009Z</time>
      </trkpt>
      <trkpt lat="45.21467" lon="6.02657">
        <ele>2091</ele>
        <time>2019-04-14T09:12:32.009Z</time>
      </trkpt>
      <trkpt lat="45.21462" lon="6.02652">
        <ele>2093</ele>
        <time>2019-04-14T09:12:43.009Z</time>
      </trkpt>
      <trkpt lat="45.21458" lon="6.02649">
        <ele>2094</ele>
        <time>2019-04-14T09:12:51.009Z</time>
      </trkpt>
      <trkpt lat="45.21453" lon="6.02644">
        <ele>2094</ele>
        <time>2019-04-14T09:12:58.009Z</time>
      </trkpt>
      <trkpt lat="45.21447" lon="6.02638">
        <ele>2098</ele>
        <time>2019-04-14T09:13:10.009Z</time>
      </trkpt>
      <trkpt lat="45.21442" lon="6.02632">
        <ele>2099</ele>
        <time>2019-04-14T09:13:16.009Z</time>
      </trkpt>
      <trkpt lat="45.21438" lon="6.02626">
        <ele>2100</ele>
        <time>2019-04-14T09:13:25.009Z</time>
      </trkpt>
      <trkpt lat="45.21433" lon="6.02617">
        <ele>2102</ele>
        <time>2019-04-14T09:13:35.009Z</time>
      </trkpt>
      <trkpt lat="45.21431" lon="6.02607">
        <ele>2103</ele>
        <time>2019-04-14T09:13:43.009Z</time>
      </trkpt>
      <trkpt lat="45.2143" lon="6.02599">
        <ele>2103</ele>
        <time>2019-04-14T09:13:49.009Z</time>
      </trkpt>
      <trkpt lat="45.21425" lon="6.02593">
        <ele>2103</ele>
        <time>2019-04-14T09:14:38.009Z</time>
      </trkpt>
      <trkpt lat="45.21422" lon="6.0259">
        <ele>2103</ele>
        <time>2019-04-14T09:14:41.009Z</time>
      </trkpt>
      <trkpt lat="45.21419" lon="6.02588">
        <ele>2103</ele>
        <time>2019-04-14T09:14:44.009Z</time>
      </trkpt>
      <trkpt lat="45.21416" lon="6.02584">
        <ele>2103</ele>
        <time>2019-04-14T09:14:48.009Z</time>
      </trkpt>
      <trkpt lat="45.21414" lon="6.02582">
        <ele>2103</ele>
        <time>2019-04-14T09:14:52.009Z</time>
      </trkpt>
      <trkpt lat="45.21411" lon="6.02578">
        <ele>2103</ele>
        <time>2019-04-14T09:14:57.009Z</time>
      </trkpt>
      <trkpt lat="45.2141" lon="6.02575">
        <ele>2103</ele>
        <time>2019-04-14T09:15:00.009Z</time>
      </trkpt>
      <trkpt lat="45.21406" lon="6.02572">
        <ele>2103</ele>
        <time>2019-04-14T09:15:05.009Z</time>
      </trkpt>
      <trkpt lat="45.21404" lon="6.02568">
        <ele>2103</ele>
        <time>2019-04-14T09:15:09.009Z</time>
      </trkpt>
      <trkpt lat="45.214" lon="6.02559">
        <ele>2106</ele>
        <time>2019-04-14T09:15:19.009Z</time>
      </trkpt>
      <trkpt lat="45.21396" lon="6.02553">
        <ele>2106</ele>
        <time>2019-04-14T09:15:25.009Z</time>
      </trkpt>
      <trkpt lat="45.21391" lon="6.02545">
        <ele>2107</ele>
        <time>2019-04-14T09:15:35.009Z</time>
      </trkpt>
      <trkpt lat="45.21386" lon="6.02536">
        <ele>2108</ele>
        <time>2019-04-14T09:15:44.009Z</time>
      </trkpt>
      <trkpt lat="45.21379" lon="6.02529">
        <ele>2109</ele>
        <time>2019-04-14T09:15:55.009Z</time>
      </trkpt>
      <trkpt lat="45.21373" lon="6.0252">
        <ele>2110</ele>
        <time>2019-04-14T09:16:07.009Z</time>
      </trkpt>
      <trkpt lat="45.21367" lon="6.0251">
        <ele>2110</ele>
        <time>2019-04-14T09:16:17.009Z</time>
      </trkpt>
      <trkpt lat="45.21364" lon="6.02499">
        <ele>2111</ele>
        <time>2019-04-14T09:16:26.009Z</time>
      </trkpt>
      <trkpt lat="45.21357" lon="6.02488">
        <ele>2112</ele>
        <time>2019-04-14T09:16:37.009Z</time>
      </trkpt>
      <trkpt lat="45.21354" lon="6.02477">
        <ele>2114</ele>
        <time>2019-04-14T09:16:52.009Z</time>
      </trkpt>
      <trkpt lat="45.21353" lon="6.02469">
        <ele>2114</ele>
        <time>2019-04-14T09:17:02.009Z</time>
      </trkpt>
      <trkpt lat="45.21351" lon="6.0246">
        <ele>2114.9779968</ele>
        <time>2019-04-14T09:17:11.009Z</time>
      </trkpt>
      <trkpt lat="45.21349" lon="6.02447">
        <ele>2118.4889984</ele>
        <time>2019-04-14T09:17:26.009Z</time>
      </trkpt>
      <trkpt lat="45.21349" lon="6.02436">
        <ele>2120</ele>
        <time>2019-04-14T09:17:43.009Z</time>
      </trkpt>
      <trkpt lat="45.21347" lon="6.02429">
        <ele>2120</ele>
        <time>2019-04-14T09:17:49.009Z</time>
      </trkpt>
      <trkpt lat="45.21344" lon="6.02421">
        <ele>2119</ele>
        <time>2019-04-14T09:18:02.009Z</time>
      </trkpt>
      <trkpt lat="45.21343" lon="6.02407">
        <ele>2120</ele>
        <time>2019-04-14T09:18:19.009Z</time>
      </trkpt>
      <trkpt lat="45.21347" lon="6.02402">
        <ele>2126</ele>
        <time>2019-04-14T09:18:29.009Z</time>
      </trkpt>
      <trkpt lat="45.21347" lon="6.02391">
        <ele>2128</ele>
        <time>2019-04-14T09:18:43.009Z</time>
      </trkpt>
      <trkpt lat="45.21347" lon="6.02382">
        <ele>2128.4889984</ele>
        <time>2019-04-14T09:18:51.009Z</time>
      </trkpt>
      <trkpt lat="45.21346" lon="6.02374">
        <ele>2129</ele>
        <time>2019-04-14T09:18:57.009Z</time>
      </trkpt>
      <trkpt lat="45.21345" lon="6.02367">
        <ele>2128</ele>
        <time>2019-04-14T09:19:03.009Z</time>
      </trkpt>
      <trkpt lat="45.21344" lon="6.02361">
        <ele>2128</ele>
        <time>2019-04-14T09:19:10.009Z</time>
      </trkpt>
      <trkpt lat="45.2134" lon="6.02351">
        <ele>2131</ele>
        <time>2019-04-14T09:19:22.009Z</time>
      </trkpt>
      <trkpt lat="45.21336" lon="6.02336">
        <ele>2132</ele>
        <time>2019-04-14T09:19:36.009Z</time>
      </trkpt>
      <trkpt lat="45.21335" lon="6.02323">
        <ele>2135</ele>
        <time>2019-04-14T09:19:49.009Z</time>
      </trkpt>
      <trkpt lat="45.21334" lon="6.02315">
        <ele>2134</ele>
        <time>2019-04-14T09:23:13.009Z</time>
      </trkpt>
      <trkpt lat="45.21333" lon="6.02305">
        <ele>2135</ele>
        <time>2019-04-14T09:23:39.009Z</time>
      </trkpt>
      <trkpt lat="45.21333" lon="6.02294">
        <ele>2135</ele>
        <time>2019-04-14T09:23:46.009Z</time>
      </trkpt>
      <trkpt lat="45.21332" lon="6.02283">
        <ele>2135</ele>
        <time>2019-04-14T09:23:54.009Z</time>
      </trkpt>
      <trkpt lat="45.21332" lon="6.0227">
        <ele>2135</ele>
        <time>2019-04-14T09:24:03.009Z</time>
      </trkpt>
      <trkpt lat="45.2133" lon="6.0226">
        <ele>2135</ele>
        <time>2019-04-14T09:24:08.009Z</time>
      </trkpt>
      <trkpt lat="45.21328" lon="6.02253">
        <ele>2134</ele>
        <time>2019-04-14T09:24:12.009Z</time>
      </trkpt>
      <trkpt lat="45.21327" lon="6.02246">
        <ele>2134</ele>
        <time>2019-04-14T09:24:15.009Z</time>
      </trkpt>
      <trkpt lat="45.21325" lon="6.0224">
        <ele>2134</ele>
        <time>2019-04-14T09:24:20.009Z</time>
      </trkpt>
      <trkpt lat="45.21323" lon="6.02234">
        <ele>2131</ele>
        <time>2019-04-14T09:24:24.009Z</time>
      </trkpt>
      <trkpt lat="45.21321" lon="6.0223">
        <ele>2129.5330048</ele>
        <time>2019-04-14T09:24:26.009Z</time>
      </trkpt>
      <trkpt lat="45.21317" lon="6.02219">
        <ele>2130</ele>
        <time>2019-04-14T09:24:38.009Z</time>
      </trkpt>
      <trkpt lat="45.21318" lon="6.02211">
        <ele>2130</ele>
        <time>2019-04-14T09:24:46.009Z</time>
      </trkpt>
      <trkpt lat="45.21317" lon="6.02196">
        <ele>2130</ele>
        <time>2019-04-14T09:24:55.009Z</time>
      </trkpt>
      <trkpt lat="45.21318" lon="6.02182">
        <ele>2130</ele>
        <time>2019-04-14T09:25:05.009Z</time>
      </trkpt>
      <trkpt lat="45.21319" lon="6.02168">
        <ele>2130</ele>
        <time>2019-04-14T09:25:16.009Z</time>
      </trkpt>
      <trkpt lat="45.2132" lon="6.02155">
        <ele>2130</ele>
        <time>2019-04-14T09:25:29.009Z</time>
      </trkpt>
      <trkpt lat="45.2132" lon="6.02141">
        <ele>2133</ele>
        <time>2019-04-14T09:25:42.009Z</time>
      </trkpt>
      <trkpt lat="45.21321" lon="6.02129">
        <ele>2134</ele>
        <time>2019-04-14T09:25:54.009Z</time>
      </trkpt>
      <trkpt lat="45.21321" lon="6.02119">
        <ele>2134</ele>
        <time>2019-04-14T09:26:01.009Z</time>
      </trkpt>
      <trkpt lat="45.21321" lon="6.0211">
        <ele>2134</ele>
        <time>2019-04-14T09:26:08.009Z</time>
      </trkpt>
      <trkpt lat="45.2132" lon="6.02101">
        <ele>2135</ele>
        <time>2019-04-14T09:26:13.009Z</time>
      </trkpt>
      <trkpt lat="45.21318" lon="6.02094">
        <ele>2135</ele>
        <time>2019-04-14T09:26:19.009Z</time>
      </trkpt>
      <trkpt lat="45.21318" lon="6.02087">
        <ele>2135</ele>
        <time>2019-04-14T09:26:24.009Z</time>
      </trkpt>
      <trkpt lat="45.21315" lon="6.02074">
        <ele>2135</ele>
        <time>2019-04-14T09:26:36.009Z</time>
      </trkpt>
      <trkpt lat="45.21314" lon="6.02061">
        <ele>2138</ele>
        <time>2019-04-14T09:26:51.009Z</time>
      </trkpt>
      <trkpt lat="45.21313" lon="6.02054">
        <ele>2138</ele>
        <time>2019-04-14T09:27:00.009Z</time>
      </trkpt>
      <trkpt lat="45.21313" lon="6.02048">
        <ele>2140</ele>
        <time>2019-04-14T09:27:06.009Z</time>
      </trkpt>
      <trkpt lat="45.21312" lon="6.02042">
        <ele>2141</ele>
        <time>2019-04-14T09:27:15.009Z</time>
      </trkpt>
      <trkpt lat="45.21304" lon="6.02033">
        <ele>2146</ele>
        <time>2019-04-14T09:27:31.009Z</time>
      </trkpt>
      <trkpt lat="45.213" lon="6.0203">
        <ele>2147</ele>
        <time>2019-04-14T09:27:37.009Z</time>
      </trkpt>
      <trkpt lat="45.21292" lon="6.02022">
        <ele>2149</ele>
        <time>2019-04-14T09:27:49.009Z</time>
      </trkpt>
      <trkpt lat="45.21289" lon="6.0201">
        <ele>2151</ele>
        <time>2019-04-14T09:28:03.009Z</time>
      </trkpt>
      <trkpt lat="45.21296" lon="6.02005">
        <ele>2154</ele>
        <time>2019-04-14T09:28:15.009Z</time>
      </trkpt>
      <trkpt lat="45.21298" lon="6.01999">
        <ele>2157</ele>
        <time>2019-04-14T09:28:40.009Z</time>
      </trkpt>
      <trkpt lat="45.21296" lon="6.01987">
        <ele>2159</ele>
        <time>2019-04-14T09:28:55.009Z</time>
      </trkpt>
      <trkpt lat="45.21295" lon="6.01979">
        <ele>2163</ele>
        <time>2019-04-14T09:29:08.009Z</time>
      </trkpt>
      <trkpt lat="45.21297" lon="6.01969">
        <ele>2161</ele>
        <time>2019-04-14T09:32:18.009Z</time>
      </trkpt>
      <trkpt lat="45.213" lon="6.01961">
        <ele>2163.4889984</ele>
        <time>2019-04-14T09:32:26.009Z</time>
      </trkpt>
      <trkpt lat="45.213" lon="6.01953">
        <ele>2165</ele>
        <time>2019-04-14T09:32:33.009Z</time>
      </trkpt>
      <trkpt lat="45.21302" lon="6.01942">
        <ele>2168</ele>
        <time>2019-04-14T09:32:46.009Z</time>
      </trkpt>
      <trkpt lat="45.21306" lon="6.01931">
        <ele>2171.4889984</ele>
        <time>2019-04-14T09:33:01.009Z</time>
      </trkpt>
      <trkpt lat="45.21309" lon="6.01925">
        <ele>2173</ele>
        <time>2019-04-14T09:33:10.009Z</time>
      </trkpt>
      <trkpt lat="45.21311" lon="6.01919">
        <ele>2174</ele>
        <time>2019-04-14T09:33:16.009Z</time>
      </trkpt>
      <trkpt lat="45.21312" lon="6.01912">
        <ele>2174.4889984</ele>
        <time>2019-04-14T09:33:21.009Z</time>
      </trkpt>
      <trkpt lat="45.21312" lon="6.01905">
        <ele>2175</ele>
        <time>2019-04-14T09:33:26.009Z</time>
      </trkpt>
      <trkpt lat="45.21313" lon="6.01899">
        <ele>2175</ele>
        <time>2019-04-14T09:33:29.009Z</time>
      </trkpt>
      <trkpt lat="45.21314" lon="6.01892">
        <ele>2175</ele>
        <time>2019-04-14T09:33:32.009Z</time>
      </trkpt>
      <trkpt lat="45.21313" lon="6.01884">
        <ele>2175</ele>
        <time>2019-04-14T09:33:35.009Z</time>
      </trkpt>
      <trkpt lat="45.21314" lon="6.01879">
        <ele>2175</ele>
        <time>2019-04-14T09:33:39.009Z</time>
      </trkpt>
      <trkpt lat="45.21317" lon="6.01872">
        <ele>2174</ele>
        <time>2019-04-14T09:33:44.009Z</time>
      </trkpt>
      <trkpt lat="45.21318" lon="6.01866">
        <ele>2174</ele>
        <time>2019-04-14T09:33:49.009Z</time>
      </trkpt>
      <trkpt lat="45.21316" lon="6.01858">
        <ele>2173</ele>
        <time>2019-04-14T09:33:54.009Z</time>
      </trkpt>
      <trkpt lat="45.21318" lon="6.01843">
        <ele>2172</ele>
        <time>2019-04-14T09:34:03.009Z</time>
      </trkpt>
      <trkpt lat="45.21318" lon="6.01828">
        <ele>2172</ele>
        <time>2019-04-14T09:34:12.009Z</time>
      </trkpt>
      <trkpt lat="45.21319" lon="6.01819">
        <ele>2172</ele>
        <time>2019-04-14T09:34:17.009Z</time>
      </trkpt>
      <trkpt lat="45.21318" lon="6.01813">
        <ele>2172</ele>
        <time>2019-04-14T09:34:21.009Z</time>
      </trkpt>
      <trkpt lat="45.21318" lon="6.018">
        <ele>2172</ele>
        <time>2019-04-14T09:34:29.009Z</time>
      </trkpt>
      <trkpt lat="45.21318" lon="6.01787">
        <ele>2171</ele>
        <time>2019-04-14T09:34:39.009Z</time>
      </trkpt>
      <trkpt lat="45.21317" lon="6.01774">
        <ele>2171</ele>
        <time>2019-04-14T09:34:51.009Z</time>
      </trkpt>
      <trkpt lat="45.21314" lon="6.01762">
        <ele>2171</ele>
        <time>2019-04-14T09:35:01.009Z</time>
      </trkpt>
      <trkpt lat="45.21311" lon="6.01749">
        <ele>2173</ele>
        <time>2019-04-14T09:35:12.009Z</time>
      </trkpt>
      <trkpt lat="45.21307" lon="6.01737">
        <ele>2175</ele>
        <time>2019-04-14T09:35:25.009Z</time>
      </trkpt>
      <trkpt lat="45.21305" lon="6.01724">
        <ele>2177</ele>
        <time>2019-04-14T09:35:36.009Z</time>
      </trkpt>
      <trkpt lat="45.21302" lon="6.01711">
        <ele>2180</ele>
        <time>2019-04-14T09:35:52.009Z</time>
      </trkpt>
      <trkpt lat="45.21297" lon="6.01698">
        <ele>2181</ele>
        <time>2019-04-14T09:36:06.009Z</time>
      </trkpt>
      <trkpt lat="45.21292" lon="6.01686">
        <ele>2183</ele>
        <time>2019-04-14T09:36:18.009Z</time>
      </trkpt>
      <trkpt lat="45.2129" lon="6.01676">
        <ele>2183</ele>
        <time>2019-04-14T09:36:28.009Z</time>
      </trkpt>
      <trkpt lat="45.21289" lon="6.01672">
        <ele>2183</ele>
        <time>2019-04-14T09:36:33.009Z</time>
      </trkpt>
      <trkpt lat="45.21287" lon="6.01667">
        <ele>2183</ele>
        <time>2019-04-14T09:36:37.009Z</time>
      </trkpt>
      <trkpt lat="45.21284" lon="6.01661">
        <ele>2184</ele>
        <time>2019-04-14T09:36:42.009Z</time>
      </trkpt>
      <trkpt lat="45.21281" lon="6.01655">
        <ele>2184</ele>
        <time>2019-04-14T09:36:49.009Z</time>
      </trkpt>
      <trkpt lat="45.21274" lon="6.01646">
        <ele>2187</ele>
        <time>2019-04-14T09:37:02.009Z</time>
      </trkpt>
      <trkpt lat="45.21266" lon="6.01637">
        <ele>2187</ele>
        <time>2019-04-14T09:37:13.009Z</time>
      </trkpt>
      <trkpt lat="45.21258" lon="6.01632">
        <ele>2189</ele>
        <time>2019-04-14T09:37:26.009Z</time>
      </trkpt>
      <trkpt lat="45.21252" lon="6.01626">
        <ele>2188</ele>
        <time>2019-04-14T09:37:35.009Z</time>
      </trkpt>
      <trkpt lat="45.21244" lon="6.01619">
        <ele>2191</ele>
        <time>2019-04-14T09:37:48.009Z</time>
      </trkpt>
      <trkpt lat="45.21235" lon="6.01614">
        <ele>2193</ele>
        <time>2019-04-14T09:38:02.009Z</time>
      </trkpt>
      <trkpt lat="45.21227" lon="6.01613">
        <ele>2195</ele>
        <time>2019-04-14T09:38:13.009Z</time>
      </trkpt>
      <trkpt lat="45.21218" lon="6.01615">
        <ele>2196</ele>
        <time>2019-04-14T09:38:26.009Z</time>
      </trkpt>
      <trkpt lat="45.21208" lon="6.01619">
        <ele>2198</ele>
        <time>2019-04-14T09:38:39.009Z</time>
      </trkpt>
      <trkpt lat="45.21212" lon="6.01608">
        <ele>2201</ele>
        <time>2019-04-14T09:38:57.009Z</time>
      </trkpt>
      <trkpt lat="45.21206" lon="6.01602">
        <ele>2205</ele>
        <time>2019-04-14T09:39:17.009Z</time>
      </trkpt>
      <trkpt lat="45.21203" lon="6.01596">
        <ele>2206</ele>
        <time>2019-04-14T09:39:25.009Z</time>
      </trkpt>
      <trkpt lat="45.21199" lon="6.01594">
        <ele>2207</ele>
        <time>2019-04-14T09:40:07.009Z</time>
      </trkpt>
      <trkpt lat="45.21201" lon="6.01589">
        <ele>2206</ele>
        <time>2019-04-14T09:40:47.009Z</time>
      </trkpt>
      <trkpt lat="45.21202" lon="6.01585">
        <ele>2206.9779968</ele>
        <time>2019-04-14T09:40:51.009Z</time>
      </trkpt>
      <trkpt lat="45.21203" lon="6.01581">
        <ele>2208</ele>
        <time>2019-04-14T09:40:54.009Z</time>
      </trkpt>
      <trkpt lat="45.21202" lon="6.01576">
        <ele>2210</ele>
        <time>2019-04-14T09:40:58.009Z</time>
      </trkpt>
      <trkpt lat="45.21201" lon="6.01572">
        <ele>2208</ele>
        <time>2019-04-14T09:41:02.009Z</time>
      </trkpt>
      <trkpt lat="45.21201" lon="6.01564">
        <ele>2208</ele>
        <time>2019-04-14T09:41:09.009Z</time>
      </trkpt>
      <trkpt lat="45.21201" lon="6.01555">
        <ele>2208</ele>
        <time>2019-04-14T09:41:15.009Z</time>
      </trkpt>
      <trkpt lat="45.21202" lon="6.01547">
        <ele>2208</ele>
        <time>2019-04-14T09:41:22.009Z</time>
      </trkpt>
      <trkpt lat="45.21196" lon="6.01537">
        <ele>2210.5110016</ele>
        <time>2019-04-14T09:41:35.009Z</time>
      </trkpt>
      <trkpt lat="45.21188" lon="6.01531">
        <ele>2215</ele>
        <time>2019-04-14T09:41:47.009Z</time>
      </trkpt>
      <trkpt lat="45.21179" lon="6.01525">
        <ele>2214</ele>
        <time>2019-04-14T09:42:00.009Z</time>
      </trkpt>
      <trkpt lat="45.21171" lon="6.01519">
        <ele>2220</ele>
        <time>2019-04-14T09:42:14.009Z</time>
      </trkpt>
      <trkpt lat="45.21164" lon="6.01512">
        <ele>2221</ele>
        <time>2019-04-14T09:42:25.009Z</time>
      </trkpt>
      <trkpt lat="45.21167" lon="6.01503">
        <ele>2225</ele>
        <time>2019-04-14T09:42:49.009Z</time>
      </trkpt>
      <trkpt lat="45.21174" lon="6.01499">
        <ele>2226</ele>
        <time>2019-04-14T09:43:00.009Z</time>
      </trkpt>
      <trkpt lat="45.2118" lon="6.01494">
        <ele>2229.9779968</ele>
        <time>2019-04-14T09:43:11.009Z</time>
      </trkpt>
      <trkpt lat="45.21187" lon="6.01488">
        <ele>2231.4889984</ele>
        <time>2019-04-14T09:43:21.009Z</time>
      </trkpt>
      <trkpt lat="45.2118" lon="6.01484">
        <ele>2235</ele>
        <time>2019-04-14T09:43:38.009Z</time>
      </trkpt>
      <trkpt lat="45.21171" lon="6.01478">
        <ele>2237</ele>
        <time>2019-04-14T09:43:52.009Z</time>
      </trkpt>
      <trkpt lat="45.21163" lon="6.01472">
        <ele>2239</ele>
        <time>2019-04-14T09:44:05.009Z</time>
      </trkpt>
      <trkpt lat="45.2117" lon="6.01466">
        <ele>2240</ele>
        <time>2019-04-14T09:44:19.009Z</time>
      </trkpt>
      <trkpt lat="45.21175" lon="6.01464">
        <ele>2242.9779968</ele>
        <time>2019-04-14T09:44:26.009Z</time>
      </trkpt>
      <trkpt lat="45.21179" lon="6.01464">
        <ele>2244</ele>
        <time>2019-04-14T09:44:32.009Z</time>
      </trkpt>
      <trkpt lat="45.21182" lon="6.01463">
        <ele>2244</ele>
        <time>2019-04-14T09:44:37.009Z</time>
      </trkpt>
      <trkpt lat="45.21185" lon="6.01461">
        <ele>2246</ele>
        <time>2019-04-14T09:44:42.009Z</time>
      </trkpt>
      <trkpt lat="45.21187" lon="6.0146">
        <ele>2246</ele>
        <time>2019-04-14T09:44:46.009Z</time>
      </trkpt>
      <trkpt lat="45.21189" lon="6.01459">
        <ele>2246</ele>
        <time>2019-04-14T09:44:49.009Z</time>
      </trkpt>
      <trkpt lat="45.2119" lon="6.01458">
        <ele>2247</ele>
        <time>2019-04-14T09:44:52.009Z</time>
      </trkpt>
      <trkpt lat="45.21185" lon="6.01456">
        <ele>2249</ele>
        <time>2019-04-14T09:45:06.009Z</time>
      </trkpt>
      <trkpt lat="45.21177" lon="6.0145">
        <ele>2250</ele>
        <time>2019-04-14T09:45:19.009Z</time>
      </trkpt>
      <trkpt lat="45.21176" lon="6.01445">
        <ele>2254</ele>
        <time>2019-04-14T09:45:38.009Z</time>
      </trkpt>
      <trkpt lat="45.21179" lon="6.01444">
        <ele>2256</ele>
        <time>2019-04-14T09:45:43.009Z</time>
      </trkpt>
      <trkpt lat="45.21182" lon="6.01443">
        <ele>2256</ele>
        <time>2019-04-14T09:45:47.009Z</time>
      </trkpt>
      <trkpt lat="45.21184" lon="6.01442">
        <ele>2256.4889984</ele>
        <time>2019-04-14T09:45:51.009Z</time>
      </trkpt>
      <trkpt lat="45.21186" lon="6.01441">
        <ele>2257</ele>
        <time>2019-04-14T09:45:55.009Z</time>
      </trkpt>
      <trkpt lat="45.21188" lon="6.0144">
        <ele>2257</ele>
        <time>2019-04-14T09:45:58.009Z</time>
      </trkpt>
      <trkpt lat="45.2119" lon="6.01439">
        <ele>2257.9779968</ele>
        <time>2019-04-14T09:46:01.009Z</time>
      </trkpt>
      <trkpt lat="45.21191" lon="6.01438">
        <ele>2259</ele>
        <time>2019-04-14T09:46:04.009Z</time>
      </trkpt>
      <trkpt lat="45.21193" lon="6.01438">
        <ele>2260</ele>
        <time>2019-04-14T09:46:09.009Z</time>
      </trkpt>
      <trkpt lat="45.21186" lon="6.01433">
        <ele>2261</ele>
        <time>2019-04-14T09:46:27.009Z</time>
      </trkpt>
      <trkpt lat="45.21178" lon="6.01427">
        <ele>2264</ele>
        <time>2019-04-14T09:46:39.009Z</time>
      </trkpt>
      <trkpt lat="45.21176" lon="6.01424">
        <ele>2266</ele>
        <time>2019-04-14T09:46:49.009Z</time>
      </trkpt>
      <trkpt lat="45.21178" lon="6.01424">
        <ele>2266</ele>
        <time>2019-04-14T09:46:57.009Z</time>
      </trkpt>
      <trkpt lat="45.21184" lon="6.01421">
        <ele>2266</ele>
        <time>2019-04-14T09:47:10.009Z</time>
      </trkpt>
      <trkpt lat="45.21178" lon="6.01415">
        <ele>2272</ele>
        <time>2019-04-14T09:47:42.009Z</time>
      </trkpt>
      <trkpt lat="45.21173" lon="6.01412">
        <ele>2275</ele>
        <time>2019-04-14T09:47:58.009Z</time>
      </trkpt>
      <trkpt lat="45.21179" lon="6.01409">
        <ele>2276</ele>
        <time>2019-04-14T09:48:12.009Z</time>
      </trkpt>
      <trkpt lat="45.21183" lon="6.01406">
        <ele>2277</ele>
        <time>2019-04-14T09:48:25.009Z</time>
      </trkpt>
      <trkpt lat="45.21176" lon="6.01402">
        <ele>2280</ele>
        <time>2019-04-14T09:48:48.009Z</time>
      </trkpt>
      <trkpt lat="45.21172" lon="6.01398">
        <ele>2284</ele>
        <time>2019-04-14T09:49:43.009Z</time>
      </trkpt>
      <trkpt lat="45.21166" lon="6.01396">
        <ele>2286</ele>
        <time>2019-04-14T09:49:59.009Z</time>
      </trkpt>
      <trkpt lat="45.21159" lon="6.01395">
        <ele>2287</ele>
        <time>2019-04-14T09:50:19.009Z</time>
      </trkpt>
      <trkpt lat="45.21162" lon="6.01391">
        <ele>2289</ele>
        <time>2019-04-14T09:50:40.009Z</time>
      </trkpt>
      <trkpt lat="45.21157" lon="6.01389">
        <ele>2292</ele>
        <time>2019-04-14T09:51:04.009Z</time>
      </trkpt>
      <trkpt lat="45.21154" lon="6.01388">
        <ele>2292</ele>
        <time>2019-04-14T09:51:18.009Z</time>
      </trkpt>
      <trkpt lat="45.2115" lon="6.01388">
        <ele>2294.4889984</ele>
        <time>2019-04-14T09:51:31.009Z</time>
      </trkpt>
      <trkpt lat="45.21154" lon="6.01382">
        <ele>2299</ele>
        <time>2019-04-14T09:52:04.009Z</time>
      </trkpt>
      <trkpt lat="45.21152" lon="6.0138">
        <ele>2300</ele>
        <time>2019-04-14T09:52:25.009Z</time>
      </trkpt>
      <trkpt lat="45.21147" lon="6.01378">
        <ele>2301</ele>
        <time>2019-04-14T09:52:37.009Z</time>
      </trkpt>
      <trkpt lat="45.21146" lon="6.01373">
        <ele>2303</ele>
        <time>2019-04-14T09:53:57.009Z</time>
      </trkpt>
      <trkpt lat="45.2115" lon="6.01371">
        <ele>2305</ele>
        <time>2019-04-14T09:54:12.009Z</time>
      </trkpt>
      <trkpt lat="45.21152" lon="6.01368">
        <ele>2305</ele>
        <time>2019-04-14T09:56:08.009Z</time>
      </trkpt>
      <trkpt lat="45.21159" lon="6.01365">
        <ele>2306</ele>
        <time>2019-04-14T09:57:49.009Z</time>
      </trkpt>
      <trkpt lat="45.21165" lon="6.01361">
        <ele>2307</ele>
        <time>2019-04-14T09:57:58.009Z</time>
      </trkpt>
      <trkpt lat="45.21172" lon="6.01357">
        <ele>2310</ele>
        <time>2019-04-14T09:58:09.009Z</time>
      </trkpt>
      <trkpt lat="45.21179" lon="6.01353">
        <ele>2312</ele>
        <time>2019-04-14T09:58:19.009Z</time>
      </trkpt>
      <trkpt lat="45.21186" lon="6.01352">
        <ele>2315</ele>
        <time>2019-04-14T09:58:32.009Z</time>
      </trkpt>
      <trkpt lat="45.21192" lon="6.01347">
        <ele>2316</ele>
        <time>2019-04-14T09:58:44.009Z</time>
      </trkpt>
      <trkpt lat="45.21199" lon="6.01344">
        <ele>2318.9779968</ele>
        <time>2019-04-14T09:58:56.009Z</time>
      </trkpt>
      <trkpt lat="45.21204" lon="6.0134">
        <ele>2321</ele>
        <time>2019-04-14T09:59:04.009Z</time>
      </trkpt>
      <trkpt lat="45.21202" lon="6.01344">
        <ele>2318</ele>
        <time>2019-04-14T10:05:04.009Z</time>
      </trkpt>
      <trkpt lat="45.212" lon="6.01336">
        <ele>2318</ele>
        <time>2019-04-14T10:11:24.009Z</time>
      </trkpt>
      <trkpt lat="45.21199" lon="6.01326">
        <ele>2318</ele>
        <time>2019-04-14T10:11:27.009Z</time>
      </trkpt>
      <trkpt lat="45.21201" lon="6.01316">
        <ele>2318</ele>
        <time>2019-04-14T10:11:29.009Z</time>
      </trkpt>
      <trkpt lat="45.21196" lon="6.01311">
        <ele>2314</ele>
        <time>2019-04-14T10:11:37.009Z</time>
      </trkpt>
      <trkpt lat="45.21193" lon="6.013">
        <ele>2314</ele>
        <time>2019-04-14T10:11:39.009Z</time>
      </trkpt>
      <trkpt lat="45.21189" lon="6.01286">
        <ele>2309.5990144</ele>
        <time>2019-04-14T10:11:41.009Z</time>
      </trkpt>
      <trkpt lat="45.21183" lon="6.01268">
        <ele>2302.5330048</ele>
        <time>2019-04-14T10:11:43.009Z</time>
      </trkpt>
      <trkpt lat="45.21177" lon="6.01247">
        <ele>2298.4889984</ele>
        <time>2019-04-14T10:11:45.009Z</time>
      </trkpt>
      <trkpt lat="45.2117" lon="6.01228">
        <ele>2294.0411735917</ele>
        <time>2019-04-14T10:11:47.009Z</time>
      </trkpt>
      <trkpt lat="45.21169" lon="6.0121">
        <ele>2294</ele>
        <time>2019-04-14T10:11:50.009Z</time>
      </trkpt>
      <trkpt lat="45.21172" lon="6.01193">
        <ele>2292.0220032</ele>
        <time>2019-04-14T10:11:52.009Z</time>
      </trkpt>
      <trkpt lat="45.21174" lon="6.01177">
        <ele>2288.6295466667</ele>
        <time>2019-04-14T10:11:54.009Z</time>
      </trkpt>
      <trkpt lat="45.21173" lon="6.01161">
        <ele>2289</ele>
        <time>2019-04-14T10:11:56.009Z</time>
      </trkpt>
      <trkpt lat="45.21173" lon="6.01147">
        <ele>2288.5110016</ele>
        <time>2019-04-14T10:11:58.009Z</time>
      </trkpt>
      <trkpt lat="45.21172" lon="6.01134">
        <ele>2286.5110016</ele>
        <time>2019-04-14T10:12:00.009Z</time>
      </trkpt>
      <trkpt lat="45.21172" lon="6.01127">
        <ele>2285.0220032</ele>
        <time>2019-04-14T10:12:01.009Z</time>
      </trkpt>
      <trkpt lat="45.21171" lon="6.01119">
        <ele>2284</ele>
        <time>2019-04-14T10:12:02.009Z</time>
      </trkpt>
      <trkpt lat="45.2117" lon="6.0111">
        <ele>2284</ele>
        <time>2019-04-14T10:12:03.009Z</time>
      </trkpt>
      <trkpt lat="45.21168" lon="6.01101">
        <ele>2283.0220032</ele>
        <time>2019-04-14T10:12:04.009Z</time>
      </trkpt>
      <trkpt lat="45.21166" lon="6.01091">
        <ele>2281.0220032</ele>
        <time>2019-04-14T10:12:05.009Z</time>
      </trkpt>
      <trkpt lat="45.21163" lon="6.01081">
        <ele>2279.0220032</ele>
        <time>2019-04-14T10:12:06.009Z</time>
      </trkpt>
      <trkpt lat="45.2116" lon="6.01072">
        <ele>2277.0220032</ele>
        <time>2019-04-14T10:12:07.009Z</time>
      </trkpt>
      <trkpt lat="45.21157" lon="6.01063">
        <ele>2275.5110016</ele>
        <time>2019-04-14T10:12:08.009Z</time>
      </trkpt>
      <trkpt lat="45.21154" lon="6.01055">
        <ele>2275</ele>
        <time>2019-04-14T10:12:09.009Z</time>
      </trkpt>
      <trkpt lat="45.21152" lon="6.01048">
        <ele>2274.0220032</ele>
        <time>2019-04-14T10:12:10.009Z</time>
      </trkpt>
      <trkpt lat="45.21148" lon="6.01033">
        <ele>2273</ele>
        <time>2019-04-14T10:12:13.009Z</time>
      </trkpt>
      <trkpt lat="45.21141" lon="6.01038">
        <ele>2274</ele>
        <time>2019-04-14T10:12:27.009Z</time>
      </trkpt>
      <trkpt lat="45.21134" lon="6.0104">
        <ele>2274</ele>
        <time>2019-04-14T10:12:28.009Z</time>
      </trkpt>
      <trkpt lat="45.21125" lon="6.01042">
        <ele>2274</ele>
        <time>2019-04-14T10:12:29.009Z</time>
      </trkpt>
      <trkpt lat="45.21116" lon="6.01046">
        <ele>2274</ele>
        <time>2019-04-14T10:12:30.009Z</time>
      </trkpt>
      <trkpt lat="45.21106" lon="6.0105">
        <ele>2274</ele>
        <time>2019-04-14T10:12:31.009Z</time>
      </trkpt>
      <trkpt lat="45.21096" lon="6.01053">
        <ele>2265.1980288</ele>
        <time>2019-04-14T10:12:32.009Z</time>
      </trkpt>
      <trkpt lat="45.21085" lon="6.01057">
        <ele>2250.6210176</ele>
        <time>2019-04-14T10:12:33.009Z</time>
      </trkpt>
      <trkpt lat="45.21075" lon="6.01062">
        <ele>2243.0440064</ele>
        <time>2019-04-14T10:12:34.009Z</time>
      </trkpt>
      <trkpt lat="45.21065" lon="6.01063">
        <ele>2238.0660096</ele>
        <time>2019-04-14T10:12:35.009Z</time>
      </trkpt>
      <trkpt lat="45.21048" lon="6.01071">
        <ele>2229.5770112</ele>
        <time>2019-04-14T10:12:37.009Z</time>
      </trkpt>
      <trkpt lat="45.21031" lon="6.01083">
        <ele>2216.5110016</ele>
        <time>2019-04-14T10:12:39.009Z</time>
      </trkpt>
      <trkpt lat="45.21021" lon="6.01092">
        <ele>2211.5990144</ele>
        <time>2019-04-14T10:12:40.009Z</time>
      </trkpt>
      <trkpt lat="45.21009" lon="6.01101">
        <ele>2204.0660096</ele>
        <time>2019-04-14T10:12:41.009Z</time>
      </trkpt>
      <trkpt lat="45.20997" lon="6.01112">
        <ele>2200.520592812</ele>
        <time>2019-04-14T10:12:42.009Z</time>
      </trkpt>
      <trkpt lat="45.20984" lon="6.01121">
        <ele>2198.0857344374</ele>
        <time>2019-04-14T10:12:43.009Z</time>
      </trkpt>
      <trkpt lat="45.20971" lon="6.01128">
        <ele>2193.555008</ele>
        <time>2019-04-14T10:12:44.009Z</time>
      </trkpt>
      <trkpt lat="45.20958" lon="6.01131">
        <ele>2191</ele>
        <time>2019-04-14T10:12:45.009Z</time>
      </trkpt>
      <trkpt lat="45.2095" lon="6.01131">
        <ele>2191.9779968</ele>
        <time>2019-04-14T10:12:46.009Z</time>
      </trkpt>
      <trkpt lat="45.20938" lon="6.01133">
        <ele>2192.0440064</ele>
        <time>2019-04-14T10:12:49.009Z</time>
      </trkpt>
      <trkpt lat="45.20945" lon="6.01128">
        <ele>2192</ele>
        <time>2019-04-14T10:13:14.009Z</time>
      </trkpt>
      <trkpt lat="45.20953" lon="6.01132">
        <ele>2192</ele>
        <time>2019-04-14T10:13:19.009Z</time>
      </trkpt>
      <trkpt lat="45.20958" lon="6.0115">
        <ele>2192</ele>
        <time>2019-04-14T10:13:21.009Z</time>
      </trkpt>
      <trkpt lat="45.20956" lon="6.01163">
        <ele>2188.5770112</ele>
        <time>2019-04-14T10:13:22.009Z</time>
      </trkpt>
      <trkpt lat="45.20951" lon="6.01174">
        <ele>2183.5330048</ele>
        <time>2019-04-14T10:13:23.009Z</time>
      </trkpt>
      <trkpt lat="45.20945" lon="6.01184">
        <ele>2181.0220032</ele>
        <time>2019-04-14T10:13:24.009Z</time>
      </trkpt>
      <trkpt lat="45.20941" lon="6.01195">
        <ele>2180.4889984</ele>
        <time>2019-04-14T10:13:25.009Z</time>
      </trkpt>
      <trkpt lat="45.2093" lon="6.01218">
        <ele>2174.0220032</ele>
        <time>2019-04-14T10:13:27.009Z</time>
      </trkpt>
      <trkpt lat="45.20913" lon="6.01235">
        <ele>2167.555008</ele>
        <time>2019-04-14T10:13:29.009Z</time>
      </trkpt>
      <trkpt lat="45.20906" lon="6.01247">
        <ele>2164.5110016</ele>
        <time>2019-04-14T10:13:30.009Z</time>
      </trkpt>
      <trkpt lat="45.20898" lon="6.01259">
        <ele>2162.0440064</ele>
        <time>2019-04-14T10:13:31.009Z</time>
      </trkpt>
      <trkpt lat="45.20888" lon="6.01268">
        <ele>2158.5330048</ele>
        <time>2019-04-14T10:13:32.009Z</time>
      </trkpt>
      <trkpt lat="45.20879" lon="6.01279">
        <ele>2156.5110016</ele>
        <time>2019-04-14T10:13:33.009Z</time>
      </trkpt>
      <trkpt lat="45.2087" lon="6.0129">
        <ele>2155.0220032</ele>
        <time>2019-04-14T10:13:34.009Z</time>
      </trkpt>
      <trkpt lat="45.20857" lon="6.01307">
        <ele>2147.5110016</ele>
        <time>2019-04-14T10:13:36.009Z</time>
      </trkpt>
      <trkpt lat="45.20845" lon="6.01322">
        <ele>2143.5770112</ele>
        <time>2019-04-14T10:13:38.009Z</time>
      </trkpt>
      <trkpt lat="45.20833" lon="6.01329">
        <ele>2140</ele>
        <time>2019-04-14T10:13:40.009Z</time>
      </trkpt>
      <trkpt lat="45.20821" lon="6.01338">
        <ele>2136</ele>
        <time>2019-04-14T10:13:42.009Z</time>
      </trkpt>
      <trkpt lat="45.20815" lon="6.01341">
        <ele>2134.0440064</ele>
        <time>2019-04-14T10:13:43.009Z</time>
      </trkpt>
      <trkpt lat="45.20804" lon="6.01335">
        <ele>2130.4889984</ele>
        <time>2019-04-14T10:13:46.009Z</time>
      </trkpt>
      <trkpt lat="45.20796" lon="6.01346">
        <ele>2128</ele>
        <time>2019-04-14T10:14:23.009Z</time>
      </trkpt>
      <trkpt lat="45.20786" lon="6.0137">
        <ele>2128</ele>
        <time>2019-04-14T10:14:25.009Z</time>
      </trkpt>
      <trkpt lat="45.20782" lon="6.01387">
        <ele>2128</ele>
        <time>2019-04-14T10:14:26.009Z</time>
      </trkpt>
      <trkpt lat="45.20779" lon="6.01405">
        <ele>2121.6430208</ele>
        <time>2019-04-14T10:14:27.009Z</time>
      </trkpt>
      <trkpt lat="45.20773" lon="6.01419">
        <ele>2115</ele>
        <time>2019-04-14T10:14:28.009Z</time>
      </trkpt>
      <trkpt lat="45.20771" lon="6.01441">
        <ele>2115</ele>
        <time>2019-04-14T10:14:30.009Z</time>
      </trkpt>
      <trkpt lat="45.20764" lon="6.01456">
        <ele>2109.6210176</ele>
        <time>2019-04-14T10:14:32.009Z</time>
      </trkpt>
      <trkpt lat="45.20758" lon="6.01474">
        <ele>2100</ele>
        <time>2019-04-14T10:14:34.009Z</time>
      </trkpt>
      <trkpt lat="45.20748" lon="6.01489">
        <ele>2099.0220032</ele>
        <time>2019-04-14T10:14:36.009Z</time>
      </trkpt>
      <trkpt lat="45.20734" lon="6.01491">
        <ele>2095</ele>
        <time>2019-04-14T10:14:38.009Z</time>
      </trkpt>
      <trkpt lat="45.20721" lon="6.015">
        <ele>2094.5110016</ele>
        <time>2019-04-14T10:14:40.009Z</time>
      </trkpt>
      <trkpt lat="45.2071" lon="6.01508">
        <ele>2093.9779968</ele>
        <time>2019-04-14T10:14:42.009Z</time>
      </trkpt>
      <trkpt lat="45.20698" lon="6.01512">
        <ele>2095.4889984</ele>
        <time>2019-04-14T10:14:46.009Z</time>
      </trkpt>
      <trkpt lat="45.20685" lon="6.0151">
        <ele>2095</ele>
        <time>2019-04-14T10:14:54.009Z</time>
      </trkpt>
      <trkpt lat="45.20671" lon="6.01493">
        <ele>2095</ele>
        <time>2019-04-14T10:14:56.009Z</time>
      </trkpt>
      <trkpt lat="45.20661" lon="6.0148">
        <ele>2095</ele>
        <time>2019-04-14T10:14:57.009Z</time>
      </trkpt>
      <trkpt lat="45.20651" lon="6.01466">
        <ele>2095</ele>
        <time>2019-04-14T10:14:58.009Z</time>
      </trkpt>
      <trkpt lat="45.20643" lon="6.01455">
        <ele>2095</ele>
        <time>2019-04-14T10:14:59.009Z</time>
      </trkpt>
      <trkpt lat="45.20631" lon="6.01441">
        <ele>2087.665024</ele>
        <time>2019-04-14T10:15:01.009Z</time>
      </trkpt>
      <trkpt lat="45.20617" lon="6.01449">
        <ele>2080</ele>
        <time>2019-04-14T10:15:04.009Z</time>
      </trkpt>
      <trkpt lat="45.20611" lon="6.01462">
        <ele>2080</ele>
        <time>2019-04-14T10:15:05.009Z</time>
      </trkpt>
      <trkpt lat="45.20603" lon="6.01475">
        <ele>2080</ele>
        <time>2019-04-14T10:15:06.009Z</time>
      </trkpt>
      <trkpt lat="45.20595" lon="6.01483">
        <ele>2080</ele>
        <time>2019-04-14T10:15:07.009Z</time>
      </trkpt>
      <trkpt lat="45.20583" lon="6.01495">
        <ele>2080</ele>
        <time>2019-04-14T10:15:08.009Z</time>
      </trkpt>
      <trkpt lat="45.20573" lon="6.01508">
        <ele>2080</ele>
        <time>2019-04-14T10:15:09.009Z</time>
      </trkpt>
      <trkpt lat="45.20561" lon="6.0152">
        <ele>2080</ele>
        <time>2019-04-14T10:15:10.009Z</time>
      </trkpt>
      <trkpt lat="45.20547" lon="6.01524">
        <ele>2074.2838776471</ele>
        <time>2019-04-14T10:15:11.009Z</time>
      </trkpt>
      <trkpt lat="45.20534" lon="6.01522">
        <ele>2057</ele>
        <time>2019-04-14T10:15:12.009Z</time>
      </trkpt>
      <trkpt lat="45.20521" lon="6.0151">
        <ele>2048.9779968</ele>
        <time>2019-04-14T10:15:14.009Z</time>
      </trkpt>
      <trkpt lat="45.20507" lon="6.01501">
        <ele>2050</ele>
        <time>2019-04-14T10:15:17.009Z</time>
      </trkpt>
      <trkpt lat="45.20496" lon="6.01501">
        <ele>2045</ele>
        <time>2019-04-14T10:15:19.009Z</time>
      </trkpt>
      <trkpt lat="45.20477" lon="6.01503">
        <ele>2041.0440064</ele>
        <time>2019-04-14T10:15:21.009Z</time>
      </trkpt>
      <trkpt lat="45.2046" lon="6.01498">
        <ele>2036</ele>
        <time>2019-04-14T10:15:23.009Z</time>
      </trkpt>
      <trkpt lat="45.20448" lon="6.015">
        <ele>2038.4889984</ele>
        <time>2019-04-14T10:15:26.009Z</time>
      </trkpt>
      <trkpt lat="45.20453" lon="6.01491">
        <ele>2041</ele>
        <time>2019-04-14T10:22:07.009Z</time>
      </trkpt>
      <trkpt lat="45.20444" lon="6.01491">
        <ele>2043</ele>
        <time>2019-04-14T10:22:22.009Z</time>
      </trkpt>
      <trkpt lat="45.20453" lon="6.0149">
        <ele>2043</ele>
        <time>2019-04-14T10:22:31.009Z</time>
      </trkpt>
      <trkpt lat="45.20444" lon="6.0149">
        <ele>2044</ele>
        <time>2019-04-14T10:23:22.009Z</time>
      </trkpt>
      <trkpt lat="45.20452" lon="6.01482">
        <ele>2046.4669952</ele>
        <time>2019-04-14T10:23:41.009Z</time>
      </trkpt>
      <trkpt lat="45.20445" lon="6.01478">
        <ele>2051</ele>
        <time>2019-04-14T10:24:08.009Z</time>
      </trkpt>
      <trkpt lat="45.20438" lon="6.01477">
        <ele>2051</ele>
        <time>2019-04-14T10:24:19.009Z</time>
      </trkpt>
      <trkpt lat="45.20433" lon="6.0147">
        <ele>2056</ele>
        <time>2019-04-14T10:24:38.009Z</time>
      </trkpt>
      <trkpt lat="45.20441" lon="6.0146">
        <ele>2056</ele>
        <time>2019-04-14T10:24:50.009Z</time>
      </trkpt>
      <trkpt lat="45.20438" lon="6.01446">
        <ele>2059</ele>
        <time>2019-04-14T10:27:30.009Z</time>
      </trkpt>
      <trkpt lat="45.20437" lon="6.01438">
        <ele>2059</ele>
        <time>2019-04-14T10:27:38.009Z</time>
      </trkpt>
      <trkpt lat="45.20434" lon="6.01423">
        <ele>2061.4889984</ele>
        <time>2019-04-14T10:27:51.009Z</time>
      </trkpt>
      <trkpt lat="45.20434" lon="6.01412">
        <ele>2062.9779968</ele>
        <time>2019-04-14T10:28:01.009Z</time>
      </trkpt>
      <trkpt lat="45.20434" lon="6.01401">
        <ele>2064</ele>
        <time>2019-04-14T10:28:12.009Z</time>
      </trkpt>
      <trkpt lat="45.20435" lon="6.01391">
        <ele>2064</ele>
        <time>2019-04-14T10:28:18.009Z</time>
      </trkpt>
      <trkpt lat="45.20433" lon="6.01381">
        <ele>2065</ele>
        <time>2019-04-14T10:28:30.009Z</time>
      </trkpt>
      <trkpt lat="45.20431" lon="6.01371">
        <ele>2069</ele>
        <time>2019-04-14T10:28:44.009Z</time>
      </trkpt>
      <trkpt lat="45.20431" lon="6.0136">
        <ele>2070.4889984</ele>
        <time>2019-04-14T10:29:01.009Z</time>
      </trkpt>
      <trkpt lat="45.2043" lon="6.01353">
        <ele>2071</ele>
        <time>2019-04-14T10:29:08.009Z</time>
      </trkpt>
      <trkpt lat="45.20427" lon="6.01342">
        <ele>2075</ele>
        <time>2019-04-14T10:29:27.009Z</time>
      </trkpt>
      <trkpt lat="45.20428" lon="6.01333">
        <ele>2077</ele>
        <time>2019-04-14T10:29:35.009Z</time>
      </trkpt>
      <trkpt lat="45.20429" lon="6.01324">
        <ele>2080</ele>
        <time>2019-04-14T10:29:48.009Z</time>
      </trkpt>
      <trkpt lat="45.2043" lon="6.01315">
        <ele>2081.4889984</ele>
        <time>2019-04-14T10:29:56.009Z</time>
      </trkpt>
      <trkpt lat="45.20426" lon="6.01302">
        <ele>2085</ele>
        <time>2019-04-14T10:30:11.009Z</time>
      </trkpt>
      <trkpt lat="45.20423" lon="6.01288">
        <ele>2087.4889984</ele>
        <time>2019-04-14T10:30:26.009Z</time>
      </trkpt>
      <trkpt lat="45.2042" lon="6.01274">
        <ele>2090</ele>
        <time>2019-04-14T10:30:42.009Z</time>
      </trkpt>
      <trkpt lat="45.20418" lon="6.01259">
        <ele>2092</ele>
        <time>2019-04-14T10:31:14.009Z</time>
      </trkpt>
      <trkpt lat="45.20417" lon="6.01244">
        <ele>2095</ele>
        <time>2019-04-14T10:31:31.009Z</time>
      </trkpt>
      <trkpt lat="45.20413" lon="6.01236">
        <ele>2097</ele>
        <time>2019-04-14T10:31:44.009Z</time>
      </trkpt>
      <trkpt lat="45.2041" lon="6.01227">
        <ele>2100</ele>
        <time>2019-04-14T10:31:54.009Z</time>
      </trkpt>
      <trkpt lat="45.20408" lon="6.01217">
        <ele>2103</ele>
        <time>2019-04-14T10:32:04.009Z</time>
      </trkpt>
      <trkpt lat="45.20405" lon="6.01204">
        <ele>2105</ele>
        <time>2019-04-14T10:32:18.009Z</time>
      </trkpt>
      <trkpt lat="45.204" lon="6.01192">
        <ele>2108</ele>
        <time>2019-04-14T10:32:32.009Z</time>
      </trkpt>
      <trkpt lat="45.20395" lon="6.01178">
        <ele>2111</ele>
        <time>2019-04-14T10:32:47.009Z</time>
      </trkpt>
      <trkpt lat="45.20393" lon="6.01174">
        <ele>2113</ele>
        <time>2019-04-14T10:32:52.009Z</time>
      </trkpt>
      <trkpt lat="45.20392" lon="6.01169">
        <ele>2113</ele>
        <time>2019-04-14T10:32:56.009Z</time>
      </trkpt>
      <trkpt lat="45.2039" lon="6.01154">
        <ele>2114</ele>
        <time>2019-04-14T10:33:09.009Z</time>
      </trkpt>
      <trkpt lat="45.20384" lon="6.01142">
        <ele>2118</ele>
        <time>2019-04-14T10:33:23.009Z</time>
      </trkpt>
      <trkpt lat="45.20389" lon="6.01131">
        <ele>2123</ele>
        <time>2019-04-14T10:33:45.009Z</time>
      </trkpt>
      <trkpt lat="45.20399" lon="6.01127">
        <ele>2128</ele>
        <time>2019-04-14T10:34:02.009Z</time>
      </trkpt>
      <trkpt lat="45.20397" lon="6.01113">
        <ele>2131</ele>
        <time>2019-04-14T10:34:29.009Z</time>
      </trkpt>
      <trkpt lat="45.20392" lon="6.01101">
        <ele>2133</ele>
        <time>2019-04-14T10:34:42.009Z</time>
      </trkpt>
      <trkpt lat="45.20386" lon="6.01089">
        <ele>2138</ele>
        <time>2019-04-14T10:34:59.009Z</time>
      </trkpt>
      <trkpt lat="45.2039" lon="6.01075">
        <ele>2142</ele>
        <time>2019-04-14T10:35:18.009Z</time>
      </trkpt>
      <trkpt lat="45.20388" lon="6.01068">
        <ele>2145</ele>
        <time>2019-04-14T10:36:26.009Z</time>
      </trkpt>
      <trkpt lat="45.20385" lon="6.01056">
        <ele>2146</ele>
        <time>2019-04-14T10:37:17.009Z</time>
      </trkpt>
      <trkpt lat="45.20383" lon="6.01046">
        <ele>2147</ele>
        <time>2019-04-14T10:37:33.009Z</time>
      </trkpt>
      <trkpt lat="45.20383" lon="6.01039">
        <ele>2149</ele>
        <time>2019-04-14T10:37:42.009Z</time>
      </trkpt>
      <trkpt lat="45.20382" lon="6.0103">
        <ele>2152</ele>
        <time>2019-04-14T10:37:49.009Z</time>
      </trkpt>
      <trkpt lat="45.20382" lon="6.01021">
        <ele>2153</ele>
        <time>2019-04-14T10:37:59.009Z</time>
      </trkpt>
      <trkpt lat="45.2038" lon="6.01014">
        <ele>2154</ele>
        <time>2019-04-14T10:38:06.009Z</time>
      </trkpt>
      <trkpt lat="45.20378" lon="6.01005">
        <ele>2155</ele>
        <time>2019-04-14T10:38:16.009Z</time>
      </trkpt>
      <trkpt lat="45.20376" lon="6.00998">
        <ele>2156</ele>
        <time>2019-04-14T10:39:20.009Z</time>
      </trkpt>
      <trkpt lat="45.20374" lon="6.00991">
        <ele>2157</ele>
        <time>2019-04-14T10:39:29.009Z</time>
      </trkpt>
      <trkpt lat="45.20373" lon="6.00982">
        <ele>2158</ele>
        <time>2019-04-14T10:39:35.009Z</time>
      </trkpt>
      <trkpt lat="45.20371" lon="6.00976">
        <ele>2159</ele>
        <time>2019-04-14T10:39:44.009Z</time>
      </trkpt>
      <trkpt lat="45.20368" lon="6.00969">
        <ele>2159</ele>
        <time>2019-04-14T10:39:50.009Z</time>
      </trkpt>
      <trkpt lat="45.20366" lon="6.00961">
        <ele>2162</ele>
        <time>2019-04-14T10:39:59.009Z</time>
      </trkpt>
      <trkpt lat="45.20363" lon="6.00954">
        <ele>2164</ele>
        <time>2019-04-14T10:40:08.009Z</time>
      </trkpt>
      <trkpt lat="45.20359" lon="6.00946">
        <ele>2166</ele>
        <time>2019-04-14T10:40:31.009Z</time>
      </trkpt>
      <trkpt lat="45.2035" lon="6.00942">
        <ele>2171</ele>
        <time>2019-04-14T10:40:47.009Z</time>
      </trkpt>
      <trkpt lat="45.20346" lon="6.00935">
        <ele>2173</ele>
        <time>2019-04-14T10:40:59.009Z</time>
      </trkpt>
      <trkpt lat="45.20342" lon="6.00929">
        <ele>2174</ele>
        <time>2019-04-14T10:41:09.009Z</time>
      </trkpt>
      <trkpt lat="45.20338" lon="6.00916">
        <ele>2177</ele>
        <time>2019-04-14T10:41:24.009Z</time>
      </trkpt>
      <trkpt lat="45.20333" lon="6.00902">
        <ele>2179.4889984</ele>
        <time>2019-04-14T10:41:41.009Z</time>
      </trkpt>
      <trkpt lat="45.20331" lon="6.00887">
        <ele>2183</ele>
        <time>2019-04-14T10:41:57.009Z</time>
      </trkpt>
      <trkpt lat="45.20332" lon="6.00878">
        <ele>2184</ele>
        <time>2019-04-14T10:42:04.009Z</time>
      </trkpt>
      <trkpt lat="45.20331" lon="6.00868">
        <ele>2189</ele>
        <time>2019-04-14T10:42:19.009Z</time>
      </trkpt>
      <trkpt lat="45.20331" lon="6.00857">
        <ele>2189</ele>
        <time>2019-04-14T10:42:29.009Z</time>
      </trkpt>
      <trkpt lat="45.2033" lon="6.00846">
        <ele>2193</ele>
        <time>2019-04-14T10:42:43.009Z</time>
      </trkpt>
      <trkpt lat="45.20326" lon="6.00835">
        <ele>2193</ele>
        <time>2019-04-14T10:42:52.009Z</time>
      </trkpt>
      <trkpt lat="45.20322" lon="6.00825">
        <ele>2196</ele>
        <time>2019-04-14T10:43:02.009Z</time>
      </trkpt>
      <trkpt lat="45.20318" lon="6.00816">
        <ele>2197</ele>
        <time>2019-04-14T10:43:14.009Z</time>
      </trkpt>
      <trkpt lat="45.20314" lon="6.00806">
        <ele>2199</ele>
        <time>2019-04-14T10:43:25.009Z</time>
      </trkpt>
      <trkpt lat="45.20309" lon="6.00801">
        <ele>2200</ele>
        <time>2019-04-14T10:43:37.009Z</time>
      </trkpt>
      <trkpt lat="45.20304" lon="6.00794">
        <ele>2203</ele>
        <time>2019-04-14T10:43:47.009Z</time>
      </trkpt>
      <trkpt lat="45.20298" lon="6.00786">
        <ele>2205</ele>
        <time>2019-04-14T10:44:00.009Z</time>
      </trkpt>
      <trkpt lat="45.20293" lon="6.00778">
        <ele>2206.4889984</ele>
        <time>2019-04-14T10:44:11.009Z</time>
      </trkpt>
      <trkpt lat="45.20289" lon="6.0077">
        <ele>2209</ele>
        <time>2019-04-14T10:44:22.009Z</time>
      </trkpt>
      <trkpt lat="45.20286" lon="6.00762">
        <ele>2211</ele>
        <time>2019-04-14T10:44:35.009Z</time>
      </trkpt>
      <trkpt lat="45.20285" lon="6.00753">
        <ele>2213</ele>
        <time>2019-04-14T10:44:43.009Z</time>
      </trkpt>
      <trkpt lat="45.20282" lon="6.00745">
        <ele>2215</ele>
        <time>2019-04-14T10:45:00.009Z</time>
      </trkpt>
      <trkpt lat="45.20279" lon="6.00736">
        <ele>2219</ele>
        <time>2019-04-14T10:45:14.009Z</time>
      </trkpt>
      <trkpt lat="45.20278" lon="6.00727">
        <ele>2221</ele>
        <time>2019-04-14T10:45:23.009Z</time>
      </trkpt>
      <trkpt lat="45.20279" lon="6.00718">
        <ele>2223</ele>
        <time>2019-04-14T10:45:32.009Z</time>
      </trkpt>
      <trkpt lat="45.20278" lon="6.00709">
        <ele>2225</ele>
        <time>2019-04-14T10:45:44.009Z</time>
      </trkpt>
      <trkpt lat="45.20278" lon="6.00701">
        <ele>2227</ele>
        <time>2019-04-14T10:45:59.009Z</time>
      </trkpt>
      <trkpt lat="45.20277" lon="6.00694">
        <ele>2228</ele>
        <time>2019-04-14T10:46:09.009Z</time>
      </trkpt>
      <trkpt lat="45.20277" lon="6.00686">
        <ele>2230.9779968</ele>
        <time>2019-04-14T10:46:21.009Z</time>
      </trkpt>
      <trkpt lat="45.20277" lon="6.00679">
        <ele>2232</ele>
        <time>2019-04-14T10:46:30.009Z</time>
      </trkpt>
      <trkpt lat="45.20277" lon="6.00673">
        <ele>2234</ele>
        <time>2019-04-14T10:46:39.009Z</time>
      </trkpt>
      <trkpt lat="45.20275" lon="6.00667">
        <ele>2235.4889984</ele>
        <time>2019-04-14T10:46:51.009Z</time>
      </trkpt>
      <trkpt lat="45.20275" lon="6.00659">
        <ele>2236</ele>
        <time>2019-04-14T10:46:57.009Z</time>
      </trkpt>
      <trkpt lat="45.20275" lon="6.00652">
        <ele>2239</ele>
        <time>2019-04-14T10:47:08.009Z</time>
      </trkpt>
      <trkpt lat="45.20277" lon="6.00645">
        <ele>2240</ele>
        <time>2019-04-14T10:47:14.009Z</time>
      </trkpt>
      <trkpt lat="45.20279" lon="6.00637">
        <ele>2241</ele>
        <time>2019-04-14T10:47:25.009Z</time>
      </trkpt>
      <trkpt lat="45.20278" lon="6.00632">
        <ele>2244.9779968</ele>
        <time>2019-04-14T10:50:21.009Z</time>
      </trkpt>
      <trkpt lat="45.20283" lon="6.00622">
        <ele>2247</ele>
        <time>2019-04-14T10:51:41.009Z</time>
      </trkpt>
      <trkpt lat="45.20284" lon="6.00617">
        <ele>2251</ele>
        <time>2019-04-14T10:51:47.009Z</time>
      </trkpt>
      <trkpt lat="45.20284" lon="6.00612">
        <ele>2252</ele>
        <time>2019-04-14T10:51:52.009Z</time>
      </trkpt>
      <trkpt lat="45.20285" lon="6.00607">
        <ele>2252</ele>
        <time>2019-04-14T10:51:58.009Z</time>
      </trkpt>
      <trkpt lat="45.20286" lon="6.00593">
        <ele>2252.9779968</ele>
        <time>2019-04-14T10:52:11.009Z</time>
      </trkpt>
      <trkpt lat="45.20287" lon="6.00578">
        <ele>2256.4889984</ele>
        <time>2019-04-14T10:52:26.009Z</time>
      </trkpt>
      <trkpt lat="45.20286" lon="6.00566">
        <ele>2259</ele>
        <time>2019-04-14T10:52:42.009Z</time>
      </trkpt>
      <trkpt lat="45.20286" lon="6.00556">
        <ele>2261</ele>
        <time>2019-04-14T10:52:52.009Z</time>
      </trkpt>
      <trkpt lat="45.20287" lon="6.00547">
        <ele>2263</ele>
        <time>2019-04-14T10:53:02.009Z</time>
      </trkpt>
      <trkpt lat="45.20286" lon="6.00538">
        <ele>2266</ele>
        <time>2019-04-14T10:53:13.009Z</time>
      </trkpt>
      <trkpt lat="45.20291" lon="6.00532">
        <ele>2267</ele>
        <time>2019-04-14T10:53:25.009Z</time>
      </trkpt>
      <trkpt lat="45.20294" lon="6.0052">
        <ele>2273</ele>
        <time>2019-04-14T10:53:50.009Z</time>
      </trkpt>
      <trkpt lat="45.20296" lon="6.0051">
        <ele>2277</ele>
        <time>2019-04-14T10:54:15.009Z</time>
      </trkpt>
      <trkpt lat="45.20298" lon="6.00499">
        <ele>2281</ele>
        <time>2019-04-14T10:54:28.009Z</time>
      </trkpt>
      <trkpt lat="45.203" lon="6.00488">
        <ele>2283.9779968</ele>
        <time>2019-04-14T10:54:41.009Z</time>
      </trkpt>
      <trkpt lat="45.20302" lon="6.00477">
        <ele>2286</ele>
        <time>2019-04-14T10:54:56.009Z</time>
      </trkpt>
      <trkpt lat="45.20305" lon="6.00466">
        <ele>2290</ele>
        <time>2019-04-14T10:55:09.009Z</time>
      </trkpt>
      <trkpt lat="45.2031" lon="6.00461">
        <ele>2290</ele>
        <time>2019-04-14T10:55:24.009Z</time>
      </trkpt>
      <trkpt lat="45.20306" lon="6.00458">
        <ele>2291</ele>
        <time>2019-04-14T10:56:25.009Z</time>
      </trkpt>
      <trkpt lat="45.203" lon="6.00448">
        <ele>2293</ele>
        <time>2019-04-14T10:58:37.009Z</time>
      </trkpt>
      <trkpt lat="45.20296" lon="6.00436">
        <ele>2298</ele>
        <time>2019-04-14T10:58:54.009Z</time>
      </trkpt>
      <trkpt lat="45.20295" lon="6.0043">
        <ele>2299</ele>
        <time>2019-04-14T10:59:08.009Z</time>
      </trkpt>
      <trkpt lat="45.20293" lon="6.00425">
        <ele>2300</ele>
        <time>2019-04-14T10:59:15.009Z</time>
      </trkpt>
      <trkpt lat="45.20291" lon="6.00419">
        <ele>2302</ele>
        <time>2019-04-14T10:59:24.009Z</time>
      </trkpt>
      <trkpt lat="45.2029" lon="6.00414">
        <ele>2304</ele>
        <time>2019-04-14T10:59:32.009Z</time>
      </trkpt>
      <trkpt lat="45.20289" lon="6.00409">
        <ele>2305</ele>
        <time>2019-04-14T10:59:38.009Z</time>
      </trkpt>
      <trkpt lat="45.20288" lon="6.00405">
        <ele>2306</ele>
        <time>2019-04-14T10:59:45.009Z</time>
      </trkpt>
      <trkpt lat="45.20287" lon="6.004">
        <ele>2306.4889984</ele>
        <time>2019-04-14T10:59:51.009Z</time>
      </trkpt>
      <trkpt lat="45.20283" lon="6.004">
        <ele>2307</ele>
        <time>2019-04-14T10:59:59.009Z</time>
      </trkpt>
      <trkpt lat="45.2028" lon="6.00402">
        <ele>2310</ele>
        <time>2019-04-14T11:00:05.009Z</time>
      </trkpt>
      <trkpt lat="45.20273" lon="6.00406">
        <ele>2311</ele>
        <time>2019-04-14T11:00:27.009Z</time>
      </trkpt>
      <trkpt lat="45.20266" lon="6.00405">
        <ele>2316</ele>
        <time>2019-04-14T11:00:50.009Z</time>
      </trkpt>
      <trkpt lat="45.20261" lon="6.00411">
        <ele>2318</ele>
        <time>2019-04-14T11:01:03.009Z</time>
      </trkpt>
      <trkpt lat="45.20255" lon="6.00407">
        <ele>2321</ele>
        <time>2019-04-14T11:01:19.009Z</time>
      </trkpt>
      <trkpt lat="45.20251" lon="6.00398">
        <ele>2324</ele>
        <time>2019-04-14T11:01:46.009Z</time>
      </trkpt>
      <trkpt lat="45.20247" lon="6.00395">
        <ele>2325</ele>
        <time>2019-04-14T11:01:53.009Z</time>
      </trkpt>
      <trkpt lat="45.20241" lon="6.00386">
        <ele>2329</ele>
        <time>2019-04-14T11:02:08.009Z</time>
      </trkpt>
      <trkpt lat="45.20237" lon="6.00375">
        <ele>2332</ele>
        <time>2019-04-14T11:02:22.009Z</time>
      </trkpt>
      <trkpt lat="45.20236" lon="6.0037">
        <ele>2333</ele>
        <time>2019-04-14T11:02:27.009Z</time>
      </trkpt>
      <trkpt lat="45.20235" lon="6.00367">
        <ele>2333.4889984</ele>
        <time>2019-04-14T11:02:31.009Z</time>
      </trkpt>
      <trkpt lat="45.20235" lon="6.00363">
        <ele>2334</ele>
        <time>2019-04-14T11:02:35.009Z</time>
      </trkpt>
      <trkpt lat="45.20234" lon="6.00359">
        <ele>2334</ele>
        <time>2019-04-14T11:02:40.009Z</time>
      </trkpt>
      <trkpt lat="45.20234" lon="6.00345">
        <ele>2338</ele>
        <time>2019-04-14T11:03:03.009Z</time>
      </trkpt>
      <trkpt lat="45.20238" lon="6.00331">
        <ele>2342</ele>
        <time>2019-04-14T11:03:22.009Z</time>
      </trkpt>
      <trkpt lat="45.20244" lon="6.00323">
        <ele>2344.4889984</ele>
        <time>2019-04-14T11:03:36.009Z</time>
      </trkpt>
      <trkpt lat="45.20249" lon="6.00314">
        <ele>2347</ele>
        <time>2019-04-14T11:03:52.009Z</time>
      </trkpt>
      <trkpt lat="45.20248" lon="6.00304">
        <ele>2349</ele>
        <time>2019-04-14T11:04:05.009Z</time>
      </trkpt>
      <trkpt lat="45.20246" lon="6.00294">
        <ele>2353</ele>
        <time>2019-04-14T11:04:20.009Z</time>
      </trkpt>
      <trkpt lat="45.20244" lon="6.00285">
        <ele>2354.9779968</ele>
        <time>2019-04-14T11:04:31.009Z</time>
      </trkpt>
      <trkpt lat="45.20243" lon="6.00277">
        <ele>2357</ele>
        <time>2019-04-14T11:04:40.009Z</time>
      </trkpt>
      <trkpt lat="45.20243" lon="6.00267">
        <ele>2359.4889984</ele>
        <time>2019-04-14T11:04:51.009Z</time>
      </trkpt>
      <trkpt lat="45.20243" lon="6.0026">
        <ele>2360</ele>
        <time>2019-04-14T11:04:59.009Z</time>
      </trkpt>
      <trkpt lat="45.20244" lon="6.00253">
        <ele>2361</ele>
        <time>2019-04-14T11:05:06.009Z</time>
      </trkpt>
      <trkpt lat="45.20246" lon="6.00244">
        <ele>2362</ele>
        <time>2019-04-14T11:05:16.009Z</time>
      </trkpt>
      <trkpt lat="45.20247" lon="6.00239">
        <ele>2363</ele>
        <time>2019-04-14T11:05:23.009Z</time>
      </trkpt>
      <trkpt lat="45.20245" lon="6.00234">
        <ele>2366</ele>
        <time>2019-04-14T11:05:37.009Z</time>
      </trkpt>
      <trkpt lat="45.2024" lon="6.00224">
        <ele>2371</ele>
        <time>2019-04-14T11:06:05.009Z</time>
      </trkpt>
      <trkpt lat="45.20231" lon="6.00224">
        <ele>2374</ele>
        <time>2019-04-14T11:06:29.009Z</time>
      </trkpt>
      <trkpt lat="45.20233" lon="6.00212">
        <ele>2376</ele>
        <time>2019-04-14T11:06:48.009Z</time>
      </trkpt>
      <trkpt lat="45.20224" lon="6.00211">
        <ele>2381</ele>
        <time>2019-04-14T11:07:18.009Z</time>
      </trkpt>
      <trkpt lat="45.20225" lon="6.00204">
        <ele>2385</ele>
        <time>2019-04-14T11:07:33.009Z</time>
      </trkpt>
      <trkpt lat="45.20226" lon="6.00198">
        <ele>2386</ele>
        <time>2019-04-14T11:07:40.009Z</time>
      </trkpt>
      <trkpt lat="45.2023" lon="6.0019">
        <ele>2388</ele>
        <time>2019-04-14T11:07:52.009Z</time>
      </trkpt>
      <trkpt lat="45.20234" lon="6.00183">
        <ele>2390</ele>
        <time>2019-04-14T11:08:02.009Z</time>
      </trkpt>
      <trkpt lat="45.20238" lon="6.00179">
        <ele>2390.4889984</ele>
        <time>2019-04-14T11:08:11.009Z</time>
      </trkpt>
      <trkpt lat="45.2024" lon="6.00174">
        <ele>2391</ele>
        <time>2019-04-14T11:08:17.009Z</time>
      </trkpt>
      <trkpt lat="45.20234" lon="6.0017">
        <ele>2394</ele>
        <time>2019-04-14T11:08:30.009Z</time>
      </trkpt>
      <trkpt lat="45.20229" lon="6.00169">
        <ele>2394</ele>
        <time>2019-04-14T11:08:39.009Z</time>
      </trkpt>
      <trkpt lat="45.20224" lon="6.00168">
        <ele>2397</ele>
        <time>2019-04-14T11:08:50.009Z</time>
      </trkpt>
      <trkpt lat="45.20227" lon="6.00155">
        <ele>2398</ele>
        <time>2019-04-14T11:09:08.009Z</time>
      </trkpt>
      <trkpt lat="45.20221" lon="6.00155">
        <ele>2403</ele>
        <time>2019-04-14T11:09:33.009Z</time>
      </trkpt>
      <trkpt lat="45.20217" lon="6.00157">
        <ele>2403</ele>
        <time>2019-04-14T11:09:38.009Z</time>
      </trkpt>
      <trkpt lat="45.20212" lon="6.00159">
        <ele>2403</ele>
        <time>2019-04-14T11:09:44.009Z</time>
      </trkpt>
      <trkpt lat="45.20208" lon="6.00163">
        <ele>2404</ele>
        <time>2019-04-14T11:09:53.009Z</time>
      </trkpt>
      <trkpt lat="45.20206" lon="6.00156">
        <ele>2407</ele>
        <time>2019-04-14T11:10:12.009Z</time>
      </trkpt>
      <trkpt lat="45.20207" lon="6.0015">
        <ele>2407</ele>
        <time>2019-04-14T11:10:20.009Z</time>
      </trkpt>
      <trkpt lat="45.20203" lon="6.00152">
        <ele>2410</ele>
        <time>2019-04-14T11:10:33.009Z</time>
      </trkpt>
      <trkpt lat="45.202" lon="6.00155">
        <ele>2410.4889984</ele>
        <time>2019-04-14T11:10:41.009Z</time>
      </trkpt>
      <trkpt lat="45.20199" lon="6.00148">
        <ele>2415</ele>
        <time>2019-04-14T11:10:58.009Z</time>
      </trkpt>
      <trkpt lat="45.20201" lon="6.00143">
        <ele>2414</ele>
        <time>2019-04-14T11:11:04.009Z</time>
      </trkpt>
      <trkpt lat="45.20196" lon="6.00141">
        <ele>2417</ele>
        <time>2019-04-14T11:11:25.009Z</time>
      </trkpt>
      <trkpt lat="45.20192" lon="6.00142">
        <ele>2420</ele>
        <time>2019-04-14T11:11:38.009Z</time>
      </trkpt>
      <trkpt lat="45.20193" lon="6.00137">
        <ele>2420</ele>
        <time>2019-04-14T11:11:44.009Z</time>
      </trkpt>
      <trkpt lat="45.20194" lon="6.0013">
        <ele>2421</ele>
        <time>2019-04-14T11:11:52.009Z</time>
      </trkpt>
      <trkpt lat="45.20188" lon="6.00126">
        <ele>2423</ele>
        <time>2019-04-14T11:12:17.009Z</time>
      </trkpt>
      <trkpt lat="45.20187" lon="6.00119">
        <ele>2427</ele>
        <time>2019-04-14T11:12:33.009Z</time>
      </trkpt>
      <trkpt lat="45.20189" lon="6.00112">
        <ele>2427.9779968</ele>
        <time>2019-04-14T11:12:41.009Z</time>
      </trkpt>
      <trkpt lat="45.20191" lon="6.00108">
        <ele>2429</ele>
        <time>2019-04-14T11:12:47.009Z</time>
      </trkpt>
      <trkpt lat="45.20193" lon="6.00104">
        <ele>2431</ele>
        <time>2019-04-14T11:12:53.009Z</time>
      </trkpt>
      <trkpt lat="45.20195" lon="6.001">
        <ele>2432</ele>
        <time>2019-04-14T11:13:00.009Z</time>
      </trkpt>
      <trkpt lat="45.20192" lon="6.00097">
        <ele>2431</ele>
        <time>2019-04-14T11:13:08.009Z</time>
      </trkpt>
      <trkpt lat="45.20189" lon="6.00096">
        <ele>2431.9779968</ele>
        <time>2019-04-14T11:13:11.009Z</time>
      </trkpt>
      <trkpt lat="45.20186" lon="6.00095">
        <ele>2433</ele>
        <time>2019-04-14T11:13:15.009Z</time>
      </trkpt>
      <trkpt lat="45.20184" lon="6.00093">
        <ele>2433</ele>
        <time>2019-04-14T11:13:20.009Z</time>
      </trkpt>
      <trkpt lat="45.20177" lon="6.0009">
        <ele>2437</ele>
        <time>2019-04-14T11:13:34.009Z</time>
      </trkpt>
      <trkpt lat="45.2018" lon="6.00097">
        <ele>2435</ele>
        <time>2019-04-14T11:19:08.009Z</time>
      </trkpt>
      <trkpt lat="45.20175" lon="6.00091">
        <ele>2437</ele>
        <time>2019-04-14T11:21:35.009Z</time>
      </trkpt>
      <trkpt lat="45.2018" lon="6.00091">
        <ele>2435</ele>
        <time>2019-04-14T11:28:43.009Z</time>
      </trkpt>
      <trkpt lat="45.20174" lon="6.00088">
        <ele>2435</ele>
        <time>2019-04-14T11:34:02.009Z</time>
      </trkpt>
      <trkpt lat="45.20176" lon="6.00093">
        <ele>2437</ele>
        <time>2019-04-14T11:35:29.009Z</time>
      </trkpt>
      <trkpt lat="45.20174" lon="6.00093">
        <ele>2437</ele>
        <time>2019-04-14T11:37:24.009Z</time>
      </trkpt>
      <trkpt lat="45.20171" lon="6.00092">
        <ele>2438</ele>
        <time>2019-04-14T11:37:38.009Z</time>
      </trkpt>
      <trkpt lat="45.20169" lon="6.00092">
        <ele>2438</ele>
        <time>2019-04-14T11:37:48.009Z</time>
      </trkpt>
      <trkpt lat="45.20159" lon="6.0009">
        <ele>2441</ele>
        <time>2019-04-14T11:38:04.009Z</time>
      </trkpt>
      <trkpt lat="45.20159" lon="6.00078">
        <ele>2444</ele>
        <time>2019-04-14T11:38:26.009Z</time>
      </trkpt>
      <trkpt lat="45.20161" lon="6.00075">
        <ele>2444.4889984</ele>
        <time>2019-04-14T11:38:31.009Z</time>
      </trkpt>
      <trkpt lat="45.20163" lon="6.00072">
        <ele>2445</ele>
        <time>2019-04-14T11:38:35.009Z</time>
      </trkpt>
      <trkpt lat="45.2016" lon="6.00071">
        <ele>2447</ele>
        <time>2019-04-14T11:38:42.009Z</time>
      </trkpt>
      <trkpt lat="45.20156" lon="6.0007">
        <ele>2448</ele>
        <time>2019-04-14T11:38:47.009Z</time>
      </trkpt>
      <trkpt lat="45.20157" lon="6.00066">
        <ele>2450</ele>
        <time>2019-04-14T11:38:53.009Z</time>
      </trkpt>
      <trkpt lat="45.20158" lon="6.00063">
        <ele>2450</ele>
        <time>2019-04-14T11:38:58.009Z</time>
      </trkpt>
      <trkpt lat="45.2016" lon="6.0006">
        <ele>2450</ele>
        <time>2019-04-14T11:39:03.009Z</time>
      </trkpt>
      <trkpt lat="45.20162" lon="6.00058">
        <ele>2450</ele>
        <time>2019-04-14T11:39:07.009Z</time>
      </trkpt>
      <trkpt lat="45.20163" lon="6.00055">
        <ele>2451.4669952</ele>
        <time>2019-04-14T11:39:11.009Z</time>
      </trkpt>
      <trkpt lat="45.20164" lon="6.00052">
        <ele>2453</ele>
        <time>2019-04-14T11:39:15.009Z</time>
      </trkpt>
      <trkpt lat="45.20166" lon="6.0005">
        <ele>2454</ele>
        <time>2019-04-14T11:39:19.009Z</time>
      </trkpt>
      <trkpt lat="45.20168" lon="6.00048">
        <ele>2454</ele>
        <time>2019-04-14T11:39:23.009Z</time>
      </trkpt>
      <trkpt lat="45.2017" lon="6.00046">
        <ele>2454</ele>
        <time>2019-04-14T11:39:27.009Z</time>
      </trkpt>
      <trkpt lat="45.20167" lon="6.00042">
        <ele>2456</ele>
        <time>2019-04-14T11:39:41.009Z</time>
      </trkpt>
      <trkpt lat="45.20164" lon="6.00041">
        <ele>2456</ele>
        <time>2019-04-14T11:39:45.009Z</time>
      </trkpt>
      <trkpt lat="45.20161" lon="6.00041">
        <ele>2456</ele>
        <time>2019-04-14T11:39:50.009Z</time>
      </trkpt>
      <trkpt lat="45.20158" lon="6.00042">
        <ele>2457</ele>
        <time>2019-04-14T11:39:56.009Z</time>
      </trkpt>
      <trkpt lat="45.20156" lon="6.00043">
        <ele>2457</ele>
        <time>2019-04-14T11:40:00.009Z</time>
      </trkpt>
      <trkpt lat="45.20155" lon="6.0004">
        <ele>2461</ele>
        <time>2019-04-14T11:40:07.009Z</time>
      </trkpt>
      <trkpt lat="45.20156" lon="6.00036">
        <ele>2461</ele>
        <time>2019-04-14T11:40:12.009Z</time>
      </trkpt>
      <trkpt lat="45.20158" lon="6.00033">
        <ele>2461</ele>
        <time>2019-04-14T11:40:15.009Z</time>
      </trkpt>
      <trkpt lat="45.20159" lon="6.0003">
        <ele>2461</ele>
        <time>2019-04-14T11:40:18.009Z</time>
      </trkpt>
      <trkpt lat="45.2016" lon="6.00028">
        <ele>2461.9779968</ele>
        <time>2019-04-14T11:40:21.009Z</time>
      </trkpt>
      <trkpt lat="45.20162" lon="6.00024">
        <ele>2463</ele>
        <time>2019-04-14T11:40:24.009Z</time>
      </trkpt>
      <trkpt lat="45.20162" lon="6.00021">
        <ele>2464</ele>
        <time>2019-04-14T11:40:31.009Z</time>
      </trkpt>
      <trkpt lat="45.20159" lon="6.0002">
        <ele>2464</ele>
        <time>2019-04-14T11:40:35.009Z</time>
      </trkpt>
      <trkpt lat="45.20157" lon="6.00019">
        <ele>2464.4889984</ele>
        <time>2019-04-14T11:40:41.009Z</time>
      </trkpt>
      <trkpt lat="45.20153" lon="6.00019">
        <ele>2465</ele>
        <time>2019-04-14T11:40:46.009Z</time>
      </trkpt>
      <trkpt lat="45.20151" lon="6.00009">
        <ele>2470</ele>
        <time>2019-04-14T11:41:03.009Z</time>
      </trkpt>
      <trkpt lat="45.20148" lon="5.99996">
        <ele>2472</ele>
        <time>2019-04-14T11:41:20.009Z</time>
      </trkpt>
      <trkpt lat="45.20147" lon="5.99992">
        <ele>2474</ele>
        <time>2019-04-14T11:41:24.009Z</time>
      </trkpt>
      <trkpt lat="45.20145" lon="5.99987">
        <ele>2475</ele>
        <time>2019-04-14T11:41:29.009Z</time>
      </trkpt>
      <trkpt lat="45.20143" lon="5.99982">
        <ele>2477</ele>
        <time>2019-04-14T11:41:37.009Z</time>
      </trkpt>
      <trkpt lat="45.20142" lon="5.99977">
        <ele>2478</ele>
        <time>2019-04-14T11:41:42.009Z</time>
      </trkpt>
      <trkpt lat="45.20142" lon="5.99973">
        <ele>2478</ele>
        <time>2019-04-14T11:41:46.009Z</time>
      </trkpt>
      <trkpt lat="45.20143" lon="5.99969">
        <ele>2478</ele>
        <time>2019-04-14T11:41:50.009Z</time>
      </trkpt>
      <trkpt lat="45.20143" lon="5.99965">
        <ele>2480</ele>
        <time>2019-04-14T11:41:54.009Z</time>
      </trkpt>
      <trkpt lat="45.20142" lon="5.99961">
        <ele>2483</ele>
        <time>2019-04-14T11:41:59.009Z</time>
      </trkpt>
      <trkpt lat="45.20141" lon="5.99956">
        <ele>2483</ele>
        <time>2019-04-14T11:42:04.009Z</time>
      </trkpt>
      <trkpt lat="45.20141" lon="5.99953">
        <ele>2484</ele>
        <time>2019-04-14T11:42:08.009Z</time>
      </trkpt>
      <trkpt lat="45.2014" lon="5.9995">
        <ele>2485</ele>
        <time>2019-04-14T11:42:13.009Z</time>
      </trkpt>
      <trkpt lat="45.2014" lon="5.99946">
        <ele>2486</ele>
        <time>2019-04-14T11:42:18.009Z</time>
      </trkpt>
      <trkpt lat="45.20139" lon="5.99939">
        <ele>2483</ele>
        <time>2019-04-14T11:42:46.009Z</time>
      </trkpt>
      <trkpt lat="45.20138" lon="5.99937">
        <ele>2483</ele>
        <time>2019-04-14T11:44:30.009Z</time>
      </trkpt>
      <trkpt lat="45.20138" lon="5.99935">
        <ele>2484</ele>
        <time>2019-04-14T11:44:34.009Z</time>
      </trkpt>
      <trkpt lat="45.20138" lon="5.99932">
        <ele>2484</ele>
        <time>2019-04-14T11:45:06.009Z</time>
      </trkpt>
      <trkpt lat="45.20138" lon="5.99929">
        <ele>2484</ele>
        <time>2019-04-14T11:45:07.009Z</time>
      </trkpt>
      <trkpt lat="45.20138" lon="5.99927">
        <ele>2484</ele>
        <time>2019-04-14T11:45:08.009Z</time>
      </trkpt>
      <trkpt lat="45.20137" lon="5.99925">
        <ele>2484</ele>
        <time>2019-04-14T11:45:09.009Z</time>
      </trkpt>
      <trkpt lat="45.20137" lon="5.99921">
        <ele>2484</ele>
        <time>2019-04-14T11:45:10.009Z</time>
      </trkpt>
      <trkpt lat="45.20137" lon="5.99917">
        <ele>2483.0316832687</ele>
        <time>2019-04-14T11:45:11.009Z</time>
      </trkpt>
      <trkpt lat="45.20137" lon="5.99911">
        <ele>2482</ele>
        <time>2019-04-14T11:45:12.009Z</time>
      </trkpt>
      <trkpt lat="45.20137" lon="5.99905">
        <ele>2482</ele>
        <time>2019-04-14T11:45:13.009Z</time>
      </trkpt>
      <trkpt lat="45.20137" lon="5.99901">
        <ele>2482</ele>
        <time>2019-04-14T11:45:14.009Z</time>
      </trkpt>
      <trkpt lat="45.20138" lon="5.99898">
        <ele>2482</ele>
        <time>2019-04-14T11:45:15.009Z</time>
      </trkpt>
      <trkpt lat="45.20139" lon="5.99895">
        <ele>2478</ele>
        <time>2019-04-14T11:45:18.009Z</time>
      </trkpt>
      <trkpt lat="45.20139" lon="5.99892">
        <ele>2478</ele>
        <time>2019-04-14T11:45:20.009Z</time>
      </trkpt>
      <trkpt lat="45.20141" lon="5.99887">
        <ele>2477</ele>
        <time>2019-04-14T11:45:24.009Z</time>
      </trkpt>
      <trkpt lat="45.20142" lon="5.99881">
        <ele>2476</ele>
        <time>2019-04-14T11:45:28.009Z</time>
      </trkpt>
      <trkpt lat="45.20144" lon="5.99875">
        <ele>2477</ele>
        <time>2019-04-14T11:45:34.009Z</time>
      </trkpt>
      <trkpt lat="45.20148" lon="5.99867">
        <ele>2477</ele>
        <time>2019-04-14T11:45:50.009Z</time>
      </trkpt>
      <trkpt lat="45.20151" lon="5.99858">
        <ele>2480</ele>
        <time>2019-04-14T11:46:07.009Z</time>
      </trkpt>
      <trkpt lat="45.20153" lon="5.99855">
        <ele>2480</ele>
        <time>2019-04-14T11:46:18.009Z</time>
      </trkpt>
      <trkpt lat="45.20153" lon="5.99852">
        <ele>2480.9779968</ele>
        <time>2019-04-14T11:46:21.009Z</time>
      </trkpt>
      <trkpt lat="45.20154" lon="5.9985">
        <ele>2482</ele>
        <time>2019-04-14T11:46:24.009Z</time>
      </trkpt>
      <trkpt lat="45.20156" lon="5.99846">
        <ele>2482</ele>
        <time>2019-04-14T11:46:27.009Z</time>
      </trkpt>
      <trkpt lat="45.20157" lon="5.99844">
        <ele>2482</ele>
        <time>2019-04-14T11:46:30.009Z</time>
      </trkpt>
      <trkpt lat="45.20158" lon="5.99841">
        <ele>2484</ele>
        <time>2019-04-14T11:46:35.009Z</time>
      </trkpt>
      <trkpt lat="45.20158" lon="5.99838">
        <ele>2484</ele>
        <time>2019-04-14T11:46:39.009Z</time>
      </trkpt>
      <trkpt lat="45.20158" lon="5.99835">
        <ele>2485</ele>
        <time>2019-04-14T11:46:42.009Z</time>
      </trkpt>
      <trkpt lat="45.20158" lon="5.99832">
        <ele>2485</ele>
        <time>2019-04-14T11:46:46.009Z</time>
      </trkpt>
      <trkpt lat="45.20159" lon="5.99829">
        <ele>2485</ele>
        <time>2019-04-14T11:46:50.009Z</time>
      </trkpt>
      <trkpt lat="45.2016" lon="5.99826">
        <ele>2486</ele>
        <time>2019-04-14T11:46:54.009Z</time>
      </trkpt>
      <trkpt lat="45.2016" lon="5.99823">
        <ele>2486</ele>
        <time>2019-04-14T11:46:58.009Z</time>
      </trkpt>
      <trkpt lat="45.20161" lon="5.99817">
        <ele>2487</ele>
        <time>2019-04-14T11:47:07.009Z</time>
      </trkpt>
      <trkpt lat="45.20162" lon="5.99814">
        <ele>2487</ele>
        <time>2019-04-14T11:47:15.009Z</time>
      </trkpt>
      <trkpt lat="45.20162" lon="5.99811">
        <ele>2487</ele>
        <time>2019-04-14T11:47:20.009Z</time>
      </trkpt>
      <trkpt lat="45.20162" lon="5.99808">
        <ele>2489</ele>
        <time>2019-04-14T11:47:24.009Z</time>
      </trkpt>
      <trkpt lat="45.20163" lon="5.99805">
        <ele>2490</ele>
        <time>2019-04-14T11:47:27.009Z</time>
      </trkpt>
      <trkpt lat="45.20164" lon="5.99799">
        <ele>2490</ele>
        <time>2019-04-14T11:47:38.009Z</time>
      </trkpt>
      <trkpt lat="45.20165" lon="5.9979">
        <ele>2490</ele>
        <time>2019-04-14T11:47:50.009Z</time>
      </trkpt>
      <trkpt lat="45.20166" lon="5.9978">
        <ele>2492</ele>
        <time>2019-04-14T11:48:06.009Z</time>
      </trkpt>
      <trkpt lat="45.20166" lon="5.99772">
        <ele>2496</ele>
        <time>2019-04-14T11:48:18.009Z</time>
      </trkpt>
      <trkpt lat="45.20167" lon="5.99768">
        <ele>2496</ele>
        <time>2019-04-14T11:48:29.009Z</time>
      </trkpt>
      <trkpt lat="45.20166" lon="5.99763">
        <ele>2495</ele>
        <time>2019-04-14T11:48:37.009Z</time>
      </trkpt>
      <trkpt lat="45.20166" lon="5.99754">
        <ele>2498</ele>
        <time>2019-04-14T11:49:19.009Z</time>
      </trkpt>
      <trkpt lat="45.20167" lon="5.99745">
        <ele>2500</ele>
        <time>2019-04-14T11:49:33.009Z</time>
      </trkpt>
      <trkpt lat="45.20168" lon="5.9974">
        <ele>2500</ele>
        <time>2019-04-14T11:49:42.009Z</time>
      </trkpt>
      <trkpt lat="45.20169" lon="5.99735">
        <ele>2502</ele>
        <time>2019-04-14T11:49:53.009Z</time>
      </trkpt>
      <trkpt lat="45.20172" lon="5.99729">
        <ele>2503</ele>
        <time>2019-04-14T11:50:03.009Z</time>
      </trkpt>
      <trkpt lat="45.20175" lon="5.99722">
        <ele>2503</ele>
        <time>2019-04-14T11:50:19.009Z</time>
      </trkpt>
      <trkpt lat="45.20177" lon="5.99723">
        <ele>2507</ele>
        <time>2019-04-14T11:51:15.009Z</time>
      </trkpt>
      <trkpt lat="45.20178" lon="5.99727">
        <ele>2507</ele>
        <time>2019-04-14T11:51:19.009Z</time>
      </trkpt>
      <trkpt lat="45.20178" lon="5.9973">
        <ele>2508</ele>
        <time>2019-04-14T11:51:22.009Z</time>
      </trkpt>
      <trkpt lat="45.20178" lon="5.99733">
        <ele>2508</ele>
        <time>2019-04-14T11:51:25.009Z</time>
      </trkpt>
      <trkpt lat="45.20179" lon="5.9973">
        <ele>2511</ele>
        <time>2019-04-14T11:51:32.009Z</time>
      </trkpt>
      <trkpt lat="45.20182" lon="5.99727">
        <ele>2512</ele>
        <time>2019-04-14T11:51:38.009Z</time>
      </trkpt>
      <trkpt lat="45.20184" lon="5.99732">
        <ele>2512</ele>
        <time>2019-04-14T11:51:45.009Z</time>
      </trkpt>
      <trkpt lat="45.20184" lon="5.99735">
        <ele>2512</ele>
        <time>2019-04-14T11:51:48.009Z</time>
      </trkpt>
      <trkpt lat="45.20185" lon="5.99737">
        <ele>2512.9779968</ele>
        <time>2019-04-14T11:51:51.009Z</time>
      </trkpt>
      <trkpt lat="45.20186" lon="5.9974">
        <ele>2514</ele>
        <time>2019-04-14T11:51:54.009Z</time>
      </trkpt>
      <trkpt lat="45.20187" lon="5.99743">
        <ele>2515</ele>
        <time>2019-04-14T11:51:58.009Z</time>
      </trkpt>
      <trkpt lat="45.20187" lon="5.99745">
        <ele>2515</ele>
        <time>2019-04-14T11:52:01.009Z</time>
      </trkpt>
      <trkpt lat="45.20191" lon="5.99738">
        <ele>2515.4889984</ele>
        <time>2019-04-14T11:52:21.009Z</time>
      </trkpt>
      <trkpt lat="45.20193" lon="5.99729">
        <ele>2516.9779968</ele>
        <time>2019-04-14T11:52:31.009Z</time>
      </trkpt>
      <trkpt lat="45.20196" lon="5.9972">
        <ele>2520</ele>
        <time>2019-04-14T11:52:44.009Z</time>
      </trkpt>
      <trkpt lat="45.202" lon="5.99715">
        <ele>2521</ele>
        <time>2019-04-14T11:53:00.009Z</time>
      </trkpt>
      <trkpt lat="45.20201" lon="5.99719">
        <ele>2525</ele>
        <time>2019-04-14T11:54:00.009Z</time>
      </trkpt>
      <trkpt lat="45.20203" lon="5.99727">
        <ele>2526</ele>
        <time>2019-04-14T11:55:23.009Z</time>
      </trkpt>
      <trkpt lat="45.20206" lon="5.99738">
        <ele>2528</ele>
        <time>2019-04-14T11:55:34.009Z</time>
      </trkpt>
      <trkpt lat="45.20207" lon="5.99746">
        <ele>2530</ele>
        <time>2019-04-14T11:55:43.009Z</time>
      </trkpt>
      <trkpt lat="45.20211" lon="5.99738">
        <ele>2531.4889984</ele>
        <time>2019-04-14T11:56:01.009Z</time>
      </trkpt>
      <trkpt lat="45.20216" lon="5.99745">
        <ele>2535</ele>
        <time>2019-04-14T11:56:23.009Z</time>
      </trkpt>
      <trkpt lat="45.20217" lon="5.99751">
        <ele>2535</ele>
        <time>2019-04-14T11:56:29.009Z</time>
      </trkpt>
      <trkpt lat="45.20217" lon="5.99754">
        <ele>2538</ele>
        <time>2019-04-14T11:56:32.009Z</time>
      </trkpt>
      <trkpt lat="45.20218" lon="5.99763">
        <ele>2540</ele>
        <time>2019-04-14T11:56:41.009Z</time>
      </trkpt>
      <trkpt lat="45.20219" lon="5.99772">
        <ele>2541</ele>
        <time>2019-04-14T11:56:51.009Z</time>
      </trkpt>
      <trkpt lat="45.20225" lon="5.99765">
        <ele>2545</ele>
        <time>2019-04-14T11:57:17.009Z</time>
      </trkpt>
      <trkpt lat="45.2023" lon="5.99757">
        <ele>2547</ele>
        <time>2019-04-14T11:57:27.009Z</time>
      </trkpt>
      <trkpt lat="45.20232" lon="5.99761">
        <ele>2550</ele>
        <time>2019-04-14T11:57:39.009Z</time>
      </trkpt>
      <trkpt lat="45.20235" lon="5.99763">
        <ele>2550</ele>
        <time>2019-04-14T11:57:49.009Z</time>
      </trkpt>
      <trkpt lat="45.20237" lon="5.99768">
        <ele>2552</ele>
        <time>2019-04-14T11:58:08.009Z</time>
      </trkpt>
      <trkpt lat="45.20238" lon="5.99774">
        <ele>2554</ele>
        <time>2019-04-14T11:58:13.009Z</time>
      </trkpt>
      <trkpt lat="45.20238" lon="5.9978">
        <ele>2554</ele>
        <time>2019-04-14T11:58:19.009Z</time>
      </trkpt>
      <trkpt lat="45.20239" lon="5.99787">
        <ele>2554</ele>
        <time>2019-04-14T11:58:26.009Z</time>
      </trkpt>
      <trkpt lat="45.20241" lon="5.99793">
        <ele>2556</ele>
        <time>2019-04-14T11:58:33.009Z</time>
      </trkpt>
      <trkpt lat="45.20242" lon="5.998">
        <ele>2557</ele>
        <time>2019-04-14T11:58:39.009Z</time>
      </trkpt>
      <trkpt lat="45.20243" lon="5.99805">
        <ele>2559</ele>
        <time>2019-04-14T11:58:46.009Z</time>
      </trkpt>
      <trkpt lat="45.20244" lon="5.9981">
        <ele>2560</ele>
        <time>2019-04-14T11:58:52.009Z</time>
      </trkpt>
      <trkpt lat="45.20247" lon="5.99816">
        <ele>2560.9779968</ele>
        <time>2019-04-14T11:59:01.009Z</time>
      </trkpt>
      <trkpt lat="45.20252" lon="5.99826">
        <ele>2566</ele>
        <time>2019-04-14T11:59:17.009Z</time>
      </trkpt>
      <trkpt lat="45.20254" lon="5.9983">
        <ele>2568</ele>
        <time>2019-04-14T11:59:22.009Z</time>
      </trkpt>
      <trkpt lat="45.20255" lon="5.99834">
        <ele>2568</ele>
        <time>2019-04-14T11:59:29.009Z</time>
      </trkpt>
      <trkpt lat="45.20257" lon="5.99839">
        <ele>2569</ele>
        <time>2019-04-14T11:59:35.009Z</time>
      </trkpt>
      <trkpt lat="45.20259" lon="5.99844">
        <ele>2569.9779968</ele>
        <time>2019-04-14T11:59:41.009Z</time>
      </trkpt>
      <trkpt lat="45.20262" lon="5.99852">
        <ele>2571.9779968</ele>
        <time>2019-04-14T11:59:51.009Z</time>
      </trkpt>
      <trkpt lat="45.20267" lon="5.99864">
        <ele>2575</ele>
        <time>2019-04-14T12:00:03.009Z</time>
      </trkpt>
      <trkpt lat="45.20269" lon="5.99873">
        <ele>2576</ele>
        <time>2019-04-14T12:00:13.009Z</time>
      </trkpt>
      <trkpt lat="45.2027" lon="5.99877">
        <ele>2576</ele>
        <time>2019-04-14T12:00:18.009Z</time>
      </trkpt>
      <trkpt lat="45.20273" lon="5.99878">
        <ele>2580</ele>
        <time>2019-04-14T12:00:43.009Z</time>
      </trkpt>
      <trkpt lat="45.20276" lon="5.99873">
        <ele>2582</ele>
        <time>2019-04-14T12:00:54.009Z</time>
      </trkpt>
      <trkpt lat="45.20279" lon="5.99871">
        <ele>2583</ele>
        <time>2019-04-14T12:01:00.009Z</time>
      </trkpt>
      <trkpt lat="45.20281" lon="5.99875">
        <ele>2583</ele>
        <time>2019-04-14T12:01:08.009Z</time>
      </trkpt>
      <trkpt lat="45.20282" lon="5.9988">
        <ele>2584</ele>
        <time>2019-04-14T12:01:14.009Z</time>
      </trkpt>
      <trkpt lat="45.20284" lon="5.99887">
        <ele>2584.9779968</ele>
        <time>2019-04-14T12:01:21.009Z</time>
      </trkpt>
      <trkpt lat="45.2029" lon="5.99881">
        <ele>2589</ele>
        <time>2019-04-14T12:01:37.009Z</time>
      </trkpt>
      <trkpt lat="45.20296" lon="5.99875">
        <ele>2591</ele>
        <time>2019-04-14T12:01:49.009Z</time>
      </trkpt>
      <trkpt lat="45.20292" lon="5.99872">
        <ele>2590</ele>
        <time>2019-04-14T12:12:30.009Z</time>
      </trkpt>
      <trkpt lat="45.2029" lon="5.99877">
        <ele>2587</ele>
        <time>2019-04-14T12:12:32.009Z</time>
      </trkpt>
      <trkpt lat="45.20286" lon="5.99882">
        <ele>2586</ele>
        <time>2019-04-14T12:12:39.009Z</time>
      </trkpt>
      <trkpt lat="45.20276" lon="5.99876">
        <ele>2585</ele>
        <time>2019-04-14T12:12:42.009Z</time>
      </trkpt>
      <trkpt lat="45.20265" lon="5.99873">
        <ele>2585</ele>
        <time>2019-04-14T12:12:44.009Z</time>
      </trkpt>
      <trkpt lat="45.2026" lon="5.99871">
        <ele>2585</ele>
        <time>2019-04-14T12:12:45.009Z</time>
      </trkpt>
      <trkpt lat="45.20255" lon="5.9987">
        <ele>2579.1320192</ele>
        <time>2019-04-14T12:12:46.009Z</time>
      </trkpt>
      <trkpt lat="45.2025" lon="5.9987">
        <ele>2573</ele>
        <time>2019-04-14T12:12:47.009Z</time>
      </trkpt>
      <trkpt lat="45.20242" lon="5.99869">
        <ele>2573</ele>
        <time>2019-04-14T12:12:50.009Z</time>
      </trkpt>
      <trkpt lat="45.20242" lon="5.99859">
        <ele>2562.0220032</ele>
        <time>2019-04-14T12:12:52.009Z</time>
      </trkpt>
      <trkpt lat="45.20242" lon="5.99851">
        <ele>2561</ele>
        <time>2019-04-14T12:12:54.009Z</time>
      </trkpt>
      <trkpt lat="45.20241" lon="5.99843">
        <ele>2560.5110016</ele>
        <time>2019-04-14T12:12:56.009Z</time>
      </trkpt>
      <trkpt lat="45.20239" lon="5.99836">
        <ele>2559.5110016</ele>
        <time>2019-04-14T12:12:58.009Z</time>
      </trkpt>
      <trkpt lat="45.2023" lon="5.99844">
        <ele>2556</ele>
        <time>2019-04-14T12:13:23.009Z</time>
      </trkpt>
      <trkpt lat="45.20221" lon="5.99843">
        <ele>2551.110016</ele>
        <time>2019-04-14T12:13:26.009Z</time>
      </trkpt>
      <trkpt lat="45.20216" lon="5.99837">
        <ele>2546</ele>
        <time>2019-04-14T12:13:28.009Z</time>
      </trkpt>
      <trkpt lat="45.20211" lon="5.9984">
        <ele>2542.0880128</ele>
        <time>2019-04-14T12:13:31.009Z</time>
      </trkpt>
      <trkpt lat="45.20204" lon="5.99844">
        <ele>2530.5110016</ele>
        <time>2019-04-14T12:13:34.009Z</time>
      </trkpt>
      <trkpt lat="45.20195" lon="5.99851">
        <ele>2521.5110016</ele>
        <time>2019-04-14T12:13:38.009Z</time>
      </trkpt>
      <trkpt lat="45.20187" lon="5.99853">
        <ele>2515.0220032</ele>
        <time>2019-04-14T12:13:41.009Z</time>
      </trkpt>
      <trkpt lat="45.20184" lon="5.99852">
        <ele>2513.5110016</ele>
        <time>2019-04-14T12:13:42.009Z</time>
      </trkpt>
      <trkpt lat="45.20179" lon="5.99858">
        <ele>2508.0220032</ele>
        <time>2019-04-14T12:13:44.009Z</time>
      </trkpt>
      <trkpt lat="45.20177" lon="5.99862">
        <ele>2507</ele>
        <time>2019-04-14T12:13:45.009Z</time>
      </trkpt>
      <trkpt lat="45.20173" lon="5.99863">
        <ele>2505.0440064</ele>
        <time>2019-04-14T12:13:46.009Z</time>
      </trkpt>
      <trkpt lat="45.20173" lon="5.9985">
        <ele>2500</ele>
        <time>2019-04-14T12:13:48.009Z</time>
      </trkpt>
      <trkpt lat="45.20172" lon="5.99845">
        <ele>2499</ele>
        <time>2019-04-14T12:13:50.009Z</time>
      </trkpt>
      <trkpt lat="45.20173" lon="5.99843">
        <ele>2499</ele>
        <time>2019-04-14T12:13:53.009Z</time>
      </trkpt>
      <trkpt lat="45.20174" lon="5.99841">
        <ele>2497</ele>
        <time>2019-04-14T12:14:10.009Z</time>
      </trkpt>
      <trkpt lat="45.20176" lon="5.99841">
        <ele>2497</ele>
        <time>2019-04-14T12:14:45.009Z</time>
      </trkpt>
      <trkpt lat="45.20173" lon="5.99829">
        <ele>2497</ele>
        <time>2019-04-14T12:15:43.009Z</time>
      </trkpt>
      <trkpt lat="45.20167" lon="5.99843">
        <ele>2496</ele>
        <time>2019-04-14T12:15:55.009Z</time>
      </trkpt>
      <trkpt lat="45.20153" lon="5.99847">
        <ele>2496</ele>
        <time>2019-04-14T12:15:57.009Z</time>
      </trkpt>
      <trkpt lat="45.20146" lon="5.99851">
        <ele>2496</ele>
        <time>2019-04-14T12:15:58.009Z</time>
      </trkpt>
      <trkpt lat="45.2014" lon="5.99855">
        <ele>2496</ele>
        <time>2019-04-14T12:15:59.009Z</time>
      </trkpt>
      <trkpt lat="45.20134" lon="5.99855">
        <ele>2496</ele>
        <time>2019-04-14T12:16:00.009Z</time>
      </trkpt>
      <trkpt lat="45.20129" lon="5.99847">
        <ele>2483.77504</ele>
        <time>2019-04-14T12:16:01.009Z</time>
      </trkpt>
      <trkpt lat="45.20115" lon="5.99838">
        <ele>2460.0660096</ele>
        <time>2019-04-14T12:16:03.009Z</time>
      </trkpt>
      <trkpt lat="45.20108" lon="5.99829">
        <ele>2454.0660096</ele>
        <time>2019-04-14T12:16:04.009Z</time>
      </trkpt>
      <trkpt lat="45.20103" lon="5.99818">
        <ele>2452.4669952</ele>
        <time>2019-04-14T12:16:05.009Z</time>
      </trkpt>
      <trkpt lat="45.20096" lon="5.99809">
        <ele>2453.5110016</ele>
        <time>2019-04-14T12:16:06.009Z</time>
      </trkpt>
      <trkpt lat="45.20088" lon="5.99801">
        <ele>2451.0440064</ele>
        <time>2019-04-14T12:16:07.009Z</time>
      </trkpt>
      <trkpt lat="45.20082" lon="5.9979">
        <ele>2447.5330048</ele>
        <time>2019-04-14T12:16:08.009Z</time>
      </trkpt>
      <trkpt lat="45.2008" lon="5.9978">
        <ele>2444.5330048</ele>
        <time>2019-04-14T12:16:09.009Z</time>
      </trkpt>
      <trkpt lat="45.20078" lon="5.9977">
        <ele>2442.5110016</ele>
        <time>2019-04-14T12:16:10.009Z</time>
      </trkpt>
      <trkpt lat="45.20071" lon="5.9976">
        <ele>2437.5330048</ele>
        <time>2019-04-14T12:16:12.009Z</time>
      </trkpt>
      <trkpt lat="45.20067" lon="5.99765">
        <ele>2436</ele>
        <time>2019-04-14T12:16:15.009Z</time>
      </trkpt>
      <trkpt lat="45.2007" lon="5.9977">
        <ele>2436</ele>
        <time>2019-04-14T12:16:21.009Z</time>
      </trkpt>
      <trkpt lat="45.20072" lon="5.99772">
        <ele>2436</ele>
        <time>2019-04-14T12:16:24.009Z</time>
      </trkpt>
      <trkpt lat="45.20071" lon="5.99761">
        <ele>2435</ele>
        <time>2019-04-14T12:16:36.009Z</time>
      </trkpt>
      <trkpt lat="45.20072" lon="5.99751">
        <ele>2435</ele>
        <time>2019-04-14T12:16:37.009Z</time>
      </trkpt>
      <trkpt lat="45.20071" lon="5.99739">
        <ele>2435</ele>
        <time>2019-04-14T12:16:38.009Z</time>
      </trkpt>
      <trkpt lat="45.20067" lon="5.99726">
        <ele>2435</ele>
        <time>2019-04-14T12:16:39.009Z</time>
      </trkpt>
      <trkpt lat="45.20062" lon="5.99712">
        <ele>2435</ele>
        <time>2019-04-14T12:16:40.009Z</time>
      </trkpt>
      <trkpt lat="45.20057" lon="5.99699">
        <ele>2430.110016</ele>
        <time>2019-04-14T12:16:41.009Z</time>
      </trkpt>
      <trkpt lat="45.20045" lon="5.99682">
        <ele>2417.555008</ele>
        <time>2019-04-14T12:16:43.009Z</time>
      </trkpt>
      <trkpt lat="45.20037" lon="5.99673">
        <ele>2418</ele>
        <time>2019-04-14T12:16:45.009Z</time>
      </trkpt>
      <trkpt lat="45.20031" lon="5.99672">
        <ele>2413</ele>
        <time>2019-04-14T12:16:52.009Z</time>
      </trkpt>
      <trkpt lat="45.20035" lon="5.99663">
        <ele>2413</ele>
        <time>2019-04-14T12:16:58.009Z</time>
      </trkpt>
      <trkpt lat="45.20037" lon="5.99654">
        <ele>2412.5110016</ele>
        <time>2019-04-14T12:17:00.009Z</time>
      </trkpt>
      <trkpt lat="45.20038" lon="5.99645">
        <ele>2412</ele>
        <time>2019-04-14T12:17:02.009Z</time>
      </trkpt>
      <trkpt lat="45.20037" lon="5.99632">
        <ele>2412</ele>
        <time>2019-04-14T12:17:04.009Z</time>
      </trkpt>
      <trkpt lat="45.20024" lon="5.99621">
        <ele>2412</ele>
        <time>2019-04-14T12:17:07.009Z</time>
      </trkpt>
      <trkpt lat="45.20011" lon="5.99621">
        <ele>2412</ele>
        <time>2019-04-14T12:17:09.009Z</time>
      </trkpt>
      <trkpt lat="45.19995" lon="5.9962">
        <ele>2405.1540224</ele>
        <time>2019-04-14T12:17:11.009Z</time>
      </trkpt>
      <trkpt lat="45.19988" lon="5.99617">
        <ele>2393.110016</ele>
        <time>2019-04-14T12:17:12.009Z</time>
      </trkpt>
      <trkpt lat="45.19982" lon="5.99612">
        <ele>2385.0660096</ele>
        <time>2019-04-14T12:17:13.009Z</time>
      </trkpt>
      <trkpt lat="45.19977" lon="5.99604">
        <ele>2382.4889984</ele>
        <time>2019-04-14T12:17:14.009Z</time>
      </trkpt>
      <trkpt lat="45.19973" lon="5.99596">
        <ele>2381.5330048</ele>
        <time>2019-04-14T12:17:15.009Z</time>
      </trkpt>
      <trkpt lat="45.1997" lon="5.99587">
        <ele>2378.0440064</ele>
        <time>2019-04-14T12:17:16.009Z</time>
      </trkpt>
      <trkpt lat="45.19967" lon="5.99578">
        <ele>2375.5110016</ele>
        <time>2019-04-14T12:17:17.009Z</time>
      </trkpt>
      <trkpt lat="45.19963" lon="5.99571">
        <ele>2374.5110016</ele>
        <time>2019-04-14T12:17:18.009Z</time>
      </trkpt>
      <trkpt lat="45.1996" lon="5.99566">
        <ele>2373.5110016</ele>
        <time>2019-04-14T12:17:19.009Z</time>
      </trkpt>
      <trkpt lat="45.19958" lon="5.99563">
        <ele>2373</ele>
        <time>2019-04-14T12:17:20.009Z</time>
      </trkpt>
      <trkpt lat="45.1996" lon="5.99566">
        <ele>2372</ele>
        <time>2019-04-14T12:17:26.009Z</time>
      </trkpt>
      <trkpt lat="45.19961" lon="5.99569">
        <ele>2371</ele>
        <time>2019-04-14T12:17:35.009Z</time>
      </trkpt>
      <trkpt lat="45.1996" lon="5.99565">
        <ele>2371</ele>
        <time>2019-04-14T12:17:58.009Z</time>
      </trkpt>
      <trkpt lat="45.19956" lon="5.99553">
        <ele>2371</ele>
        <time>2019-04-14T12:18:00.009Z</time>
      </trkpt>
      <trkpt lat="45.1995" lon="5.99538">
        <ele>2363</ele>
        <time>2019-04-14T12:18:02.009Z</time>
      </trkpt>
      <trkpt lat="45.19941" lon="5.99525">
        <ele>2359.5110016</ele>
        <time>2019-04-14T12:18:04.009Z</time>
      </trkpt>
      <trkpt lat="45.19927" lon="5.99516">
        <ele>2354.5110016</ele>
        <time>2019-04-14T12:18:06.009Z</time>
      </trkpt>
      <trkpt lat="45.19915" lon="5.99516">
        <ele>2353</ele>
        <time>2019-04-14T12:18:08.009Z</time>
      </trkpt>
      <trkpt lat="45.19905" lon="5.99509">
        <ele>2352</ele>
        <time>2019-04-14T12:18:10.009Z</time>
      </trkpt>
      <trkpt lat="45.199" lon="5.99501">
        <ele>2351</ele>
        <time>2019-04-14T12:18:11.009Z</time>
      </trkpt>
      <trkpt lat="45.19894" lon="5.99494">
        <ele>2350.0220032</ele>
        <time>2019-04-14T12:18:12.009Z</time>
      </trkpt>
      <trkpt lat="45.19886" lon="5.99487">
        <ele>2346.6295466667</ele>
        <time>2019-04-14T12:18:14.009Z</time>
      </trkpt>
      <trkpt lat="45.19877" lon="5.99473">
        <ele>2342.5110016</ele>
        <time>2019-04-14T12:18:17.009Z</time>
      </trkpt>
      <trkpt lat="45.19871" lon="5.99458">
        <ele>2340.0220032</ele>
        <time>2019-04-14T12:18:20.009Z</time>
      </trkpt>
      <trkpt lat="45.19868" lon="5.99444">
        <ele>2337.5110016</ele>
        <time>2019-04-14T12:18:22.009Z</time>
      </trkpt>
      <trkpt lat="45.19865" lon="5.99429">
        <ele>2335</ele>
        <time>2019-04-14T12:18:24.009Z</time>
      </trkpt>
      <trkpt lat="45.19868" lon="5.99413">
        <ele>2332.0220032</ele>
        <time>2019-04-14T12:18:27.009Z</time>
      </trkpt>
      <trkpt lat="45.19876" lon="5.99406">
        <ele>2331</ele>
        <time>2019-04-14T12:18:32.009Z</time>
      </trkpt>
      <trkpt lat="45.19885" lon="5.9941">
        <ele>2330</ele>
        <time>2019-04-14T12:18:44.009Z</time>
      </trkpt>
      <trkpt lat="45.19893" lon="5.99419">
        <ele>2330</ele>
        <time>2019-04-14T12:18:46.009Z</time>
      </trkpt>
      <trkpt lat="45.19902" lon="5.99426">
        <ele>2330</ele>
        <time>2019-04-14T12:18:49.009Z</time>
      </trkpt>
      <trkpt lat="45.19911" lon="5.99427">
        <ele>2327.555008</ele>
        <time>2019-04-14T12:18:52.009Z</time>
      </trkpt>
      <trkpt lat="45.19918" lon="5.99426">
        <ele>2321.5110016</ele>
        <time>2019-04-14T12:18:54.009Z</time>
      </trkpt>
      <trkpt lat="45.19922" lon="5.99412">
        <ele>2314.5330048</ele>
        <time>2019-04-14T12:19:00.009Z</time>
      </trkpt>
      <trkpt lat="45.19919" lon="5.99396">
        <ele>2308.5330048</ele>
        <time>2019-04-14T12:19:03.009Z</time>
      </trkpt>
      <trkpt lat="45.19921" lon="5.99381">
        <ele>2301.0220032</ele>
        <time>2019-04-14T12:19:06.009Z</time>
      </trkpt>
      <trkpt lat="45.19924" lon="5.99366">
        <ele>2293.5110016</ele>
        <time>2019-04-14T12:19:09.009Z</time>
      </trkpt>
      <trkpt lat="45.19921" lon="5.99352">
        <ele>2289.0220032</ele>
        <time>2019-04-14T12:19:12.009Z</time>
      </trkpt>
      <trkpt lat="45.1992" lon="5.99338">
        <ele>2286</ele>
        <time>2019-04-14T12:19:15.009Z</time>
      </trkpt>
      <trkpt lat="45.1992" lon="5.99325">
        <ele>2285</ele>
        <time>2019-04-14T12:19:19.009Z</time>
      </trkpt>
      <trkpt lat="45.1992" lon="5.99332">
        <ele>2284</ele>
        <time>2019-04-14T12:19:31.009Z</time>
      </trkpt>
      <trkpt lat="45.19922" lon="5.99335">
        <ele>2283</ele>
        <time>2019-04-14T12:19:54.009Z</time>
      </trkpt>
      <trkpt lat="45.19924" lon="5.99331">
        <ele>2283</ele>
        <time>2019-04-14T12:20:09.009Z</time>
      </trkpt>
      <trkpt lat="45.19929" lon="5.99332">
        <ele>2281.0440064</ele>
        <time>2019-04-14T12:20:11.009Z</time>
      </trkpt>
      <trkpt lat="45.19936" lon="5.99345">
        <ele>2279</ele>
        <time>2019-04-14T12:20:14.009Z</time>
      </trkpt>
      <trkpt lat="45.19944" lon="5.99343">
        <ele>2276.555008</ele>
        <time>2019-04-14T12:20:16.009Z</time>
      </trkpt>
      <trkpt lat="45.19945" lon="5.99331">
        <ele>2274</ele>
        <time>2019-04-14T12:20:17.009Z</time>
      </trkpt>
      <trkpt lat="45.19944" lon="5.99321">
        <ele>2274</ele>
        <time>2019-04-14T12:20:18.009Z</time>
      </trkpt>
      <trkpt lat="45.19936" lon="5.99307">
        <ele>2274</ele>
        <time>2019-04-14T12:20:20.009Z</time>
      </trkpt>
      <trkpt lat="45.19931" lon="5.99296">
        <ele>2266.5330048</ele>
        <time>2019-04-14T12:20:22.009Z</time>
      </trkpt>
      <trkpt lat="45.19928" lon="5.99284">
        <ele>2263.5110016</ele>
        <time>2019-04-14T12:20:24.009Z</time>
      </trkpt>
      <trkpt lat="45.1993" lon="5.99262">
        <ele>2260.0220032</ele>
        <time>2019-04-14T12:20:27.009Z</time>
      </trkpt>
      <trkpt lat="45.19937" lon="5.99244">
        <ele>2256.5110016</ele>
        <time>2019-04-14T12:20:29.009Z</time>
      </trkpt>
      <trkpt lat="45.19946" lon="5.9923">
        <ele>2254.0220032</ele>
        <time>2019-04-14T12:20:31.009Z</time>
      </trkpt>
      <trkpt lat="45.19954" lon="5.9922">
        <ele>2250.5110016</ele>
        <time>2019-04-14T12:20:33.009Z</time>
      </trkpt>
      <trkpt lat="45.19961" lon="5.99212">
        <ele>2248.5110016</ele>
        <time>2019-04-14T12:20:36.009Z</time>
      </trkpt>
      <trkpt lat="45.19965" lon="5.99206">
        <ele>2247.5110016</ele>
        <time>2019-04-14T12:20:38.009Z</time>
      </trkpt>
      <trkpt lat="45.19968" lon="5.992">
        <ele>2245.5110016</ele>
        <time>2019-04-14T12:20:40.009Z</time>
      </trkpt>
      <trkpt lat="45.19973" lon="5.99195">
        <ele>2244.5110016</ele>
        <time>2019-04-14T12:20:42.009Z</time>
      </trkpt>
      <trkpt lat="45.19976" lon="5.9919">
        <ele>2242.5110016</ele>
        <time>2019-04-14T12:20:44.009Z</time>
      </trkpt>
      <trkpt lat="45.19978" lon="5.99185">
        <ele>2241</ele>
        <time>2019-04-14T12:20:46.009Z</time>
      </trkpt>
      <trkpt lat="45.19984" lon="5.99188">
        <ele>2236.5110016</ele>
        <time>2019-04-14T12:20:50.009Z</time>
      </trkpt>
      <trkpt lat="45.19987" lon="5.9918">
        <ele>2232</ele>
        <time>2019-04-14T12:20:53.009Z</time>
      </trkpt>
      <trkpt lat="45.19992" lon="5.99177">
        <ele>2231.5110016</ele>
        <time>2019-04-14T12:20:58.009Z</time>
      </trkpt>
      <trkpt lat="45.19995" lon="5.99176">
        <ele>2230.5110016</ele>
        <time>2019-04-14T12:21:00.009Z</time>
      </trkpt>
      <trkpt lat="45.20001" lon="5.99181">
        <ele>2226</ele>
        <time>2019-04-14T12:21:13.009Z</time>
      </trkpt>
      <trkpt lat="45.20004" lon="5.99174">
        <ele>2226</ele>
        <time>2019-04-14T12:21:15.009Z</time>
      </trkpt>
      <trkpt lat="45.20006" lon="5.99168">
        <ele>2222</ele>
        <time>2019-04-14T12:21:17.009Z</time>
      </trkpt>
      <trkpt lat="45.20008" lon="5.99167">
        <ele>2218</ele>
        <time>2019-04-14T12:21:27.009Z</time>
      </trkpt>
      <trkpt lat="45.20009" lon="5.99165">
        <ele>2218</ele>
        <time>2019-04-14T12:21:30.009Z</time>
      </trkpt>
      <trkpt lat="45.20007" lon="5.99155">
        <ele>2217</ele>
        <time>2019-04-14T12:21:54.009Z</time>
      </trkpt>
      <trkpt lat="45.20005" lon="5.99143">
        <ele>2217</ele>
        <time>2019-04-14T12:21:57.009Z</time>
      </trkpt>
      <trkpt lat="45.2001" lon="5.99131">
        <ele>2211.6210176</ele>
        <time>2019-04-14T12:22:01.009Z</time>
      </trkpt>
      <trkpt lat="45.20021" lon="5.99131">
        <ele>2202.0220032</ele>
        <time>2019-04-14T12:22:05.009Z</time>
      </trkpt>
      <trkpt lat="45.20032" lon="5.99133">
        <ele>2183.0220032</ele>
        <time>2019-04-14T12:22:32.009Z</time>
      </trkpt>
      <trkpt lat="45.20043" lon="5.99126">
        <ele>2178.0220032</ele>
        <time>2019-04-14T12:22:37.009Z</time>
      </trkpt>
      <trkpt lat="45.20053" lon="5.99129">
        <ele>2176.0220032</ele>
        <time>2019-04-14T12:22:39.009Z</time>
      </trkpt>
      <trkpt lat="45.20065" lon="5.99129">
        <ele>2173.5110016</ele>
        <time>2019-04-14T12:22:43.009Z</time>
      </trkpt>
      <trkpt lat="45.20076" lon="5.99132">
        <ele>2166</ele>
        <time>2019-04-14T12:22:58.009Z</time>
      </trkpt>
      <trkpt lat="45.20066" lon="5.99134">
        <ele>2164</ele>
        <time>2019-04-14T12:23:05.009Z</time>
      </trkpt>
      <trkpt lat="45.20062" lon="5.99143">
        <ele>2163</ele>
        <time>2019-04-14T12:24:08.009Z</time>
      </trkpt>
      <trkpt lat="45.20056" lon="5.99143">
        <ele>2163</ele>
        <time>2019-04-14T12:24:28.009Z</time>
      </trkpt>
      <trkpt lat="45.20049" lon="5.99143">
        <ele>2163</ele>
        <time>2019-04-14T12:24:42.009Z</time>
      </trkpt>
      <trkpt lat="45.20054" lon="5.99138">
        <ele>2163</ele>
        <time>2019-04-14T12:25:02.009Z</time>
      </trkpt>
      <trkpt lat="45.20059" lon="5.99144">
        <ele>2163</ele>
        <time>2019-04-14T12:25:28.009Z</time>
      </trkpt>
      <trkpt lat="45.20069" lon="5.99134">
        <ele>2163</ele>
        <time>2019-04-14T12:25:40.009Z</time>
      </trkpt>
      <trkpt lat="45.20078" lon="5.99141">
        <ele>2160</ele>
        <time>2019-04-14T12:25:44.009Z</time>
      </trkpt>
      <trkpt lat="45.20083" lon="5.9916">
        <ele>2154</ele>
        <time>2019-04-14T12:25:47.009Z</time>
      </trkpt>
      <trkpt lat="45.20087" lon="5.99174">
        <ele>2154</ele>
        <time>2019-04-14T12:25:49.009Z</time>
      </trkpt>
      <trkpt lat="45.20094" lon="5.99188">
        <ele>2151.0660096</ele>
        <time>2019-04-14T12:25:51.009Z</time>
      </trkpt>
      <trkpt lat="45.20105" lon="5.99203">
        <ele>2145.5110016</ele>
        <time>2019-04-14T12:25:54.009Z</time>
      </trkpt>
      <trkpt lat="45.20116" lon="5.99213">
        <ele>2144.0323231278</ele>
        <time>2019-04-14T12:25:56.009Z</time>
      </trkpt>
      <trkpt lat="45.20124" lon="5.99222">
        <ele>2141.5110016</ele>
        <time>2019-04-14T12:25:58.009Z</time>
      </trkpt>
      <trkpt lat="45.20134" lon="5.99231">
        <ele>2139</ele>
        <time>2019-04-14T12:26:02.009Z</time>
      </trkpt>
      <trkpt lat="45.20145" lon="5.99233">
        <ele>2137.5110016</ele>
        <time>2019-04-14T12:26:04.009Z</time>
      </trkpt>
      <trkpt lat="45.20155" lon="5.99228">
        <ele>2137</ele>
        <time>2019-04-14T12:26:08.009Z</time>
      </trkpt>
      <trkpt lat="45.20166" lon="5.99225">
        <ele>2135</ele>
        <time>2019-04-14T12:26:12.009Z</time>
      </trkpt>
      <trkpt lat="45.20155" lon="5.99208">
        <ele>2131.555008</ele>
        <time>2019-04-14T12:26:31.009Z</time>
      </trkpt>
      <trkpt lat="45.20144" lon="5.99188">
        <ele>2121.0880128</ele>
        <time>2019-04-14T12:26:33.009Z</time>
      </trkpt>
      <trkpt lat="45.20139" lon="5.99174">
        <ele>2115.0440064</ele>
        <time>2019-04-14T12:26:34.009Z</time>
      </trkpt>
      <trkpt lat="45.20139" lon="5.99153">
        <ele>2111.0440064</ele>
        <time>2019-04-14T12:26:35.009Z</time>
      </trkpt>
      <trkpt lat="45.20142" lon="5.99138">
        <ele>2105.5770112</ele>
        <time>2019-04-14T12:26:36.009Z</time>
      </trkpt>
      <trkpt lat="45.20145" lon="5.99123">
        <ele>2100.0440064</ele>
        <time>2019-04-14T12:26:37.009Z</time>
      </trkpt>
      <trkpt lat="45.20153" lon="5.9911">
        <ele>2097.0220032</ele>
        <time>2019-04-14T12:26:38.009Z</time>
      </trkpt>
      <trkpt lat="45.20162" lon="5.99098">
        <ele>2093.555008</ele>
        <time>2019-04-14T12:26:39.009Z</time>
      </trkpt>
      <trkpt lat="45.20174" lon="5.99091">
        <ele>2090.5110016</ele>
        <time>2019-04-14T12:26:40.009Z</time>
      </trkpt>
      <trkpt lat="45.20188" lon="5.99085">
        <ele>2090</ele>
        <time>2019-04-14T12:26:41.009Z</time>
      </trkpt>
      <trkpt lat="45.202" lon="5.9908">
        <ele>2088.5330048</ele>
        <time>2019-04-14T12:26:42.009Z</time>
      </trkpt>
      <trkpt lat="45.20217" lon="5.99072">
        <ele>2086.5110016</ele>
        <time>2019-04-14T12:26:44.009Z</time>
      </trkpt>
      <trkpt lat="45.20231" lon="5.99064">
        <ele>2083.5110016</ele>
        <time>2019-04-14T12:26:46.009Z</time>
      </trkpt>
      <trkpt lat="45.20242" lon="5.99058">
        <ele>2083</ele>
        <time>2019-04-14T12:26:48.009Z</time>
      </trkpt>
      <trkpt lat="45.20253" lon="5.99051">
        <ele>2080.5330048</ele>
        <time>2019-04-14T12:26:50.009Z</time>
      </trkpt>
      <trkpt lat="45.20265" lon="5.99044">
        <ele>2075.6295466667</ele>
        <time>2019-04-14T12:26:52.009Z</time>
      </trkpt>
      <trkpt lat="45.2027" lon="5.99032">
        <ele>2073</ele>
        <time>2019-04-14T12:26:54.009Z</time>
      </trkpt>
      <trkpt lat="45.20273" lon="5.99006">
        <ele>2062.0660096</ele>
        <time>2019-04-14T12:26:56.009Z</time>
      </trkpt>
      <trkpt lat="45.2028" lon="5.98994">
        <ele>2057.0440064</ele>
        <time>2019-04-14T12:26:57.009Z</time>
      </trkpt>
      <trkpt lat="45.2029" lon="5.98986">
        <ele>2053.5330048</ele>
        <time>2019-04-14T12:26:58.009Z</time>
      </trkpt>
      <trkpt lat="45.203" lon="5.98979">
        <ele>2052.4889984</ele>
        <time>2019-04-14T12:26:59.009Z</time>
      </trkpt>
      <trkpt lat="45.20309" lon="5.9897">
        <ele>2052.0220032</ele>
        <time>2019-04-14T12:27:00.009Z</time>
      </trkpt>
      <trkpt lat="45.20316" lon="5.98958">
        <ele>2047.1267330748</ele>
        <time>2019-04-14T12:27:01.009Z</time>
      </trkpt>
      <trkpt lat="45.20322" lon="5.98945">
        <ele>2043</ele>
        <time>2019-04-14T12:27:02.009Z</time>
      </trkpt>
      <trkpt lat="45.2033" lon="5.98932">
        <ele>2040.0660096</ele>
        <time>2019-04-14T12:27:03.009Z</time>
      </trkpt>
      <trkpt lat="45.20337" lon="5.9892">
        <ele>2037</ele>
        <time>2019-04-14T12:27:04.009Z</time>
      </trkpt>
      <trkpt lat="45.20346" lon="5.98901">
        <ele>2037.0220032</ele>
        <time>2019-04-14T12:27:06.009Z</time>
      </trkpt>
      <trkpt lat="45.20351" lon="5.98887">
        <ele>2035</ele>
        <time>2019-04-14T12:27:08.009Z</time>
      </trkpt>
      <trkpt lat="45.20359" lon="5.98883">
        <ele>2034</ele>
        <time>2019-04-14T12:27:19.009Z</time>
      </trkpt>
      <trkpt lat="45.20362" lon="5.98868">
        <ele>2033</ele>
        <time>2019-04-14T12:27:22.009Z</time>
      </trkpt>
      <trkpt lat="45.20369" lon="5.98854">
        <ele>2033</ele>
        <time>2019-04-14T12:27:24.009Z</time>
      </trkpt>
      <trkpt lat="45.20378" lon="5.98838">
        <ele>2033</ele>
        <time>2019-04-14T12:27:26.009Z</time>
      </trkpt>
      <trkpt lat="45.20382" lon="5.98829">
        <ele>2033</ele>
        <time>2019-04-14T12:27:27.009Z</time>
      </trkpt>
      <trkpt lat="45.20385" lon="5.98819">
        <ele>2033</ele>
        <time>2019-04-14T12:27:28.009Z</time>
      </trkpt>
      <trkpt lat="45.20388" lon="5.98811">
        <ele>2033</ele>
        <time>2019-04-14T12:27:29.009Z</time>
      </trkpt>
      <trkpt lat="45.20389" lon="5.98795">
        <ele>2030.555008</ele>
        <time>2019-04-14T12:27:31.009Z</time>
      </trkpt>
      <trkpt lat="45.2039" lon="5.98777">
        <ele>2025.5110016</ele>
        <time>2019-04-14T12:27:33.009Z</time>
      </trkpt>
      <trkpt lat="45.20391" lon="5.9877">
        <ele>2025</ele>
        <time>2019-04-14T12:27:34.009Z</time>
      </trkpt>
      <trkpt lat="45.20396" lon="5.98759">
        <ele>2024.5110016</ele>
        <time>2019-04-14T12:27:36.009Z</time>
      </trkpt>
      <trkpt lat="45.204" lon="5.9875">
        <ele>2023</ele>
        <time>2019-04-14T12:27:38.009Z</time>
      </trkpt>
      <trkpt lat="45.20402" lon="5.98744">
        <ele>2024</ele>
        <time>2019-04-14T12:27:45.009Z</time>
      </trkpt>
      <trkpt lat="45.20399" lon="5.98748">
        <ele>2023</ele>
        <time>2019-04-14T12:27:58.009Z</time>
      </trkpt>
      <trkpt lat="45.20402" lon="5.98744">
        <ele>2021</ele>
        <time>2019-04-14T12:29:13.009Z</time>
      </trkpt>
      <trkpt lat="45.20411" lon="5.98739">
        <ele>2022</ele>
        <time>2019-04-14T12:29:27.009Z</time>
      </trkpt>
      <trkpt lat="45.20416" lon="5.98735">
        <ele>2022</ele>
        <time>2019-04-14T12:29:28.009Z</time>
      </trkpt>
      <trkpt lat="45.20421" lon="5.98731">
        <ele>2022</ele>
        <time>2019-04-14T12:29:29.009Z</time>
      </trkpt>
      <trkpt lat="45.20426" lon="5.98726">
        <ele>2022</ele>
        <time>2019-04-14T12:29:30.009Z</time>
      </trkpt>
      <trkpt lat="45.20434" lon="5.98718">
        <ele>2014.5330048</ele>
        <time>2019-04-14T12:29:32.009Z</time>
      </trkpt>
      <trkpt lat="45.20439" lon="5.98714">
        <ele>2012.5110016</ele>
        <time>2019-04-14T12:29:33.009Z</time>
      </trkpt>
      <trkpt lat="45.20444" lon="5.9871">
        <ele>2011.0220032</ele>
        <time>2019-04-14T12:29:34.009Z</time>
      </trkpt>
      <trkpt lat="45.20448" lon="5.98705">
        <ele>2009.5110016</ele>
        <time>2019-04-14T12:29:35.009Z</time>
      </trkpt>
      <trkpt lat="45.20455" lon="5.987">
        <ele>2007.5110016</ele>
        <time>2019-04-14T12:29:37.009Z</time>
      </trkpt>
      <trkpt lat="45.20458" lon="5.98698">
        <ele>2007</ele>
        <time>2019-04-14T12:29:38.009Z</time>
      </trkpt>
      <trkpt lat="45.20461" lon="5.98701">
        <ele>2006.0220032</ele>
        <time>2019-04-14T12:29:39.009Z</time>
      </trkpt>
      <trkpt lat="45.20464" lon="5.98706">
        <ele>2004.0316832687</ele>
        <time>2019-04-14T12:29:40.009Z</time>
      </trkpt>
      <trkpt lat="45.20475" lon="5.98702">
        <ele>1997.5110016</ele>
        <time>2019-04-14T12:29:43.009Z</time>
      </trkpt>
      <trkpt lat="45.20487" lon="5.9869">
        <ele>1993.5110016</ele>
        <time>2019-04-14T12:29:46.009Z</time>
      </trkpt>
      <trkpt lat="45.20498" lon="5.98678">
        <ele>1988.5110016</ele>
        <time>2019-04-14T12:29:49.009Z</time>
      </trkpt>
      <trkpt lat="45.20509" lon="5.98669">
        <ele>1986</ele>
        <time>2019-04-14T12:29:51.009Z</time>
      </trkpt>
      <trkpt lat="45.20519" lon="5.98664">
        <ele>1985.5110016</ele>
        <time>2019-04-14T12:29:53.009Z</time>
      </trkpt>
      <trkpt lat="45.20531" lon="5.98657">
        <ele>1984</ele>
        <time>2019-04-14T12:29:56.009Z</time>
      </trkpt>
      <trkpt lat="45.20537" lon="5.98649">
        <ele>1983</ele>
        <time>2019-04-14T12:29:58.009Z</time>
      </trkpt>
      <trkpt lat="45.20544" lon="5.9864">
        <ele>1981.0220032</ele>
        <time>2019-04-14T12:30:00.009Z</time>
      </trkpt>
      <trkpt lat="45.20551" lon="5.9863">
        <ele>1980</ele>
        <time>2019-04-14T12:30:02.009Z</time>
      </trkpt>
      <trkpt lat="45.2056" lon="5.9862">
        <ele>1980</ele>
        <time>2019-04-14T12:30:04.009Z</time>
      </trkpt>
      <trkpt lat="45.20564" lon="5.98616">
        <ele>1979.5110016</ele>
        <time>2019-04-14T12:30:05.009Z</time>
      </trkpt>
      <trkpt lat="45.20568" lon="5.98612">
        <ele>1979</ele>
        <time>2019-04-14T12:30:06.009Z</time>
      </trkpt>
      <trkpt lat="45.20571" lon="5.98608">
        <ele>1978.5110016</ele>
        <time>2019-04-14T12:30:07.009Z</time>
      </trkpt>
      <trkpt lat="45.20573" lon="5.98603">
        <ele>1978</ele>
        <time>2019-04-14T12:30:08.009Z</time>
      </trkpt>
      <trkpt lat="45.20575" lon="5.98597">
        <ele>1977.5110016</ele>
        <time>2019-04-14T12:30:09.009Z</time>
      </trkpt>
      <trkpt lat="45.20578" lon="5.98585">
        <ele>1975.5110016</ele>
        <time>2019-04-14T12:30:11.009Z</time>
      </trkpt>
      <trkpt lat="45.20582" lon="5.98569">
        <ele>1973.5110016</ele>
        <time>2019-04-14T12:30:14.009Z</time>
      </trkpt>
      <trkpt lat="45.20588" lon="5.98558">
        <ele>1972.5110016</ele>
        <time>2019-04-14T12:30:18.009Z</time>
      </trkpt>
      <trkpt lat="45.20597" lon="5.98548">
        <ele>1970</ele>
        <time>2019-04-14T12:30:22.009Z</time>
      </trkpt>
      <trkpt lat="45.20601" lon="5.9854">
        <ele>1969</ele>
        <time>2019-04-14T12:30:24.009Z</time>
      </trkpt>
      <trkpt lat="45.20607" lon="5.9853">
        <ele>1968</ele>
        <time>2019-04-14T12:30:27.009Z</time>
      </trkpt>
      <trkpt lat="45.20612" lon="5.98522">
        <ele>1967</ele>
        <time>2019-04-14T12:30:29.009Z</time>
      </trkpt>
      <trkpt lat="45.20618" lon="5.98515">
        <ele>1964.5110016</ele>
        <time>2019-04-14T12:30:31.009Z</time>
      </trkpt>
      <trkpt lat="45.20626" lon="5.98518">
        <ele>1964</ele>
        <time>2019-04-14T12:30:35.009Z</time>
      </trkpt>
      <trkpt lat="45.20636" lon="5.98519">
        <ele>1962.5110016</ele>
        <time>2019-04-14T12:30:39.009Z</time>
      </trkpt>
      <trkpt lat="45.20647" lon="5.98516">
        <ele>1962</ele>
        <time>2019-04-14T12:30:43.009Z</time>
      </trkpt>
      <trkpt lat="45.2066" lon="5.98512">
        <ele>1961.0220032</ele>
        <time>2019-04-14T12:30:46.009Z</time>
      </trkpt>
      <trkpt lat="45.20671" lon="5.98507">
        <ele>1960</ele>
        <time>2019-04-14T12:30:48.009Z</time>
      </trkpt>
      <trkpt lat="45.20681" lon="5.98502">
        <ele>1960</ele>
        <time>2019-04-14T12:30:50.009Z</time>
      </trkpt>
      <trkpt lat="45.20694" lon="5.98496">
        <ele>1958</ele>
        <time>2019-04-14T12:30:52.009Z</time>
      </trkpt>
      <trkpt lat="45.20704" lon="5.98492">
        <ele>1958</ele>
        <time>2019-04-14T12:30:54.009Z</time>
      </trkpt>
      <trkpt lat="45.20714" lon="5.98489">
        <ele>1956.5330048</ele>
        <time>2019-04-14T12:30:56.009Z</time>
      </trkpt>
      <trkpt lat="45.20725" lon="5.98487">
        <ele>1955</ele>
        <time>2019-04-14T12:30:59.009Z</time>
      </trkpt>
      <trkpt lat="45.20738" lon="5.98483">
        <ele>1952</ele>
        <time>2019-04-14T12:31:02.009Z</time>
      </trkpt>
      <trkpt lat="45.20748" lon="5.9848">
        <ele>1951</ele>
        <time>2019-04-14T12:31:05.009Z</time>
      </trkpt>
      <trkpt lat="45.20758" lon="5.98475">
        <ele>1950</ele>
        <time>2019-04-14T12:31:08.009Z</time>
      </trkpt>
      <trkpt lat="45.20772" lon="5.98471">
        <ele>1947.5110016</ele>
        <time>2019-04-14T12:31:11.009Z</time>
      </trkpt>
      <trkpt lat="45.20784" lon="5.9847">
        <ele>1945.5110016</ele>
        <time>2019-04-14T12:31:13.009Z</time>
      </trkpt>
      <trkpt lat="45.20795" lon="5.98471">
        <ele>1943.5110016</ele>
        <time>2019-04-14T12:31:15.009Z</time>
      </trkpt>
      <trkpt lat="45.20808" lon="5.98475">
        <ele>1942.5110016</ele>
        <time>2019-04-14T12:31:18.009Z</time>
      </trkpt>
      <trkpt lat="45.20819" lon="5.98479">
        <ele>1941.5110016</ele>
        <time>2019-04-14T12:31:21.009Z</time>
      </trkpt>
      <trkpt lat="45.20828" lon="5.98483">
        <ele>1941</ele>
        <time>2019-04-14T12:31:23.009Z</time>
      </trkpt>
      <trkpt lat="45.20838" lon="5.98486">
        <ele>1939</ele>
        <time>2019-04-14T12:31:25.009Z</time>
      </trkpt>
      <trkpt lat="45.2085" lon="5.9849">
        <ele>1937.5161615639</ele>
        <time>2019-04-14T12:31:27.009Z</time>
      </trkpt>
      <trkpt lat="45.20856" lon="5.9849">
        <ele>1937</ele>
        <time>2019-04-14T12:31:28.009Z</time>
      </trkpt>
      <trkpt lat="45.20868" lon="5.98491">
        <ele>1935.5110016</ele>
        <time>2019-04-14T12:31:30.009Z</time>
      </trkpt>
      <trkpt lat="45.20878" lon="5.98495">
        <ele>1935</ele>
        <time>2019-04-14T12:31:32.009Z</time>
      </trkpt>
      <trkpt lat="45.20886" lon="5.98497">
        <ele>1934</ele>
        <time>2019-04-14T12:31:34.009Z</time>
      </trkpt>
      <trkpt lat="45.20894" lon="5.98497">
        <ele>1933</ele>
        <time>2019-04-14T12:31:36.009Z</time>
      </trkpt>
      <trkpt lat="45.20903" lon="5.98498">
        <ele>1932</ele>
        <time>2019-04-14T12:31:38.009Z</time>
      </trkpt>
      <trkpt lat="45.20911" lon="5.98499">
        <ele>1931.5158416343</ele>
        <time>2019-04-14T12:31:40.009Z</time>
      </trkpt>
      <trkpt lat="45.20918" lon="5.98499">
        <ele>1931</ele>
        <time>2019-04-14T12:31:42.009Z</time>
      </trkpt>
      <trkpt lat="45.20925" lon="5.98498">
        <ele>1931</ele>
        <time>2019-04-14T12:31:44.009Z</time>
      </trkpt>
      <trkpt lat="45.20929" lon="5.98501">
        <ele>1930</ele>
        <time>2019-04-14T12:33:37.009Z</time>
      </trkpt>
      <trkpt lat="45.20936" lon="5.98505">
        <ele>1927</ele>
        <time>2019-04-14T12:35:22.009Z</time>
      </trkpt>
      <trkpt lat="45.20944" lon="5.98506">
        <ele>1927</ele>
        <time>2019-04-14T12:35:24.009Z</time>
      </trkpt>
      <trkpt lat="45.20948" lon="5.98508">
        <ele>1927</ele>
        <time>2019-04-14T12:35:25.009Z</time>
      </trkpt>
      <trkpt lat="45.20951" lon="5.98515">
        <ele>1927</ele>
        <time>2019-04-14T12:35:26.009Z</time>
      </trkpt>
      <trkpt lat="45.20957" lon="5.98529">
        <ele>1927</ele>
        <time>2019-04-14T12:35:28.009Z</time>
      </trkpt>
      <trkpt lat="45.20971" lon="5.98527">
        <ele>1923.0880128</ele>
        <time>2019-04-14T12:35:31.009Z</time>
      </trkpt>
      <trkpt lat="45.20982" lon="5.98527">
        <ele>1914.0220032</ele>
        <time>2019-04-14T12:35:34.009Z</time>
      </trkpt>
      <trkpt lat="45.20989" lon="5.98532">
        <ele>1911.5110016</ele>
        <time>2019-04-14T12:35:37.009Z</time>
      </trkpt>
      <trkpt lat="45.20992" lon="5.9854">
        <ele>1910</ele>
        <time>2019-04-14T12:35:46.009Z</time>
      </trkpt>
      <trkpt lat="45.20995" lon="5.98537">
        <ele>1907</ele>
        <time>2019-04-14T12:36:28.009Z</time>
      </trkpt>
      <trkpt lat="45.21005" lon="5.98538">
        <ele>1904</ele>
        <time>2019-04-14T12:37:03.009Z</time>
      </trkpt>
      <trkpt lat="45.21015" lon="5.9853">
        <ele>1900.5770112</ele>
        <time>2019-04-14T12:37:06.009Z</time>
      </trkpt>
      <trkpt lat="45.21024" lon="5.98518">
        <ele>1897</ele>
        <time>2019-04-14T12:37:09.009Z</time>
      </trkpt>
      <trkpt lat="45.21029" lon="5.98509">
        <ele>1893.5770112</ele>
        <time>2019-04-14T12:37:11.009Z</time>
      </trkpt>
      <trkpt lat="45.21033" lon="5.98501">
        <ele>1887</ele>
        <time>2019-04-14T12:37:13.009Z</time>
      </trkpt>
      <trkpt lat="45.21036" lon="5.98492">
        <ele>1885</ele>
        <time>2019-04-14T12:37:17.009Z</time>
      </trkpt>
      <trkpt lat="45.21038" lon="5.98481">
        <ele>1884.0220032</ele>
        <time>2019-04-14T12:37:51.009Z</time>
      </trkpt>
      <trkpt lat="45.21041" lon="5.98469">
        <ele>1883</ele>
        <time>2019-04-14T12:37:53.009Z</time>
      </trkpt>
      <trkpt lat="45.21045" lon="5.98459">
        <ele>1883</ele>
        <time>2019-04-14T12:37:55.009Z</time>
      </trkpt>
      <trkpt lat="45.21047" lon="5.98451">
        <ele>1880</ele>
        <time>2019-04-14T12:37:59.009Z</time>
      </trkpt>
      <trkpt lat="45.21046" lon="5.98464">
        <ele>1877.5330048</ele>
        <time>2019-04-14T12:38:21.009Z</time>
      </trkpt>
      <trkpt lat="45.21046" lon="5.98474">
        <ele>1876</ele>
        <time>2019-04-14T12:38:23.009Z</time>
      </trkpt>
      <trkpt lat="45.21047" lon="5.98482">
        <ele>1876</ele>
        <time>2019-04-14T12:38:25.009Z</time>
      </trkpt>
      <trkpt lat="45.21053" lon="5.98489">
        <ele>1871</ele>
        <time>2019-04-14T12:38:44.009Z</time>
      </trkpt>
      <trkpt lat="45.21065" lon="5.98493">
        <ele>1871</ele>
        <time>2019-04-14T12:38:48.009Z</time>
      </trkpt>
      <trkpt lat="45.2107" lon="5.98492">
        <ele>1862</ele>
        <time>2019-04-14T12:39:03.009Z</time>
      </trkpt>
      <trkpt lat="45.2107" lon="5.98481">
        <ele>1861</ele>
        <time>2019-04-14T12:39:54.009Z</time>
      </trkpt>
      <trkpt lat="45.21067" lon="5.98475">
        <ele>1856</ele>
        <time>2019-04-14T12:40:05.009Z</time>
      </trkpt>
      <trkpt lat="45.21072" lon="5.98467">
        <ele>1853</ele>
        <time>2019-04-14T12:40:15.009Z</time>
      </trkpt>
      <trkpt lat="45.21079" lon="5.98467">
        <ele>1845</ele>
        <time>2019-04-14T12:40:27.009Z</time>
      </trkpt>
      <trkpt lat="45.21085" lon="5.98461">
        <ele>1845</ele>
        <time>2019-04-14T12:40:50.009Z</time>
      </trkpt>
      <trkpt lat="45.21096" lon="5.98454">
        <ele>1829.5110016</ele>
        <time>2019-04-14T12:41:03.009Z</time>
      </trkpt>
      <trkpt lat="45.21102" lon="5.98451">
        <ele>1828</ele>
        <time>2019-04-14T12:41:13.009Z</time>
      </trkpt>
      <trkpt lat="45.21109" lon="5.98442">
        <ele>1825</ele>
        <time>2019-04-14T12:41:25.009Z</time>
      </trkpt>
      <trkpt lat="45.21119" lon="5.98435">
        <ele>1814.0220032</ele>
        <time>2019-04-14T12:41:33.009Z</time>
      </trkpt>
      <trkpt lat="45.21123" lon="5.98422">
        <ele>1805</ele>
        <time>2019-04-14T12:41:52.009Z</time>
      </trkpt>
      <trkpt lat="45.21134" lon="5.98424">
        <ele>1804</ele>
        <time>2019-04-14T12:42:03.009Z</time>
      </trkpt>
      <trkpt lat="45.21144" lon="5.98425">
        <ele>1804</ele>
        <time>2019-04-14T12:42:05.009Z</time>
      </trkpt>
      <trkpt lat="45.21157" lon="5.98426">
        <ele>1804</ele>
        <time>2019-04-14T12:42:08.009Z</time>
      </trkpt>
      <trkpt lat="45.21167" lon="5.98424">
        <ele>1786.5330048</ele>
        <time>2019-04-14T12:42:13.009Z</time>
      </trkpt>
      <trkpt lat="45.21157" lon="5.98422">
        <ele>1781</ele>
        <time>2019-04-14T12:42:27.009Z</time>
      </trkpt>
      <trkpt lat="45.21165" lon="5.98416">
        <ele>1780</ele>
        <time>2019-04-14T12:42:39.009Z</time>
      </trkpt>
      <trkpt lat="45.21175" lon="5.98415">
        <ele>1753.5110016</ele>
        <time>2019-04-14T12:43:03.009Z</time>
      </trkpt>
      <trkpt lat="45.21179" lon="5.98401">
        <ele>1749.5110016</ele>
        <time>2019-04-14T12:43:07.009Z</time>
      </trkpt>
      <trkpt lat="45.21182" lon="5.9839">
        <ele>1748.5158416343</ele>
        <time>2019-04-14T12:43:10.009Z</time>
      </trkpt>
      <trkpt lat="45.21184" lon="5.98381">
        <ele>1746.5110016</ele>
        <time>2019-04-14T12:43:12.009Z</time>
      </trkpt>
      <trkpt lat="45.21187" lon="5.98372">
        <ele>1745</ele>
        <time>2019-04-14T12:43:14.009Z</time>
      </trkpt>
      <trkpt lat="45.2119" lon="5.98363">
        <ele>1743.5110016</ele>
        <time>2019-04-14T12:43:16.009Z</time>
      </trkpt>
      <trkpt lat="45.21195" lon="5.98354">
        <ele>1742</ele>
        <time>2019-04-14T12:43:18.009Z</time>
      </trkpt>
      <trkpt lat="45.212" lon="5.98345">
        <ele>1741.5110016</ele>
        <time>2019-04-14T12:43:20.009Z</time>
      </trkpt>
      <trkpt lat="45.2121" lon="5.98335">
        <ele>1739</ele>
        <time>2019-04-14T12:43:24.009Z</time>
      </trkpt>
      <trkpt lat="45.2122" lon="5.98328">
        <ele>1737</ele>
        <time>2019-04-14T12:43:28.009Z</time>
      </trkpt>
      <trkpt lat="45.21215" lon="5.98329">
        <ele>1737</ele>
        <time>2019-04-14T12:43:44.009Z</time>
      </trkpt>
      <trkpt lat="45.2122" lon="5.98322">
        <ele>1736</ele>
        <time>2019-04-14T12:44:45.009Z</time>
      </trkpt>
      <trkpt lat="45.21228" lon="5.98312">
        <ele>1736</ele>
        <time>2019-04-14T12:44:49.009Z</time>
      </trkpt>
      <trkpt lat="45.21234" lon="5.983">
        <ele>1733</ele>
        <time>2019-04-14T12:44:53.009Z</time>
      </trkpt>
      <trkpt lat="45.21238" lon="5.98289">
        <ele>1732.0220032</ele>
        <time>2019-04-14T12:44:56.009Z</time>
      </trkpt>
      <trkpt lat="45.21243" lon="5.98279">
        <ele>1731</ele>
        <time>2019-04-14T12:44:58.009Z</time>
      </trkpt>
      <trkpt lat="45.21247" lon="5.98269">
        <ele>1731</ele>
        <time>2019-04-14T12:45:00.009Z</time>
      </trkpt>
      <trkpt lat="45.21252" lon="5.98261">
        <ele>1727</ele>
        <time>2019-04-14T12:45:02.009Z</time>
      </trkpt>
      <trkpt lat="45.21259" lon="5.98252">
        <ele>1726</ele>
        <time>2019-04-14T12:45:05.009Z</time>
      </trkpt>
      <trkpt lat="45.2127" lon="5.98259">
        <ele>1723.0660096</ele>
        <time>2019-04-14T12:45:21.009Z</time>
      </trkpt>
      <trkpt lat="45.21279" lon="5.98269">
        <ele>1709.5475249031</ele>
        <time>2019-04-14T12:45:24.009Z</time>
      </trkpt>
      <trkpt lat="45.2129" lon="5.98281">
        <ele>1702.5330048</ele>
        <time>2019-04-14T12:45:28.009Z</time>
      </trkpt>
      <trkpt lat="45.21299" lon="5.98271">
        <ele>1698.5110016</ele>
        <time>2019-04-14T12:45:31.009Z</time>
      </trkpt>
      <trkpt lat="45.21305" lon="5.98259">
        <ele>1696.5110016</ele>
        <time>2019-04-14T12:45:34.009Z</time>
      </trkpt>
      <trkpt lat="45.21314" lon="5.98253">
        <ele>1694</ele>
        <time>2019-04-14T12:45:55.009Z</time>
      </trkpt>
      <trkpt lat="45.21329" lon="5.98258">
        <ele>1694</ele>
        <time>2019-04-14T12:45:58.009Z</time>
      </trkpt>
      <trkpt lat="45.21335" lon="5.9827">
        <ele>1694</ele>
        <time>2019-04-14T12:46:00.009Z</time>
      </trkpt>
      <trkpt lat="45.21331" lon="5.98287">
        <ele>1674</ele>
        <time>2019-04-14T12:46:02.009Z</time>
      </trkpt>
      <trkpt lat="45.21328" lon="5.983">
        <ele>1671.5110016</ele>
        <time>2019-04-14T12:46:05.009Z</time>
      </trkpt>
      <trkpt lat="45.21324" lon="5.98306">
        <ele>1671</ele>
        <time>2019-04-14T12:46:19.009Z</time>
      </trkpt>
      <trkpt lat="45.21323" lon="5.98306">
        <ele>1671</ele>
        <time>2019-04-14T12:47:24.009Z</time>
      </trkpt>
      <trkpt lat="45.21327" lon="5.98321">
        <ele>1671</ele>
        <time>2019-04-14T12:47:39.009Z</time>
      </trkpt>
      <trkpt lat="45.21336" lon="5.98326">
        <ele>1656.5110016</ele>
        <time>2019-04-14T12:47:43.009Z</time>
      </trkpt>
      <trkpt lat="45.21345" lon="5.98337">
        <ele>1649.5330048</ele>
        <time>2019-04-14T12:47:49.009Z</time>
      </trkpt>
      <trkpt lat="45.21341" lon="5.98355">
        <ele>1647.5110016</ele>
        <time>2019-04-14T12:47:53.009Z</time>
      </trkpt>
      <trkpt lat="45.21338" lon="5.9837">
        <ele>1644.5110016</ele>
        <time>2019-04-14T12:47:57.009Z</time>
      </trkpt>
      <trkpt lat="45.21348" lon="5.98363">
        <ele>1639</ele>
        <time>2019-04-14T12:48:02.009Z</time>
      </trkpt>
      <trkpt lat="45.21355" lon="5.98357">
        <ele>1638.5110016</ele>
        <time>2019-04-14T12:48:05.009Z</time>
      </trkpt>
      <trkpt lat="45.21353" lon="5.98373">
        <ele>1633.5110016</ele>
        <time>2019-04-14T12:48:08.009Z</time>
      </trkpt>
      <trkpt lat="45.21364" lon="5.98377">
        <ele>1627.5110016</ele>
        <time>2019-04-14T12:48:15.009Z</time>
      </trkpt>
      <trkpt lat="45.21369" lon="5.98387">
        <ele>1622.5110016</ele>
        <time>2019-04-14T12:48:21.009Z</time>
      </trkpt>
      <trkpt lat="45.21378" lon="5.98392">
        <ele>1616.5554365217</ele>
        <time>2019-04-14T12:48:28.009Z</time>
      </trkpt>
      <trkpt lat="45.21385" lon="5.98402">
        <ele>1609.5110016</ele>
        <time>2019-04-14T12:48:39.009Z</time>
      </trkpt>
      <trkpt lat="45.21392" lon="5.98395">
        <ele>1607.5110016</ele>
        <time>2019-04-14T12:48:43.009Z</time>
      </trkpt>
      <trkpt lat="45.21398" lon="5.98403">
        <ele>1607</ele>
        <time>2019-04-14T12:48:54.009Z</time>
      </trkpt>
      <trkpt lat="45.21402" lon="5.98419">
        <ele>1607</ele>
        <time>2019-04-14T12:48:57.009Z</time>
      </trkpt>
      <trkpt lat="45.21409" lon="5.98431">
        <ele>1607</ele>
        <time>2019-04-14T12:49:00.009Z</time>
      </trkpt>
      <trkpt lat="45.21408" lon="5.98441">
        <ele>1589</ele>
        <time>2019-04-14T12:49:02.009Z</time>
      </trkpt>
      <trkpt lat="45.21405" lon="5.98451">
        <ele>1587.5110016</ele>
        <time>2019-04-14T12:49:04.009Z</time>
      </trkpt>
      <trkpt lat="45.21417" lon="5.98444">
        <ele>1582.5110016</ele>
        <time>2019-04-14T12:49:10.009Z</time>
      </trkpt>
      <trkpt lat="45.21425" lon="5.98434">
        <ele>1580</ele>
        <time>2019-04-14T12:49:13.009Z</time>
      </trkpt>
      <trkpt lat="45.21431" lon="5.98437">
        <ele>1580</ele>
        <time>2019-04-14T12:49:50.009Z</time>
      </trkpt>
      <trkpt lat="45.21438" lon="5.98445">
        <ele>1576</ele>
        <time>2019-04-14T12:49:53.009Z</time>
      </trkpt>
      <trkpt lat="45.21445" lon="5.9844">
        <ele>1576</ele>
        <time>2019-04-14T12:49:55.009Z</time>
      </trkpt>
      <trkpt lat="45.21451" lon="5.98442">
        <ele>1572</ele>
        <time>2019-04-14T12:49:57.009Z</time>
      </trkpt>
      <trkpt lat="45.21449" lon="5.98457">
        <ele>1568.5770112</ele>
        <time>2019-04-14T12:50:01.009Z</time>
      </trkpt>
      <trkpt lat="45.21442" lon="5.98467">
        <ele>1566</ele>
        <time>2019-04-14T12:50:04.009Z</time>
      </trkpt>
      <trkpt lat="45.21439" lon="5.98473">
        <ele>1565</ele>
        <time>2019-04-14T12:50:06.009Z</time>
      </trkpt>
      <trkpt lat="45.21436" lon="5.98479">
        <ele>1565</ele>
        <time>2019-04-14T12:50:08.009Z</time>
      </trkpt>
      <trkpt lat="45.21439" lon="5.98477">
        <ele>1563</ele>
        <time>2019-04-14T12:50:22.009Z</time>
      </trkpt>
      <trkpt lat="45.21443" lon="5.98472">
        <ele>1563</ele>
        <time>2019-04-14T12:50:24.009Z</time>
      </trkpt>
      <trkpt lat="45.21446" lon="5.98472">
        <ele>1563</ele>
        <time>2019-04-14T12:50:25.009Z</time>
      </trkpt>
      <trkpt lat="45.21452" lon="5.98475">
        <ele>1563</ele>
        <time>2019-04-14T12:50:27.009Z</time>
      </trkpt>
      <trkpt lat="45.21458" lon="5.98483">
        <ele>1563</ele>
        <time>2019-04-14T12:50:29.009Z</time>
      </trkpt>
      <trkpt lat="45.2146" lon="5.9849">
        <ele>1560.555008</ele>
        <time>2019-04-14T12:50:31.009Z</time>
      </trkpt>
      <trkpt lat="45.21455" lon="5.98495">
        <ele>1553</ele>
        <time>2019-04-14T12:50:36.009Z</time>
      </trkpt>
      <trkpt lat="45.21457" lon="5.98509">
        <ele>1549.5330048</ele>
        <time>2019-04-14T12:50:39.009Z</time>
      </trkpt>
      <trkpt lat="45.21458" lon="5.98526">
        <ele>1543.5110016</ele>
        <time>2019-04-14T12:50:43.009Z</time>
      </trkpt>
      <trkpt lat="45.21469" lon="5.98525">
        <ele>1539.5110016</ele>
        <time>2019-04-14T12:50:47.009Z</time>
      </trkpt>
      <trkpt lat="45.21474" lon="5.98526">
        <ele>1538</ele>
        <time>2019-04-14T12:50:49.009Z</time>
      </trkpt>
      <trkpt lat="45.21473" lon="5.98532">
        <ele>1537</ele>
        <time>2019-04-14T12:50:54.009Z</time>
      </trkpt>
      <trkpt lat="45.21477" lon="5.98533">
        <ele>1534</ele>
        <time>2019-04-14T12:51:02.009Z</time>
      </trkpt>
      <trkpt lat="45.21481" lon="5.98537">
        <ele>1534</ele>
        <time>2019-04-14T12:51:04.009Z</time>
      </trkpt>
      <trkpt lat="45.21492" lon="5.98541">
        <ele>1532</ele>
        <time>2019-04-14T12:51:07.009Z</time>
      </trkpt>
      <trkpt lat="45.21496" lon="5.98539">
        <ele>1532</ele>
        <time>2019-04-14T12:51:09.009Z</time>
      </trkpt>
      <trkpt lat="45.21499" lon="5.98548">
        <ele>1527.0440064</ele>
        <time>2019-04-14T12:51:16.009Z</time>
      </trkpt>
      <trkpt lat="45.21502" lon="5.98557">
        <ele>1525</ele>
        <time>2019-04-14T12:51:18.009Z</time>
      </trkpt>
      <trkpt lat="45.21506" lon="5.98571">
        <ele>1525</ele>
        <time>2019-04-14T12:51:20.009Z</time>
      </trkpt>
      <trkpt lat="45.21504" lon="5.98587">
        <ele>1512.5110016</ele>
        <time>2019-04-14T12:51:23.009Z</time>
      </trkpt>
      <trkpt lat="45.21505" lon="5.98602">
        <ele>1508.0220032</ele>
        <time>2019-04-14T12:51:26.009Z</time>
      </trkpt>
      <trkpt lat="45.2151" lon="5.98616">
        <ele>1502</ele>
        <time>2019-04-14T12:51:29.009Z</time>
      </trkpt>
      <trkpt lat="45.21514" lon="5.9863">
        <ele>1496</ele>
        <time>2019-04-14T12:51:37.009Z</time>
      </trkpt>
      <trkpt lat="45.21513" lon="5.98648">
        <ele>1494</ele>
        <time>2019-04-14T12:51:42.009Z</time>
      </trkpt>
      <trkpt lat="45.2152" lon="5.98663">
        <ele>1491</ele>
        <time>2019-04-14T12:51:49.009Z</time>
      </trkpt>
      <trkpt lat="45.2153" lon="5.98677">
        <ele>1482.555008</ele>
        <time>2019-04-14T12:51:52.009Z</time>
      </trkpt>
      <trkpt lat="45.21528" lon="5.98693">
        <ele>1475.5110016</ele>
        <time>2019-04-14T12:51:55.009Z</time>
      </trkpt>
      <trkpt lat="45.21526" lon="5.98707">
        <ele>1471.5110016</ele>
        <time>2019-04-14T12:51:59.009Z</time>
      </trkpt>
      <trkpt lat="45.21518" lon="5.98719">
        <ele>1469.5110016</ele>
        <time>2019-04-14T12:52:03.009Z</time>
      </trkpt>
      <trkpt lat="45.21528" lon="5.9872">
        <ele>1466</ele>
        <time>2019-04-14T12:52:08.009Z</time>
      </trkpt>
      <trkpt lat="45.21538" lon="5.98725">
        <ele>1465</ele>
        <time>2019-04-14T12:52:18.009Z</time>
      </trkpt>
      <trkpt lat="45.21547" lon="5.98732">
        <ele>1463</ele>
        <time>2019-04-14T12:52:24.009Z</time>
      </trkpt>
      <trkpt lat="45.21555" lon="5.98745">
        <ele>1463</ele>
        <time>2019-04-14T12:52:27.009Z</time>
      </trkpt>
      <trkpt lat="45.21561" lon="5.98757">
        <ele>1463</ele>
        <time>2019-04-14T12:52:30.009Z</time>
      </trkpt>
      <trkpt lat="45.21565" lon="5.98772">
        <ele>1450.5110016</ele>
        <time>2019-04-14T12:52:33.009Z</time>
      </trkpt>
      <trkpt lat="45.2157" lon="5.98789">
        <ele>1443.0220032</ele>
        <time>2019-04-14T12:52:37.009Z</time>
      </trkpt>
      <trkpt lat="45.21568" lon="5.98803">
        <ele>1441</ele>
        <time>2019-04-14T12:52:39.009Z</time>
      </trkpt>
      <trkpt lat="45.21575" lon="5.98819">
        <ele>1439.5110016</ele>
        <time>2019-04-14T12:52:42.009Z</time>
      </trkpt>
      <trkpt lat="45.21582" lon="5.9883">
        <ele>1434.5330048</ele>
        <time>2019-04-14T12:52:44.009Z</time>
      </trkpt>
      <trkpt lat="45.21588" lon="5.98844">
        <ele>1430.5330048</ele>
        <time>2019-04-14T12:52:46.009Z</time>
      </trkpt>
      <trkpt lat="45.21596" lon="5.9886">
        <ele>1427.4889984</ele>
        <time>2019-04-14T12:52:49.009Z</time>
      </trkpt>
      <trkpt lat="45.21602" lon="5.98875">
        <ele>1425</ele>
        <time>2019-04-14T12:52:51.009Z</time>
      </trkpt>
      <trkpt lat="45.21607" lon="5.98888">
        <ele>1422.0633665374</ele>
        <time>2019-04-14T12:52:53.009Z</time>
      </trkpt>
      <trkpt lat="45.21615" lon="5.98905">
        <ele>1419.0440064</ele>
        <time>2019-04-14T12:52:56.009Z</time>
      </trkpt>
      <trkpt lat="45.21622" lon="5.98923">
        <ele>1415.5110016</ele>
        <time>2019-04-14T12:52:59.009Z</time>
      </trkpt>
      <trkpt lat="45.21627" lon="5.98937">
        <ele>1412.5330048</ele>
        <time>2019-04-14T12:53:01.009Z</time>
      </trkpt>
      <trkpt lat="45.21638" lon="5.98949">
        <ele>1409.0220032</ele>
        <time>2019-04-14T12:53:04.009Z</time>
      </trkpt>
      <trkpt lat="45.2165" lon="5.98955">
        <ele>1407</ele>
        <time>2019-04-14T12:53:06.009Z</time>
      </trkpt>
      <trkpt lat="45.21662" lon="5.98964">
        <ele>1405.5110016</ele>
        <time>2019-04-14T12:53:08.009Z</time>
      </trkpt>
      <trkpt lat="45.21673" lon="5.98976">
        <ele>1403.5110016</ele>
        <time>2019-04-14T12:53:10.009Z</time>
      </trkpt>
      <trkpt lat="45.21682" lon="5.98994">
        <ele>1400</ele>
        <time>2019-04-14T12:53:13.009Z</time>
      </trkpt>
      <trkpt lat="45.21692" lon="5.99005">
        <ele>1398.5110016</ele>
        <time>2019-04-14T12:53:15.009Z</time>
      </trkpt>
      <trkpt lat="45.21707" lon="5.99013">
        <ele>1396</ele>
        <time>2019-04-14T12:53:17.009Z</time>
      </trkpt>
      <trkpt lat="45.21721" lon="5.99026">
        <ele>1393.5330048</ele>
        <time>2019-04-14T12:53:19.009Z</time>
      </trkpt>
      <trkpt lat="45.21734" lon="5.9904">
        <ele>1390.5110016</ele>
        <time>2019-04-14T12:53:21.009Z</time>
      </trkpt>
      <trkpt lat="45.21744" lon="5.99055">
        <ele>1386.5330048</ele>
        <time>2019-04-14T12:53:23.009Z</time>
      </trkpt>
      <trkpt lat="45.21755" lon="5.9907">
        <ele>1387.5110016</ele>
        <time>2019-04-14T12:53:25.009Z</time>
      </trkpt>
      <trkpt lat="45.21766" lon="5.99082">
        <ele>1383.5110016</ele>
        <time>2019-04-14T12:53:27.009Z</time>
      </trkpt>
      <trkpt lat="45.21776" lon="5.99094">
        <ele>1380</ele>
        <time>2019-04-14T12:53:43.009Z</time>
      </trkpt>
      <trkpt lat="45.21781" lon="5.99104">
        <ele>1380</ele>
        <time>2019-04-14T12:53:45.009Z</time>
      </trkpt>
      <trkpt lat="45.21789" lon="5.99113">
        <ele>1380</ele>
        <time>2019-04-14T12:53:48.009Z</time>
      </trkpt>
      <trkpt lat="45.21798" lon="5.99122">
        <ele>1376</ele>
        <time>2019-04-14T12:53:52.009Z</time>
      </trkpt>
      <trkpt lat="45.21799" lon="5.99135">
        <ele>1376</ele>
        <time>2019-04-14T12:54:08.009Z</time>
      </trkpt>
      <trkpt lat="45.21802" lon="5.99141">
        <ele>1376</ele>
        <time>2019-04-14T12:55:18.009Z</time>
      </trkpt>
      <trkpt lat="45.21794" lon="5.99143">
        <ele>1375</ele>
        <time>2019-04-14T12:55:37.009Z</time>
      </trkpt>
      <trkpt lat="45.21788" lon="5.9915">
        <ele>1375</ele>
        <time>2019-04-14T12:56:07.009Z</time>
      </trkpt>
      <trkpt lat="45.21794" lon="5.99156">
        <ele>1376</ele>
        <time>2019-04-14T12:57:00.009Z</time>
      </trkpt>
      <trkpt lat="45.21799" lon="5.99159">
        <ele>1376.9779968</ele>
        <time>2019-04-14T12:57:11.009Z</time>
      </trkpt>
      <trkpt lat="45.21803" lon="5.99165">
        <ele>1377</ele>
        <time>2019-04-14T12:57:41.009Z</time>
      </trkpt>
      <trkpt lat="45.21805" lon="5.99176">
        <ele>1377</ele>
        <time>2019-04-14T12:57:44.009Z</time>
      </trkpt>
      <trkpt lat="45.21805" lon="5.99186">
        <ele>1377</ele>
        <time>2019-04-14T12:57:46.009Z</time>
      </trkpt>
      <trkpt lat="45.21808" lon="5.99198">
        <ele>1377</ele>
        <time>2019-04-14T12:57:48.009Z</time>
      </trkpt>
      <trkpt lat="45.21815" lon="5.9921">
        <ele>1377</ele>
        <time>2019-04-14T12:57:50.009Z</time>
      </trkpt>
      <trkpt lat="45.21821" lon="5.99223">
        <ele>1374</ele>
        <time>2019-04-14T12:57:52.009Z</time>
      </trkpt>
      <trkpt lat="45.2183" lon="5.99234">
        <ele>1374</ele>
        <time>2019-04-14T12:57:54.009Z</time>
      </trkpt>
      <trkpt lat="45.21836" lon="5.99251">
        <ele>1372</ele>
        <time>2019-04-14T12:57:57.009Z</time>
      </trkpt>
      <trkpt lat="45.21843" lon="5.99269">
        <ele>1372</ele>
        <time>2019-04-14T12:58:00.009Z</time>
      </trkpt>
      <trkpt lat="45.21848" lon="5.99284">
        <ele>1368</ele>
        <time>2019-04-14T12:58:03.009Z</time>
      </trkpt>
      <trkpt lat="45.21851" lon="5.99298">
        <ele>1369</ele>
        <time>2019-04-14T12:58:09.009Z</time>
      </trkpt>
      <trkpt lat="45.21856" lon="5.99311">
        <ele>1368</ele>
        <time>2019-04-14T12:58:16.009Z</time>
      </trkpt>
      <trkpt lat="45.21857" lon="5.99328">
        <ele>1369</ele>
        <time>2019-04-14T12:58:23.009Z</time>
      </trkpt>
      <trkpt lat="45.2186" lon="5.99346">
        <ele>1369</ele>
        <time>2019-04-14T12:58:27.009Z</time>
      </trkpt>
      <trkpt lat="45.21863" lon="5.9936">
        <ele>1369</ele>
        <time>2019-04-14T12:58:29.009Z</time>
      </trkpt>
      <trkpt lat="45.21867" lon="5.99374">
        <ele>1368.0220032</ele>
        <time>2019-04-14T12:58:31.009Z</time>
      </trkpt>
      <trkpt lat="45.21878" lon="5.99386">
        <ele>1367</ele>
        <time>2019-04-14T12:58:34.009Z</time>
      </trkpt>
      <trkpt lat="45.21887" lon="5.99401">
        <ele>1367</ele>
        <time>2019-04-14T12:58:37.009Z</time>
      </trkpt>
      <trkpt lat="45.21891" lon="5.99418">
        <ele>1367</ele>
        <time>2019-04-14T12:58:39.009Z</time>
      </trkpt>
      <trkpt lat="45.21895" lon="5.99437">
        <ele>1364.555008</ele>
        <time>2019-04-14T12:58:41.009Z</time>
      </trkpt>
      <trkpt lat="45.21903" lon="5.99456">
        <ele>1359</ele>
        <time>2019-04-14T12:58:43.009Z</time>
      </trkpt>
      <trkpt lat="45.21912" lon="5.99469">
        <ele>1358.5110016</ele>
        <time>2019-04-14T12:58:45.009Z</time>
      </trkpt>
      <trkpt lat="45.21921" lon="5.9948">
        <ele>1356</ele>
        <time>2019-04-14T12:58:48.009Z</time>
      </trkpt>
      <trkpt lat="45.2193" lon="5.99487">
        <ele>1356</ele>
        <time>2019-04-14T12:58:53.009Z</time>
      </trkpt>
      <trkpt lat="45.21938" lon="5.99497">
        <ele>1355</ele>
        <time>2019-04-14T12:58:59.009Z</time>
      </trkpt>
      <trkpt lat="45.21946" lon="5.99507">
        <ele>1356</ele>
        <time>2019-04-14T12:59:03.009Z</time>
      </trkpt>
      <trkpt lat="45.21954" lon="5.99519">
        <ele>1356</ele>
        <time>2019-04-14T12:59:08.009Z</time>
      </trkpt>
      <trkpt lat="45.21961" lon="5.99531">
        <ele>1356</ele>
        <time>2019-04-14T12:59:15.009Z</time>
      </trkpt>
      <trkpt lat="45.2197" lon="5.99541">
        <ele>1356</ele>
        <time>2019-04-14T12:59:20.009Z</time>
      </trkpt>
      <trkpt lat="45.21976" lon="5.99545">
        <ele>1357</ele>
        <time>2019-04-14T12:59:23.009Z</time>
      </trkpt>
      <trkpt lat="45.21983" lon="5.9955">
        <ele>1357</ele>
        <time>2019-04-14T12:59:26.009Z</time>
      </trkpt>
      <trkpt lat="45.21991" lon="5.99555">
        <ele>1357</ele>
        <time>2019-04-14T12:59:29.009Z</time>
      </trkpt>
      <trkpt lat="45.22" lon="5.99558">
        <ele>1356.0220032</ele>
        <time>2019-04-14T12:59:31.009Z</time>
      </trkpt>
      <trkpt lat="45.22011" lon="5.9956">
        <ele>1355</ele>
        <time>2019-04-14T12:59:33.009Z</time>
      </trkpt>
      <trkpt lat="45.22025" lon="5.99566">
        <ele>1355</ele>
        <time>2019-04-14T12:59:35.009Z</time>
      </trkpt>
      <trkpt lat="45.22039" lon="5.99569">
        <ele>1355</ele>
        <time>2019-04-14T12:59:37.009Z</time>
      </trkpt>
      <trkpt lat="45.22055" lon="5.99571">
        <ele>1355</ele>
        <time>2019-04-14T12:59:39.009Z</time>
      </trkpt>
      <trkpt lat="45.22071" lon="5.99575">
        <ele>1351.5770112</ele>
        <time>2019-04-14T12:59:41.009Z</time>
      </trkpt>
      <trkpt lat="45.22085" lon="5.99587">
        <ele>1344</ele>
        <time>2019-04-14T12:59:43.009Z</time>
      </trkpt>
      <trkpt lat="45.22094" lon="5.99601">
        <ele>1343</ele>
        <time>2019-04-14T12:59:45.009Z</time>
      </trkpt>
      <trkpt lat="45.22099" lon="5.99613">
        <ele>1343</ele>
        <time>2019-04-14T12:59:47.009Z</time>
      </trkpt>
      <trkpt lat="45.22108" lon="5.99626">
        <ele>1342.5205867958</ele>
        <time>2019-04-14T12:59:49.009Z</time>
      </trkpt>
      <trkpt lat="45.22118" lon="5.99638">
        <ele>1342</ele>
        <time>2019-04-14T12:59:51.009Z</time>
      </trkpt>
      <trkpt lat="45.22122" lon="5.99652">
        <ele>1342</ele>
        <time>2019-04-14T12:59:55.009Z</time>
      </trkpt>
      <trkpt lat="45.22129" lon="5.99643">
        <ele>1339</ele>
        <time>2019-04-14T13:00:12.009Z</time>
      </trkpt>
      <trkpt lat="45.22137" lon="5.99652">
        <ele>1336</ele>
        <time>2019-04-14T13:00:45.009Z</time>
      </trkpt>
      <trkpt lat="45.22147" lon="5.99654">
        <ele>1334</ele>
        <time>2019-04-14T13:00:54.009Z</time>
      </trkpt>
      <trkpt lat="45.22158" lon="5.99649">
        <ele>1334</ele>
        <time>2019-04-14T13:01:00.009Z</time>
      </trkpt>
      <trkpt lat="45.22167" lon="5.99642">
        <ele>1323.5158416343</ele>
        <time>2019-04-14T13:01:06.009Z</time>
      </trkpt>
      <trkpt lat="45.22177" lon="5.99634">
        <ele>1320.5110016</ele>
        <time>2019-04-14T13:01:16.009Z</time>
      </trkpt>
      <trkpt lat="45.22185" lon="5.99625">
        <ele>1319</ele>
        <time>2019-04-14T13:01:54.009Z</time>
      </trkpt>
      <trkpt lat="45.22196" lon="5.9962">
        <ele>1313</ele>
        <time>2019-04-14T13:02:08.009Z</time>
      </trkpt>
      <trkpt lat="45.22206" lon="5.99622">
        <ele>1311</ele>
        <time>2019-04-14T13:02:15.009Z</time>
      </trkpt>
      <trkpt lat="45.22213" lon="5.99632">
        <ele>1307.0220032</ele>
        <time>2019-04-14T13:02:21.009Z</time>
      </trkpt>
      <trkpt lat="45.2222" lon="5.99639">
        <ele>1305</ele>
        <time>2019-04-14T13:02:28.009Z</time>
      </trkpt>
      <trkpt lat="45.2223" lon="5.99641">
        <ele>1304</ele>
        <time>2019-04-14T13:02:55.009Z</time>
      </trkpt>
      <trkpt lat="45.22242" lon="5.99636">
        <ele>1304</ele>
        <time>2019-04-14T13:02:58.009Z</time>
      </trkpt>
      <trkpt lat="45.22252" lon="5.99629">
        <ele>1304</ele>
        <time>2019-04-14T13:03:00.009Z</time>
      </trkpt>
      <trkpt lat="45.22261" lon="5.99622">
        <ele>1291.5110016</ele>
        <time>2019-04-14T13:03:05.009Z</time>
      </trkpt>
      <trkpt lat="45.22269" lon="5.99614">
        <ele>1288</ele>
        <time>2019-04-14T13:03:10.009Z</time>
      </trkpt>
      <trkpt lat="45.22274" lon="5.99599">
        <ele>1288</ele>
        <time>2019-04-14T13:03:14.009Z</time>
      </trkpt>
      <trkpt lat="45.22281" lon="5.99583">
        <ele>1285</ele>
        <time>2019-04-14T13:03:19.009Z</time>
      </trkpt>
      <trkpt lat="45.22289" lon="5.99569">
        <ele>1280.0220032</ele>
        <time>2019-04-14T13:03:22.009Z</time>
      </trkpt>
      <trkpt lat="45.22299" lon="5.99566">
        <ele>1274.5110016</ele>
        <time>2019-04-14T13:03:26.009Z</time>
      </trkpt>
      <trkpt lat="45.22312" lon="5.9957">
        <ele>1271.5110016</ele>
        <time>2019-04-14T13:03:30.009Z</time>
      </trkpt>
      <trkpt lat="45.22323" lon="5.99568">
        <ele>1270</ele>
        <time>2019-04-14T13:03:33.009Z</time>
      </trkpt>
      <trkpt lat="45.22334" lon="5.99571">
        <ele>1268.5110016</ele>
        <time>2019-04-14T13:03:35.009Z</time>
      </trkpt>
      <trkpt lat="45.22347" lon="5.99589">
        <ele>1265.5110016</ele>
        <time>2019-04-14T13:03:37.009Z</time>
      </trkpt>
      <trkpt lat="45.22357" lon="5.99607">
        <ele>1264.0685716375</ele>
        <time>2019-04-14T13:03:39.009Z</time>
      </trkpt>
      <trkpt lat="45.22367" lon="5.99618">
        <ele>1262</ele>
        <time>2019-04-14T13:03:41.009Z</time>
      </trkpt>
      <trkpt lat="45.22377" lon="5.99629">
        <ele>1261</ele>
        <time>2019-04-14T13:03:44.009Z</time>
      </trkpt>
      <trkpt lat="45.22382" lon="5.99642">
        <ele>1261</ele>
        <time>2019-04-14T13:03:49.009Z</time>
      </trkpt>
      <trkpt lat="45.22381" lon="5.99642">
        <ele>1262</ele>
        <time>2019-04-14T13:04:03.009Z</time>
      </trkpt>
    </trkseg>
  </trk>
  <trk>
    <name><![CDATA[20190415134240-Rv23G]]></name>
    <trkseg>
      <trkpt lat="45.20122" lon="5.92272">
        <ele>1293.3000488281</ele>
        <time>2019-04-13T06:20:13.009Z</time>
      </trkpt>
      <trkpt lat="45.20123" lon="5.92277">
        <ele>1291</ele>
        <time>2019-04-13T06:20:37.009Z</time>
      </trkpt>
      <trkpt lat="45.20119" lon="5.92282">
        <ele>1291</ele>
        <time>2019-04-13T06:21:00.009Z</time>
      </trkpt>
      <trkpt lat="45.20115" lon="5.9229">
        <ele>1291</ele>
        <time>2019-04-13T06:21:09.009Z</time>
      </trkpt>
      <trkpt lat="45.2011" lon="5.92296">
        <ele>1292</ele>
        <time>2019-04-13T06:21:15.009Z</time>
      </trkpt>
      <trkpt lat="45.20106" lon="5.92301">
        <ele>1292.2889984</ele>
        <time>2019-04-13T06:21:20.009Z</time>
      </trkpt>
      <trkpt lat="45.20101" lon="5.92307">
        <ele>1293</ele>
        <time>2019-04-13T06:21:28.009Z</time>
      </trkpt>
      <trkpt lat="45.20096" lon="5.92315">
        <ele>1294</ele>
        <time>2019-04-13T06:21:35.009Z</time>
      </trkpt>
      <trkpt lat="45.2009" lon="5.92323">
        <ele>1295</ele>
        <time>2019-04-13T06:21:44.009Z</time>
      </trkpt>
      <trkpt lat="45.20084" lon="5.92332">
        <ele>1296</ele>
        <time>2019-04-13T06:21:51.009Z</time>
      </trkpt>
      <trkpt lat="45.2008" lon="5.92343">
        <ele>1296.2889984</ele>
        <time>2019-04-13T06:22:00.009Z</time>
      </trkpt>
      <trkpt lat="45.20074" lon="5.92352">
        <ele>1297</ele>
        <time>2019-04-13T06:22:08.009Z</time>
      </trkpt>
      <trkpt lat="45.20071" lon="5.92364">
        <ele>1298</ele>
        <time>2019-04-13T06:22:17.009Z</time>
      </trkpt>
      <trkpt lat="45.20072" lon="5.92379">
        <ele>1300</ele>
        <time>2019-04-13T06:22:28.009Z</time>
      </trkpt>
      <trkpt lat="45.20075" lon="5.92391">
        <ele>1301</ele>
        <time>2019-04-13T06:22:37.009Z</time>
      </trkpt>
      <trkpt lat="45.20078" lon="5.92405">
        <ele>1301</ele>
        <time>2019-04-13T06:22:49.009Z</time>
      </trkpt>
      <trkpt lat="45.20082" lon="5.92419">
        <ele>1301</ele>
        <time>2019-04-13T06:22:57.009Z</time>
      </trkpt>
      <trkpt lat="45.20084" lon="5.92433">
        <ele>1302</ele>
        <time>2019-04-13T06:23:07.009Z</time>
      </trkpt>
      <trkpt lat="45.20083" lon="5.92448">
        <ele>1304</ele>
        <time>2019-04-13T06:23:16.009Z</time>
      </trkpt>
      <trkpt lat="45.20085" lon="5.92462">
        <ele>1304</ele>
        <time>2019-04-13T06:23:24.009Z</time>
      </trkpt>
      <trkpt lat="45.20086" lon="5.92477">
        <ele>1305</ele>
        <time>2019-04-13T06:23:34.009Z</time>
      </trkpt>
      <trkpt lat="45.20084" lon="5.92492">
        <ele>1306</ele>
        <time>2019-04-13T06:23:44.009Z</time>
      </trkpt>
      <trkpt lat="45.20079" lon="5.92505">
        <ele>1308</ele>
        <time>2019-04-13T06:23:53.009Z</time>
      </trkpt>
      <trkpt lat="45.20076" lon="5.92518">
        <ele>1308</ele>
        <time>2019-04-13T06:24:00.009Z</time>
      </trkpt>
      <trkpt lat="45.20071" lon="5.92527">
        <ele>1308</ele>
        <time>2019-04-13T06:24:04.009Z</time>
      </trkpt>
      <trkpt lat="45.20065" lon="5.92535">
        <ele>1308</ele>
        <time>2019-04-13T06:24:09.009Z</time>
      </trkpt>
      <trkpt lat="45.20059" lon="5.92544">
        <ele>1309</ele>
        <time>2019-04-13T06:24:16.009Z</time>
      </trkpt>
      <trkpt lat="45.20054" lon="5.92552">
        <ele>1310</ele>
        <time>2019-04-13T06:24:23.009Z</time>
      </trkpt>
      <trkpt lat="45.20052" lon="5.92566">
        <ele>1310</ele>
        <time>2019-04-13T06:24:35.009Z</time>
      </trkpt>
      <trkpt lat="45.20052" lon="5.9258">
        <ele>1312</ele>
        <time>2019-04-13T06:24:45.009Z</time>
      </trkpt>
      <trkpt lat="45.2005" lon="5.92595">
        <ele>1313</ele>
        <time>2019-04-13T06:24:54.009Z</time>
      </trkpt>
      <trkpt lat="45.20051" lon="5.92609">
        <ele>1315</ele>
        <time>2019-04-13T06:25:02.009Z</time>
      </trkpt>
      <trkpt lat="45.20052" lon="5.92621">
        <ele>1315.5779968</ele>
        <time>2019-04-13T06:25:10.009Z</time>
      </trkpt>
      <trkpt lat="45.20055" lon="5.92636">
        <ele>1317</ele>
        <time>2019-04-13T06:25:19.009Z</time>
      </trkpt>
      <trkpt lat="45.20056" lon="5.92649">
        <ele>1317</ele>
        <time>2019-04-13T06:25:26.009Z</time>
      </trkpt>
      <trkpt lat="45.20058" lon="5.92663">
        <ele>1318</ele>
        <time>2019-04-13T06:25:35.009Z</time>
      </trkpt>
      <trkpt lat="45.20062" lon="5.92675">
        <ele>1318</ele>
        <time>2019-04-13T06:25:43.009Z</time>
      </trkpt>
      <trkpt lat="45.20064" lon="5.9269">
        <ele>1320</ele>
        <time>2019-04-13T06:25:53.009Z</time>
      </trkpt>
      <trkpt lat="45.20068" lon="5.92703">
        <ele>1322</ele>
        <time>2019-04-13T06:26:05.009Z</time>
      </trkpt>
      <trkpt lat="45.20075" lon="5.92715">
        <ele>1322</ele>
        <time>2019-04-13T06:26:14.009Z</time>
      </trkpt>
      <trkpt lat="45.2008" lon="5.92724">
        <ele>1322.2889984</ele>
        <time>2019-04-13T06:26:21.009Z</time>
      </trkpt>
      <trkpt lat="45.20087" lon="5.92735">
        <ele>1323</ele>
        <time>2019-04-13T06:26:29.009Z</time>
      </trkpt>
      <trkpt lat="45.20094" lon="5.92746">
        <ele>1324</ele>
        <time>2019-04-13T06:26:37.009Z</time>
      </trkpt>
      <trkpt lat="45.20102" lon="5.92758">
        <ele>1325</ele>
        <time>2019-04-13T06:26:46.009Z</time>
      </trkpt>
      <trkpt lat="45.20109" lon="5.92768">
        <ele>1326</ele>
        <time>2019-04-13T06:26:56.009Z</time>
      </trkpt>
      <trkpt lat="45.20116" lon="5.92781">
        <ele>1326</ele>
        <time>2019-04-13T06:27:06.009Z</time>
      </trkpt>
      <trkpt lat="45.2012" lon="5.92789">
        <ele>1328</ele>
        <time>2019-04-13T06:27:12.009Z</time>
      </trkpt>
      <trkpt lat="45.20127" lon="5.92801">
        <ele>1328</ele>
        <time>2019-04-13T06:27:20.009Z</time>
      </trkpt>
      <trkpt lat="45.20132" lon="5.92815">
        <ele>1329</ele>
        <time>2019-04-13T06:27:29.009Z</time>
      </trkpt>
      <trkpt lat="45.20138" lon="5.92827">
        <ele>1329</ele>
        <time>2019-04-13T06:27:38.009Z</time>
      </trkpt>
      <trkpt lat="45.20143" lon="5.92835">
        <ele>1331</ele>
        <time>2019-04-13T06:27:44.009Z</time>
      </trkpt>
      <trkpt lat="45.20146" lon="5.92846">
        <ele>1331</ele>
        <time>2019-04-13T06:27:50.009Z</time>
      </trkpt>
      <trkpt lat="45.2015" lon="5.92859">
        <ele>1333</ele>
        <time>2019-04-13T06:27:58.009Z</time>
      </trkpt>
      <trkpt lat="45.20154" lon="5.92874">
        <ele>1333</ele>
        <time>2019-04-13T06:28:07.009Z</time>
      </trkpt>
      <trkpt lat="45.20155" lon="5.92885">
        <ele>1335</ele>
        <time>2019-04-13T06:28:14.009Z</time>
      </trkpt>
      <trkpt lat="45.20159" lon="5.92898">
        <ele>1336</ele>
        <time>2019-04-13T06:28:23.009Z</time>
      </trkpt>
      <trkpt lat="45.20162" lon="5.9291">
        <ele>1336.2889984</ele>
        <time>2019-04-13T06:28:31.009Z</time>
      </trkpt>
      <trkpt lat="45.20165" lon="5.92924">
        <ele>1337</ele>
        <time>2019-04-13T06:28:40.009Z</time>
      </trkpt>
      <trkpt lat="45.20167" lon="5.92937">
        <ele>1337</ele>
        <time>2019-04-13T06:28:48.009Z</time>
      </trkpt>
      <trkpt lat="45.20167" lon="5.9295">
        <ele>1338</ele>
        <time>2019-04-13T06:28:56.009Z</time>
      </trkpt>
      <trkpt lat="45.20165" lon="5.92962">
        <ele>1339</ele>
        <time>2019-04-13T06:29:02.009Z</time>
      </trkpt>
      <trkpt lat="45.20159" lon="5.92974">
        <ele>1339</ele>
        <time>2019-04-13T06:29:10.009Z</time>
      </trkpt>
      <trkpt lat="45.20153" lon="5.92979">
        <ele>1340</ele>
        <time>2019-04-13T06:29:33.009Z</time>
      </trkpt>
      <trkpt lat="45.20148" lon="5.92985">
        <ele>1339</ele>
        <time>2019-04-13T06:29:49.009Z</time>
      </trkpt>
      <trkpt lat="45.20141" lon="5.92991">
        <ele>1340</ele>
        <time>2019-04-13T06:29:56.009Z</time>
      </trkpt>
      <trkpt lat="45.20133" lon="5.92993">
        <ele>1341</ele>
        <time>2019-04-13T06:30:02.009Z</time>
      </trkpt>
      <trkpt lat="45.20125" lon="5.92991">
        <ele>1341</ele>
        <time>2019-04-13T06:30:09.009Z</time>
      </trkpt>
      <trkpt lat="45.20118" lon="5.9299">
        <ele>1342</ele>
        <time>2019-04-13T06:30:14.009Z</time>
      </trkpt>
      <trkpt lat="45.2011" lon="5.92988">
        <ele>1342</ele>
        <time>2019-04-13T06:30:20.009Z</time>
      </trkpt>
      <trkpt lat="45.20105" lon="5.92993">
        <ele>1343</ele>
        <time>2019-04-13T06:30:48.009Z</time>
      </trkpt>
      <trkpt lat="45.20097" lon="5.93002">
        <ele>1344</ele>
        <time>2019-04-13T06:31:02.009Z</time>
      </trkpt>
      <trkpt lat="45.2009" lon="5.93005">
        <ele>1344</ele>
        <time>2019-04-13T06:31:09.009Z</time>
      </trkpt>
      <trkpt lat="45.20084" lon="5.93012">
        <ele>1344</ele>
        <time>2019-04-13T06:31:15.009Z</time>
      </trkpt>
      <trkpt lat="45.20077" lon="5.93019">
        <ele>1346</ele>
        <time>2019-04-13T06:31:22.009Z</time>
      </trkpt>
      <trkpt lat="45.20071" lon="5.93027">
        <ele>1346</ele>
        <time>2019-04-13T06:31:28.009Z</time>
      </trkpt>
      <trkpt lat="45.20064" lon="5.93034">
        <ele>1347</ele>
        <time>2019-04-13T06:31:35.009Z</time>
      </trkpt>
      <trkpt lat="45.20058" lon="5.93042">
        <ele>1348</ele>
        <time>2019-04-13T06:31:42.009Z</time>
      </trkpt>
      <trkpt lat="45.20051" lon="5.93047">
        <ele>1348</ele>
        <time>2019-04-13T06:31:49.009Z</time>
      </trkpt>
      <trkpt lat="45.20044" lon="5.93055">
        <ele>1348</ele>
        <time>2019-04-13T06:31:56.009Z</time>
      </trkpt>
      <trkpt lat="45.20037" lon="5.93062">
        <ele>1349</ele>
        <time>2019-04-13T06:32:03.009Z</time>
      </trkpt>
      <trkpt lat="45.2003" lon="5.93071">
        <ele>1351</ele>
        <time>2019-04-13T06:32:12.009Z</time>
      </trkpt>
      <trkpt lat="45.20022" lon="5.93081">
        <ele>1351.2889984</ele>
        <time>2019-04-13T06:32:21.009Z</time>
      </trkpt>
      <trkpt lat="45.20014" lon="5.93092">
        <ele>1352</ele>
        <time>2019-04-13T06:32:30.009Z</time>
      </trkpt>
      <trkpt lat="45.20008" lon="5.931">
        <ele>1353</ele>
        <time>2019-04-13T06:32:37.009Z</time>
      </trkpt>
      <trkpt lat="45.20001" lon="5.93108">
        <ele>1354</ele>
        <time>2019-04-13T06:32:44.009Z</time>
      </trkpt>
      <trkpt lat="45.19994" lon="5.93114">
        <ele>1354.2889984</ele>
        <time>2019-04-13T06:32:51.009Z</time>
      </trkpt>
      <trkpt lat="45.19987" lon="5.93124">
        <ele>1355</ele>
        <time>2019-04-13T06:33:02.009Z</time>
      </trkpt>
      <trkpt lat="45.19981" lon="5.93127">
        <ele>1355</ele>
        <time>2019-04-13T06:33:07.009Z</time>
      </trkpt>
      <trkpt lat="45.19975" lon="5.9313">
        <ele>1356</ele>
        <time>2019-04-13T06:33:13.009Z</time>
      </trkpt>
      <trkpt lat="45.19968" lon="5.93136">
        <ele>1356</ele>
        <time>2019-04-13T06:33:19.009Z</time>
      </trkpt>
      <trkpt lat="45.19962" lon="5.93142">
        <ele>1357</ele>
        <time>2019-04-13T06:33:25.009Z</time>
      </trkpt>
      <trkpt lat="45.19956" lon="5.93147">
        <ele>1357</ele>
        <time>2019-04-13T06:33:30.009Z</time>
      </trkpt>
      <trkpt lat="45.1995" lon="5.93153">
        <ele>1358</ele>
        <time>2019-04-13T06:33:37.009Z</time>
      </trkpt>
      <trkpt lat="45.19943" lon="5.93159">
        <ele>1360</ele>
        <time>2019-04-13T06:33:44.009Z</time>
      </trkpt>
      <trkpt lat="45.19935" lon="5.93161">
        <ele>1363</ele>
        <time>2019-04-13T06:33:53.009Z</time>
      </trkpt>
      <trkpt lat="45.19927" lon="5.93165">
        <ele>1363</ele>
        <time>2019-04-13T06:34:01.009Z</time>
      </trkpt>
      <trkpt lat="45.1992" lon="5.93168">
        <ele>1363</ele>
        <time>2019-04-13T06:34:06.009Z</time>
      </trkpt>
      <trkpt lat="45.19914" lon="5.9317">
        <ele>1365</ele>
        <time>2019-04-13T06:34:12.009Z</time>
      </trkpt>
      <trkpt lat="45.19909" lon="5.93172">
        <ele>1365</ele>
        <time>2019-04-13T06:34:16.009Z</time>
      </trkpt>
      <trkpt lat="45.19902" lon="5.93174">
        <ele>1365</ele>
        <time>2019-04-13T06:34:20.009Z</time>
      </trkpt>
      <trkpt lat="45.19896" lon="5.93176">
        <ele>1366</ele>
        <time>2019-04-13T06:34:26.009Z</time>
      </trkpt>
      <trkpt lat="45.19889" lon="5.93178">
        <ele>1366.2889984</ele>
        <time>2019-04-13T06:34:31.009Z</time>
      </trkpt>
      <trkpt lat="45.19884" lon="5.93179">
        <ele>1367</ele>
        <time>2019-04-13T06:34:36.009Z</time>
      </trkpt>
      <trkpt lat="45.19877" lon="5.93178">
        <ele>1369</ele>
        <time>2019-04-13T06:34:42.009Z</time>
      </trkpt>
      <trkpt lat="45.1987" lon="5.93175">
        <ele>1369</ele>
        <time>2019-04-13T06:34:47.009Z</time>
      </trkpt>
      <trkpt lat="45.19864" lon="5.93172">
        <ele>1369</ele>
        <time>2019-04-13T06:34:54.009Z</time>
      </trkpt>
      <trkpt lat="45.19858" lon="5.93171">
        <ele>1369</ele>
        <time>2019-04-13T06:35:00.009Z</time>
      </trkpt>
      <trkpt lat="45.19854" lon="5.93167">
        <ele>1369</ele>
        <time>2019-04-13T06:35:05.009Z</time>
      </trkpt>
      <trkpt lat="45.19851" lon="5.93161">
        <ele>1369</ele>
        <time>2019-04-13T06:35:09.009Z</time>
      </trkpt>
      <trkpt lat="45.19848" lon="5.93156">
        <ele>1370</ele>
        <time>2019-04-13T06:35:13.009Z</time>
      </trkpt>
      <trkpt lat="45.19843" lon="5.93148">
        <ele>1370</ele>
        <time>2019-04-13T06:35:20.009Z</time>
      </trkpt>
      <trkpt lat="45.19837" lon="5.93144">
        <ele>1370</ele>
        <time>2019-04-13T06:37:04.009Z</time>
      </trkpt>
      <trkpt lat="45.19831" lon="5.93141">
        <ele>1370</ele>
        <time>2019-04-13T06:37:09.009Z</time>
      </trkpt>
      <trkpt lat="45.19824" lon="5.93139">
        <ele>1371</ele>
        <time>2019-04-13T06:37:16.009Z</time>
      </trkpt>
      <trkpt lat="45.19815" lon="5.93137">
        <ele>1373</ele>
        <time>2019-04-13T06:37:26.009Z</time>
      </trkpt>
      <trkpt lat="45.19807" lon="5.93139">
        <ele>1375</ele>
        <time>2019-04-13T06:37:34.009Z</time>
      </trkpt>
      <trkpt lat="45.19799" lon="5.93139">
        <ele>1375</ele>
        <time>2019-04-13T06:37:42.009Z</time>
      </trkpt>
      <trkpt lat="45.19792" lon="5.9314">
        <ele>1375</ele>
        <time>2019-04-13T06:37:47.009Z</time>
      </trkpt>
      <trkpt lat="45.19783" lon="5.93143">
        <ele>1376</ele>
        <time>2019-04-13T06:37:56.009Z</time>
      </trkpt>
      <trkpt lat="45.19773" lon="5.93142">
        <ele>1380</ele>
        <time>2019-04-13T06:38:03.009Z</time>
      </trkpt>
      <trkpt lat="45.19763" lon="5.93144">
        <ele>1381</ele>
        <time>2019-04-13T06:38:15.009Z</time>
      </trkpt>
      <trkpt lat="45.19753" lon="5.93145">
        <ele>1382</ele>
        <time>2019-04-13T06:38:24.009Z</time>
      </trkpt>
      <trkpt lat="45.19747" lon="5.93145">
        <ele>1382</ele>
        <time>2019-04-13T06:38:30.009Z</time>
      </trkpt>
      <trkpt lat="45.19742" lon="5.93149">
        <ele>1383</ele>
        <time>2019-04-13T06:38:36.009Z</time>
      </trkpt>
      <trkpt lat="45.19735" lon="5.93152">
        <ele>1385</ele>
        <time>2019-04-13T06:38:44.009Z</time>
      </trkpt>
      <trkpt lat="45.19727" lon="5.93161">
        <ele>1386</ele>
        <time>2019-04-13T06:38:55.009Z</time>
      </trkpt>
      <trkpt lat="45.19717" lon="5.93165">
        <ele>1388</ele>
        <time>2019-04-13T06:39:05.009Z</time>
      </trkpt>
      <trkpt lat="45.1971" lon="5.93176">
        <ele>1389</ele>
        <time>2019-04-13T06:39:19.009Z</time>
      </trkpt>
      <trkpt lat="45.197" lon="5.93183">
        <ele>1391</ele>
        <time>2019-04-13T06:39:29.009Z</time>
      </trkpt>
      <trkpt lat="45.1969" lon="5.9319">
        <ele>1396</ele>
        <time>2019-04-13T06:39:39.009Z</time>
      </trkpt>
      <trkpt lat="45.19681" lon="5.93197">
        <ele>1396</ele>
        <time>2019-04-13T06:39:49.009Z</time>
      </trkpt>
      <trkpt lat="45.19675" lon="5.93201">
        <ele>1397</ele>
        <time>2019-04-13T06:39:56.009Z</time>
      </trkpt>
      <trkpt lat="45.19671" lon="5.93204">
        <ele>1397</ele>
        <time>2019-04-13T06:40:00.009Z</time>
      </trkpt>
      <trkpt lat="45.19664" lon="5.93208">
        <ele>1399</ele>
        <time>2019-04-13T06:40:07.009Z</time>
      </trkpt>
      <trkpt lat="45.19658" lon="5.93212">
        <ele>1401</ele>
        <time>2019-04-13T06:40:13.009Z</time>
      </trkpt>
      <trkpt lat="45.19651" lon="5.93213">
        <ele>1401</ele>
        <time>2019-04-13T06:40:20.009Z</time>
      </trkpt>
      <trkpt lat="45.19644" lon="5.93213">
        <ele>1402</ele>
        <time>2019-04-13T06:40:26.009Z</time>
      </trkpt>
      <trkpt lat="45.19636" lon="5.93215">
        <ele>1404</ele>
        <time>2019-04-13T06:40:33.009Z</time>
      </trkpt>
      <trkpt lat="45.19628" lon="5.93215">
        <ele>1404.2889984</ele>
        <time>2019-04-13T06:40:41.009Z</time>
      </trkpt>
      <trkpt lat="45.19621" lon="5.93222">
        <ele>1405</ele>
        <time>2019-04-13T06:40:48.009Z</time>
      </trkpt>
      <trkpt lat="45.19614" lon="5.93226">
        <ele>1406</ele>
        <time>2019-04-13T06:40:54.009Z</time>
      </trkpt>
      <trkpt lat="45.19606" lon="5.93228">
        <ele>1408</ele>
        <time>2019-04-13T06:41:05.009Z</time>
      </trkpt>
      <trkpt lat="45.19599" lon="5.93233">
        <ele>1410</ele>
        <time>2019-04-13T06:41:13.009Z</time>
      </trkpt>
      <trkpt lat="45.19594" lon="5.93237">
        <ele>1410</ele>
        <time>2019-04-13T06:41:18.009Z</time>
      </trkpt>
      <trkpt lat="45.19589" lon="5.93241">
        <ele>1413</ele>
        <time>2019-04-13T06:41:23.009Z</time>
      </trkpt>
      <trkpt lat="45.19582" lon="5.93245">
        <ele>1415</ele>
        <time>2019-04-13T06:41:31.009Z</time>
      </trkpt>
      <trkpt lat="45.19576" lon="5.93249">
        <ele>1415</ele>
        <time>2019-04-13T06:41:39.009Z</time>
      </trkpt>
      <trkpt lat="45.19568" lon="5.93253">
        <ele>1417</ele>
        <time>2019-04-13T06:41:46.009Z</time>
      </trkpt>
      <trkpt lat="45.19561" lon="5.93254">
        <ele>1418</ele>
        <time>2019-04-13T06:42:00.009Z</time>
      </trkpt>
      <trkpt lat="45.19552" lon="5.93255">
        <ele>1421</ele>
        <time>2019-04-13T06:42:09.009Z</time>
      </trkpt>
      <trkpt lat="45.19545" lon="5.93254">
        <ele>1423</ele>
        <time>2019-04-13T06:42:16.009Z</time>
      </trkpt>
      <trkpt lat="45.19535" lon="5.9325">
        <ele>1425</ele>
        <time>2019-04-13T06:42:25.009Z</time>
      </trkpt>
      <trkpt lat="45.19526" lon="5.93249">
        <ele>1427</ele>
        <time>2019-04-13T06:42:35.009Z</time>
      </trkpt>
      <trkpt lat="45.19518" lon="5.93248">
        <ele>1429</ele>
        <time>2019-04-13T06:42:48.009Z</time>
      </trkpt>
      <trkpt lat="45.19511" lon="5.93246">
        <ele>1433</ele>
        <time>2019-04-13T06:42:57.009Z</time>
      </trkpt>
      <trkpt lat="45.19505" lon="5.93241">
        <ele>1435</ele>
        <time>2019-04-13T06:43:03.009Z</time>
      </trkpt>
      <trkpt lat="45.195" lon="5.93236">
        <ele>1437</ele>
        <time>2019-04-13T06:43:11.009Z</time>
      </trkpt>
      <trkpt lat="45.19495" lon="5.93232">
        <ele>1437</ele>
        <time>2019-04-13T06:43:18.009Z</time>
      </trkpt>
      <trkpt lat="45.19486" lon="5.93224">
        <ele>1442</ele>
        <time>2019-04-13T06:43:33.009Z</time>
      </trkpt>
      <trkpt lat="45.19478" lon="5.93223">
        <ele>1443</ele>
        <time>2019-04-13T06:43:44.009Z</time>
      </trkpt>
      <trkpt lat="45.19468" lon="5.93227">
        <ele>1445</ele>
        <time>2019-04-13T06:43:55.009Z</time>
      </trkpt>
      <trkpt lat="45.19461" lon="5.93228">
        <ele>1448.2889984</ele>
        <time>2019-04-13T06:44:06.009Z</time>
      </trkpt>
      <trkpt lat="45.19455" lon="5.93224">
        <ele>1450</ele>
        <time>2019-04-13T06:44:14.009Z</time>
      </trkpt>
      <trkpt lat="45.19446" lon="5.93224">
        <ele>1452</ele>
        <time>2019-04-13T06:44:27.009Z</time>
      </trkpt>
      <trkpt lat="45.19436" lon="5.93224">
        <ele>1454</ele>
        <time>2019-04-13T06:44:36.009Z</time>
      </trkpt>
      <trkpt lat="45.19429" lon="5.93221">
        <ele>1456</ele>
        <time>2019-04-13T06:44:48.009Z</time>
      </trkpt>
      <trkpt lat="45.19423" lon="5.93223">
        <ele>1458</ele>
        <time>2019-04-13T06:45:01.009Z</time>
      </trkpt>
      <trkpt lat="45.19418" lon="5.9322">
        <ele>1459</ele>
        <time>2019-04-13T06:45:13.009Z</time>
      </trkpt>
      <trkpt lat="45.19412" lon="5.93217">
        <ele>1459</ele>
        <time>2019-04-13T06:45:20.009Z</time>
      </trkpt>
      <trkpt lat="45.19405" lon="5.9321">
        <ele>1461</ele>
        <time>2019-04-13T06:45:29.009Z</time>
      </trkpt>
      <trkpt lat="45.19398" lon="5.93202">
        <ele>1465</ele>
        <time>2019-04-13T06:45:43.009Z</time>
      </trkpt>
      <trkpt lat="45.19388" lon="5.93197">
        <ele>1469</ele>
        <time>2019-04-13T06:46:04.009Z</time>
      </trkpt>
      <trkpt lat="45.19379" lon="5.93191">
        <ele>1471</ele>
        <time>2019-04-13T06:46:16.009Z</time>
      </trkpt>
      <trkpt lat="45.1937" lon="5.93185">
        <ele>1475</ele>
        <time>2019-04-13T06:46:28.009Z</time>
      </trkpt>
      <trkpt lat="45.19367" lon="5.93173">
        <ele>1478</ele>
        <time>2019-04-13T06:46:48.009Z</time>
      </trkpt>
      <trkpt lat="45.19368" lon="5.93162">
        <ele>1480</ele>
        <time>2019-04-13T06:46:57.009Z</time>
      </trkpt>
      <trkpt lat="45.19369" lon="5.93151">
        <ele>1483</ele>
        <time>2019-04-13T06:47:07.009Z</time>
      </trkpt>
      <trkpt lat="45.19372" lon="5.9314">
        <ele>1485.5779968</ele>
        <time>2019-04-13T06:47:21.009Z</time>
      </trkpt>
      <trkpt lat="45.19373" lon="5.9313">
        <ele>1489</ele>
        <time>2019-04-13T06:47:34.009Z</time>
      </trkpt>
      <trkpt lat="45.19375" lon="5.93119">
        <ele>1491</ele>
        <time>2019-04-13T06:47:46.009Z</time>
      </trkpt>
      <trkpt lat="45.19376" lon="5.93107">
        <ele>1494</ele>
        <time>2019-04-13T06:47:59.009Z</time>
      </trkpt>
      <trkpt lat="45.19384" lon="5.93101">
        <ele>1495</ele>
        <time>2019-04-13T06:48:09.009Z</time>
      </trkpt>
      <trkpt lat="45.19393" lon="5.93097">
        <ele>1497</ele>
        <time>2019-04-13T06:48:20.009Z</time>
      </trkpt>
      <trkpt lat="45.19402" lon="5.9309">
        <ele>1499</ele>
        <time>2019-04-13T06:48:30.009Z</time>
      </trkpt>
      <trkpt lat="45.19395" lon="5.93086">
        <ele>1501</ele>
        <time>2019-04-13T06:48:48.009Z</time>
      </trkpt>
      <trkpt lat="45.19389" lon="5.93078">
        <ele>1503</ele>
        <time>2019-04-13T06:48:58.009Z</time>
      </trkpt>
      <trkpt lat="45.1939" lon="5.93066">
        <ele>1505</ele>
        <time>2019-04-13T06:49:08.009Z</time>
      </trkpt>
      <trkpt lat="45.19389" lon="5.93054">
        <ele>1507</ele>
        <time>2019-04-13T06:49:20.009Z</time>
      </trkpt>
      <trkpt lat="45.19385" lon="5.93041">
        <ele>1512</ele>
        <time>2019-04-13T06:49:32.009Z</time>
      </trkpt>
      <trkpt lat="45.19379" lon="5.93035">
        <ele>1512</ele>
        <time>2019-04-13T06:49:38.009Z</time>
      </trkpt>
      <trkpt lat="45.19372" lon="5.9303">
        <ele>1514</ele>
        <time>2019-04-13T06:49:46.009Z</time>
      </trkpt>
      <trkpt lat="45.19368" lon="5.93026">
        <ele>1517</ele>
        <time>2019-04-13T06:50:00.009Z</time>
      </trkpt>
      <trkpt lat="45.19362" lon="5.93024">
        <ele>1517</ele>
        <time>2019-04-13T06:50:17.009Z</time>
      </trkpt>
      <trkpt lat="45.19356" lon="5.93023">
        <ele>1518</ele>
        <time>2019-04-13T06:50:23.009Z</time>
      </trkpt>
      <trkpt lat="45.19351" lon="5.93023">
        <ele>1518</ele>
        <time>2019-04-13T06:50:29.009Z</time>
      </trkpt>
      <trkpt lat="45.19342" lon="5.93024">
        <ele>1520</ele>
        <time>2019-04-13T06:50:38.009Z</time>
      </trkpt>
      <trkpt lat="45.19337" lon="5.93024">
        <ele>1522</ele>
        <time>2019-04-13T06:50:42.009Z</time>
      </trkpt>
      <trkpt lat="45.19333" lon="5.93025">
        <ele>1522</ele>
        <time>2019-04-13T06:50:46.009Z</time>
      </trkpt>
      <trkpt lat="45.19329" lon="5.93025">
        <ele>1522</ele>
        <time>2019-04-13T06:50:50.009Z</time>
      </trkpt>
      <trkpt lat="45.19324" lon="5.93026">
        <ele>1523</ele>
        <time>2019-04-13T06:50:55.009Z</time>
      </trkpt>
      <trkpt lat="45.19317" lon="5.93028">
        <ele>1523</ele>
        <time>2019-04-13T06:51:01.009Z</time>
      </trkpt>
      <trkpt lat="45.19311" lon="5.9303">
        <ele>1523</ele>
        <time>2019-04-13T06:51:07.009Z</time>
      </trkpt>
      <trkpt lat="45.19306" lon="5.93032">
        <ele>1524</ele>
        <time>2019-04-13T06:51:12.009Z</time>
      </trkpt>
      <trkpt lat="45.19301" lon="5.93034">
        <ele>1524</ele>
        <time>2019-04-13T06:51:16.009Z</time>
      </trkpt>
      <trkpt lat="45.19294" lon="5.93036">
        <ele>1525</ele>
        <time>2019-04-13T06:51:23.009Z</time>
      </trkpt>
      <trkpt lat="45.19288" lon="5.93037">
        <ele>1525</ele>
        <time>2019-04-13T06:51:29.009Z</time>
      </trkpt>
      <trkpt lat="45.19282" lon="5.93039">
        <ele>1527</ele>
        <time>2019-04-13T06:51:35.009Z</time>
      </trkpt>
      <trkpt lat="45.19276" lon="5.93039">
        <ele>1527.2889984</ele>
        <time>2019-04-13T06:51:41.009Z</time>
      </trkpt>
      <trkpt lat="45.19271" lon="5.93038">
        <ele>1528</ele>
        <time>2019-04-13T06:51:46.009Z</time>
      </trkpt>
      <trkpt lat="45.19264" lon="5.93039">
        <ele>1529</ele>
        <time>2019-04-13T06:51:52.009Z</time>
      </trkpt>
      <trkpt lat="45.1926" lon="5.93038">
        <ele>1529</ele>
        <time>2019-04-13T06:51:56.009Z</time>
      </trkpt>
      <trkpt lat="45.19254" lon="5.93039">
        <ele>1530</ele>
        <time>2019-04-13T06:52:03.009Z</time>
      </trkpt>
      <trkpt lat="45.19249" lon="5.93043">
        <ele>1531</ele>
        <time>2019-04-13T06:52:17.009Z</time>
      </trkpt>
      <trkpt lat="45.19244" lon="5.93046">
        <ele>1533</ele>
        <time>2019-04-13T06:52:23.009Z</time>
      </trkpt>
      <trkpt lat="45.19238" lon="5.9305">
        <ele>1533</ele>
        <time>2019-04-13T06:52:30.009Z</time>
      </trkpt>
      <trkpt lat="45.19229" lon="5.93055">
        <ele>1535.5779968</ele>
        <time>2019-04-13T06:52:41.009Z</time>
      </trkpt>
      <trkpt lat="45.19222" lon="5.93057">
        <ele>1537</ele>
        <time>2019-04-13T06:52:48.009Z</time>
      </trkpt>
      <trkpt lat="45.19215" lon="5.93057">
        <ele>1539</ele>
        <time>2019-04-13T06:52:55.009Z</time>
      </trkpt>
      <trkpt lat="45.19209" lon="5.93058">
        <ele>1542</ele>
        <time>2019-04-13T06:53:02.009Z</time>
      </trkpt>
      <trkpt lat="45.19202" lon="5.93057">
        <ele>1544</ele>
        <time>2019-04-13T06:53:11.009Z</time>
      </trkpt>
      <trkpt lat="45.19194" lon="5.93057">
        <ele>1546</ele>
        <time>2019-04-13T06:53:23.009Z</time>
      </trkpt>
      <trkpt lat="45.19185" lon="5.93057">
        <ele>1548</ele>
        <time>2019-04-13T06:53:32.009Z</time>
      </trkpt>
      <trkpt lat="45.19178" lon="5.93055">
        <ele>1548</ele>
        <time>2019-04-13T06:53:40.009Z</time>
      </trkpt>
      <trkpt lat="45.19171" lon="5.93052">
        <ele>1552.5779968</ele>
        <time>2019-04-13T06:53:51.009Z</time>
      </trkpt>
      <trkpt lat="45.19165" lon="5.93052">
        <ele>1555</ele>
        <time>2019-04-13T06:53:59.009Z</time>
      </trkpt>
      <trkpt lat="45.19158" lon="5.93051">
        <ele>1556</ele>
        <time>2019-04-13T06:54:10.009Z</time>
      </trkpt>
      <trkpt lat="45.19151" lon="5.93048">
        <ele>1558</ele>
        <time>2019-04-13T06:54:18.009Z</time>
      </trkpt>
      <trkpt lat="45.19145" lon="5.93047">
        <ele>1561.2989952</ele>
        <time>2019-04-13T06:54:26.009Z</time>
      </trkpt>
      <trkpt lat="45.19139" lon="5.93047">
        <ele>1564</ele>
        <time>2019-04-13T06:54:33.009Z</time>
      </trkpt>
      <trkpt lat="45.19134" lon="5.93048">
        <ele>1564</ele>
        <time>2019-04-13T06:54:39.009Z</time>
      </trkpt>
      <trkpt lat="45.19129" lon="5.93047">
        <ele>1566</ele>
        <time>2019-04-13T06:54:45.009Z</time>
      </trkpt>
      <trkpt lat="45.19125" lon="5.93047">
        <ele>1566</ele>
        <time>2019-04-13T06:54:50.009Z</time>
      </trkpt>
      <trkpt lat="45.1912" lon="5.93047">
        <ele>1567</ele>
        <time>2019-04-13T06:54:56.009Z</time>
      </trkpt>
      <trkpt lat="45.19114" lon="5.93048">
        <ele>1569</ele>
        <time>2019-04-13T06:55:03.009Z</time>
      </trkpt>
      <trkpt lat="45.19108" lon="5.9305">
        <ele>1569</ele>
        <time>2019-04-13T06:55:10.009Z</time>
      </trkpt>
      <trkpt lat="45.19101" lon="5.93052">
        <ele>1571</ele>
        <time>2019-04-13T06:55:17.009Z</time>
      </trkpt>
      <trkpt lat="45.19093" lon="5.93054">
        <ele>1572</ele>
        <time>2019-04-13T06:55:26.009Z</time>
      </trkpt>
      <trkpt lat="45.19085" lon="5.93056">
        <ele>1574</ele>
        <time>2019-04-13T06:55:34.009Z</time>
      </trkpt>
      <trkpt lat="45.19078" lon="5.93056">
        <ele>1574.5979904</ele>
        <time>2019-04-13T06:55:41.009Z</time>
      </trkpt>
      <trkpt lat="45.19071" lon="5.93057">
        <ele>1576</ele>
        <time>2019-04-13T06:55:48.009Z</time>
      </trkpt>
      <trkpt lat="45.19065" lon="5.93057">
        <ele>1578</ele>
        <time>2019-04-13T06:55:55.009Z</time>
      </trkpt>
      <trkpt lat="45.1906" lon="5.93059">
        <ele>1581</ele>
        <time>2019-04-13T06:56:02.009Z</time>
      </trkpt>
      <trkpt lat="45.19055" lon="5.93061">
        <ele>1581</ele>
        <time>2019-04-13T06:56:09.009Z</time>
      </trkpt>
      <trkpt lat="45.1905" lon="5.93061">
        <ele>1582</ele>
        <time>2019-04-13T06:56:15.009Z</time>
      </trkpt>
      <trkpt lat="45.19045" lon="5.93063">
        <ele>1584</ele>
        <time>2019-04-13T06:56:22.009Z</time>
      </trkpt>
      <trkpt lat="45.19039" lon="5.93064">
        <ele>1584</ele>
        <time>2019-04-13T06:56:27.009Z</time>
      </trkpt>
      <trkpt lat="45.19032" lon="5.93069">
        <ele>1584</ele>
        <time>2019-04-13T06:56:34.009Z</time>
      </trkpt>
      <trkpt lat="45.19023" lon="5.93075">
        <ele>1585</ele>
        <time>2019-04-13T06:56:45.009Z</time>
      </trkpt>
      <trkpt lat="45.19016" lon="5.93081">
        <ele>1585</ele>
        <time>2019-04-13T06:56:55.009Z</time>
      </trkpt>
      <trkpt lat="45.19009" lon="5.93087">
        <ele>1586</ele>
        <time>2019-04-13T06:57:02.009Z</time>
      </trkpt>
      <trkpt lat="45.19001" lon="5.93092">
        <ele>1586</ele>
        <time>2019-04-13T06:57:10.009Z</time>
      </trkpt>
      <trkpt lat="45.18995" lon="5.931">
        <ele>1588</ele>
        <time>2019-04-13T06:57:19.009Z</time>
      </trkpt>
      <trkpt lat="45.18988" lon="5.93107">
        <ele>1589</ele>
        <time>2019-04-13T06:57:28.009Z</time>
      </trkpt>
      <trkpt lat="45.18982" lon="5.93119">
        <ele>1591.8969856</ele>
        <time>2019-04-13T06:57:41.009Z</time>
      </trkpt>
      <trkpt lat="45.18973" lon="5.93127">
        <ele>1596</ele>
        <time>2019-04-13T06:57:55.009Z</time>
      </trkpt>
      <trkpt lat="45.1897" lon="5.93136">
        <ele>1599</ele>
        <time>2019-04-13T06:58:05.009Z</time>
      </trkpt>
      <trkpt lat="45.18967" lon="5.93148">
        <ele>1603</ele>
        <time>2019-04-13T06:58:17.009Z</time>
      </trkpt>
      <trkpt lat="45.18965" lon="5.93158">
        <ele>1604</ele>
        <time>2019-04-13T06:58:29.009Z</time>
      </trkpt>
      <trkpt lat="45.18965" lon="5.93168">
        <ele>1606</ele>
        <time>2019-04-13T06:58:36.009Z</time>
      </trkpt>
      <trkpt lat="45.18965" lon="5.93177">
        <ele>1609</ele>
        <time>2019-04-13T06:58:44.009Z</time>
      </trkpt>
      <trkpt lat="45.18963" lon="5.93188">
        <ele>1611</ele>
        <time>2019-04-13T06:58:55.009Z</time>
      </trkpt>
      <trkpt lat="45.18959" lon="5.93196">
        <ele>1614</ele>
        <time>2019-04-13T06:59:04.009Z</time>
      </trkpt>
      <trkpt lat="45.18954" lon="5.93204">
        <ele>1615</ele>
        <time>2019-04-13T06:59:12.009Z</time>
      </trkpt>
      <trkpt lat="45.18949" lon="5.93213">
        <ele>1615.5979904</ele>
        <time>2019-04-13T06:59:21.009Z</time>
      </trkpt>
      <trkpt lat="45.18944" lon="5.93218">
        <ele>1617</ele>
        <time>2019-04-13T06:59:28.009Z</time>
      </trkpt>
      <trkpt lat="45.18939" lon="5.93225">
        <ele>1619</ele>
        <time>2019-04-13T06:59:35.009Z</time>
      </trkpt>
      <trkpt lat="45.18935" lon="5.9323">
        <ele>1621</ele>
        <time>2019-04-13T06:59:42.009Z</time>
      </trkpt>
      <trkpt lat="45.18928" lon="5.93241">
        <ele>1624</ele>
        <time>2019-04-13T06:59:53.009Z</time>
      </trkpt>
      <trkpt lat="45.1892" lon="5.9325">
        <ele>1626</ele>
        <time>2019-04-13T07:00:03.009Z</time>
      </trkpt>
      <trkpt lat="45.18914" lon="5.93259">
        <ele>1627</ele>
        <time>2019-04-13T07:00:17.009Z</time>
      </trkpt>
      <trkpt lat="45.18922" lon="5.93259">
        <ele>1628</ele>
        <time>2019-04-13T07:01:50.009Z</time>
      </trkpt>
      <trkpt lat="45.18931" lon="5.93255">
        <ele>1629</ele>
        <time>2019-04-13T07:02:00.009Z</time>
      </trkpt>
      <trkpt lat="45.18941" lon="5.93251">
        <ele>1634</ele>
        <time>2019-04-13T07:02:14.009Z</time>
      </trkpt>
      <trkpt lat="45.18951" lon="5.93251">
        <ele>1636</ele>
        <time>2019-04-13T07:02:26.009Z</time>
      </trkpt>
      <trkpt lat="45.18957" lon="5.93251">
        <ele>1637</ele>
        <time>2019-04-13T07:02:35.009Z</time>
      </trkpt>
      <trkpt lat="45.18966" lon="5.9325">
        <ele>1639</ele>
        <time>2019-04-13T07:02:45.009Z</time>
      </trkpt>
      <trkpt lat="45.18971" lon="5.93249">
        <ele>1639</ele>
        <time>2019-04-13T07:03:20.009Z</time>
      </trkpt>
      <trkpt lat="45.18979" lon="5.9325">
        <ele>1641</ele>
        <time>2019-04-13T07:03:34.009Z</time>
      </trkpt>
      <trkpt lat="45.18986" lon="5.93248">
        <ele>1642</ele>
        <time>2019-04-13T07:03:45.009Z</time>
      </trkpt>
      <trkpt lat="45.18991" lon="5.93246">
        <ele>1642.5838332644</ele>
        <time>2019-04-13T07:03:51.009Z</time>
      </trkpt>
      <trkpt lat="45.18997" lon="5.93247">
        <ele>1644</ele>
        <time>2019-04-13T07:03:56.009Z</time>
      </trkpt>
      <trkpt lat="45.19004" lon="5.93248">
        <ele>1647</ele>
        <time>2019-04-13T07:04:03.009Z</time>
      </trkpt>
      <trkpt lat="45.19013" lon="5.93251">
        <ele>1647</ele>
        <time>2019-04-13T07:04:12.009Z</time>
      </trkpt>
      <trkpt lat="45.19017" lon="5.93253">
        <ele>1647</ele>
        <time>2019-04-13T07:04:16.009Z</time>
      </trkpt>
      <trkpt lat="45.19021" lon="5.93255">
        <ele>1650</ele>
        <time>2019-04-13T07:04:23.009Z</time>
      </trkpt>
      <trkpt lat="45.19027" lon="5.93257">
        <ele>1651</ele>
        <time>2019-04-13T07:04:33.009Z</time>
      </trkpt>
      <trkpt lat="45.19033" lon="5.93258">
        <ele>1651</ele>
        <time>2019-04-13T07:04:40.009Z</time>
      </trkpt>
      <trkpt lat="45.19038" lon="5.9326">
        <ele>1652</ele>
        <time>2019-04-13T07:04:45.009Z</time>
      </trkpt>
      <trkpt lat="45.19042" lon="5.9326">
        <ele>1652</ele>
        <time>2019-04-13T07:04:49.009Z</time>
      </trkpt>
      <trkpt lat="45.19045" lon="5.93261">
        <ele>1655</ele>
        <time>2019-04-13T07:04:53.009Z</time>
      </trkpt>
      <trkpt lat="45.19049" lon="5.93262">
        <ele>1657</ele>
        <time>2019-04-13T07:04:58.009Z</time>
      </trkpt>
      <trkpt lat="45.19053" lon="5.93265">
        <ele>1657</ele>
        <time>2019-04-13T07:05:03.009Z</time>
      </trkpt>
      <trkpt lat="45.19056" lon="5.9327">
        <ele>1657</ele>
        <time>2019-04-13T07:05:08.009Z</time>
      </trkpt>
      <trkpt lat="45.19059" lon="5.93277">
        <ele>1658</ele>
        <time>2019-04-13T07:05:12.009Z</time>
      </trkpt>
      <trkpt lat="45.19062" lon="5.93284">
        <ele>1658</ele>
        <time>2019-04-13T07:05:19.009Z</time>
      </trkpt>
      <trkpt lat="45.19064" lon="5.93291">
        <ele>1660</ele>
        <time>2019-04-13T07:05:25.009Z</time>
      </trkpt>
      <trkpt lat="45.19067" lon="5.93297">
        <ele>1660.5779968</ele>
        <time>2019-04-13T07:05:31.009Z</time>
      </trkpt>
      <trkpt lat="45.1907" lon="5.93303">
        <ele>1662</ele>
        <time>2019-04-13T07:05:37.009Z</time>
      </trkpt>
      <trkpt lat="45.1907" lon="5.93309">
        <ele>1664</ele>
        <time>2019-04-13T07:05:43.009Z</time>
      </trkpt>
      <trkpt lat="45.19067" lon="5.93314">
        <ele>1664</ele>
        <time>2019-04-13T07:05:50.009Z</time>
      </trkpt>
      <trkpt lat="45.19062" lon="5.93315">
        <ele>1667</ele>
        <time>2019-04-13T07:05:56.009Z</time>
      </trkpt>
      <trkpt lat="45.19057" lon="5.93316">
        <ele>1668</ele>
        <time>2019-04-13T07:06:03.009Z</time>
      </trkpt>
      <trkpt lat="45.19052" lon="5.93316">
        <ele>1668</ele>
        <time>2019-04-13T07:06:09.009Z</time>
      </trkpt>
      <trkpt lat="45.19047" lon="5.93317">
        <ele>1670</ele>
        <time>2019-04-13T07:06:14.009Z</time>
      </trkpt>
      <trkpt lat="45.19042" lon="5.93318">
        <ele>1670</ele>
        <time>2019-04-13T07:06:19.009Z</time>
      </trkpt>
      <trkpt lat="45.19037" lon="5.93319">
        <ele>1672</ele>
        <time>2019-04-13T07:06:24.009Z</time>
      </trkpt>
      <trkpt lat="45.19033" lon="5.9332">
        <ele>1672</ele>
        <time>2019-04-13T07:06:28.009Z</time>
      </trkpt>
      <trkpt lat="45.19028" lon="5.93323">
        <ele>1674</ele>
        <time>2019-04-13T07:06:34.009Z</time>
      </trkpt>
      <trkpt lat="45.19024" lon="5.93326">
        <ele>1674.5779968</ele>
        <time>2019-04-13T07:06:41.009Z</time>
      </trkpt>
      <trkpt lat="45.1902" lon="5.93328">
        <ele>1676</ele>
        <time>2019-04-13T07:06:44.009Z</time>
      </trkpt>
      <trkpt lat="45.19017" lon="5.9333">
        <ele>1676</ele>
        <time>2019-04-13T07:06:47.009Z</time>
      </trkpt>
      <trkpt lat="45.19014" lon="5.93333">
        <ele>1676</ele>
        <time>2019-04-13T07:06:50.009Z</time>
      </trkpt>
      <trkpt lat="45.1901" lon="5.93336">
        <ele>1678</ele>
        <time>2019-04-13T07:06:54.009Z</time>
      </trkpt>
      <trkpt lat="45.19007" lon="5.9334">
        <ele>1678</ele>
        <time>2019-04-13T07:06:58.009Z</time>
      </trkpt>
      <trkpt lat="45.19004" lon="5.93342">
        <ele>1678</ele>
        <time>2019-04-13T07:07:01.009Z</time>
      </trkpt>
      <trkpt lat="45.19001" lon="5.93344">
        <ele>1678</ele>
        <time>2019-04-13T07:07:04.009Z</time>
      </trkpt>
      <trkpt lat="45.18996" lon="5.93347">
        <ele>1678</ele>
        <time>2019-04-13T07:07:09.009Z</time>
      </trkpt>
      <trkpt lat="45.1899" lon="5.93349">
        <ele>1678</ele>
        <time>2019-04-13T07:07:14.009Z</time>
      </trkpt>
      <trkpt lat="45.18985" lon="5.93353">
        <ele>1678.5779968</ele>
        <time>2019-04-13T07:07:21.009Z</time>
      </trkpt>
      <trkpt lat="45.18995" lon="5.93357">
        <ele>1681</ele>
        <time>2019-04-13T07:07:34.009Z</time>
      </trkpt>
      <trkpt lat="45.19005" lon="5.93357">
        <ele>1682</ele>
        <time>2019-04-13T07:07:44.009Z</time>
      </trkpt>
      <trkpt lat="45.19011" lon="5.93358">
        <ele>1682</ele>
        <time>2019-04-13T07:07:49.009Z</time>
      </trkpt>
      <trkpt lat="45.19016" lon="5.93359">
        <ele>1684</ele>
        <time>2019-04-13T07:07:57.009Z</time>
      </trkpt>
      <trkpt lat="45.19021" lon="5.93362">
        <ele>1687</ele>
        <time>2019-04-13T07:08:03.009Z</time>
      </trkpt>
      <trkpt lat="45.19026" lon="5.93367">
        <ele>1688</ele>
        <time>2019-04-13T07:08:10.009Z</time>
      </trkpt>
      <trkpt lat="45.19031" lon="5.93371">
        <ele>1690</ele>
        <time>2019-04-13T07:08:15.009Z</time>
      </trkpt>
      <trkpt lat="45.19035" lon="5.93377">
        <ele>1690.2889984</ele>
        <time>2019-04-13T07:08:21.009Z</time>
      </trkpt>
      <trkpt lat="45.19041" lon="5.93383">
        <ele>1691</ele>
        <time>2019-04-13T07:08:28.009Z</time>
      </trkpt>
      <trkpt lat="45.19046" lon="5.93388">
        <ele>1692</ele>
        <time>2019-04-13T07:08:35.009Z</time>
      </trkpt>
      <trkpt lat="45.19049" lon="5.93393">
        <ele>1692</ele>
        <time>2019-04-13T07:08:39.009Z</time>
      </trkpt>
      <trkpt lat="45.19053" lon="5.93401">
        <ele>1695.2889984</ele>
        <time>2019-04-13T07:08:46.009Z</time>
      </trkpt>
      <trkpt lat="45.19057" lon="5.9341">
        <ele>1697</ele>
        <time>2019-04-13T07:08:53.009Z</time>
      </trkpt>
      <trkpt lat="45.19059" lon="5.93419">
        <ele>1697</ele>
        <time>2019-04-13T07:09:00.009Z</time>
      </trkpt>
      <trkpt lat="45.1906" lon="5.93429">
        <ele>1698</ele>
        <time>2019-04-13T07:09:08.009Z</time>
      </trkpt>
      <trkpt lat="45.19062" lon="5.93437">
        <ele>1700</ele>
        <time>2019-04-13T07:09:13.009Z</time>
      </trkpt>
      <trkpt lat="45.19064" lon="5.93448">
        <ele>1703</ele>
        <time>2019-04-13T07:09:22.009Z</time>
      </trkpt>
      <trkpt lat="45.19066" lon="5.93458">
        <ele>1703</ele>
        <time>2019-04-13T07:09:30.009Z</time>
      </trkpt>
      <trkpt lat="45.19067" lon="5.93467">
        <ele>1705</ele>
        <time>2019-04-13T07:09:36.009Z</time>
      </trkpt>
      <trkpt lat="45.1907" lon="5.93478">
        <ele>1706</ele>
        <time>2019-04-13T07:09:43.009Z</time>
      </trkpt>
      <trkpt lat="45.19071" lon="5.93489">
        <ele>1706</ele>
        <time>2019-04-13T07:09:50.009Z</time>
      </trkpt>
      <trkpt lat="45.19072" lon="5.93498">
        <ele>1707</ele>
        <time>2019-04-13T07:09:57.009Z</time>
      </trkpt>
      <trkpt lat="45.19074" lon="5.93505">
        <ele>1709</ele>
        <time>2019-04-13T07:10:02.009Z</time>
      </trkpt>
      <trkpt lat="45.19076" lon="5.93517">
        <ele>1709</ele>
        <time>2019-04-13T07:10:10.009Z</time>
      </trkpt>
      <trkpt lat="45.19076" lon="5.93526">
        <ele>1709</ele>
        <time>2019-04-13T07:10:16.009Z</time>
      </trkpt>
      <trkpt lat="45.1908" lon="5.93537">
        <ele>1710</ele>
        <time>2019-04-13T07:10:23.009Z</time>
      </trkpt>
      <trkpt lat="45.19082" lon="5.93547">
        <ele>1710</ele>
        <time>2019-04-13T07:10:29.009Z</time>
      </trkpt>
      <trkpt lat="45.19083" lon="5.93558">
        <ele>1712</ele>
        <time>2019-04-13T07:10:36.009Z</time>
      </trkpt>
      <trkpt lat="45.19084" lon="5.93569">
        <ele>1715</ele>
        <time>2019-04-13T07:10:44.009Z</time>
      </trkpt>
      <trkpt lat="45.19085" lon="5.93581">
        <ele>1716</ele>
        <time>2019-04-13T07:10:54.009Z</time>
      </trkpt>
      <trkpt lat="45.19085" lon="5.93591">
        <ele>1715.5779968</ele>
        <time>2019-04-13T07:11:01.009Z</time>
      </trkpt>
      <trkpt lat="45.19086" lon="5.93601">
        <ele>1717</ele>
        <time>2019-04-13T07:11:10.009Z</time>
      </trkpt>
      <trkpt lat="45.19088" lon="5.9361">
        <ele>1719</ele>
        <time>2019-04-13T07:11:17.009Z</time>
      </trkpt>
      <trkpt lat="45.19089" lon="5.93617">
        <ele>1721</ele>
        <time>2019-04-13T07:11:22.009Z</time>
      </trkpt>
      <trkpt lat="45.19089" lon="5.93623">
        <ele>1721</ele>
        <time>2019-04-13T07:11:27.009Z</time>
      </trkpt>
      <trkpt lat="45.19085" lon="5.9362">
        <ele>1723</ele>
        <time>2019-04-13T07:11:34.009Z</time>
      </trkpt>
      <trkpt lat="45.19083" lon="5.93616">
        <ele>1723</ele>
        <time>2019-04-13T07:11:37.009Z</time>
      </trkpt>
      <trkpt lat="45.1908" lon="5.93611">
        <ele>1723.2889984</ele>
        <time>2019-04-13T07:11:41.009Z</time>
      </trkpt>
      <trkpt lat="45.19078" lon="5.93607">
        <ele>1724</ele>
        <time>2019-04-13T07:11:44.009Z</time>
      </trkpt>
      <trkpt lat="45.19076" lon="5.93601">
        <ele>1724</ele>
        <time>2019-04-13T07:11:49.009Z</time>
      </trkpt>
      <trkpt lat="45.19072" lon="5.93595">
        <ele>1726</ele>
        <time>2019-04-13T07:11:55.009Z</time>
      </trkpt>
      <trkpt lat="45.19068" lon="5.9359">
        <ele>1726</ele>
        <time>2019-04-13T07:12:00.009Z</time>
      </trkpt>
      <trkpt lat="45.19064" lon="5.93584">
        <ele>1728</ele>
        <time>2019-04-13T07:12:07.009Z</time>
      </trkpt>
      <trkpt lat="45.19061" lon="5.93577">
        <ele>1728</ele>
        <time>2019-04-13T07:12:15.009Z</time>
      </trkpt>
      <trkpt lat="45.19055" lon="5.93568">
        <ele>1730</ele>
        <time>2019-04-13T07:12:23.009Z</time>
      </trkpt>
      <trkpt lat="45.19049" lon="5.93562">
        <ele>1730</ele>
        <time>2019-04-13T07:12:29.009Z</time>
      </trkpt>
      <trkpt lat="45.19046" lon="5.93556">
        <ele>1733</ele>
        <time>2019-04-13T07:12:35.009Z</time>
      </trkpt>
      <trkpt lat="45.1904" lon="5.9355">
        <ele>1735</ele>
        <time>2019-04-13T07:12:45.009Z</time>
      </trkpt>
      <trkpt lat="45.19035" lon="5.93543">
        <ele>1735</ele>
        <time>2019-04-13T07:12:50.009Z</time>
      </trkpt>
      <trkpt lat="45.19032" lon="5.93539">
        <ele>1737</ele>
        <time>2019-04-13T07:12:54.009Z</time>
      </trkpt>
      <trkpt lat="45.19027" lon="5.93534">
        <ele>1740</ele>
        <time>2019-04-13T07:13:02.009Z</time>
      </trkpt>
      <trkpt lat="45.19022" lon="5.9353">
        <ele>1742</ele>
        <time>2019-04-13T07:13:10.009Z</time>
      </trkpt>
      <trkpt lat="45.19016" lon="5.93527">
        <ele>1742</ele>
        <time>2019-04-13T07:13:17.009Z</time>
      </trkpt>
      <trkpt lat="45.19011" lon="5.93528">
        <ele>1742</ele>
        <time>2019-04-13T07:13:22.009Z</time>
      </trkpt>
      <trkpt lat="45.19005" lon="5.93529">
        <ele>1742</ele>
        <time>2019-04-13T07:13:27.009Z</time>
      </trkpt>
      <trkpt lat="45.19001" lon="5.93531">
        <ele>1743</ele>
        <time>2019-04-13T07:13:32.009Z</time>
      </trkpt>
      <trkpt lat="45.18996" lon="5.93532">
        <ele>1743</ele>
        <time>2019-04-13T07:13:37.009Z</time>
      </trkpt>
      <trkpt lat="45.1899" lon="5.93533">
        <ele>1745</ele>
        <time>2019-04-13T07:13:42.009Z</time>
      </trkpt>
      <trkpt lat="45.18985" lon="5.93532">
        <ele>1745</ele>
        <time>2019-04-13T07:13:47.009Z</time>
      </trkpt>
      <trkpt lat="45.1898" lon="5.9353">
        <ele>1747</ele>
        <time>2019-04-13T07:13:52.009Z</time>
      </trkpt>
      <trkpt lat="45.18976" lon="5.93529">
        <ele>1747</ele>
        <time>2019-04-13T07:13:57.009Z</time>
      </trkpt>
      <trkpt lat="45.18972" lon="5.93527">
        <ele>1747.2889984</ele>
        <time>2019-04-13T07:14:01.009Z</time>
      </trkpt>
      <trkpt lat="45.18967" lon="5.93526">
        <ele>1748</ele>
        <time>2019-04-13T07:14:05.009Z</time>
      </trkpt>
      <trkpt lat="45.18964" lon="5.93526">
        <ele>1748</ele>
        <time>2019-04-13T07:14:08.009Z</time>
      </trkpt>
      <trkpt lat="45.18961" lon="5.93527">
        <ele>1748.2889984</ele>
        <time>2019-04-13T07:14:11.009Z</time>
      </trkpt>
      <trkpt lat="45.18958" lon="5.93528">
        <ele>1749</ele>
        <time>2019-04-13T07:14:14.009Z</time>
      </trkpt>
      <trkpt lat="45.18955" lon="5.93531">
        <ele>1749</ele>
        <time>2019-04-13T07:14:18.009Z</time>
      </trkpt>
      <trkpt lat="45.18953" lon="5.93534">
        <ele>1748</ele>
        <time>2019-04-13T07:14:43.009Z</time>
      </trkpt>
      <trkpt lat="45.18957" lon="5.93547">
        <ele>1749</ele>
        <time>2019-04-13T07:16:10.009Z</time>
      </trkpt>
      <trkpt lat="45.1896" lon="5.93554">
        <ele>1751</ele>
        <time>2019-04-13T07:16:18.009Z</time>
      </trkpt>
      <trkpt lat="45.18959" lon="5.93564">
        <ele>1753</ele>
        <time>2019-04-13T07:16:28.009Z</time>
      </trkpt>
      <trkpt lat="45.1896" lon="5.93579">
        <ele>1758</ele>
        <time>2019-04-13T07:16:42.009Z</time>
      </trkpt>
      <trkpt lat="45.18962" lon="5.93593">
        <ele>1760</ele>
        <time>2019-04-13T07:16:54.009Z</time>
      </trkpt>
      <trkpt lat="45.18965" lon="5.93603">
        <ele>1761</ele>
        <time>2019-04-13T07:17:03.009Z</time>
      </trkpt>
      <trkpt lat="45.18969" lon="5.93616">
        <ele>1762</ele>
        <time>2019-04-13T07:17:13.009Z</time>
      </trkpt>
      <trkpt lat="45.18971" lon="5.93627">
        <ele>1762.5779968</ele>
        <time>2019-04-13T07:17:21.009Z</time>
      </trkpt>
      <trkpt lat="45.18975" lon="5.9364">
        <ele>1767</ele>
        <time>2019-04-13T07:17:33.009Z</time>
      </trkpt>
      <trkpt lat="45.1898" lon="5.93652">
        <ele>1769</ele>
        <time>2019-04-13T07:17:46.009Z</time>
      </trkpt>
      <trkpt lat="45.18985" lon="5.93665">
        <ele>1771</ele>
        <time>2019-04-13T07:17:59.009Z</time>
      </trkpt>
      <trkpt lat="45.18991" lon="5.93677">
        <ele>1774</ele>
        <time>2019-04-13T07:18:13.009Z</time>
      </trkpt>
      <trkpt lat="45.1899" lon="5.93689">
        <ele>1777</ele>
        <time>2019-04-13T07:18:24.009Z</time>
      </trkpt>
      <trkpt lat="45.18989" lon="5.93699">
        <ele>1780</ele>
        <time>2019-04-13T07:18:32.009Z</time>
      </trkpt>
      <trkpt lat="45.18987" lon="5.93708">
        <ele>1781</ele>
        <time>2019-04-13T07:18:40.009Z</time>
      </trkpt>
      <trkpt lat="45.18986" lon="5.93717">
        <ele>1781</ele>
        <time>2019-04-13T07:18:47.009Z</time>
      </trkpt>
      <trkpt lat="45.18985" lon="5.93726">
        <ele>1782</ele>
        <time>2019-04-13T07:18:54.009Z</time>
      </trkpt>
      <trkpt lat="45.18982" lon="5.93735">
        <ele>1782.8669952</ele>
        <time>2019-04-13T07:19:01.009Z</time>
      </trkpt>
      <trkpt lat="45.18979" lon="5.93746">
        <ele>1786</ele>
        <time>2019-04-13T07:19:11.009Z</time>
      </trkpt>
      <trkpt lat="45.18976" lon="5.93754">
        <ele>1786</ele>
        <time>2019-04-13T07:19:19.009Z</time>
      </trkpt>
      <trkpt lat="45.18974" lon="5.93766">
        <ele>1788</ele>
        <time>2019-04-13T07:19:30.009Z</time>
      </trkpt>
      <trkpt lat="45.18975" lon="5.93777">
        <ele>1789</ele>
        <time>2019-04-13T07:19:38.009Z</time>
      </trkpt>
      <trkpt lat="45.18973" lon="5.93782">
        <ele>1791</ele>
        <time>2019-04-13T07:19:55.009Z</time>
      </trkpt>
      <trkpt lat="45.18974" lon="5.93791">
        <ele>1793</ele>
        <time>2019-04-13T07:20:19.009Z</time>
      </trkpt>
      <trkpt lat="45.18975" lon="5.93805">
        <ele>1793</ele>
        <time>2019-04-13T07:20:30.009Z</time>
      </trkpt>
      <trkpt lat="45.18976" lon="5.93813">
        <ele>1796</ele>
        <time>2019-04-13T07:20:45.009Z</time>
      </trkpt>
      <trkpt lat="45.1898" lon="5.93827">
        <ele>1795.7110016</ele>
        <time>2019-04-13T07:20:59.009Z</time>
      </trkpt>
      <trkpt lat="45.18981" lon="5.93837">
        <ele>1798</ele>
        <time>2019-04-13T07:21:10.009Z</time>
      </trkpt>
      <trkpt lat="45.18981" lon="5.93844">
        <ele>1801</ele>
        <time>2019-04-13T07:21:22.009Z</time>
      </trkpt>
      <trkpt lat="45.18978" lon="5.93842">
        <ele>1800</ele>
        <time>2019-04-13T07:22:06.009Z</time>
      </trkpt>
      <trkpt lat="45.18973" lon="5.93841">
        <ele>1802</ele>
        <time>2019-04-13T07:23:58.009Z</time>
      </trkpt>
      <trkpt lat="45.18977" lon="5.93855">
        <ele>1805</ele>
        <time>2019-04-13T07:24:12.009Z</time>
      </trkpt>
      <trkpt lat="45.18979" lon="5.93866">
        <ele>1807</ele>
        <time>2019-04-13T07:24:24.009Z</time>
      </trkpt>
      <trkpt lat="45.18974" lon="5.93864">
        <ele>1809</ele>
        <time>2019-04-13T07:24:39.009Z</time>
      </trkpt>
      <trkpt lat="45.18966" lon="5.93859">
        <ele>1813</ele>
        <time>2019-04-13T07:24:52.009Z</time>
      </trkpt>
      <trkpt lat="45.18966" lon="5.93869">
        <ele>1815</ele>
        <time>2019-04-13T07:25:09.009Z</time>
      </trkpt>
      <trkpt lat="45.18961" lon="5.93873">
        <ele>1816.1559936</ele>
        <time>2019-04-13T07:25:21.009Z</time>
      </trkpt>
      <trkpt lat="45.18954" lon="5.9387">
        <ele>1822</ele>
        <time>2019-04-13T07:25:35.009Z</time>
      </trkpt>
      <trkpt lat="45.18954" lon="5.93885">
        <ele>1823</ele>
        <time>2019-04-13T07:25:50.009Z</time>
      </trkpt>
      <trkpt lat="45.18953" lon="5.93894">
        <ele>1825</ele>
        <time>2019-04-13T07:25:58.009Z</time>
      </trkpt>
      <trkpt lat="45.18949" lon="5.939">
        <ele>1825</ele>
        <time>2019-04-13T07:26:06.009Z</time>
      </trkpt>
      <trkpt lat="45.18945" lon="5.93904">
        <ele>1827</ele>
        <time>2019-04-13T07:26:15.009Z</time>
      </trkpt>
      <trkpt lat="45.18941" lon="5.9391">
        <ele>1829</ele>
        <time>2019-04-13T07:26:25.009Z</time>
      </trkpt>
      <trkpt lat="45.18936" lon="5.93914">
        <ele>1829.5779968</ele>
        <time>2019-04-13T07:26:31.009Z</time>
      </trkpt>
      <trkpt lat="45.18932" lon="5.9392">
        <ele>1833</ele>
        <time>2019-04-13T07:26:42.009Z</time>
      </trkpt>
      <trkpt lat="45.18936" lon="5.93932">
        <ele>1835</ele>
        <time>2019-04-13T07:26:59.009Z</time>
      </trkpt>
      <trkpt lat="45.18933" lon="5.93938">
        <ele>1839</ele>
        <time>2019-04-13T07:27:15.009Z</time>
      </trkpt>
      <trkpt lat="45.18929" lon="5.93938">
        <ele>1839.2889984</ele>
        <time>2019-04-13T07:27:21.009Z</time>
      </trkpt>
      <trkpt lat="45.18925" lon="5.93937">
        <ele>1840</ele>
        <time>2019-04-13T07:27:30.009Z</time>
      </trkpt>
      <trkpt lat="45.18929" lon="5.9395">
        <ele>1845</ele>
        <time>2019-04-13T07:27:57.009Z</time>
      </trkpt>
      <trkpt lat="45.18929" lon="5.93965">
        <ele>1851</ele>
        <time>2019-04-13T07:28:39.009Z</time>
      </trkpt>
      <trkpt lat="45.18923" lon="5.93962">
        <ele>1856</ele>
        <time>2019-04-13T07:29:03.009Z</time>
      </trkpt>
      <trkpt lat="45.18917" lon="5.93962">
        <ele>1857</ele>
        <time>2019-04-13T07:29:17.009Z</time>
      </trkpt>
      <trkpt lat="45.18913" lon="5.93968">
        <ele>1864</ele>
        <time>2019-04-13T07:30:02.009Z</time>
      </trkpt>
      <trkpt lat="45.18918" lon="5.93981">
        <ele>1865</ele>
        <time>2019-04-13T07:30:25.009Z</time>
      </trkpt>
      <trkpt lat="45.1891" lon="5.93987">
        <ele>1871</ele>
        <time>2019-04-13T07:30:54.009Z</time>
      </trkpt>
      <trkpt lat="45.18912" lon="5.93999">
        <ele>1875</ele>
        <time>2019-04-13T07:31:22.009Z</time>
      </trkpt>
      <trkpt lat="45.18906" lon="5.93999">
        <ele>1876</ele>
        <time>2019-04-13T07:31:32.009Z</time>
      </trkpt>
      <trkpt lat="45.18901" lon="5.94">
        <ele>1876</ele>
        <time>2019-04-13T07:31:40.009Z</time>
      </trkpt>
      <trkpt lat="45.18903" lon="5.94014">
        <ele>1882</ele>
        <time>2019-04-13T07:32:10.009Z</time>
      </trkpt>
      <trkpt lat="45.18895" lon="5.94017">
        <ele>1884.5779968</ele>
        <time>2019-04-13T07:32:31.009Z</time>
      </trkpt>
      <trkpt lat="45.18899" lon="5.94027">
        <ele>1889</ele>
        <time>2019-04-13T07:33:17.009Z</time>
      </trkpt>
      <trkpt lat="45.18891" lon="5.9403">
        <ele>1891</ele>
        <time>2019-04-13T07:33:32.009Z</time>
      </trkpt>
      <trkpt lat="45.18886" lon="5.94036">
        <ele>1892</ele>
        <time>2019-04-13T07:33:46.009Z</time>
      </trkpt>
      <trkpt lat="45.18878" lon="5.94038">
        <ele>1897</ele>
        <time>2019-04-13T07:33:59.009Z</time>
      </trkpt>
      <trkpt lat="45.18873" lon="5.9404">
        <ele>1897</ele>
        <time>2019-04-13T07:34:08.009Z</time>
      </trkpt>
      <trkpt lat="45.18868" lon="5.94043">
        <ele>1899</ele>
        <time>2019-04-13T07:34:17.009Z</time>
      </trkpt>
      <trkpt lat="45.18862" lon="5.94046">
        <ele>1900.5636377741</ele>
        <time>2019-04-13T07:34:31.009Z</time>
      </trkpt>
      <trkpt lat="45.18869" lon="5.94058">
        <ele>1906</ele>
        <time>2019-04-13T07:35:13.009Z</time>
      </trkpt>
      <trkpt lat="45.18862" lon="5.94059">
        <ele>1910</ele>
        <time>2019-04-13T07:35:33.009Z</time>
      </trkpt>
      <trkpt lat="45.18856" lon="5.94063">
        <ele>1912</ele>
        <time>2019-04-13T07:35:47.009Z</time>
      </trkpt>
      <trkpt lat="45.18865" lon="5.9407">
        <ele>1913</ele>
        <time>2019-04-13T07:36:07.009Z</time>
      </trkpt>
      <trkpt lat="45.18872" lon="5.94079">
        <ele>1919</ele>
        <time>2019-04-13T07:36:28.009Z</time>
      </trkpt>
      <trkpt lat="45.18864" lon="5.94082">
        <ele>1920.2889984</ele>
        <time>2019-04-13T07:36:51.009Z</time>
      </trkpt>
      <trkpt lat="45.18858" lon="5.94084">
        <ele>1921</ele>
        <time>2019-04-13T07:36:59.009Z</time>
      </trkpt>
      <trkpt lat="45.18852" lon="5.94086">
        <ele>1922</ele>
        <time>2019-04-13T07:37:08.009Z</time>
      </trkpt>
      <trkpt lat="45.18846" lon="5.94089">
        <ele>1925</ele>
        <time>2019-04-13T07:37:19.009Z</time>
      </trkpt>
      <trkpt lat="45.18839" lon="5.94092">
        <ele>1926</ele>
        <time>2019-04-13T07:37:28.009Z</time>
      </trkpt>
      <trkpt lat="45.18834" lon="5.94095">
        <ele>1927</ele>
        <time>2019-04-13T07:37:37.009Z</time>
      </trkpt>
      <trkpt lat="45.18843" lon="5.941">
        <ele>1932</ele>
        <time>2019-04-13T07:38:05.009Z</time>
      </trkpt>
      <trkpt lat="45.18853" lon="5.94108">
        <ele>1936.2889984</ele>
        <time>2019-04-13T07:38:31.009Z</time>
      </trkpt>
      <trkpt lat="45.18858" lon="5.9412">
        <ele>1941</ele>
        <time>2019-04-13T07:38:52.009Z</time>
      </trkpt>
      <trkpt lat="45.18855" lon="5.94126">
        <ele>1942</ele>
        <time>2019-04-13T07:39:05.009Z</time>
      </trkpt>
      <trkpt lat="45.18852" lon="5.94135">
        <ele>1943</ele>
        <time>2019-04-13T07:39:26.009Z</time>
      </trkpt>
      <trkpt lat="45.18847" lon="5.94142">
        <ele>1946.5779968</ele>
        <time>2019-04-13T07:39:41.009Z</time>
      </trkpt>
      <trkpt lat="45.18843" lon="5.94149">
        <ele>1948.5779968</ele>
        <time>2019-04-13T07:39:51.009Z</time>
      </trkpt>
      <trkpt lat="45.1884" lon="5.94153">
        <ele>1952</ele>
        <time>2019-04-13T07:40:06.009Z</time>
      </trkpt>
      <trkpt lat="45.18835" lon="5.94161">
        <ele>1952</ele>
        <time>2019-04-13T07:40:17.009Z</time>
      </trkpt>
      <trkpt lat="45.18832" lon="5.94169">
        <ele>1955.2889984</ele>
        <time>2019-04-13T07:40:26.009Z</time>
      </trkpt>
      <trkpt lat="45.1883" lon="5.94183">
        <ele>1959</ele>
        <time>2019-04-13T07:40:42.009Z</time>
      </trkpt>
      <trkpt lat="45.18825" lon="5.94195">
        <ele>1963.8669952</ele>
        <time>2019-04-13T07:41:01.009Z</time>
      </trkpt>
      <trkpt lat="45.18818" lon="5.94205">
        <ele>1967</ele>
        <time>2019-04-13T07:41:17.009Z</time>
      </trkpt>
      <trkpt lat="45.18812" lon="5.94217">
        <ele>1973</ele>
        <time>2019-04-13T07:41:37.009Z</time>
      </trkpt>
      <trkpt lat="45.18808" lon="5.94226">
        <ele>1975</ele>
        <time>2019-04-13T07:41:49.009Z</time>
      </trkpt>
      <trkpt lat="45.18805" lon="5.94234">
        <ele>1977</ele>
        <time>2019-04-13T07:41:58.009Z</time>
      </trkpt>
      <trkpt lat="45.18803" lon="5.94243">
        <ele>1978</ele>
        <time>2019-04-13T07:42:06.009Z</time>
      </trkpt>
      <trkpt lat="45.18801" lon="5.94254">
        <ele>1979</ele>
        <time>2019-04-13T07:42:16.009Z</time>
      </trkpt>
      <trkpt lat="45.18798" lon="5.94264">
        <ele>1979</ele>
        <time>2019-04-13T07:42:26.009Z</time>
      </trkpt>
      <trkpt lat="45.18793" lon="5.94274">
        <ele>1981.2889984</ele>
        <time>2019-04-13T07:42:36.009Z</time>
      </trkpt>
      <trkpt lat="45.18791" lon="5.9428">
        <ele>1983</ele>
        <time>2019-04-13T07:42:42.009Z</time>
      </trkpt>
      <trkpt lat="45.18789" lon="5.94285">
        <ele>1983</ele>
        <time>2019-04-13T07:42:48.009Z</time>
      </trkpt>
      <trkpt lat="45.18786" lon="5.9429">
        <ele>1983</ele>
        <time>2019-04-13T07:42:54.009Z</time>
      </trkpt>
      <trkpt lat="45.18784" lon="5.94296">
        <ele>1981.2889984</ele>
        <time>2019-04-13T07:44:41.009Z</time>
      </trkpt>
      <trkpt lat="45.18785" lon="5.943">
        <ele>1982</ele>
        <time>2019-04-13T07:44:51.009Z</time>
      </trkpt>
      <trkpt lat="45.18787" lon="5.94303">
        <ele>1982</ele>
        <time>2019-04-13T07:44:54.009Z</time>
      </trkpt>
      <trkpt lat="45.18789" lon="5.94306">
        <ele>1982</ele>
        <time>2019-04-13T07:44:57.009Z</time>
      </trkpt>
      <trkpt lat="45.18792" lon="5.94314">
        <ele>1982</ele>
        <time>2019-04-13T07:45:06.009Z</time>
      </trkpt>
      <trkpt lat="45.18797" lon="5.94327">
        <ele>1987</ele>
        <time>2019-04-13T07:45:24.009Z</time>
      </trkpt>
      <trkpt lat="45.18795" lon="5.94341">
        <ele>1989</ele>
        <time>2019-04-13T07:45:39.009Z</time>
      </trkpt>
      <trkpt lat="45.18793" lon="5.94355">
        <ele>1995</ele>
        <time>2019-04-13T07:45:52.009Z</time>
      </trkpt>
      <trkpt lat="45.18792" lon="5.94369">
        <ele>1996</ele>
        <time>2019-04-13T07:46:03.009Z</time>
      </trkpt>
      <trkpt lat="45.18791" lon="5.94383">
        <ele>1996</ele>
        <time>2019-04-13T07:46:17.009Z</time>
      </trkpt>
      <trkpt lat="45.1879" lon="5.94397">
        <ele>1996</ele>
        <time>2019-04-13T07:46:29.009Z</time>
      </trkpt>
      <trkpt lat="45.18787" lon="5.94411">
        <ele>2001</ele>
        <time>2019-04-13T07:46:42.009Z</time>
      </trkpt>
      <trkpt lat="45.18782" lon="5.94422">
        <ele>2002</ele>
        <time>2019-04-13T07:46:56.009Z</time>
      </trkpt>
      <trkpt lat="45.18777" lon="5.94429">
        <ele>2006</ele>
        <time>2019-04-13T07:47:08.009Z</time>
      </trkpt>
      <trkpt lat="45.18771" lon="5.94438">
        <ele>2008.2889984</ele>
        <time>2019-04-13T07:47:21.009Z</time>
      </trkpt>
      <trkpt lat="45.18766" lon="5.94445">
        <ele>2011</ele>
        <time>2019-04-13T07:47:32.009Z</time>
      </trkpt>
      <trkpt lat="45.18764" lon="5.94446">
        <ele>2010</ele>
        <time>2019-04-13T07:47:49.009Z</time>
      </trkpt>
      <trkpt lat="45.1876" lon="5.94446">
        <ele>2010</ele>
        <time>2019-04-13T07:50:04.009Z</time>
      </trkpt>
      <trkpt lat="45.18755" lon="5.94445">
        <ele>2010</ele>
        <time>2019-04-13T07:50:09.009Z</time>
      </trkpt>
      <trkpt lat="45.1875" lon="5.94444">
        <ele>2012.2889984</ele>
        <time>2019-04-13T07:50:16.009Z</time>
      </trkpt>
      <trkpt lat="45.18746" lon="5.94443">
        <ele>2015</ele>
        <time>2019-04-13T07:50:22.009Z</time>
      </trkpt>
      <trkpt lat="45.18743" lon="5.94441">
        <ele>2015.2889984</ele>
        <time>2019-04-13T07:50:26.009Z</time>
      </trkpt>
      <trkpt lat="45.18738" lon="5.94438">
        <ele>2016</ele>
        <time>2019-04-13T07:50:31.009Z</time>
      </trkpt>
      <trkpt lat="45.18733" lon="5.94435">
        <ele>2016</ele>
        <time>2019-04-13T07:50:37.009Z</time>
      </trkpt>
      <trkpt lat="45.18729" lon="5.94432">
        <ele>2017</ele>
        <time>2019-04-13T07:50:42.009Z</time>
      </trkpt>
      <trkpt lat="45.18725" lon="5.94434">
        <ele>2017</ele>
        <time>2019-04-13T07:51:09.009Z</time>
      </trkpt>
      <trkpt lat="45.1872" lon="5.94438">
        <ele>2018</ele>
        <time>2019-04-13T07:51:15.009Z</time>
      </trkpt>
      <trkpt lat="45.18716" lon="5.94441">
        <ele>2018</ele>
        <time>2019-04-13T07:51:20.009Z</time>
      </trkpt>
      <trkpt lat="45.18713" lon="5.94444">
        <ele>2018</ele>
        <time>2019-04-13T07:51:25.009Z</time>
      </trkpt>
      <trkpt lat="45.18709" lon="5.94449">
        <ele>2018</ele>
        <time>2019-04-13T07:51:32.009Z</time>
      </trkpt>
      <trkpt lat="45.18705" lon="5.94454">
        <ele>2020</ele>
        <time>2019-04-13T07:51:43.009Z</time>
      </trkpt>
      <trkpt lat="45.18701" lon="5.94461">
        <ele>2021</ele>
        <time>2019-04-13T07:52:04.009Z</time>
      </trkpt>
      <trkpt lat="45.18694" lon="5.94472">
        <ele>2022</ele>
        <time>2019-04-13T07:52:19.009Z</time>
      </trkpt>
      <trkpt lat="45.18687" lon="5.94482">
        <ele>2022</ele>
        <time>2019-04-13T07:52:29.009Z</time>
      </trkpt>
      <trkpt lat="45.1868" lon="5.94492">
        <ele>2025</ele>
        <time>2019-04-13T07:52:41.009Z</time>
      </trkpt>
      <trkpt lat="45.18677" lon="5.94505">
        <ele>2024</ele>
        <time>2019-04-13T07:53:33.009Z</time>
      </trkpt>
      <trkpt lat="45.1867" lon="5.94516">
        <ele>2021</ele>
        <time>2019-04-13T07:54:00.009Z</time>
      </trkpt>
      <trkpt lat="45.18664" lon="5.9452">
        <ele>2021</ele>
        <time>2019-04-13T07:54:06.009Z</time>
      </trkpt>
      <trkpt lat="45.1866" lon="5.9452">
        <ele>2021.2889984</ele>
        <time>2019-04-13T07:54:21.009Z</time>
      </trkpt>
      <trkpt lat="45.18656" lon="5.94521">
        <ele>2022.2889984</ele>
        <time>2019-04-13T07:54:41.009Z</time>
      </trkpt>
      <trkpt lat="45.18651" lon="5.94521">
        <ele>2023</ele>
        <time>2019-04-13T07:54:49.009Z</time>
      </trkpt>
      <trkpt lat="45.18646" lon="5.94524">
        <ele>2024</ele>
        <time>2019-04-13T07:54:54.009Z</time>
      </trkpt>
      <trkpt lat="45.18641" lon="5.94527">
        <ele>2024</ele>
        <time>2019-04-13T07:55:00.009Z</time>
      </trkpt>
      <trkpt lat="45.18637" lon="5.94531">
        <ele>2026</ele>
        <time>2019-04-13T07:55:06.009Z</time>
      </trkpt>
      <trkpt lat="45.18633" lon="5.94534">
        <ele>2027</ele>
        <time>2019-04-13T07:55:12.009Z</time>
      </trkpt>
      <trkpt lat="45.18628" lon="5.94535">
        <ele>2029</ele>
        <time>2019-04-13T07:55:23.009Z</time>
      </trkpt>
      <trkpt lat="45.18623" lon="5.94537">
        <ele>2032</ele>
        <time>2019-04-13T07:55:43.009Z</time>
      </trkpt>
      <trkpt lat="45.18624" lon="5.94548">
        <ele>2029</ele>
        <time>2019-04-13T08:00:55.009Z</time>
      </trkpt>
      <trkpt lat="45.1862" lon="5.94556">
        <ele>2029</ele>
        <time>2019-04-13T08:01:09.009Z</time>
      </trkpt>
      <trkpt lat="45.18617" lon="5.94566">
        <ele>2029</ele>
        <time>2019-04-13T08:01:17.009Z</time>
      </trkpt>
      <trkpt lat="45.18613" lon="5.94578">
        <ele>2028</ele>
        <time>2019-04-13T08:01:26.009Z</time>
      </trkpt>
      <trkpt lat="45.18611" lon="5.94587">
        <ele>2027</ele>
        <time>2019-04-13T08:01:33.009Z</time>
      </trkpt>
      <trkpt lat="45.18607" lon="5.94593">
        <ele>2027</ele>
        <time>2019-04-13T08:01:38.009Z</time>
      </trkpt>
      <trkpt lat="45.18606" lon="5.94601">
        <ele>2024</ele>
        <time>2019-04-13T08:01:43.009Z</time>
      </trkpt>
      <trkpt lat="45.18605" lon="5.94609">
        <ele>2023</ele>
        <time>2019-04-13T08:01:49.009Z</time>
      </trkpt>
      <trkpt lat="45.18604" lon="5.94617">
        <ele>2023</ele>
        <time>2019-04-13T08:01:55.009Z</time>
      </trkpt>
      <trkpt lat="45.18601" lon="5.94624">
        <ele>2024</ele>
        <time>2019-04-13T08:02:03.009Z</time>
      </trkpt>
      <trkpt lat="45.18598" lon="5.94631">
        <ele>2024</ele>
        <time>2019-04-13T08:02:08.009Z</time>
      </trkpt>
      <trkpt lat="45.18596" lon="5.94638">
        <ele>2025</ele>
        <time>2019-04-13T08:02:14.009Z</time>
      </trkpt>
      <trkpt lat="45.18594" lon="5.94645">
        <ele>2025</ele>
        <time>2019-04-13T08:02:20.009Z</time>
      </trkpt>
      <trkpt lat="45.18592" lon="5.94652">
        <ele>2030</ele>
        <time>2019-04-13T08:02:27.009Z</time>
      </trkpt>
      <trkpt lat="45.18589" lon="5.94657">
        <ele>2029.7110016</ele>
        <time>2019-04-13T08:02:34.009Z</time>
      </trkpt>
      <trkpt lat="45.18588" lon="5.94664">
        <ele>2030</ele>
        <time>2019-04-13T08:02:40.009Z</time>
      </trkpt>
      <trkpt lat="45.18586" lon="5.94671">
        <ele>2030</ele>
        <time>2019-04-13T08:02:46.009Z</time>
      </trkpt>
      <trkpt lat="45.18586" lon="5.94679">
        <ele>2031</ele>
        <time>2019-04-13T08:02:53.009Z</time>
      </trkpt>
      <trkpt lat="45.18587" lon="5.94687">
        <ele>2031</ele>
        <time>2019-04-13T08:03:00.009Z</time>
      </trkpt>
      <trkpt lat="45.18582" lon="5.94693">
        <ele>2031</ele>
        <time>2019-04-13T08:03:07.009Z</time>
      </trkpt>
      <trkpt lat="45.18578" lon="5.94699">
        <ele>2032</ele>
        <time>2019-04-13T08:03:13.009Z</time>
      </trkpt>
      <trkpt lat="45.18576" lon="5.94705">
        <ele>2032</ele>
        <time>2019-04-13T08:03:19.009Z</time>
      </trkpt>
      <trkpt lat="45.18574" lon="5.94714">
        <ele>2033</ele>
        <time>2019-04-13T08:03:40.009Z</time>
      </trkpt>
      <trkpt lat="45.18568" lon="5.9472">
        <ele>2035</ele>
        <time>2019-04-13T08:03:51.009Z</time>
      </trkpt>
      <trkpt lat="45.18564" lon="5.94726">
        <ele>2037</ele>
        <time>2019-04-13T08:04:04.009Z</time>
      </trkpt>
      <trkpt lat="45.18562" lon="5.94732">
        <ele>2037.2889984</ele>
        <time>2019-04-13T08:04:11.009Z</time>
      </trkpt>
      <trkpt lat="45.18559" lon="5.94739">
        <ele>2038</ele>
        <time>2019-04-13T08:04:18.009Z</time>
      </trkpt>
      <trkpt lat="45.18555" lon="5.94751">
        <ele>2039</ele>
        <time>2019-04-13T08:04:32.009Z</time>
      </trkpt>
      <trkpt lat="45.18551" lon="5.94754">
        <ele>2039</ele>
        <time>2019-04-13T08:04:47.009Z</time>
      </trkpt>
      <trkpt lat="45.1855" lon="5.94762">
        <ele>2037.5779968</ele>
        <time>2019-04-13T08:17:51.009Z</time>
      </trkpt>
      <trkpt lat="45.18546" lon="5.94767">
        <ele>2039</ele>
        <time>2019-04-13T08:17:58.009Z</time>
      </trkpt>
      <trkpt lat="45.18543" lon="5.94771">
        <ele>2040</ele>
        <time>2019-04-13T08:18:05.009Z</time>
      </trkpt>
      <trkpt lat="45.1854" lon="5.94775">
        <ele>2040</ele>
        <time>2019-04-13T08:18:10.009Z</time>
      </trkpt>
      <trkpt lat="45.18533" lon="5.94785">
        <ele>2041</ele>
        <time>2019-04-13T08:18:22.009Z</time>
      </trkpt>
      <trkpt lat="45.18527" lon="5.94794">
        <ele>2042</ele>
        <time>2019-04-13T08:18:35.009Z</time>
      </trkpt>
      <trkpt lat="45.1852" lon="5.94801">
        <ele>2043</ele>
        <time>2019-04-13T08:18:47.009Z</time>
      </trkpt>
      <trkpt lat="45.18514" lon="5.94808">
        <ele>2043</ele>
        <time>2019-04-13T08:18:58.009Z</time>
      </trkpt>
      <trkpt lat="45.18507" lon="5.94817">
        <ele>2043</ele>
        <time>2019-04-13T08:19:10.009Z</time>
      </trkpt>
      <trkpt lat="45.18501" lon="5.94823">
        <ele>2044.2889984</ele>
        <time>2019-04-13T08:19:21.009Z</time>
      </trkpt>
      <trkpt lat="45.18493" lon="5.94831">
        <ele>2046</ele>
        <time>2019-04-13T08:19:34.009Z</time>
      </trkpt>
      <trkpt lat="45.18487" lon="5.94838">
        <ele>2047</ele>
        <time>2019-04-13T08:19:47.009Z</time>
      </trkpt>
      <trkpt lat="45.18479" lon="5.94846">
        <ele>2050</ele>
        <time>2019-04-13T08:20:03.009Z</time>
      </trkpt>
      <trkpt lat="45.18473" lon="5.9485">
        <ele>2050.2889984</ele>
        <time>2019-04-13T08:20:11.009Z</time>
      </trkpt>
      <trkpt lat="45.18468" lon="5.94854">
        <ele>2052</ele>
        <time>2019-04-13T08:20:22.009Z</time>
      </trkpt>
      <trkpt lat="45.18463" lon="5.94856">
        <ele>2052</ele>
        <time>2019-04-13T08:20:30.009Z</time>
      </trkpt>
      <trkpt lat="45.18457" lon="5.94858">
        <ele>2055</ele>
        <time>2019-04-13T08:20:45.009Z</time>
      </trkpt>
      <trkpt lat="45.18448" lon="5.94862">
        <ele>2056</ele>
        <time>2019-04-13T08:21:05.009Z</time>
      </trkpt>
      <trkpt lat="45.18438" lon="5.94864">
        <ele>2057</ele>
        <time>2019-04-13T08:21:15.009Z</time>
      </trkpt>
      <trkpt lat="45.18428" lon="5.94861">
        <ele>2058</ele>
        <time>2019-04-13T08:21:36.009Z</time>
      </trkpt>
      <trkpt lat="45.18418" lon="5.94858">
        <ele>2062</ele>
        <time>2019-04-13T08:22:00.009Z</time>
      </trkpt>
      <trkpt lat="45.18407" lon="5.94858">
        <ele>2065</ele>
        <time>2019-04-13T08:22:24.009Z</time>
      </trkpt>
      <trkpt lat="45.18397" lon="5.94858">
        <ele>2069</ele>
        <time>2019-04-13T08:22:56.009Z</time>
      </trkpt>
      <trkpt lat="45.18389" lon="5.94855">
        <ele>2072</ele>
        <time>2019-04-13T08:23:27.009Z</time>
      </trkpt>
      <trkpt lat="45.1838" lon="5.94858">
        <ele>2080</ele>
        <time>2019-04-13T08:24:59.009Z</time>
      </trkpt>
      <trkpt lat="45.1837" lon="5.9486">
        <ele>2085</ele>
        <time>2019-04-13T08:26:12.009Z</time>
      </trkpt>
      <trkpt lat="45.18362" lon="5.94852">
        <ele>2091</ele>
        <time>2019-04-13T08:27:27.009Z</time>
      </trkpt>
      <trkpt lat="45.18357" lon="5.94845">
        <ele>2094</ele>
        <time>2019-04-13T08:28:29.009Z</time>
      </trkpt>
      <trkpt lat="45.18351" lon="5.94836">
        <ele>2096</ele>
        <time>2019-04-13T08:30:20.009Z</time>
      </trkpt>
      <trkpt lat="45.18343" lon="5.94828">
        <ele>2099</ele>
        <time>2019-04-13T08:31:06.009Z</time>
      </trkpt>
      <trkpt lat="45.18332" lon="5.94824">
        <ele>2099</ele>
        <time>2019-04-13T08:31:39.009Z</time>
      </trkpt>
      <trkpt lat="45.18322" lon="5.94829">
        <ele>2101</ele>
        <time>2019-04-13T08:32:02.009Z</time>
      </trkpt>
      <trkpt lat="45.18313" lon="5.94833">
        <ele>2102</ele>
        <time>2019-04-13T08:32:17.009Z</time>
      </trkpt>
      <trkpt lat="45.18303" lon="5.94837">
        <ele>2102</ele>
        <time>2019-04-13T08:32:29.009Z</time>
      </trkpt>
      <trkpt lat="45.18293" lon="5.94845">
        <ele>2104</ele>
        <time>2019-04-13T08:32:43.009Z</time>
      </trkpt>
      <trkpt lat="45.18284" lon="5.94851">
        <ele>2104</ele>
        <time>2019-04-13T08:32:58.009Z</time>
      </trkpt>
      <trkpt lat="45.18274" lon="5.94858">
        <ele>2105</ele>
        <time>2019-04-13T08:33:11.009Z</time>
      </trkpt>
      <trkpt lat="45.18266" lon="5.94865">
        <ele>2105</ele>
        <time>2019-04-13T08:33:24.009Z</time>
      </trkpt>
      <trkpt lat="45.18259" lon="5.9487">
        <ele>2106</ele>
        <time>2019-04-13T08:33:33.009Z</time>
      </trkpt>
      <trkpt lat="45.18251" lon="5.94881">
        <ele>2106</ele>
        <time>2019-04-13T08:33:49.009Z</time>
      </trkpt>
      <trkpt lat="45.18243" lon="5.9489">
        <ele>2109</ele>
        <time>2019-04-13T08:34:05.009Z</time>
      </trkpt>
      <trkpt lat="45.18235" lon="5.94898">
        <ele>2110</ele>
        <time>2019-04-13T08:34:17.009Z</time>
      </trkpt>
      <trkpt lat="45.18228" lon="5.94908">
        <ele>2112</ele>
        <time>2019-04-13T08:34:33.009Z</time>
      </trkpt>
      <trkpt lat="45.18225" lon="5.9492">
        <ele>2113</ele>
        <time>2019-04-13T08:34:45.009Z</time>
      </trkpt>
      <trkpt lat="45.18223" lon="5.94925">
        <ele>2113.2889984</ele>
        <time>2019-04-13T08:34:51.009Z</time>
      </trkpt>
      <trkpt lat="45.18219" lon="5.94939">
        <ele>2114</ele>
        <time>2019-04-13T08:35:09.009Z</time>
      </trkpt>
      <trkpt lat="45.18216" lon="5.94951">
        <ele>2116</ele>
        <time>2019-04-13T08:35:23.009Z</time>
      </trkpt>
      <trkpt lat="45.18218" lon="5.94963">
        <ele>2121</ele>
        <time>2019-04-13T08:36:15.009Z</time>
      </trkpt>
      <trkpt lat="45.18223" lon="5.94975">
        <ele>2129</ele>
        <time>2019-04-13T08:36:47.009Z</time>
      </trkpt>
      <trkpt lat="45.1823" lon="5.94985">
        <ele>2133</ele>
        <time>2019-04-13T08:37:17.009Z</time>
      </trkpt>
      <trkpt lat="45.18239" lon="5.94986">
        <ele>2143</ele>
        <time>2019-04-13T08:38:02.009Z</time>
      </trkpt>
      <trkpt lat="45.18247" lon="5.94995">
        <ele>2147</ele>
        <time>2019-04-13T08:38:33.009Z</time>
      </trkpt>
      <trkpt lat="45.18252" lon="5.95007">
        <ele>2150</ele>
        <time>2019-04-13T08:38:57.009Z</time>
      </trkpt>
      <trkpt lat="45.18257" lon="5.95017">
        <ele>2154</ele>
        <time>2019-04-13T08:39:15.009Z</time>
      </trkpt>
      <trkpt lat="45.18257" lon="5.95026">
        <ele>2155</ele>
        <time>2019-04-13T08:39:35.009Z</time>
      </trkpt>
      <trkpt lat="45.18258" lon="5.95033">
        <ele>2155</ele>
        <time>2019-04-13T08:39:53.009Z</time>
      </trkpt>
      <trkpt lat="45.1826" lon="5.95045">
        <ele>2155</ele>
        <time>2019-04-13T08:40:10.009Z</time>
      </trkpt>
      <trkpt lat="45.1826" lon="5.95058">
        <ele>2158</ele>
        <time>2019-04-13T08:40:24.009Z</time>
      </trkpt>
      <trkpt lat="45.18259" lon="5.95069">
        <ele>2158</ele>
        <time>2019-04-13T08:40:38.009Z</time>
      </trkpt>
      <trkpt lat="45.18259" lon="5.95074">
        <ele>2161</ele>
        <time>2019-04-13T08:43:42.009Z</time>
      </trkpt>
      <trkpt lat="45.18257" lon="5.9507">
        <ele>2158</ele>
        <time>2019-04-13T08:58:56.009Z</time>
      </trkpt>
      <trkpt lat="45.18256" lon="5.95077">
        <ele>2158</ele>
        <time>2019-04-13T09:01:02.009Z</time>
      </trkpt>
      <trkpt lat="45.18255" lon="5.95089">
        <ele>2158</ele>
        <time>2019-04-13T09:01:40.009Z</time>
      </trkpt>
      <trkpt lat="45.18256" lon="5.95103">
        <ele>2146.6080384</ele>
        <time>2019-04-13T09:01:42.009Z</time>
      </trkpt>
      <trkpt lat="45.18258" lon="5.95119">
        <ele>2136.8040192</ele>
        <time>2019-04-13T09:01:44.009Z</time>
      </trkpt>
      <trkpt lat="45.18259" lon="5.95134">
        <ele>2128.8040192</ele>
        <time>2019-04-13T09:01:46.009Z</time>
      </trkpt>
      <trkpt lat="45.1826" lon="5.95151">
        <ele>2121.1030144</ele>
        <time>2019-04-13T09:01:48.009Z</time>
      </trkpt>
      <trkpt lat="45.18261" lon="5.95168">
        <ele>2112.8040192</ele>
        <time>2019-04-13T09:01:50.009Z</time>
      </trkpt>
      <trkpt lat="45.18263" lon="5.95188">
        <ele>2104.8040192</ele>
        <time>2019-04-13T09:01:52.009Z</time>
      </trkpt>
      <trkpt lat="45.18265" lon="5.95207">
        <ele>2095.8040192</ele>
        <time>2019-04-13T09:01:54.009Z</time>
      </trkpt>
      <trkpt lat="45.18267" lon="5.95224">
        <ele>2087.505024</ele>
        <time>2019-04-13T09:01:56.009Z</time>
      </trkpt>
      <trkpt lat="45.18269" lon="5.9524">
        <ele>2080.1030144</ele>
        <time>2019-04-13T09:01:58.009Z</time>
      </trkpt>
      <trkpt lat="45.18271" lon="5.95255">
        <ele>2071.4020096</ele>
        <time>2019-04-13T09:02:00.009Z</time>
      </trkpt>
      <trkpt lat="45.18272" lon="5.95272">
        <ele>2062.8040192</ele>
        <time>2019-04-13T09:02:02.009Z</time>
      </trkpt>
      <trkpt lat="45.18271" lon="5.9529">
        <ele>2057.505024</ele>
        <time>2019-04-13T09:02:04.009Z</time>
      </trkpt>
      <trkpt lat="45.18274" lon="5.95309">
        <ele>2047.1030144</ele>
        <time>2019-04-13T09:02:07.009Z</time>
      </trkpt>
      <trkpt lat="45.18281" lon="5.95323">
        <ele>2036.7010048</ele>
        <time>2019-04-13T09:02:10.009Z</time>
      </trkpt>
      <trkpt lat="45.18285" lon="5.95338">
        <ele>2026.2060288</ele>
        <time>2019-04-13T09:02:16.009Z</time>
      </trkpt>
      <trkpt lat="45.18289" lon="5.95354">
        <ele>2015.9070336</ele>
        <time>2019-04-13T09:02:18.009Z</time>
      </trkpt>
      <trkpt lat="45.18288" lon="5.95379">
        <ele>2008.505024</ele>
        <time>2019-04-13T09:02:20.009Z</time>
      </trkpt>
      <trkpt lat="45.18285" lon="5.95406">
        <ele>1998.2060288</ele>
        <time>2019-04-13T09:02:22.009Z</time>
      </trkpt>
      <trkpt lat="45.18288" lon="5.95421">
        <ele>1994</ele>
        <time>2019-04-13T09:02:23.009Z</time>
      </trkpt>
      <trkpt lat="45.18288" lon="5.95435">
        <ele>1993.4020096</ele>
        <time>2019-04-13T09:02:24.009Z</time>
      </trkpt>
      <trkpt lat="45.18291" lon="5.95454">
        <ele>1986.4020096</ele>
        <time>2019-04-13T09:02:26.009Z</time>
      </trkpt>
      <trkpt lat="45.18288" lon="5.95441">
        <ele>1982</ele>
        <time>2019-04-13T09:03:00.009Z</time>
      </trkpt>
      <trkpt lat="45.18281" lon="5.95433">
        <ele>1984</ele>
        <time>2019-04-13T09:04:24.009Z</time>
      </trkpt>
      <trkpt lat="45.18288" lon="5.95439">
        <ele>1982</ele>
        <time>2019-04-13T09:04:32.009Z</time>
      </trkpt>
      <trkpt lat="45.1829" lon="5.95455">
        <ele>1982</ele>
        <time>2019-04-13T09:04:34.009Z</time>
      </trkpt>
      <trkpt lat="45.18287" lon="5.95478">
        <ele>1977.2160768</ele>
        <time>2019-04-13T09:04:36.009Z</time>
      </trkpt>
      <trkpt lat="45.18286" lon="5.95502">
        <ele>1966</ele>
        <time>2019-04-13T09:04:38.009Z</time>
      </trkpt>
      <trkpt lat="45.18285" lon="5.95528">
        <ele>1966</ele>
        <time>2019-04-13T09:04:40.009Z</time>
      </trkpt>
      <trkpt lat="45.18285" lon="5.95556">
        <ele>1938.7110528</ele>
        <time>2019-04-13T09:04:42.009Z</time>
      </trkpt>
      <trkpt lat="45.18287" lon="5.95572">
        <ele>1930.4020096</ele>
        <time>2019-04-13T09:04:43.009Z</time>
      </trkpt>
      <trkpt lat="45.18288" lon="5.95589">
        <ele>1926.010048</ele>
        <time>2019-04-13T09:04:44.009Z</time>
      </trkpt>
      <trkpt lat="45.18289" lon="5.95607">
        <ele>1917.505024</ele>
        <time>2019-04-13T09:04:45.009Z</time>
      </trkpt>
      <trkpt lat="45.18293" lon="5.95624">
        <ele>1910.4120576</ele>
        <time>2019-04-13T09:04:46.009Z</time>
      </trkpt>
      <trkpt lat="45.18295" lon="5.95641">
        <ele>1902.5979904</ele>
        <time>2019-04-13T09:04:47.009Z</time>
      </trkpt>
      <trkpt lat="45.18294" lon="5.95657">
        <ele>1903.1030144</ele>
        <time>2019-04-13T09:04:48.009Z</time>
      </trkpt>
      <trkpt lat="45.18298" lon="5.95672">
        <ele>1898.9070336</ele>
        <time>2019-04-13T09:04:49.009Z</time>
      </trkpt>
      <trkpt lat="45.18299" lon="5.95687">
        <ele>1892.505024</ele>
        <time>2019-04-13T09:04:50.009Z</time>
      </trkpt>
      <trkpt lat="45.18302" lon="5.95701">
        <ele>1889.5979904</ele>
        <time>2019-04-13T09:04:51.009Z</time>
      </trkpt>
      <trkpt lat="45.18304" lon="5.95715">
        <ele>1890.1030144</ele>
        <time>2019-04-13T09:04:52.009Z</time>
      </trkpt>
      <trkpt lat="45.18302" lon="5.9573">
        <ele>1880.4020096</ele>
        <time>2019-04-13T09:04:55.009Z</time>
      </trkpt>
      <trkpt lat="45.18294" lon="5.95739">
        <ele>1878</ele>
        <time>2019-04-13T09:04:57.009Z</time>
      </trkpt>
      <trkpt lat="45.18283" lon="5.95731">
        <ele>1878</ele>
        <time>2019-04-13T09:05:00.009Z</time>
      </trkpt>
      <trkpt lat="45.18276" lon="5.95734">
        <ele>1878</ele>
        <time>2019-04-13T09:05:20.009Z</time>
      </trkpt>
      <trkpt lat="45.18271" lon="5.95745">
        <ele>1876</ele>
        <time>2019-04-13T09:05:23.009Z</time>
      </trkpt>
      <trkpt lat="45.18268" lon="5.95758">
        <ele>1876</ele>
        <time>2019-04-13T09:05:25.009Z</time>
      </trkpt>
      <trkpt lat="45.18267" lon="5.95774">
        <ele>1876</ele>
        <time>2019-04-13T09:05:27.009Z</time>
      </trkpt>
      <trkpt lat="45.18266" lon="5.9579">
        <ele>1876</ele>
        <time>2019-04-13T09:05:29.009Z</time>
      </trkpt>
      <trkpt lat="45.18265" lon="5.95807">
        <ele>1869.1231104</ele>
        <time>2019-04-13T09:05:31.009Z</time>
      </trkpt>
      <trkpt lat="45.18268" lon="5.95828">
        <ele>1835.2060288</ele>
        <time>2019-04-13T09:05:34.009Z</time>
      </trkpt>
      <trkpt lat="45.18275" lon="5.95844">
        <ele>1825.1030144</ele>
        <time>2019-04-13T09:05:36.009Z</time>
      </trkpt>
      <trkpt lat="45.1828" lon="5.95863">
        <ele>1819.7010048</ele>
        <time>2019-04-13T09:05:38.009Z</time>
      </trkpt>
      <trkpt lat="45.18272" lon="5.9588">
        <ele>1816.1030144</ele>
        <time>2019-04-13T09:05:40.009Z</time>
      </trkpt>
      <trkpt lat="45.18267" lon="5.95895">
        <ele>1810.1030144</ele>
        <time>2019-04-13T09:05:42.009Z</time>
      </trkpt>
      <trkpt lat="45.1827" lon="5.95914">
        <ele>1802.9070336</ele>
        <time>2019-04-13T09:05:44.009Z</time>
      </trkpt>
      <trkpt lat="45.18281" lon="5.95932">
        <ele>1794.4020096</ele>
        <time>2019-04-13T09:05:46.009Z</time>
      </trkpt>
      <trkpt lat="45.18295" lon="5.95952">
        <ele>1785.2060288</ele>
        <time>2019-04-13T09:05:48.009Z</time>
      </trkpt>
      <trkpt lat="45.18302" lon="5.95965">
        <ele>1780.7010048</ele>
        <time>2019-04-13T09:05:49.009Z</time>
      </trkpt>
      <trkpt lat="45.18308" lon="5.9598">
        <ele>1780</ele>
        <time>2019-04-13T09:05:50.009Z</time>
      </trkpt>
      <trkpt lat="45.18311" lon="5.95995">
        <ele>1779.4020096</ele>
        <time>2019-04-13T09:05:51.009Z</time>
      </trkpt>
      <trkpt lat="45.1831" lon="5.9601">
        <ele>1777.4020096</ele>
        <time>2019-04-13T09:05:52.009Z</time>
      </trkpt>
      <trkpt lat="45.1831" lon="5.96024">
        <ele>1775.7010048</ele>
        <time>2019-04-13T09:05:53.009Z</time>
      </trkpt>
      <trkpt lat="45.18312" lon="5.96051">
        <ele>1772.7010048</ele>
        <time>2019-04-13T09:05:55.009Z</time>
      </trkpt>
      <trkpt lat="45.18315" lon="5.96073">
        <ele>1770.7010048</ele>
        <time>2019-04-13T09:05:57.009Z</time>
      </trkpt>
      <trkpt lat="45.18319" lon="5.96091">
        <ele>1769</ele>
        <time>2019-04-13T09:05:59.009Z</time>
      </trkpt>
      <trkpt lat="45.18324" lon="5.96105">
        <ele>1768.7010048</ele>
        <time>2019-04-13T09:06:01.009Z</time>
      </trkpt>
      <trkpt lat="45.1833" lon="5.96122">
        <ele>1767</ele>
        <time>2019-04-13T09:06:04.009Z</time>
      </trkpt>
      <trkpt lat="45.1834" lon="5.9614">
        <ele>1765.5503820761</ele>
        <time>2019-04-13T09:06:07.009Z</time>
      </trkpt>
      <trkpt lat="45.18347" lon="5.96159">
        <ele>1761.7010048</ele>
        <time>2019-04-13T09:06:09.009Z</time>
      </trkpt>
      <trkpt lat="45.18352" lon="5.9618">
        <ele>1760</ele>
        <time>2019-04-13T09:06:11.009Z</time>
      </trkpt>
      <trkpt lat="45.18355" lon="5.962">
        <ele>1759.7010048</ele>
        <time>2019-04-13T09:06:13.009Z</time>
      </trkpt>
      <trkpt lat="45.18359" lon="5.96219">
        <ele>1757.7010048</ele>
        <time>2019-04-13T09:06:15.009Z</time>
      </trkpt>
      <trkpt lat="45.18362" lon="5.96235">
        <ele>1757</ele>
        <time>2019-04-13T09:06:17.009Z</time>
      </trkpt>
      <trkpt lat="45.18366" lon="5.9625">
        <ele>1756.7010048</ele>
        <time>2019-04-13T09:06:19.009Z</time>
      </trkpt>
      <trkpt lat="45.1837" lon="5.96263">
        <ele>1755</ele>
        <time>2019-04-13T09:06:21.009Z</time>
      </trkpt>
      <trkpt lat="45.18373" lon="5.96276">
        <ele>1755</ele>
        <time>2019-04-13T09:06:23.009Z</time>
      </trkpt>
      <trkpt lat="45.18376" lon="5.96291">
        <ele>1755</ele>
        <time>2019-04-13T09:06:25.009Z</time>
      </trkpt>
      <trkpt lat="45.1838" lon="5.96302">
        <ele>1754</ele>
        <time>2019-04-13T09:06:27.009Z</time>
      </trkpt>
      <trkpt lat="45.18383" lon="5.96312">
        <ele>1754</ele>
        <time>2019-04-13T09:06:29.009Z</time>
      </trkpt>
      <trkpt lat="45.18388" lon="5.96327">
        <ele>1752</ele>
        <time>2019-04-13T09:06:32.009Z</time>
      </trkpt>
      <trkpt lat="45.18393" lon="5.96344">
        <ele>1752</ele>
        <time>2019-04-13T09:06:35.009Z</time>
      </trkpt>
      <trkpt lat="45.18399" lon="5.96356">
        <ele>1751</ele>
        <time>2019-04-13T09:06:38.009Z</time>
      </trkpt>
      <trkpt lat="45.18389" lon="5.96356">
        <ele>1751</ele>
        <time>2019-04-13T09:09:27.009Z</time>
      </trkpt>
      <trkpt lat="45.18396" lon="5.96367">
        <ele>1752</ele>
        <time>2019-04-13T09:11:17.009Z</time>
      </trkpt>
      <trkpt lat="45.18391" lon="5.96356">
        <ele>1752</ele>
        <time>2019-04-13T09:13:07.009Z</time>
      </trkpt>
      <trkpt lat="45.18389" lon="5.9637">
        <ele>1754.2989952</ele>
        <time>2019-04-13T09:14:21.009Z</time>
      </trkpt>
      <trkpt lat="45.18386" lon="5.96384">
        <ele>1756</ele>
        <time>2019-04-13T09:14:39.009Z</time>
      </trkpt>
      <trkpt lat="45.18391" lon="5.96396">
        <ele>1760</ele>
        <time>2019-04-13T09:15:00.009Z</time>
      </trkpt>
      <trkpt lat="45.184" lon="5.96404">
        <ele>1764</ele>
        <time>2019-04-13T09:15:13.009Z</time>
      </trkpt>
      <trkpt lat="45.18408" lon="5.96412">
        <ele>1766</ele>
        <time>2019-04-13T09:15:25.009Z</time>
      </trkpt>
      <trkpt lat="45.18417" lon="5.96421">
        <ele>1767</ele>
        <time>2019-04-13T09:15:37.009Z</time>
      </trkpt>
      <trkpt lat="45.18425" lon="5.96429">
        <ele>1771</ele>
        <time>2019-04-13T09:15:53.009Z</time>
      </trkpt>
      <trkpt lat="45.18433" lon="5.96439">
        <ele>1774</ele>
        <time>2019-04-13T09:16:03.009Z</time>
      </trkpt>
      <trkpt lat="45.18443" lon="5.96446">
        <ele>1775</ele>
        <time>2019-04-13T09:16:24.009Z</time>
      </trkpt>
      <trkpt lat="45.18447" lon="5.96459">
        <ele>1777.5779968</ele>
        <time>2019-04-13T09:16:41.009Z</time>
      </trkpt>
      <trkpt lat="45.18439" lon="5.96466">
        <ele>1783.5722758726</ele>
        <time>2019-04-13T09:17:01.009Z</time>
      </trkpt>
      <trkpt lat="45.18429" lon="5.9647">
        <ele>1786</ele>
        <time>2019-04-13T09:17:19.009Z</time>
      </trkpt>
      <trkpt lat="45.18418" lon="5.96471">
        <ele>1788</ele>
        <time>2019-04-13T09:17:30.009Z</time>
      </trkpt>
      <trkpt lat="45.18426" lon="5.96482">
        <ele>1793</ele>
        <time>2019-04-13T09:17:48.009Z</time>
      </trkpt>
      <trkpt lat="45.18434" lon="5.96492">
        <ele>1794</ele>
        <time>2019-04-13T09:18:00.009Z</time>
      </trkpt>
      <trkpt lat="45.18424" lon="5.96495">
        <ele>1796</ele>
        <time>2019-04-13T09:18:20.009Z</time>
      </trkpt>
      <trkpt lat="45.18414" lon="5.96501">
        <ele>1800</ele>
        <time>2019-04-13T09:18:36.009Z</time>
      </trkpt>
      <trkpt lat="45.18407" lon="5.96511">
        <ele>1803</ele>
        <time>2019-04-13T09:18:53.009Z</time>
      </trkpt>
      <trkpt lat="45.18399" lon="5.9652">
        <ele>1807</ele>
        <time>2019-04-13T09:19:08.009Z</time>
      </trkpt>
      <trkpt lat="45.18407" lon="5.96529">
        <ele>1809</ele>
        <time>2019-04-13T09:19:30.009Z</time>
      </trkpt>
      <trkpt lat="45.18417" lon="5.9653">
        <ele>1814</ele>
        <time>2019-04-13T09:19:49.009Z</time>
      </trkpt>
      <trkpt lat="45.18425" lon="5.9654">
        <ele>1814.5779968</ele>
        <time>2019-04-13T09:20:01.009Z</time>
      </trkpt>
      <trkpt lat="45.18415" lon="5.96545">
        <ele>1818</ele>
        <time>2019-04-13T09:20:19.009Z</time>
      </trkpt>
      <trkpt lat="45.1842" lon="5.96558">
        <ele>1824</ele>
        <time>2019-04-13T09:20:43.009Z</time>
      </trkpt>
      <trkpt lat="45.18429" lon="5.96563">
        <ele>1825</ele>
        <time>2019-04-13T09:20:58.009Z</time>
      </trkpt>
      <trkpt lat="45.18433" lon="5.96568">
        <ele>1828</ele>
        <time>2019-04-13T09:21:05.009Z</time>
      </trkpt>
      <trkpt lat="45.18439" lon="5.96573">
        <ele>1828</ele>
        <time>2019-04-13T09:21:13.009Z</time>
      </trkpt>
      <trkpt lat="45.18441" lon="5.96581">
        <ele>1830</ele>
        <time>2019-04-13T09:21:28.009Z</time>
      </trkpt>
      <trkpt lat="45.18435" lon="5.96583">
        <ele>1832</ele>
        <time>2019-04-13T09:21:37.009Z</time>
      </trkpt>
      <trkpt lat="45.1843" lon="5.96588">
        <ele>1834</ele>
        <time>2019-04-13T09:21:48.009Z</time>
      </trkpt>
      <trkpt lat="45.18437" lon="5.96596">
        <ele>1838</ele>
        <time>2019-04-13T09:22:07.009Z</time>
      </trkpt>
      <trkpt lat="45.18442" lon="5.966">
        <ele>1840</ele>
        <time>2019-04-13T09:22:15.009Z</time>
      </trkpt>
      <trkpt lat="45.18447" lon="5.96604">
        <ele>1842</ele>
        <time>2019-04-13T09:22:29.009Z</time>
      </trkpt>
      <trkpt lat="45.18445" lon="5.96611">
        <ele>1844</ele>
        <time>2019-04-13T09:22:42.009Z</time>
      </trkpt>
      <trkpt lat="45.18436" lon="5.96617">
        <ele>1846</ele>
        <time>2019-04-13T09:22:59.009Z</time>
      </trkpt>
      <trkpt lat="45.18432" lon="5.96619">
        <ele>1848</ele>
        <time>2019-04-13T09:23:06.009Z</time>
      </trkpt>
      <trkpt lat="45.18436" lon="5.96623">
        <ele>1849</ele>
        <time>2019-04-13T09:23:16.009Z</time>
      </trkpt>
      <trkpt lat="45.18442" lon="5.96629">
        <ele>1851</ele>
        <time>2019-04-13T09:23:26.009Z</time>
      </trkpt>
      <trkpt lat="45.18447" lon="5.96629">
        <ele>1853</ele>
        <time>2019-04-13T09:23:40.009Z</time>
      </trkpt>
      <trkpt lat="45.18451" lon="5.96633">
        <ele>1855</ele>
        <time>2019-04-13T09:23:43.009Z</time>
      </trkpt>
      <trkpt lat="45.18442" lon="5.96638">
        <ele>1858</ele>
        <time>2019-04-13T09:24:09.009Z</time>
      </trkpt>
      <trkpt lat="45.18437" lon="5.96639">
        <ele>1859</ele>
        <time>2019-04-13T09:24:18.009Z</time>
      </trkpt>
      <trkpt lat="45.18441" lon="5.96649">
        <ele>1862</ele>
        <time>2019-04-13T09:24:38.009Z</time>
      </trkpt>
      <trkpt lat="45.18447" lon="5.96655">
        <ele>1866</ele>
        <time>2019-04-13T09:24:53.009Z</time>
      </trkpt>
      <trkpt lat="45.18441" lon="5.96661">
        <ele>1869.5779968</ele>
        <time>2019-04-13T09:25:21.009Z</time>
      </trkpt>
      <trkpt lat="45.1845" lon="5.96669">
        <ele>1872</ele>
        <time>2019-04-13T09:25:34.009Z</time>
      </trkpt>
      <trkpt lat="45.18461" lon="5.96675">
        <ele>1875</ele>
        <time>2019-04-13T09:25:54.009Z</time>
      </trkpt>
      <trkpt lat="45.18469" lon="5.96683">
        <ele>1877</ele>
        <time>2019-04-13T09:26:06.009Z</time>
      </trkpt>
      <trkpt lat="45.18459" lon="5.96687">
        <ele>1881</ele>
        <time>2019-04-13T09:26:29.009Z</time>
      </trkpt>
      <trkpt lat="45.18449" lon="5.96689">
        <ele>1883</ele>
        <time>2019-04-13T09:26:45.009Z</time>
      </trkpt>
      <trkpt lat="45.18458" lon="5.96697">
        <ele>1886</ele>
        <time>2019-04-13T09:27:05.009Z</time>
      </trkpt>
      <trkpt lat="45.18467" lon="5.96703">
        <ele>1887</ele>
        <time>2019-04-13T09:27:20.009Z</time>
      </trkpt>
      <trkpt lat="45.18459" lon="5.96712">
        <ele>1893</ele>
        <time>2019-04-13T09:27:54.009Z</time>
      </trkpt>
      <trkpt lat="45.18449" lon="5.96715">
        <ele>1896</ele>
        <time>2019-04-13T09:28:14.009Z</time>
      </trkpt>
      <trkpt lat="45.18438" lon="5.96712">
        <ele>1897</ele>
        <time>2019-04-13T09:28:26.009Z</time>
      </trkpt>
      <trkpt lat="45.18431" lon="5.9671">
        <ele>1899</ele>
        <time>2019-04-13T09:28:38.009Z</time>
      </trkpt>
      <trkpt lat="45.18424" lon="5.96708">
        <ele>1902</ele>
        <time>2019-04-13T09:28:53.009Z</time>
      </trkpt>
      <trkpt lat="45.18415" lon="5.96706">
        <ele>1904</ele>
        <time>2019-04-13T09:29:08.009Z</time>
      </trkpt>
      <trkpt lat="45.18424" lon="5.96714">
        <ele>1905</ele>
        <time>2019-04-13T09:29:27.009Z</time>
      </trkpt>
      <trkpt lat="45.18431" lon="5.96725">
        <ele>1907</ele>
        <time>2019-04-13T09:29:50.009Z</time>
      </trkpt>
      <trkpt lat="45.18439" lon="5.96735">
        <ele>1911</ele>
        <time>2019-04-13T09:30:05.009Z</time>
      </trkpt>
      <trkpt lat="45.18429" lon="5.96732">
        <ele>1915</ele>
        <time>2019-04-13T09:30:47.009Z</time>
      </trkpt>
      <trkpt lat="45.18422" lon="5.96741">
        <ele>1923</ele>
        <time>2019-04-13T09:31:33.009Z</time>
      </trkpt>
      <trkpt lat="45.18412" lon="5.96738">
        <ele>1926</ele>
        <time>2019-04-13T09:31:49.009Z</time>
      </trkpt>
      <trkpt lat="45.18418" lon="5.96751">
        <ele>1929</ele>
        <time>2019-04-13T09:32:20.009Z</time>
      </trkpt>
      <trkpt lat="45.18408" lon="5.96753">
        <ele>1934.8669952</ele>
        <time>2019-04-13T09:33:01.009Z</time>
      </trkpt>
      <trkpt lat="45.18398" lon="5.96754">
        <ele>1939</ele>
        <time>2019-04-13T09:33:20.009Z</time>
      </trkpt>
      <trkpt lat="45.18389" lon="5.96759">
        <ele>1940</ele>
        <time>2019-04-13T09:33:44.009Z</time>
      </trkpt>
      <trkpt lat="45.18381" lon="5.96752">
        <ele>1942.2889984</ele>
        <time>2019-04-13T09:34:01.009Z</time>
      </trkpt>
      <trkpt lat="45.18373" lon="5.96742">
        <ele>1944</ele>
        <time>2019-04-13T09:34:17.009Z</time>
      </trkpt>
      <trkpt lat="45.18374" lon="5.96757">
        <ele>1951</ele>
        <time>2019-04-13T09:34:48.009Z</time>
      </trkpt>
      <trkpt lat="45.18365" lon="5.96751">
        <ele>1953</ele>
        <time>2019-04-13T09:35:06.009Z</time>
      </trkpt>
      <trkpt lat="45.18365" lon="5.96766">
        <ele>1957</ele>
        <time>2019-04-13T09:35:40.009Z</time>
      </trkpt>
      <trkpt lat="45.18355" lon="5.96766">
        <ele>1964</ele>
        <time>2019-04-13T09:36:19.009Z</time>
      </trkpt>
      <trkpt lat="45.18346" lon="5.96771">
        <ele>1970</ele>
        <time>2019-04-13T09:37:11.009Z</time>
      </trkpt>
      <trkpt lat="45.18338" lon="5.96774">
        <ele>1977</ele>
        <time>2019-04-13T09:38:05.009Z</time>
      </trkpt>
      <trkpt lat="45.18333" lon="5.96768">
        <ele>1979</ele>
        <time>2019-04-13T09:38:15.009Z</time>
      </trkpt>
      <trkpt lat="45.18329" lon="5.96779">
        <ele>1985</ele>
        <time>2019-04-13T09:38:49.009Z</time>
      </trkpt>
      <trkpt lat="45.18323" lon="5.96771">
        <ele>1985</ele>
        <time>2019-04-13T09:39:00.009Z</time>
      </trkpt>
      <trkpt lat="45.18316" lon="5.96762">
        <ele>1988</ele>
        <time>2019-04-13T09:39:20.009Z</time>
      </trkpt>
      <trkpt lat="45.18308" lon="5.96756">
        <ele>1991</ele>
        <time>2019-04-13T09:39:33.009Z</time>
      </trkpt>
      <trkpt lat="45.18301" lon="5.96753">
        <ele>1992</ele>
        <time>2019-04-13T09:39:44.009Z</time>
      </trkpt>
      <trkpt lat="45.18297" lon="5.96751">
        <ele>1992.5779968</ele>
        <time>2019-04-13T09:39:51.009Z</time>
      </trkpt>
      <trkpt lat="45.18294" lon="5.96751">
        <ele>1995</ele>
        <time>2019-04-13T09:39:57.009Z</time>
      </trkpt>
      <trkpt lat="45.18295" lon="5.96754">
        <ele>1995</ele>
        <time>2019-04-13T09:40:03.009Z</time>
      </trkpt>
      <trkpt lat="45.18297" lon="5.96758">
        <ele>1995</ele>
        <time>2019-04-13T09:40:07.009Z</time>
      </trkpt>
      <trkpt lat="45.18299" lon="5.96762">
        <ele>1997</ele>
        <time>2019-04-13T09:40:12.009Z</time>
      </trkpt>
      <trkpt lat="45.18304" lon="5.96773">
        <ele>1999</ele>
        <time>2019-04-13T09:40:23.009Z</time>
      </trkpt>
      <trkpt lat="45.18305" lon="5.96787">
        <ele>2001</ele>
        <time>2019-04-13T09:40:38.009Z</time>
      </trkpt>
      <trkpt lat="45.18306" lon="5.96801">
        <ele>2005</ele>
        <time>2019-04-13T09:40:58.009Z</time>
      </trkpt>
      <trkpt lat="45.18297" lon="5.96793">
        <ele>2007</ele>
        <time>2019-04-13T09:41:18.009Z</time>
      </trkpt>
      <trkpt lat="45.18293" lon="5.96789">
        <ele>2008</ele>
        <time>2019-04-13T09:41:26.009Z</time>
      </trkpt>
      <trkpt lat="45.18293" lon="5.96801">
        <ele>2011.2889984</ele>
        <time>2019-04-13T09:41:51.009Z</time>
      </trkpt>
      <trkpt lat="45.18288" lon="5.96804">
        <ele>2017</ele>
        <time>2019-04-13T09:42:25.009Z</time>
      </trkpt>
      <trkpt lat="45.18289" lon="5.96814">
        <ele>2019</ele>
        <time>2019-04-13T09:42:45.009Z</time>
      </trkpt>
      <trkpt lat="45.18292" lon="5.96828">
        <ele>2021</ele>
        <time>2019-04-13T09:43:08.009Z</time>
      </trkpt>
      <trkpt lat="45.18297" lon="5.96842">
        <ele>2024</ele>
        <time>2019-04-13T09:43:20.009Z</time>
      </trkpt>
      <trkpt lat="45.18288" lon="5.96836">
        <ele>2027</ele>
        <time>2019-04-13T09:43:38.009Z</time>
      </trkpt>
      <trkpt lat="45.1828" lon="5.96832">
        <ele>2030</ele>
        <time>2019-04-13T09:43:54.009Z</time>
      </trkpt>
      <trkpt lat="45.18278" lon="5.96829">
        <ele>2031</ele>
        <time>2019-04-13T09:44:04.009Z</time>
      </trkpt>
      <trkpt lat="45.18279" lon="5.96834">
        <ele>2032</ele>
        <time>2019-04-13T09:44:13.009Z</time>
      </trkpt>
      <trkpt lat="45.18281" lon="5.96841">
        <ele>2032</ele>
        <time>2019-04-13T09:44:20.009Z</time>
      </trkpt>
      <trkpt lat="45.18277" lon="5.96842">
        <ele>2034</ele>
        <time>2019-04-13T09:44:36.009Z</time>
      </trkpt>
      <trkpt lat="45.18279" lon="5.9685">
        <ele>2038</ele>
        <time>2019-04-13T09:45:12.009Z</time>
      </trkpt>
      <trkpt lat="45.18274" lon="5.96851">
        <ele>2039.5779968</ele>
        <time>2019-04-13T09:45:41.009Z</time>
      </trkpt>
      <trkpt lat="45.1827" lon="5.96849">
        <ele>2042</ele>
        <time>2019-04-13T09:45:49.009Z</time>
      </trkpt>
      <trkpt lat="45.18268" lon="5.96847">
        <ele>2042</ele>
        <time>2019-04-13T09:45:57.009Z</time>
      </trkpt>
      <trkpt lat="45.18271" lon="5.9685">
        <ele>2042</ele>
        <time>2019-04-13T09:46:08.009Z</time>
      </trkpt>
      <trkpt lat="45.18272" lon="5.96856">
        <ele>2043</ele>
        <time>2019-04-13T09:46:14.009Z</time>
      </trkpt>
      <trkpt lat="45.18268" lon="5.96855">
        <ele>2045</ele>
        <time>2019-04-13T09:46:32.009Z</time>
      </trkpt>
      <trkpt lat="45.18266" lon="5.96853">
        <ele>2046</ele>
        <time>2019-04-13T09:46:42.009Z</time>
      </trkpt>
      <trkpt lat="45.18268" lon="5.96856">
        <ele>2046.2889984</ele>
        <time>2019-04-13T09:46:51.009Z</time>
      </trkpt>
      <trkpt lat="45.1827" lon="5.96861">
        <ele>2047</ele>
        <time>2019-04-13T09:46:59.009Z</time>
      </trkpt>
      <trkpt lat="45.18267" lon="5.96863">
        <ele>2048</ele>
        <time>2019-04-13T09:47:09.009Z</time>
      </trkpt>
      <trkpt lat="45.18264" lon="5.96861">
        <ele>2049</ele>
        <time>2019-04-13T09:47:17.009Z</time>
      </trkpt>
      <trkpt lat="45.18266" lon="5.96865">
        <ele>2050</ele>
        <time>2019-04-13T09:47:47.009Z</time>
      </trkpt>
      <trkpt lat="45.18269" lon="5.9687">
        <ele>2053.2889984</ele>
        <time>2019-04-13T09:47:56.009Z</time>
      </trkpt>
      <trkpt lat="45.18265" lon="5.96873">
        <ele>2054</ele>
        <time>2019-04-13T09:48:10.009Z</time>
      </trkpt>
      <trkpt lat="45.18261" lon="5.96871">
        <ele>2055</ele>
        <time>2019-04-13T09:48:16.009Z</time>
      </trkpt>
      <trkpt lat="45.18263" lon="5.96875">
        <ele>2057</ele>
        <time>2019-04-13T09:48:34.009Z</time>
      </trkpt>
      <trkpt lat="45.18268" lon="5.96881">
        <ele>2058</ele>
        <time>2019-04-13T09:48:46.009Z</time>
      </trkpt>
      <trkpt lat="45.18273" lon="5.96885">
        <ele>2060</ele>
        <time>2019-04-13T09:48:52.009Z</time>
      </trkpt>
      <trkpt lat="45.1827" lon="5.96891">
        <ele>2064</ele>
        <time>2019-04-13T09:49:34.009Z</time>
      </trkpt>
      <trkpt lat="45.18277" lon="5.96896">
        <ele>2065</ele>
        <time>2019-04-13T09:50:00.009Z</time>
      </trkpt>
      <trkpt lat="45.18271" lon="5.96894">
        <ele>2068</ele>
        <time>2019-04-13T09:50:18.009Z</time>
      </trkpt>
      <trkpt lat="45.18275" lon="5.96905">
        <ele>2070</ele>
        <time>2019-04-13T09:50:56.009Z</time>
      </trkpt>
      <trkpt lat="45.18267" lon="5.96905">
        <ele>2074</ele>
        <time>2019-04-13T09:51:28.009Z</time>
      </trkpt>
      <trkpt lat="45.18262" lon="5.96907">
        <ele>2075</ele>
        <time>2019-04-13T09:51:46.009Z</time>
      </trkpt>
      <trkpt lat="45.18258" lon="5.96908">
        <ele>2075</ele>
        <time>2019-04-13T09:51:53.009Z</time>
      </trkpt>
      <trkpt lat="45.18255" lon="5.96908">
        <ele>2077</ele>
        <time>2019-04-13T09:52:04.009Z</time>
      </trkpt>
      <trkpt lat="45.18256" lon="5.96913">
        <ele>2078</ele>
        <time>2019-04-13T09:52:30.009Z</time>
      </trkpt>
      <trkpt lat="45.18253" lon="5.96916">
        <ele>2081</ele>
        <time>2019-04-13T09:52:57.009Z</time>
      </trkpt>
      <trkpt lat="45.1825" lon="5.96916">
        <ele>2083</ele>
        <time>2019-04-13T09:53:05.009Z</time>
      </trkpt>
      <trkpt lat="45.18249" lon="5.96918">
        <ele>2084</ele>
        <time>2019-04-13T09:53:27.009Z</time>
      </trkpt>
      <trkpt lat="45.1825" lon="5.96921">
        <ele>2086</ele>
        <time>2019-04-13T09:53:37.009Z</time>
      </trkpt>
      <trkpt lat="45.18252" lon="5.96923">
        <ele>2085</ele>
        <time>2019-04-13T09:54:07.009Z</time>
      </trkpt>
      <trkpt lat="45.18254" lon="5.96925">
        <ele>2085</ele>
        <time>2019-04-13T09:54:11.009Z</time>
      </trkpt>
      <trkpt lat="45.18252" lon="5.96927">
        <ele>2085</ele>
        <time>2019-04-13T09:55:00.009Z</time>
      </trkpt>
      <trkpt lat="45.1825" lon="5.96925">
        <ele>2086</ele>
        <time>2019-04-13T09:55:38.009Z</time>
      </trkpt>
      <trkpt lat="45.18248" lon="5.96925">
        <ele>2086</ele>
        <time>2019-04-13T09:55:46.009Z</time>
      </trkpt>
      <trkpt lat="45.18248" lon="5.96928">
        <ele>2087</ele>
        <time>2019-04-13T09:55:58.009Z</time>
      </trkpt>
      <trkpt lat="45.18246" lon="5.96931">
        <ele>2091</ele>
        <time>2019-04-13T09:56:25.009Z</time>
      </trkpt>
      <trkpt lat="45.18246" lon="5.96934">
        <ele>2093</ele>
        <time>2019-04-13T09:56:43.009Z</time>
      </trkpt>
      <trkpt lat="45.18245" lon="5.96936">
        <ele>2094</ele>
        <time>2019-04-13T09:57:21.009Z</time>
      </trkpt>
      <trkpt lat="45.18245" lon="5.96938">
        <ele>2095</ele>
        <time>2019-04-13T09:57:32.009Z</time>
      </trkpt>
      <trkpt lat="45.18245" lon="5.96941">
        <ele>2097</ele>
        <time>2019-04-13T09:57:54.009Z</time>
      </trkpt>
      <trkpt lat="45.18245" lon="5.96943">
        <ele>2098</ele>
        <time>2019-04-13T09:58:10.009Z</time>
      </trkpt>
      <trkpt lat="45.18246" lon="5.96949">
        <ele>2103</ele>
        <time>2019-04-13T09:58:48.009Z</time>
      </trkpt>
      <trkpt lat="45.18246" lon="5.96951">
        <ele>2105</ele>
        <time>2019-04-13T09:59:16.009Z</time>
      </trkpt>
      <trkpt lat="45.18245" lon="5.96955">
        <ele>2106</ele>
        <time>2019-04-13T09:59:32.009Z</time>
      </trkpt>
      <trkpt lat="45.18244" lon="5.96958">
        <ele>2109</ele>
        <time>2019-04-13T10:00:06.009Z</time>
      </trkpt>
      <trkpt lat="45.18243" lon="5.96966">
        <ele>2115</ele>
        <time>2019-04-13T10:00:54.009Z</time>
      </trkpt>
      <trkpt lat="45.18238" lon="5.96975">
        <ele>2120</ele>
        <time>2019-04-13T10:01:36.009Z</time>
      </trkpt>
      <trkpt lat="45.18237" lon="5.96979">
        <ele>2122</ele>
        <time>2019-04-13T10:01:59.009Z</time>
      </trkpt>
      <trkpt lat="45.18238" lon="5.96981">
        <ele>2123</ele>
        <time>2019-04-13T10:02:09.009Z</time>
      </trkpt>
      <trkpt lat="45.18238" lon="5.96988">
        <ele>2128</ele>
        <time>2019-04-13T10:02:27.009Z</time>
      </trkpt>
      <trkpt lat="45.18236" lon="5.9699">
        <ele>2130.2889984</ele>
        <time>2019-04-13T10:02:36.009Z</time>
      </trkpt>
      <trkpt lat="45.18236" lon="5.96999">
        <ele>2135</ele>
        <time>2019-04-13T10:02:58.009Z</time>
      </trkpt>
      <trkpt lat="45.18233" lon="5.97001">
        <ele>2136</ele>
        <time>2019-04-13T10:03:20.009Z</time>
      </trkpt>
      <trkpt lat="45.18231" lon="5.97001">
        <ele>2139</ele>
        <time>2019-04-13T10:03:54.009Z</time>
      </trkpt>
      <trkpt lat="45.18229" lon="5.97004">
        <ele>2140</ele>
        <time>2019-04-13T10:04:06.009Z</time>
      </trkpt>
      <trkpt lat="45.18228" lon="5.97006">
        <ele>2141</ele>
        <time>2019-04-13T10:04:18.009Z</time>
      </trkpt>
      <trkpt lat="45.18229" lon="5.97008">
        <ele>2142</ele>
        <time>2019-04-13T10:04:27.009Z</time>
      </trkpt>
      <trkpt lat="45.18229" lon="5.97012">
        <ele>2145.2818188871</ele>
        <time>2019-04-13T10:05:01.009Z</time>
      </trkpt>
      <trkpt lat="45.18228" lon="5.97016">
        <ele>2148</ele>
        <time>2019-04-13T10:05:24.009Z</time>
      </trkpt>
      <trkpt lat="45.1823" lon="5.97019">
        <ele>2149</ele>
        <time>2019-04-13T10:05:56.009Z</time>
      </trkpt>
      <trkpt lat="45.18229" lon="5.97022">
        <ele>2151</ele>
        <time>2019-04-13T10:06:15.009Z</time>
      </trkpt>
      <trkpt lat="45.18227" lon="5.97024">
        <ele>2151</ele>
        <time>2019-04-13T10:06:20.009Z</time>
      </trkpt>
      <trkpt lat="45.18225" lon="5.97025">
        <ele>2153</ele>
        <time>2019-04-13T10:06:32.009Z</time>
      </trkpt>
      <trkpt lat="45.18224" lon="5.97026">
        <ele>2153</ele>
        <time>2019-04-13T10:06:45.009Z</time>
      </trkpt>
      <trkpt lat="45.18224" lon="5.9703">
        <ele>2158</ele>
        <time>2019-04-13T10:07:19.009Z</time>
      </trkpt>
      <trkpt lat="45.18221" lon="5.97029">
        <ele>2158</ele>
        <time>2019-04-13T10:07:40.009Z</time>
      </trkpt>
      <trkpt lat="45.18217" lon="5.97025">
        <ele>2159</ele>
        <time>2019-04-13T10:07:59.009Z</time>
      </trkpt>
      <trkpt lat="45.18211" lon="5.97022">
        <ele>2158</ele>
        <time>2019-04-13T10:08:47.009Z</time>
      </trkpt>
      <trkpt lat="45.18206" lon="5.97016">
        <ele>2158</ele>
        <time>2019-04-13T10:09:09.009Z</time>
      </trkpt>
      <trkpt lat="45.18201" lon="5.97012">
        <ele>2158</ele>
        <time>2019-04-13T10:09:29.009Z</time>
      </trkpt>
      <trkpt lat="45.18195" lon="5.9701">
        <ele>2160</ele>
        <time>2019-04-13T10:09:45.009Z</time>
      </trkpt>
      <trkpt lat="45.18191" lon="5.97007">
        <ele>2160</ele>
        <time>2019-04-13T10:09:57.009Z</time>
      </trkpt>
      <trkpt lat="45.18186" lon="5.97005">
        <ele>2163</ele>
        <time>2019-04-13T10:10:36.009Z</time>
      </trkpt>
      <trkpt lat="45.18179" lon="5.97">
        <ele>2159</ele>
        <time>2019-04-13T10:19:45.009Z</time>
      </trkpt>
      <trkpt lat="45.18174" lon="5.96996">
        <ele>2159</ele>
        <time>2019-04-13T10:19:49.009Z</time>
      </trkpt>
      <trkpt lat="45.18169" lon="5.96994">
        <ele>2158.1330048</ele>
        <time>2019-04-13T10:19:51.009Z</time>
      </trkpt>
      <trkpt lat="45.18161" lon="5.96994">
        <ele>2155</ele>
        <time>2019-04-13T10:19:59.009Z</time>
      </trkpt>
      <trkpt lat="45.18152" lon="5.96999">
        <ele>2157</ele>
        <time>2019-04-13T10:20:08.009Z</time>
      </trkpt>
      <trkpt lat="45.18143" lon="5.97002">
        <ele>2157</ele>
        <time>2019-04-13T10:20:17.009Z</time>
      </trkpt>
      <trkpt lat="45.18138" lon="5.97004">
        <ele>2159</ele>
        <time>2019-04-13T10:20:33.009Z</time>
      </trkpt>
      <trkpt lat="45.1813" lon="5.97007">
        <ele>2161</ele>
        <time>2019-04-13T10:20:42.009Z</time>
      </trkpt>
      <trkpt lat="45.18124" lon="5.97007">
        <ele>2162</ele>
        <time>2019-04-13T10:20:57.009Z</time>
      </trkpt>
      <trkpt lat="45.18119" lon="5.97008">
        <ele>2165</ele>
        <time>2019-04-13T10:21:09.009Z</time>
      </trkpt>
      <trkpt lat="45.18111" lon="5.97006">
        <ele>2168</ele>
        <time>2019-04-13T10:21:23.009Z</time>
      </trkpt>
      <trkpt lat="45.18104" lon="5.97001">
        <ele>2171</ele>
        <time>2019-04-13T10:21:34.009Z</time>
      </trkpt>
      <trkpt lat="45.18096" lon="5.96997">
        <ele>2173</ele>
        <time>2019-04-13T10:21:43.009Z</time>
      </trkpt>
      <trkpt lat="45.18088" lon="5.96995">
        <ele>2175</ele>
        <time>2019-04-13T10:21:53.009Z</time>
      </trkpt>
      <trkpt lat="45.1808" lon="5.96994">
        <ele>2176</ele>
        <time>2019-04-13T10:22:04.009Z</time>
      </trkpt>
      <trkpt lat="45.18071" lon="5.96994">
        <ele>2178</ele>
        <time>2019-04-13T10:22:15.009Z</time>
      </trkpt>
      <trkpt lat="45.18061" lon="5.96991">
        <ele>2181</ele>
        <time>2019-04-13T10:22:27.009Z</time>
      </trkpt>
      <trkpt lat="45.18053" lon="5.96988">
        <ele>2183</ele>
        <time>2019-04-13T10:22:38.009Z</time>
      </trkpt>
      <trkpt lat="45.18046" lon="5.96987">
        <ele>2183</ele>
        <time>2019-04-13T10:22:48.009Z</time>
      </trkpt>
      <trkpt lat="45.18041" lon="5.9699">
        <ele>2185</ele>
        <time>2019-04-13T10:22:55.009Z</time>
      </trkpt>
      <trkpt lat="45.18036" lon="5.96995">
        <ele>2188</ele>
        <time>2019-04-13T10:23:03.009Z</time>
      </trkpt>
      <trkpt lat="45.18033" lon="5.97001">
        <ele>2189</ele>
        <time>2019-04-13T10:23:10.009Z</time>
      </trkpt>
      <trkpt lat="45.18031" lon="5.97007">
        <ele>2189</ele>
        <time>2019-04-13T10:23:17.009Z</time>
      </trkpt>
      <trkpt lat="45.18029" lon="5.97013">
        <ele>2191.8669952</ele>
        <time>2019-04-13T10:23:26.009Z</time>
      </trkpt>
      <trkpt lat="45.18027" lon="5.97017">
        <ele>2194</ele>
        <time>2019-04-13T10:23:31.009Z</time>
      </trkpt>
      <trkpt lat="45.18023" lon="5.97026">
        <ele>2195.2889984</ele>
        <time>2019-04-13T10:23:41.009Z</time>
      </trkpt>
      <trkpt lat="45.1802" lon="5.97035">
        <ele>2196</ele>
        <time>2019-04-13T10:23:49.009Z</time>
      </trkpt>
      <trkpt lat="45.18015" lon="5.97043">
        <ele>2198</ele>
        <time>2019-04-13T10:23:57.009Z</time>
      </trkpt>
      <trkpt lat="45.18013" lon="5.9705">
        <ele>2199</ele>
        <time>2019-04-13T10:24:03.009Z</time>
      </trkpt>
      <trkpt lat="45.18012" lon="5.97058">
        <ele>2199</ele>
        <time>2019-04-13T10:24:09.009Z</time>
      </trkpt>
      <trkpt lat="45.1801" lon="5.97066">
        <ele>2200</ele>
        <time>2019-04-13T10:24:16.009Z</time>
      </trkpt>
      <trkpt lat="45.18007" lon="5.97075">
        <ele>2201</ele>
        <time>2019-04-13T10:24:22.009Z</time>
      </trkpt>
      <trkpt lat="45.18005" lon="5.97084">
        <ele>2201</ele>
        <time>2019-04-13T10:24:29.009Z</time>
      </trkpt>
      <trkpt lat="45.18003" lon="5.97095">
        <ele>2204</ele>
        <time>2019-04-13T10:24:39.009Z</time>
      </trkpt>
      <trkpt lat="45.18001" lon="5.97099">
        <ele>2203</ele>
        <time>2019-04-13T10:26:25.009Z</time>
      </trkpt>
      <trkpt lat="45.17998" lon="5.97104">
        <ele>2204</ele>
        <time>2019-04-13T10:28:52.009Z</time>
      </trkpt>
      <trkpt lat="45.17995" lon="5.97111">
        <ele>2204</ele>
        <time>2019-04-13T10:29:35.009Z</time>
      </trkpt>
      <trkpt lat="45.17992" lon="5.97115">
        <ele>2204</ele>
        <time>2019-04-13T10:29:37.009Z</time>
      </trkpt>
      <trkpt lat="45.17989" lon="5.97118">
        <ele>2204</ele>
        <time>2019-04-13T10:29:40.009Z</time>
      </trkpt>
      <trkpt lat="45.17992" lon="5.97121">
        <ele>2203</ele>
        <time>2019-04-13T10:29:53.009Z</time>
      </trkpt>
      <trkpt lat="45.17996" lon="5.97124">
        <ele>2203</ele>
        <time>2019-04-13T10:30:00.009Z</time>
      </trkpt>
      <trkpt lat="45.18004" lon="5.97131">
        <ele>2208</ele>
        <time>2019-04-13T10:30:12.009Z</time>
      </trkpt>
      <trkpt lat="45.1801" lon="5.97139">
        <ele>2209</ele>
        <time>2019-04-13T10:30:23.009Z</time>
      </trkpt>
      <trkpt lat="45.18014" lon="5.97149">
        <ele>2211</ele>
        <time>2019-04-13T10:30:32.009Z</time>
      </trkpt>
      <trkpt lat="45.18017" lon="5.9716">
        <ele>2213</ele>
        <time>2019-04-13T10:30:42.009Z</time>
      </trkpt>
      <trkpt lat="45.18021" lon="5.97166">
        <ele>2214</ele>
        <time>2019-04-13T10:30:50.009Z</time>
      </trkpt>
      <trkpt lat="45.18023" lon="5.97174">
        <ele>2216</ele>
        <time>2019-04-13T10:30:58.009Z</time>
      </trkpt>
      <trkpt lat="45.18022" lon="5.97182">
        <ele>2219</ele>
        <time>2019-04-13T10:31:04.009Z</time>
      </trkpt>
      <trkpt lat="45.18021" lon="5.97192">
        <ele>2220</ele>
        <time>2019-04-13T10:31:13.009Z</time>
      </trkpt>
      <trkpt lat="45.18022" lon="5.97199">
        <ele>2220</ele>
        <time>2019-04-13T10:31:19.009Z</time>
      </trkpt>
      <trkpt lat="45.18025" lon="5.97203">
        <ele>2220</ele>
        <time>2019-04-13T10:31:24.009Z</time>
      </trkpt>
      <trkpt lat="45.1803" lon="5.97208">
        <ele>2222</ele>
        <time>2019-04-13T10:31:32.009Z</time>
      </trkpt>
      <trkpt lat="45.18036" lon="5.97213">
        <ele>2223</ele>
        <time>2019-04-13T10:31:39.009Z</time>
      </trkpt>
      <trkpt lat="45.18041" lon="5.97218">
        <ele>2224</ele>
        <time>2019-04-13T10:31:45.009Z</time>
      </trkpt>
      <trkpt lat="45.18045" lon="5.97224">
        <ele>2224</ele>
        <time>2019-04-13T10:31:50.009Z</time>
      </trkpt>
      <trkpt lat="45.18048" lon="5.97229">
        <ele>2225</ele>
        <time>2019-04-13T10:31:55.009Z</time>
      </trkpt>
      <trkpt lat="45.18051" lon="5.97234">
        <ele>2225</ele>
        <time>2019-04-13T10:31:59.009Z</time>
      </trkpt>
      <trkpt lat="45.18055" lon="5.97246">
        <ele>2227</ele>
        <time>2019-04-13T10:32:08.009Z</time>
      </trkpt>
      <trkpt lat="45.18058" lon="5.97259">
        <ele>2228</ele>
        <time>2019-04-13T10:32:17.009Z</time>
      </trkpt>
      <trkpt lat="45.18058" lon="5.9727">
        <ele>2229</ele>
        <time>2019-04-13T10:32:25.009Z</time>
      </trkpt>
      <trkpt lat="45.18058" lon="5.97278">
        <ele>2229</ele>
        <time>2019-04-13T10:32:30.009Z</time>
      </trkpt>
      <trkpt lat="45.18059" lon="5.97294">
        <ele>2228</ele>
        <time>2019-04-13T10:32:41.009Z</time>
      </trkpt>
      <trkpt lat="45.18059" lon="5.97307">
        <ele>2229</ele>
        <time>2019-04-13T10:32:48.009Z</time>
      </trkpt>
      <trkpt lat="45.1806" lon="5.97322">
        <ele>2229</ele>
        <time>2019-04-13T10:32:59.009Z</time>
      </trkpt>
      <trkpt lat="45.18063" lon="5.97337">
        <ele>2228</ele>
        <time>2019-04-13T10:33:07.009Z</time>
      </trkpt>
      <trkpt lat="45.18063" lon="5.97348">
        <ele>2228</ele>
        <time>2019-04-13T10:33:13.009Z</time>
      </trkpt>
      <trkpt lat="45.18062" lon="5.97359">
        <ele>2228</ele>
        <time>2019-04-13T10:33:21.009Z</time>
      </trkpt>
      <trkpt lat="45.18061" lon="5.97371">
        <ele>2228</ele>
        <time>2019-04-13T10:33:28.009Z</time>
      </trkpt>
      <trkpt lat="45.18059" lon="5.97385">
        <ele>2228</ele>
        <time>2019-04-13T10:33:36.009Z</time>
      </trkpt>
      <trkpt lat="45.1806" lon="5.97398">
        <ele>2226</ele>
        <time>2019-04-13T10:33:45.009Z</time>
      </trkpt>
      <trkpt lat="45.18062" lon="5.9741">
        <ele>2225</ele>
        <time>2019-04-13T10:33:52.009Z</time>
      </trkpt>
      <trkpt lat="45.18063" lon="5.9742">
        <ele>2225</ele>
        <time>2019-04-13T10:33:58.009Z</time>
      </trkpt>
      <trkpt lat="45.18064" lon="5.97433">
        <ele>2224</ele>
        <time>2019-04-13T10:34:05.009Z</time>
      </trkpt>
      <trkpt lat="45.18065" lon="5.97445">
        <ele>2224</ele>
        <time>2019-04-13T10:34:12.009Z</time>
      </trkpt>
      <trkpt lat="45.18065" lon="5.97453">
        <ele>2224</ele>
        <time>2019-04-13T10:34:16.009Z</time>
      </trkpt>
      <trkpt lat="45.18067" lon="5.97462">
        <ele>2224</ele>
        <time>2019-04-13T10:34:19.009Z</time>
      </trkpt>
      <trkpt lat="45.18068" lon="5.97472">
        <ele>2222.8440064</ele>
        <time>2019-04-13T10:34:21.009Z</time>
      </trkpt>
      <trkpt lat="45.18068" lon="5.97481">
        <ele>2220</ele>
        <time>2019-04-13T10:34:23.009Z</time>
      </trkpt>
      <trkpt lat="45.18064" lon="5.97495">
        <ele>2216</ele>
        <time>2019-04-13T10:34:30.009Z</time>
      </trkpt>
      <trkpt lat="45.18061" lon="5.97509">
        <ele>2215</ele>
        <time>2019-04-13T10:34:38.009Z</time>
      </trkpt>
      <trkpt lat="45.18058" lon="5.97523">
        <ele>2215</ele>
        <time>2019-04-13T10:34:48.009Z</time>
      </trkpt>
      <trkpt lat="45.18056" lon="5.97536">
        <ele>2216</ele>
        <time>2019-04-13T10:34:57.009Z</time>
      </trkpt>
      <trkpt lat="45.18054" lon="5.97548">
        <ele>2215</ele>
        <time>2019-04-13T10:35:05.009Z</time>
      </trkpt>
      <trkpt lat="45.18051" lon="5.97559">
        <ele>2216</ele>
        <time>2019-04-13T10:35:12.009Z</time>
      </trkpt>
      <trkpt lat="45.18049" lon="5.97569">
        <ele>2216</ele>
        <time>2019-04-13T10:35:18.009Z</time>
      </trkpt>
      <trkpt lat="45.18048" lon="5.97577">
        <ele>2216</ele>
        <time>2019-04-13T10:35:23.009Z</time>
      </trkpt>
      <trkpt lat="45.18046" lon="5.97584">
        <ele>2216</ele>
        <time>2019-04-13T10:35:27.009Z</time>
      </trkpt>
      <trkpt lat="45.18043" lon="5.97589">
        <ele>2216</ele>
        <time>2019-04-13T10:35:29.009Z</time>
      </trkpt>
      <trkpt lat="45.18041" lon="5.97595">
        <ele>2215.1330048</ele>
        <time>2019-04-13T10:35:31.009Z</time>
      </trkpt>
      <trkpt lat="45.18038" lon="5.97604">
        <ele>2212.4220032</ele>
        <time>2019-04-13T10:35:36.009Z</time>
      </trkpt>
      <trkpt lat="45.18033" lon="5.97615">
        <ele>2211</ele>
        <time>2019-04-13T10:35:40.009Z</time>
      </trkpt>
      <trkpt lat="45.18031" lon="5.97619">
        <ele>2210</ele>
        <time>2019-04-13T10:35:43.009Z</time>
      </trkpt>
      <trkpt lat="45.18028" lon="5.97624">
        <ele>2210</ele>
        <time>2019-04-13T10:35:56.009Z</time>
      </trkpt>
      <trkpt lat="45.18024" lon="5.97629">
        <ele>2210.2889984</ele>
        <time>2019-04-13T10:36:01.009Z</time>
      </trkpt>
      <trkpt lat="45.1802" lon="5.97634">
        <ele>2211</ele>
        <time>2019-04-13T10:36:08.009Z</time>
      </trkpt>
      <trkpt lat="45.18014" lon="5.97639">
        <ele>2213.2889984</ele>
        <time>2019-04-13T10:36:16.009Z</time>
      </trkpt>
      <trkpt lat="45.18009" lon="5.97646">
        <ele>2214</ele>
        <time>2019-04-13T10:36:23.009Z</time>
      </trkpt>
      <trkpt lat="45.18006" lon="5.97654">
        <ele>2216</ele>
        <time>2019-04-13T10:36:32.009Z</time>
      </trkpt>
      <trkpt lat="45.18" lon="5.9766">
        <ele>2220</ele>
        <time>2019-04-13T10:36:47.009Z</time>
      </trkpt>
      <trkpt lat="45.17995" lon="5.97663">
        <ele>2220</ele>
        <time>2019-04-13T10:36:55.009Z</time>
      </trkpt>
      <trkpt lat="45.17991" lon="5.97666">
        <ele>2222</ele>
        <time>2019-04-13T10:37:02.009Z</time>
      </trkpt>
      <trkpt lat="45.17986" lon="5.97671">
        <ele>2224</ele>
        <time>2019-04-13T10:37:09.009Z</time>
      </trkpt>
      <trkpt lat="45.17982" lon="5.97676">
        <ele>2225.2889984</ele>
        <time>2019-04-13T10:37:16.009Z</time>
      </trkpt>
      <trkpt lat="45.17978" lon="5.9768">
        <ele>2226</ele>
        <time>2019-04-13T10:37:22.009Z</time>
      </trkpt>
      <trkpt lat="45.17976" lon="5.97684">
        <ele>2226</ele>
        <time>2019-04-13T10:37:27.009Z</time>
      </trkpt>
      <trkpt lat="45.17972" lon="5.97687">
        <ele>2228</ele>
        <time>2019-04-13T10:37:33.009Z</time>
      </trkpt>
      <trkpt lat="45.17964" lon="5.97693">
        <ele>2232</ele>
        <time>2019-04-13T10:37:47.009Z</time>
      </trkpt>
      <trkpt lat="45.1796" lon="5.97696">
        <ele>2233</ele>
        <time>2019-04-13T10:37:52.009Z</time>
      </trkpt>
      <trkpt lat="45.17956" lon="5.97697">
        <ele>2234</ele>
        <time>2019-04-13T10:37:57.009Z</time>
      </trkpt>
      <trkpt lat="45.1795" lon="5.97699">
        <ele>2235</ele>
        <time>2019-04-13T10:38:04.009Z</time>
      </trkpt>
      <trkpt lat="45.17944" lon="5.97702">
        <ele>2237.2889984</ele>
        <time>2019-04-13T10:38:16.009Z</time>
      </trkpt>
      <trkpt lat="45.17938" lon="5.97709">
        <ele>2240</ele>
        <time>2019-04-13T10:38:29.009Z</time>
      </trkpt>
      <trkpt lat="45.17931" lon="5.97716">
        <ele>2241</ele>
        <time>2019-04-13T10:38:38.009Z</time>
      </trkpt>
      <trkpt lat="45.17925" lon="5.97724">
        <ele>2241</ele>
        <time>2019-04-13T10:38:48.009Z</time>
      </trkpt>
      <trkpt lat="45.1792" lon="5.97733">
        <ele>2242</ele>
        <time>2019-04-13T10:38:57.009Z</time>
      </trkpt>
      <trkpt lat="45.17915" lon="5.97741">
        <ele>2243</ele>
        <time>2019-04-13T10:39:05.009Z</time>
      </trkpt>
      <trkpt lat="45.1791" lon="5.97749">
        <ele>2245</ele>
        <time>2019-04-13T10:39:13.009Z</time>
      </trkpt>
      <trkpt lat="45.17905" lon="5.97756">
        <ele>2245.5779968</ele>
        <time>2019-04-13T10:39:21.009Z</time>
      </trkpt>
      <trkpt lat="45.179" lon="5.97763">
        <ele>2247</ele>
        <time>2019-04-13T10:39:30.009Z</time>
      </trkpt>
      <trkpt lat="45.17894" lon="5.97769">
        <ele>2249</ele>
        <time>2019-04-13T10:39:39.009Z</time>
      </trkpt>
      <trkpt lat="45.1789" lon="5.97774">
        <ele>2250</ele>
        <time>2019-04-13T10:39:47.009Z</time>
      </trkpt>
      <trkpt lat="45.17885" lon="5.97778">
        <ele>2252</ele>
        <time>2019-04-13T10:39:55.009Z</time>
      </trkpt>
      <trkpt lat="45.1788" lon="5.97784">
        <ele>2254</ele>
        <time>2019-04-13T10:40:05.009Z</time>
      </trkpt>
      <trkpt lat="45.17875" lon="5.97791">
        <ele>2256</ele>
        <time>2019-04-13T10:40:14.009Z</time>
      </trkpt>
      <trkpt lat="45.1787" lon="5.97797">
        <ele>2258</ele>
        <time>2019-04-13T10:40:23.009Z</time>
      </trkpt>
      <trkpt lat="45.17867" lon="5.97802">
        <ele>2258</ele>
        <time>2019-04-13T10:40:30.009Z</time>
      </trkpt>
      <trkpt lat="45.17864" lon="5.97806">
        <ele>2259</ele>
        <time>2019-04-13T10:40:36.009Z</time>
      </trkpt>
      <trkpt lat="45.17861" lon="5.97809">
        <ele>2259.5779968</ele>
        <time>2019-04-13T10:40:41.009Z</time>
      </trkpt>
      <trkpt lat="45.1786" lon="5.97811">
        <ele>2261</ele>
        <time>2019-04-13T10:40:44.009Z</time>
      </trkpt>
      <trkpt lat="45.17858" lon="5.97813">
        <ele>2262</ele>
        <time>2019-04-13T10:40:47.009Z</time>
      </trkpt>
      <trkpt lat="45.17856" lon="5.97815">
        <ele>2262</ele>
        <time>2019-04-13T10:40:50.009Z</time>
      </trkpt>
      <trkpt lat="45.17853" lon="5.97817">
        <ele>2262</ele>
        <time>2019-04-13T10:40:54.009Z</time>
      </trkpt>
      <trkpt lat="45.17851" lon="5.9782">
        <ele>2262</ele>
        <time>2019-04-13T10:40:58.009Z</time>
      </trkpt>
      <trkpt lat="45.17849" lon="5.97822">
        <ele>2262.8669952</ele>
        <time>2019-04-13T10:41:01.009Z</time>
      </trkpt>
      <trkpt lat="45.17846" lon="5.97824">
        <ele>2266</ele>
        <time>2019-04-13T10:41:07.009Z</time>
      </trkpt>
      <trkpt lat="45.17843" lon="5.97828">
        <ele>2267</ele>
        <time>2019-04-13T10:41:13.009Z</time>
      </trkpt>
      <trkpt lat="45.17839" lon="5.97832">
        <ele>2267</ele>
        <time>2019-04-13T10:41:20.009Z</time>
      </trkpt>
      <trkpt lat="45.17836" lon="5.97835">
        <ele>2269</ele>
        <time>2019-04-13T10:41:25.009Z</time>
      </trkpt>
      <trkpt lat="45.17832" lon="5.97838">
        <ele>2270.2889984</ele>
        <time>2019-04-13T10:41:31.009Z</time>
      </trkpt>
      <trkpt lat="45.17828" lon="5.97842">
        <ele>2272</ele>
        <time>2019-04-13T10:41:37.009Z</time>
      </trkpt>
      <trkpt lat="45.17824" lon="5.97845">
        <ele>2272</ele>
        <time>2019-04-13T10:41:43.009Z</time>
      </trkpt>
      <trkpt lat="45.17819" lon="5.97851">
        <ele>2274</ele>
        <time>2019-04-13T10:41:52.009Z</time>
      </trkpt>
      <trkpt lat="45.17818" lon="5.97859">
        <ele>2277</ele>
        <time>2019-04-13T10:42:02.009Z</time>
      </trkpt>
      <trkpt lat="45.17818" lon="5.97866">
        <ele>2279</ele>
        <time>2019-04-13T10:42:09.009Z</time>
      </trkpt>
      <trkpt lat="45.17815" lon="5.97873">
        <ele>2282</ele>
        <time>2019-04-13T10:42:18.009Z</time>
      </trkpt>
      <trkpt lat="45.17808" lon="5.97877">
        <ele>2285</ele>
        <time>2019-04-13T10:42:32.009Z</time>
      </trkpt>
      <trkpt lat="45.178" lon="5.97877">
        <ele>2287.2889984</ele>
        <time>2019-04-13T10:42:46.009Z</time>
      </trkpt>
      <trkpt lat="45.17797" lon="5.97886">
        <ele>2290.2889984</ele>
        <time>2019-04-13T10:42:56.009Z</time>
      </trkpt>
      <trkpt lat="45.17794" lon="5.97898">
        <ele>2291</ele>
        <time>2019-04-13T10:43:07.009Z</time>
      </trkpt>
      <trkpt lat="45.17792" lon="5.97905">
        <ele>2293</ele>
        <time>2019-04-13T10:43:14.009Z</time>
      </trkpt>
      <trkpt lat="45.17788" lon="5.97914">
        <ele>2294</ele>
        <time>2019-04-13T10:43:23.009Z</time>
      </trkpt>
      <trkpt lat="45.17784" lon="5.97921">
        <ele>2294</ele>
        <time>2019-04-13T10:43:30.009Z</time>
      </trkpt>
      <trkpt lat="45.1778" lon="5.9793">
        <ele>2296</ele>
        <time>2019-04-13T10:43:38.009Z</time>
      </trkpt>
      <trkpt lat="45.17776" lon="5.9794">
        <ele>2296</ele>
        <time>2019-04-13T10:43:45.009Z</time>
      </trkpt>
      <trkpt lat="45.17772" lon="5.97948">
        <ele>2296</ele>
        <time>2019-04-13T10:43:51.009Z</time>
      </trkpt>
      <trkpt lat="45.17769" lon="5.97954">
        <ele>2296</ele>
        <time>2019-04-13T10:43:56.009Z</time>
      </trkpt>
      <trkpt lat="45.17764" lon="5.97962">
        <ele>2295</ele>
        <time>2019-04-13T10:44:03.009Z</time>
      </trkpt>
      <trkpt lat="45.1776" lon="5.97969">
        <ele>2295</ele>
        <time>2019-04-13T10:44:10.009Z</time>
      </trkpt>
      <trkpt lat="45.17756" lon="5.97974">
        <ele>2297</ele>
        <time>2019-04-13T10:44:16.009Z</time>
      </trkpt>
      <trkpt lat="45.17752" lon="5.9798">
        <ele>2299</ele>
        <time>2019-04-13T10:44:25.009Z</time>
      </trkpt>
      <trkpt lat="45.17747" lon="5.97986">
        <ele>2299.2889984</ele>
        <time>2019-04-13T10:44:31.009Z</time>
      </trkpt>
      <trkpt lat="45.17742" lon="5.97992">
        <ele>2300</ele>
        <time>2019-04-13T10:44:39.009Z</time>
      </trkpt>
      <trkpt lat="45.17736" lon="5.97997">
        <ele>2302</ele>
        <time>2019-04-13T10:44:47.009Z</time>
      </trkpt>
      <trkpt lat="45.17731" lon="5.98005">
        <ele>2304.2889984</ele>
        <time>2019-04-13T10:44:56.009Z</time>
      </trkpt>
      <trkpt lat="45.17728" lon="5.9801">
        <ele>2306</ele>
        <time>2019-04-13T10:48:30.009Z</time>
      </trkpt>
      <trkpt lat="45.17723" lon="5.98018">
        <ele>2307</ele>
        <time>2019-04-13T10:48:37.009Z</time>
      </trkpt>
      <trkpt lat="45.17716" lon="5.98023">
        <ele>2308</ele>
        <time>2019-04-13T10:48:45.009Z</time>
      </trkpt>
      <trkpt lat="45.17708" lon="5.98027">
        <ele>2308</ele>
        <time>2019-04-13T10:48:52.009Z</time>
      </trkpt>
      <trkpt lat="45.17701" lon="5.9803">
        <ele>2308</ele>
        <time>2019-04-13T10:48:59.009Z</time>
      </trkpt>
      <trkpt lat="45.17692" lon="5.98033">
        <ele>2308</ele>
        <time>2019-04-13T10:49:10.009Z</time>
      </trkpt>
      <trkpt lat="45.17685" lon="5.98033">
        <ele>2309</ele>
        <time>2019-04-13T10:49:19.009Z</time>
      </trkpt>
      <trkpt lat="45.17678" lon="5.98033">
        <ele>2312</ele>
        <time>2019-04-13T10:49:30.009Z</time>
      </trkpt>
      <trkpt lat="45.17672" lon="5.98033">
        <ele>2316</ele>
        <time>2019-04-13T10:49:39.009Z</time>
      </trkpt>
      <trkpt lat="45.17665" lon="5.98033">
        <ele>2318</ele>
        <time>2019-04-13T10:49:49.009Z</time>
      </trkpt>
      <trkpt lat="45.17658" lon="5.98039">
        <ele>2319</ele>
        <time>2019-04-13T10:50:07.009Z</time>
      </trkpt>
      <trkpt lat="45.17652" lon="5.98042">
        <ele>2319</ele>
        <time>2019-04-13T10:50:16.009Z</time>
      </trkpt>
      <trkpt lat="45.17647" lon="5.98047">
        <ele>2320</ele>
        <time>2019-04-13T10:50:22.009Z</time>
      </trkpt>
      <trkpt lat="45.17641" lon="5.98053">
        <ele>2320</ele>
        <time>2019-04-13T10:50:30.009Z</time>
      </trkpt>
      <trkpt lat="45.17637" lon="5.98058">
        <ele>2320</ele>
        <time>2019-04-13T10:50:35.009Z</time>
      </trkpt>
      <trkpt lat="45.17634" lon="5.98064">
        <ele>2320</ele>
        <time>2019-04-13T10:50:40.009Z</time>
      </trkpt>
      <trkpt lat="45.1763" lon="5.98071">
        <ele>2320</ele>
        <time>2019-04-13T10:50:45.009Z</time>
      </trkpt>
      <trkpt lat="45.17627" lon="5.98077">
        <ele>2320</ele>
        <time>2019-04-13T10:50:50.009Z</time>
      </trkpt>
      <trkpt lat="45.17623" lon="5.98081">
        <ele>2320</ele>
        <time>2019-04-13T10:50:54.009Z</time>
      </trkpt>
      <trkpt lat="45.17621" lon="5.98086">
        <ele>2320</ele>
        <time>2019-04-13T10:50:58.009Z</time>
      </trkpt>
      <trkpt lat="45.17617" lon="5.98091">
        <ele>2320</ele>
        <time>2019-04-13T10:51:04.009Z</time>
      </trkpt>
      <trkpt lat="45.17613" lon="5.98095">
        <ele>2320</ele>
        <time>2019-04-13T10:51:09.009Z</time>
      </trkpt>
      <trkpt lat="45.17607" lon="5.981">
        <ele>2322</ele>
        <time>2019-04-13T10:51:15.009Z</time>
      </trkpt>
      <trkpt lat="45.17601" lon="5.98105">
        <ele>2323</ele>
        <time>2019-04-13T10:51:23.009Z</time>
      </trkpt>
      <trkpt lat="45.17597" lon="5.98109">
        <ele>2323</ele>
        <time>2019-04-13T10:51:28.009Z</time>
      </trkpt>
      <trkpt lat="45.17591" lon="5.98112">
        <ele>2324</ele>
        <time>2019-04-13T10:51:34.009Z</time>
      </trkpt>
      <trkpt lat="45.17588" lon="5.98114">
        <ele>2324</ele>
        <time>2019-04-13T10:51:38.009Z</time>
      </trkpt>
      <trkpt lat="45.17583" lon="5.98117">
        <ele>2325</ele>
        <time>2019-04-13T10:51:43.009Z</time>
      </trkpt>
      <trkpt lat="45.17579" lon="5.98119">
        <ele>2325</ele>
        <time>2019-04-13T10:51:48.009Z</time>
      </trkpt>
      <trkpt lat="45.17575" lon="5.98121">
        <ele>2326</ele>
        <time>2019-04-13T10:51:52.009Z</time>
      </trkpt>
      <trkpt lat="45.17571" lon="5.98122">
        <ele>2326</ele>
        <time>2019-04-13T10:51:57.009Z</time>
      </trkpt>
      <trkpt lat="45.17566" lon="5.98123">
        <ele>2328</ele>
        <time>2019-04-13T10:52:02.009Z</time>
      </trkpt>
      <trkpt lat="45.17562" lon="5.98125">
        <ele>2328</ele>
        <time>2019-04-13T10:52:07.009Z</time>
      </trkpt>
      <trkpt lat="45.17559" lon="5.98126">
        <ele>2328.2889984</ele>
        <time>2019-04-13T10:52:11.009Z</time>
      </trkpt>
      <trkpt lat="45.17554" lon="5.98128">
        <ele>2329</ele>
        <time>2019-04-13T10:52:16.009Z</time>
      </trkpt>
      <trkpt lat="45.17549" lon="5.9813">
        <ele>2330</ele>
        <time>2019-04-13T10:52:23.009Z</time>
      </trkpt>
      <trkpt lat="45.17541" lon="5.98131">
        <ele>2332</ele>
        <time>2019-04-13T10:52:32.009Z</time>
      </trkpt>
      <trkpt lat="45.17533" lon="5.98134">
        <ele>2332.5779968</ele>
        <time>2019-04-13T10:52:41.009Z</time>
      </trkpt>
      <trkpt lat="45.17527" lon="5.98136">
        <ele>2334</ele>
        <time>2019-04-13T10:52:50.009Z</time>
      </trkpt>
      <trkpt lat="45.1752" lon="5.98139">
        <ele>2337</ele>
        <time>2019-04-13T10:53:00.009Z</time>
      </trkpt>
      <trkpt lat="45.17513" lon="5.98144">
        <ele>2338</ele>
        <time>2019-04-13T10:53:10.009Z</time>
      </trkpt>
      <trkpt lat="45.17505" lon="5.98147">
        <ele>2340.2889984</ele>
        <time>2019-04-13T10:53:21.009Z</time>
      </trkpt>
      <trkpt lat="45.17495" lon="5.98151">
        <ele>2341.5779968</ele>
        <time>2019-04-13T10:53:31.009Z</time>
      </trkpt>
      <trkpt lat="45.17486" lon="5.98155">
        <ele>2345.5779968</ele>
        <time>2019-04-13T10:53:46.009Z</time>
      </trkpt>
      <trkpt lat="45.17478" lon="5.98158">
        <ele>2348</ele>
        <time>2019-04-13T10:53:57.009Z</time>
      </trkpt>
      <trkpt lat="45.17473" lon="5.98158">
        <ele>2349</ele>
        <time>2019-04-13T10:54:04.009Z</time>
      </trkpt>
      <trkpt lat="45.17468" lon="5.98159">
        <ele>2350</ele>
        <time>2019-04-13T10:54:10.009Z</time>
      </trkpt>
      <trkpt lat="45.17463" lon="5.98161">
        <ele>2352.5779968</ele>
        <time>2019-04-13T10:54:16.009Z</time>
      </trkpt>
      <trkpt lat="45.17456" lon="5.98166">
        <ele>2355.2889984</ele>
        <time>2019-04-13T10:54:26.009Z</time>
      </trkpt>
      <trkpt lat="45.17451" lon="5.98168">
        <ele>2356.2889984</ele>
        <time>2019-04-13T10:54:31.009Z</time>
      </trkpt>
      <trkpt lat="45.17441" lon="5.9817">
        <ele>2358</ele>
        <time>2019-04-13T10:54:50.009Z</time>
      </trkpt>
      <trkpt lat="45.17432" lon="5.9817">
        <ele>2363</ele>
        <time>2019-04-13T10:55:04.009Z</time>
      </trkpt>
      <trkpt lat="45.17421" lon="5.98171">
        <ele>2364</ele>
        <time>2019-04-13T10:55:17.009Z</time>
      </trkpt>
      <trkpt lat="45.17419" lon="5.98162">
        <ele>2368</ele>
        <time>2019-04-13T10:55:30.009Z</time>
      </trkpt>
      <trkpt lat="45.1742" lon="5.98154">
        <ele>2370</ele>
        <time>2019-04-13T10:55:39.009Z</time>
      </trkpt>
      <trkpt lat="45.17419" lon="5.98148">
        <ele>2370</ele>
        <time>2019-04-13T10:55:46.009Z</time>
      </trkpt>
      <trkpt lat="45.17415" lon="5.98134">
        <ele>2370</ele>
        <time>2019-04-13T10:56:00.009Z</time>
      </trkpt>
      <trkpt lat="45.17411" lon="5.98121">
        <ele>2375</ele>
        <time>2019-04-13T10:56:13.009Z</time>
      </trkpt>
      <trkpt lat="45.1741" lon="5.98107">
        <ele>2376</ele>
        <time>2019-04-13T10:56:27.009Z</time>
      </trkpt>
      <trkpt lat="45.17408" lon="5.98094">
        <ele>2381</ele>
        <time>2019-04-13T10:56:42.009Z</time>
      </trkpt>
      <trkpt lat="45.17399" lon="5.98101">
        <ele>2385</ele>
        <time>2019-04-13T10:57:12.009Z</time>
      </trkpt>
      <trkpt lat="45.1739" lon="5.98108">
        <ele>2386</ele>
        <time>2019-04-13T10:57:27.009Z</time>
      </trkpt>
      <trkpt lat="45.1738" lon="5.98115">
        <ele>2389</ele>
        <time>2019-04-13T10:57:41.009Z</time>
      </trkpt>
      <trkpt lat="45.17371" lon="5.98122">
        <ele>2392</ele>
        <time>2019-04-13T10:57:59.009Z</time>
      </trkpt>
      <trkpt lat="45.1738" lon="5.98115">
        <ele>2394</ele>
        <time>2019-04-13T10:58:10.009Z</time>
      </trkpt>
      <trkpt lat="45.17386" lon="5.98103">
        <ele>2396</ele>
        <time>2019-04-13T10:58:23.009Z</time>
      </trkpt>
      <trkpt lat="45.17387" lon="5.9809">
        <ele>2399</ele>
        <time>2019-04-13T10:58:40.009Z</time>
      </trkpt>
      <trkpt lat="45.17378" lon="5.98096">
        <ele>2406.2889984</ele>
        <time>2019-04-13T10:59:26.009Z</time>
      </trkpt>
      <trkpt lat="45.17381" lon="5.98082">
        <ele>2410.2889984</ele>
        <time>2019-04-13T10:59:51.009Z</time>
      </trkpt>
      <trkpt lat="45.17371" lon="5.98082">
        <ele>2416</ele>
        <time>2019-04-13T11:00:35.009Z</time>
      </trkpt>
      <trkpt lat="45.17371" lon="5.98068">
        <ele>2420</ele>
        <time>2019-04-13T11:01:02.009Z</time>
      </trkpt>
      <trkpt lat="45.1736" lon="5.98064">
        <ele>2424</ele>
        <time>2019-04-13T11:01:40.009Z</time>
      </trkpt>
      <trkpt lat="45.1736" lon="5.9805">
        <ele>2430</ele>
        <time>2019-04-13T11:02:03.009Z</time>
      </trkpt>
      <trkpt lat="45.17357" lon="5.98041">
        <ele>2431</ele>
        <time>2019-04-13T11:02:18.009Z</time>
      </trkpt>
      <trkpt lat="45.17353" lon="5.98035">
        <ele>2433</ele>
        <time>2019-04-13T11:02:27.009Z</time>
      </trkpt>
      <trkpt lat="45.1735" lon="5.98028">
        <ele>2437</ele>
        <time>2019-04-13T11:02:38.009Z</time>
      </trkpt>
      <trkpt lat="45.17346" lon="5.98021">
        <ele>2438.2889984</ele>
        <time>2019-04-13T11:02:46.009Z</time>
      </trkpt>
      <trkpt lat="45.17343" lon="5.98013">
        <ele>2439</ele>
        <time>2019-04-13T11:02:58.009Z</time>
      </trkpt>
      <trkpt lat="45.17338" lon="5.98001">
        <ele>2443</ele>
        <time>2019-04-13T11:03:13.009Z</time>
      </trkpt>
      <trkpt lat="45.17329" lon="5.9801">
        <ele>2444.5779968</ele>
        <time>2019-04-13T11:03:31.009Z</time>
      </trkpt>
      <trkpt lat="45.17322" lon="5.98021">
        <ele>2449</ele>
        <time>2019-04-13T11:03:49.009Z</time>
      </trkpt>
      <trkpt lat="45.17316" lon="5.98015">
        <ele>2454</ele>
        <time>2019-04-13T11:04:16.009Z</time>
      </trkpt>
      <trkpt lat="45.17314" lon="5.98004">
        <ele>2455</ele>
        <time>2019-04-13T11:04:27.009Z</time>
      </trkpt>
      <trkpt lat="45.17313" lon="5.97991">
        <ele>2459</ele>
        <time>2019-04-13T11:04:42.009Z</time>
      </trkpt>
      <trkpt lat="45.17312" lon="5.97981">
        <ele>2460</ele>
        <time>2019-04-13T11:04:54.009Z</time>
      </trkpt>
      <trkpt lat="45.17304" lon="5.97989">
        <ele>2463</ele>
        <time>2019-04-13T11:05:20.009Z</time>
      </trkpt>
      <trkpt lat="45.17299" lon="5.98001">
        <ele>2466</ele>
        <time>2019-04-13T11:05:35.009Z</time>
      </trkpt>
      <trkpt lat="45.17294" lon="5.97988">
        <ele>2470.5779968</ele>
        <time>2019-04-13T11:06:11.009Z</time>
      </trkpt>
      <trkpt lat="45.17292" lon="5.97974">
        <ele>2475</ele>
        <time>2019-04-13T11:06:29.009Z</time>
      </trkpt>
      <trkpt lat="45.17286" lon="5.97985">
        <ele>2478</ele>
        <time>2019-04-13T11:06:52.009Z</time>
      </trkpt>
      <trkpt lat="45.17281" lon="5.97997">
        <ele>2479</ele>
        <time>2019-04-13T11:07:06.009Z</time>
      </trkpt>
      <trkpt lat="45.17274" lon="5.97986">
        <ele>2485</ele>
        <time>2019-04-13T11:07:39.009Z</time>
      </trkpt>
      <trkpt lat="45.17271" lon="5.97975">
        <ele>2487.5779968</ele>
        <time>2019-04-13T11:07:56.009Z</time>
      </trkpt>
      <trkpt lat="45.17267" lon="5.97961">
        <ele>2491</ele>
        <time>2019-04-13T11:08:14.009Z</time>
      </trkpt>
      <trkpt lat="45.17259" lon="5.97969">
        <ele>2493</ele>
        <time>2019-04-13T11:08:40.009Z</time>
      </trkpt>
      <trkpt lat="45.17254" lon="5.97983">
        <ele>2497</ele>
        <time>2019-04-13T11:08:57.009Z</time>
      </trkpt>
      <trkpt lat="45.17249" lon="5.97995">
        <ele>2500</ele>
        <time>2019-04-13T11:09:14.009Z</time>
      </trkpt>
      <trkpt lat="45.17246" lon="5.98009">
        <ele>2501.2889984</ele>
        <time>2019-04-13T11:09:31.009Z</time>
      </trkpt>
      <trkpt lat="45.17242" lon="5.98023">
        <ele>2504</ele>
        <time>2019-04-13T11:09:53.009Z</time>
      </trkpt>
      <trkpt lat="45.17238" lon="5.98037">
        <ele>2507.2889984</ele>
        <time>2019-04-13T11:10:11.009Z</time>
      </trkpt>
      <trkpt lat="45.1723" lon="5.98032">
        <ele>2510</ele>
        <time>2019-04-13T11:10:24.009Z</time>
      </trkpt>
      <trkpt lat="45.17225" lon="5.9802">
        <ele>2511</ele>
        <time>2019-04-13T11:10:39.009Z</time>
      </trkpt>
      <trkpt lat="45.17224" lon="5.9801">
        <ele>2514</ele>
        <time>2019-04-13T11:10:50.009Z</time>
      </trkpt>
      <trkpt lat="45.17218" lon="5.97998">
        <ele>2518</ele>
        <time>2019-04-13T11:11:05.009Z</time>
      </trkpt>
      <trkpt lat="45.17212" lon="5.97989">
        <ele>2519</ele>
        <time>2019-04-13T11:11:19.009Z</time>
      </trkpt>
      <trkpt lat="45.17202" lon="5.97986">
        <ele>2522</ele>
        <time>2019-04-13T11:11:37.009Z</time>
      </trkpt>
      <trkpt lat="45.17193" lon="5.9799">
        <ele>2523</ele>
        <time>2019-04-13T11:11:50.009Z</time>
      </trkpt>
      <trkpt lat="45.17185" lon="5.97995">
        <ele>2526</ele>
        <time>2019-04-13T11:12:02.009Z</time>
      </trkpt>
      <trkpt lat="45.17176" lon="5.98">
        <ele>2529</ele>
        <time>2019-04-13T11:12:18.009Z</time>
      </trkpt>
      <trkpt lat="45.17169" lon="5.9801">
        <ele>2531</ele>
        <time>2019-04-13T11:12:36.009Z</time>
      </trkpt>
      <trkpt lat="45.17162" lon="5.98021">
        <ele>2534.2889984</ele>
        <time>2019-04-13T11:12:51.009Z</time>
      </trkpt>
      <trkpt lat="45.17155" lon="5.98011">
        <ele>2537</ele>
        <time>2019-04-13T11:13:14.009Z</time>
      </trkpt>
      <trkpt lat="45.17151" lon="5.97997">
        <ele>2539.5779968</ele>
        <time>2019-04-13T11:13:31.009Z</time>
      </trkpt>
      <trkpt lat="45.17148" lon="5.97983">
        <ele>2545</ele>
        <time>2019-04-13T11:13:48.009Z</time>
      </trkpt>
      <trkpt lat="45.17148" lon="5.97976">
        <ele>2545.2889984</ele>
        <time>2019-04-13T11:13:56.009Z</time>
      </trkpt>
      <trkpt lat="45.17145" lon="5.97983">
        <ele>2546</ele>
        <time>2019-04-13T11:14:10.009Z</time>
      </trkpt>
      <trkpt lat="45.1714" lon="5.97996">
        <ele>2548</ele>
        <time>2019-04-13T11:14:29.009Z</time>
      </trkpt>
      <trkpt lat="45.17137" lon="5.9801">
        <ele>2552</ele>
        <time>2019-04-13T11:14:47.009Z</time>
      </trkpt>
      <trkpt lat="45.1713" lon="5.98014">
        <ele>2555</ele>
        <time>2019-04-13T11:15:03.009Z</time>
      </trkpt>
      <trkpt lat="45.17124" lon="5.98003">
        <ele>2557.2889984</ele>
        <time>2019-04-13T11:15:21.009Z</time>
      </trkpt>
      <trkpt lat="45.17119" lon="5.98016">
        <ele>2560</ele>
        <time>2019-04-13T11:15:48.009Z</time>
      </trkpt>
      <trkpt lat="45.17117" lon="5.9803">
        <ele>2563</ele>
        <time>2019-04-13T11:16:15.009Z</time>
      </trkpt>
      <trkpt lat="45.17111" lon="5.98042">
        <ele>2567</ele>
        <time>2019-04-13T11:16:33.009Z</time>
      </trkpt>
      <trkpt lat="45.17102" lon="5.9805">
        <ele>2570</ele>
        <time>2019-04-13T11:16:49.009Z</time>
      </trkpt>
      <trkpt lat="45.17092" lon="5.98046">
        <ele>2575</ele>
        <time>2019-04-13T11:17:17.009Z</time>
      </trkpt>
      <trkpt lat="45.17083" lon="5.98052">
        <ele>2578</ele>
        <time>2019-04-13T11:17:56.009Z</time>
      </trkpt>
      <trkpt lat="45.17074" lon="5.98046">
        <ele>2584</ele>
        <time>2019-04-13T11:18:25.009Z</time>
      </trkpt>
      <trkpt lat="45.17066" lon="5.98039">
        <ele>2587</ele>
        <time>2019-04-13T11:18:44.009Z</time>
      </trkpt>
      <trkpt lat="45.1706" lon="5.98045">
        <ele>2588</ele>
        <time>2019-04-13T11:18:53.009Z</time>
      </trkpt>
      <trkpt lat="45.17051" lon="5.98045">
        <ele>2590.2889984</ele>
        <time>2019-04-13T11:19:06.009Z</time>
      </trkpt>
      <trkpt lat="45.17045" lon="5.98035">
        <ele>2591.5779968</ele>
        <time>2019-04-13T11:19:21.009Z</time>
      </trkpt>
      <trkpt lat="45.17041" lon="5.98024">
        <ele>2596</ele>
        <time>2019-04-13T11:19:33.009Z</time>
      </trkpt>
      <trkpt lat="45.17036" lon="5.98014">
        <ele>2597</ele>
        <time>2019-04-13T11:19:45.009Z</time>
      </trkpt>
      <trkpt lat="45.17032" lon="5.98007">
        <ele>2600</ele>
        <time>2019-04-13T11:19:54.009Z</time>
      </trkpt>
      <trkpt lat="45.17029" lon="5.98002">
        <ele>2601.2889984</ele>
        <time>2019-04-13T11:20:01.009Z</time>
      </trkpt>
      <trkpt lat="45.17026" lon="5.97995">
        <ele>2602</ele>
        <time>2019-04-13T11:20:09.009Z</time>
      </trkpt>
      <trkpt lat="45.17025" lon="5.97985">
        <ele>2605</ele>
        <time>2019-04-13T11:20:25.009Z</time>
      </trkpt>
      <trkpt lat="45.17017" lon="5.97977">
        <ele>2606</ele>
        <time>2019-04-13T11:20:40.009Z</time>
      </trkpt>
      <trkpt lat="45.17012" lon="5.97969">
        <ele>2607</ele>
        <time>2019-04-13T11:20:50.009Z</time>
      </trkpt>
      <trkpt lat="45.17009" lon="5.97961">
        <ele>2610</ele>
        <time>2019-04-13T11:20:59.009Z</time>
      </trkpt>
      <trkpt lat="45.17007" lon="5.97956">
        <ele>2612</ele>
        <time>2019-04-13T11:21:04.009Z</time>
      </trkpt>
      <trkpt lat="45.17005" lon="5.97952">
        <ele>2613</ele>
        <time>2019-04-13T11:21:09.009Z</time>
      </trkpt>
      <trkpt lat="45.17001" lon="5.97949">
        <ele>2613</ele>
        <time>2019-04-13T11:21:18.009Z</time>
      </trkpt>
      <trkpt lat="45.17" lon="5.97943">
        <ele>2615</ele>
        <time>2019-04-13T11:21:25.009Z</time>
      </trkpt>
      <trkpt lat="45.16997" lon="5.97941">
        <ele>2617</ele>
        <time>2019-04-13T11:21:30.009Z</time>
      </trkpt>
      <trkpt lat="45.16994" lon="5.97938">
        <ele>2618</ele>
        <time>2019-04-13T11:21:37.009Z</time>
      </trkpt>
      <trkpt lat="45.16991" lon="5.97934">
        <ele>2618</ele>
        <time>2019-04-13T11:21:55.009Z</time>
      </trkpt>
      <trkpt lat="45.16987" lon="5.9793">
        <ele>2620</ele>
        <time>2019-04-13T11:22:02.009Z</time>
      </trkpt>
      <trkpt lat="45.16985" lon="5.97927">
        <ele>2621</ele>
        <time>2019-04-13T11:22:08.009Z</time>
      </trkpt>
      <trkpt lat="45.16985" lon="5.97919">
        <ele>2624</ele>
        <time>2019-04-13T11:22:19.009Z</time>
      </trkpt>
      <trkpt lat="45.16986" lon="5.97913">
        <ele>2626</ele>
        <time>2019-04-13T11:22:32.009Z</time>
      </trkpt>
      <trkpt lat="45.16981" lon="5.97908">
        <ele>2627</ele>
        <time>2019-04-13T11:22:43.009Z</time>
      </trkpt>
      <trkpt lat="45.16978" lon="5.97905">
        <ele>2627</ele>
        <time>2019-04-13T11:22:49.009Z</time>
      </trkpt>
      <trkpt lat="45.1698" lon="5.97896">
        <ele>2629.5779968</ele>
        <time>2019-04-13T11:22:56.009Z</time>
      </trkpt>
      <trkpt lat="45.1698" lon="5.97891">
        <ele>2631</ele>
        <time>2019-04-13T11:23:01.009Z</time>
      </trkpt>
      <trkpt lat="45.16981" lon="5.97887">
        <ele>2631.2889984</ele>
        <time>2019-04-13T11:23:06.009Z</time>
      </trkpt>
      <trkpt lat="45.16979" lon="5.97883">
        <ele>2633.2889984</ele>
        <time>2019-04-13T11:23:16.009Z</time>
      </trkpt>
      <trkpt lat="45.16974" lon="5.97878">
        <ele>2634</ele>
        <time>2019-04-13T11:23:28.009Z</time>
      </trkpt>
      <trkpt lat="45.16967" lon="5.97877">
        <ele>2638</ele>
        <time>2019-04-13T11:23:37.009Z</time>
      </trkpt>
      <trkpt lat="45.16969" lon="5.97869">
        <ele>2640</ele>
        <time>2019-04-13T11:23:44.009Z</time>
      </trkpt>
      <trkpt lat="45.16971" lon="5.97866">
        <ele>2640</ele>
        <time>2019-04-13T11:23:51.009Z</time>
      </trkpt>
      <trkpt lat="45.16974" lon="5.97864">
        <ele>2640</ele>
        <time>2019-04-13T11:23:57.009Z</time>
      </trkpt>
      <trkpt lat="45.16977" lon="5.97863">
        <ele>2642</ele>
        <time>2019-04-13T11:24:04.009Z</time>
      </trkpt>
      <trkpt lat="45.1698" lon="5.97861">
        <ele>2643</ele>
        <time>2019-04-13T11:24:09.009Z</time>
      </trkpt>
      <trkpt lat="45.16983" lon="5.97858">
        <ele>2644</ele>
        <time>2019-04-13T11:24:13.009Z</time>
      </trkpt>
      <trkpt lat="45.16985" lon="5.97854">
        <ele>2645</ele>
        <time>2019-04-13T11:24:19.009Z</time>
      </trkpt>
      <trkpt lat="45.16985" lon="5.97849">
        <ele>2646</ele>
        <time>2019-04-13T11:24:24.009Z</time>
      </trkpt>
      <trkpt lat="45.16982" lon="5.97842">
        <ele>2648</ele>
        <time>2019-04-13T11:24:35.009Z</time>
      </trkpt>
      <trkpt lat="45.16979" lon="5.97836">
        <ele>2650</ele>
        <time>2019-04-13T11:24:42.009Z</time>
      </trkpt>
      <trkpt lat="45.16975" lon="5.97829">
        <ele>2650</ele>
        <time>2019-04-13T11:24:50.009Z</time>
      </trkpt>
      <trkpt lat="45.1697" lon="5.97828">
        <ele>2650</ele>
        <time>2019-04-13T11:24:56.009Z</time>
      </trkpt>
      <trkpt lat="45.16965" lon="5.97833">
        <ele>2651</ele>
        <time>2019-04-13T11:25:47.009Z</time>
      </trkpt>
      <trkpt lat="45.16961" lon="5.97836">
        <ele>2650</ele>
        <time>2019-04-13T11:26:15.009Z</time>
      </trkpt>
      <trkpt lat="45.16963" lon="5.97833">
        <ele>2650</ele>
        <time>2019-04-13T11:26:27.009Z</time>
      </trkpt>
      <trkpt lat="45.16965" lon="5.97829">
        <ele>2651</ele>
        <time>2019-04-13T11:26:34.009Z</time>
      </trkpt>
      <trkpt lat="45.16965" lon="5.97823">
        <ele>2651</ele>
        <time>2019-04-13T11:26:39.009Z</time>
      </trkpt>
      <trkpt lat="45.16965" lon="5.97816">
        <ele>2652</ele>
        <time>2019-04-13T11:26:44.009Z</time>
      </trkpt>
      <trkpt lat="45.16965" lon="5.97808">
        <ele>2652</ele>
        <time>2019-04-13T11:26:49.009Z</time>
      </trkpt>
      <trkpt lat="45.16964" lon="5.978">
        <ele>2652</ele>
        <time>2019-04-13T11:26:55.009Z</time>
      </trkpt>
      <trkpt lat="45.16962" lon="5.97796">
        <ele>2652</ele>
        <time>2019-04-13T11:26:58.009Z</time>
      </trkpt>
      <trkpt lat="45.16961" lon="5.97788">
        <ele>2652</ele>
        <time>2019-04-13T11:27:04.009Z</time>
      </trkpt>
      <trkpt lat="45.1696" lon="5.97784">
        <ele>2652</ele>
        <time>2019-04-13T11:27:07.009Z</time>
      </trkpt>
      <trkpt lat="45.1696" lon="5.97776">
        <ele>2652</ele>
        <time>2019-04-13T11:27:12.009Z</time>
      </trkpt>
      <trkpt lat="45.16959" lon="5.97769">
        <ele>2652</ele>
        <time>2019-04-13T11:27:17.009Z</time>
      </trkpt>
      <trkpt lat="45.16957" lon="5.97765">
        <ele>2653</ele>
        <time>2019-04-13T11:27:22.009Z</time>
      </trkpt>
      <trkpt lat="45.16955" lon="5.97762">
        <ele>2653</ele>
        <time>2019-04-13T11:27:25.009Z</time>
      </trkpt>
      <trkpt lat="45.16953" lon="5.97759">
        <ele>2653</ele>
        <time>2019-04-13T11:27:28.009Z</time>
      </trkpt>
      <trkpt lat="45.16952" lon="5.97756">
        <ele>2653.2889984</ele>
        <time>2019-04-13T11:27:31.009Z</time>
      </trkpt>
      <trkpt lat="45.1695" lon="5.97753">
        <ele>2654</ele>
        <time>2019-04-13T11:27:34.009Z</time>
      </trkpt>
      <trkpt lat="45.16949" lon="5.97749">
        <ele>2654</ele>
        <time>2019-04-13T11:27:37.009Z</time>
      </trkpt>
      <trkpt lat="45.16947" lon="5.97743">
        <ele>2654</ele>
        <time>2019-04-13T11:27:42.009Z</time>
      </trkpt>
      <trkpt lat="45.16945" lon="5.9774">
        <ele>2654</ele>
        <time>2019-04-13T11:27:45.009Z</time>
      </trkpt>
      <trkpt lat="45.16943" lon="5.97735">
        <ele>2654</ele>
        <time>2019-04-13T11:27:50.009Z</time>
      </trkpt>
      <trkpt lat="45.16941" lon="5.97731">
        <ele>2655</ele>
        <time>2019-04-13T11:27:53.009Z</time>
      </trkpt>
      <trkpt lat="45.16938" lon="5.97727">
        <ele>2655</ele>
        <time>2019-04-13T11:27:57.009Z</time>
      </trkpt>
      <trkpt lat="45.16936" lon="5.97723">
        <ele>2655</ele>
        <time>2019-04-13T11:28:01.009Z</time>
      </trkpt>
      <trkpt lat="45.16934" lon="5.9772">
        <ele>2655</ele>
        <time>2019-04-13T11:28:05.009Z</time>
      </trkpt>
      <trkpt lat="45.16931" lon="5.97715">
        <ele>2655</ele>
        <time>2019-04-13T11:28:09.009Z</time>
      </trkpt>
      <trkpt lat="45.16929" lon="5.97712">
        <ele>2655</ele>
        <time>2019-04-13T11:28:12.009Z</time>
      </trkpt>
      <trkpt lat="45.16927" lon="5.97708">
        <ele>2655</ele>
        <time>2019-04-13T11:28:16.009Z</time>
      </trkpt>
      <trkpt lat="45.16926" lon="5.97705">
        <ele>2655</ele>
        <time>2019-04-13T11:28:19.009Z</time>
      </trkpt>
      <trkpt lat="45.16925" lon="5.97701">
        <ele>2656</ele>
        <time>2019-04-13T11:28:22.009Z</time>
      </trkpt>
      <trkpt lat="45.16923" lon="5.97697">
        <ele>2656</ele>
        <time>2019-04-13T11:28:26.009Z</time>
      </trkpt>
      <trkpt lat="45.16921" lon="5.97696">
        <ele>2656</ele>
        <time>2019-04-13T11:28:30.009Z</time>
      </trkpt>
      <trkpt lat="45.16921" lon="5.97693">
        <ele>2657</ele>
        <time>2019-04-13T11:28:43.009Z</time>
      </trkpt>
      <trkpt lat="45.1692" lon="5.9769">
        <ele>2657</ele>
        <time>2019-04-13T11:28:48.009Z</time>
      </trkpt>
      <trkpt lat="45.1692" lon="5.97688">
        <ele>2658</ele>
        <time>2019-04-13T11:28:52.009Z</time>
      </trkpt>
      <trkpt lat="45.16921" lon="5.97685">
        <ele>2658</ele>
        <time>2019-04-13T11:28:56.009Z</time>
      </trkpt>
      <trkpt lat="45.16922" lon="5.97683">
        <ele>2658</ele>
        <time>2019-04-13T11:28:57.009Z</time>
      </trkpt>
      <trkpt lat="45.16924" lon="5.9768">
        <ele>2658</ele>
        <time>2019-04-13T11:28:58.009Z</time>
      </trkpt>
      <trkpt lat="45.16925" lon="5.97678">
        <ele>2658</ele>
        <time>2019-04-13T11:28:59.009Z</time>
      </trkpt>
      <trkpt lat="45.16923" lon="5.9768">
        <ele>2656</ele>
        <time>2019-04-13T11:29:28.009Z</time>
      </trkpt>
      <trkpt lat="45.16923" lon="5.97683">
        <ele>2656</ele>
        <time>2019-04-13T11:30:08.009Z</time>
      </trkpt>
      <trkpt lat="45.16921" lon="5.97684">
        <ele>2654</ele>
        <time>2019-04-13T11:30:37.009Z</time>
      </trkpt>
      <trkpt lat="45.16919" lon="5.97682">
        <ele>2651</ele>
        <time>2019-04-13T11:33:48.009Z</time>
      </trkpt>
      <trkpt lat="45.1692" lon="5.97678">
        <ele>2649</ele>
        <time>2019-04-13T11:34:58.009Z</time>
      </trkpt>
      <trkpt lat="45.16922" lon="5.97675">
        <ele>2648</ele>
        <time>2019-04-13T11:35:06.009Z</time>
      </trkpt>
      <trkpt lat="45.16921" lon="5.97673">
        <ele>2648.2889984</ele>
        <time>2019-04-13T11:36:01.009Z</time>
      </trkpt>
      <trkpt lat="45.1692" lon="5.97672">
        <ele>2649</ele>
        <time>2019-04-13T11:37:37.009Z</time>
      </trkpt>
      <trkpt lat="45.1692" lon="5.97668">
        <ele>2649</ele>
        <time>2019-04-13T11:37:38.009Z</time>
      </trkpt>
      <trkpt lat="45.1692" lon="5.97661">
        <ele>2649</ele>
        <time>2019-04-13T11:37:39.009Z</time>
      </trkpt>
      <trkpt lat="45.16922" lon="5.97653">
        <ele>2649</ele>
        <time>2019-04-13T11:37:40.009Z</time>
      </trkpt>
      <trkpt lat="45.16924" lon="5.97646">
        <ele>2647.8440064</ele>
        <time>2019-04-13T11:37:41.009Z</time>
      </trkpt>
      <trkpt lat="45.16924" lon="5.97636">
        <ele>2645</ele>
        <time>2019-04-13T11:37:43.009Z</time>
      </trkpt>
      <trkpt lat="45.16917" lon="5.97628">
        <ele>2645</ele>
        <time>2019-04-13T11:37:45.009Z</time>
      </trkpt>
      <trkpt lat="45.16912" lon="5.97624">
        <ele>2642.6880128</ele>
        <time>2019-04-13T11:37:46.009Z</time>
      </trkpt>
      <trkpt lat="45.16903" lon="5.9762">
        <ele>2637</ele>
        <time>2019-04-13T11:37:48.009Z</time>
      </trkpt>
      <trkpt lat="45.16894" lon="5.97612">
        <ele>2637</ele>
        <time>2019-04-13T11:37:50.009Z</time>
      </trkpt>
      <trkpt lat="45.16888" lon="5.97595">
        <ele>2621.9770112</ele>
        <time>2019-04-13T11:37:52.009Z</time>
      </trkpt>
      <trkpt lat="45.16885" lon="5.97587">
        <ele>2616.4220032</ele>
        <time>2019-04-13T11:37:53.009Z</time>
      </trkpt>
      <trkpt lat="45.16875" lon="5.97571">
        <ele>2609.2660096</ele>
        <time>2019-04-13T11:37:55.009Z</time>
      </trkpt>
      <trkpt lat="45.16867" lon="5.97566">
        <ele>2605.2889984</ele>
        <time>2019-04-13T11:37:56.009Z</time>
      </trkpt>
      <trkpt lat="45.16859" lon="5.97559">
        <ele>2604.555008</ele>
        <time>2019-04-13T11:37:57.009Z</time>
      </trkpt>
      <trkpt lat="45.16841" lon="5.97554">
        <ele>2592.2660096</ele>
        <time>2019-04-13T11:37:59.009Z</time>
      </trkpt>
      <trkpt lat="45.16823" lon="5.97546">
        <ele>2585.1330048</ele>
        <time>2019-04-13T11:38:01.009Z</time>
      </trkpt>
      <trkpt lat="45.16813" lon="5.97535">
        <ele>2582.1330048</ele>
        <time>2019-04-13T11:38:02.009Z</time>
      </trkpt>
      <trkpt lat="45.16805" lon="5.97523">
        <ele>2579.1330048</ele>
        <time>2019-04-13T11:38:03.009Z</time>
      </trkpt>
      <trkpt lat="45.16797" lon="5.97509">
        <ele>2575.8440064</ele>
        <time>2019-04-13T11:38:04.009Z</time>
      </trkpt>
      <trkpt lat="45.1679" lon="5.97499">
        <ele>2572.4220032</ele>
        <time>2019-04-13T11:38:05.009Z</time>
      </trkpt>
      <trkpt lat="45.16779" lon="5.97482">
        <ele>2565.9770112</ele>
        <time>2019-04-13T11:38:07.009Z</time>
      </trkpt>
      <trkpt lat="45.16784" lon="5.97461">
        <ele>2559.4220032</ele>
        <time>2019-04-13T11:38:09.009Z</time>
      </trkpt>
      <trkpt lat="45.16781" lon="5.97442">
        <ele>2553.7110016</ele>
        <time>2019-04-13T11:38:11.009Z</time>
      </trkpt>
      <trkpt lat="45.16782" lon="5.97427">
        <ele>2545.2660096</ele>
        <time>2019-04-13T11:38:13.009Z</time>
      </trkpt>
      <trkpt lat="45.16783" lon="5.9741">
        <ele>2538.8440064</ele>
        <time>2019-04-13T11:38:15.009Z</time>
      </trkpt>
      <trkpt lat="45.16781" lon="5.97392">
        <ele>2533.555008</ele>
        <time>2019-04-13T11:38:17.009Z</time>
      </trkpt>
      <trkpt lat="45.16775" lon="5.97368">
        <ele>2527.2889984</ele>
        <time>2019-04-13T11:38:19.009Z</time>
      </trkpt>
      <trkpt lat="45.16773" lon="5.97349">
        <ele>2529.4220032</ele>
        <time>2019-04-13T11:38:21.009Z</time>
      </trkpt>
      <trkpt lat="45.16767" lon="5.97331">
        <ele>2526.7110016</ele>
        <time>2019-04-13T11:38:23.009Z</time>
      </trkpt>
      <trkpt lat="45.16764" lon="5.97312">
        <ele>2524.7110016</ele>
        <time>2019-04-13T11:38:26.009Z</time>
      </trkpt>
      <trkpt lat="45.16762" lon="5.97297">
        <ele>2522.2889984</ele>
        <time>2019-04-13T11:38:29.009Z</time>
      </trkpt>
      <trkpt lat="45.16755" lon="5.97287">
        <ele>2521</ele>
        <time>2019-04-13T11:39:04.009Z</time>
      </trkpt>
      <trkpt lat="45.16746" lon="5.97274">
        <ele>2521</ele>
        <time>2019-04-13T11:39:06.009Z</time>
      </trkpt>
      <trkpt lat="45.16741" lon="5.97269">
        <ele>2521</ele>
        <time>2019-04-13T11:39:07.009Z</time>
      </trkpt>
      <trkpt lat="45.16731" lon="5.97255">
        <ele>2521</ele>
        <time>2019-04-13T11:39:09.009Z</time>
      </trkpt>
      <trkpt lat="45.16722" lon="5.9724">
        <ele>2516.665024</ele>
        <time>2019-04-13T11:39:11.009Z</time>
      </trkpt>
      <trkpt lat="45.16714" lon="5.97225">
        <ele>2496.555008</ele>
        <time>2019-04-13T11:39:13.009Z</time>
      </trkpt>
      <trkpt lat="45.16708" lon="5.97205">
        <ele>2489.4220032</ele>
        <time>2019-04-13T11:39:15.009Z</time>
      </trkpt>
      <trkpt lat="45.167" lon="5.97185">
        <ele>2485.5779968</ele>
        <time>2019-04-13T11:39:17.009Z</time>
      </trkpt>
      <trkpt lat="45.16696" lon="5.97163">
        <ele>2484.8440064</ele>
        <time>2019-04-13T11:39:19.009Z</time>
      </trkpt>
      <trkpt lat="45.16691" lon="5.97137">
        <ele>2481</ele>
        <time>2019-04-13T11:39:21.009Z</time>
      </trkpt>
      <trkpt lat="45.16689" lon="5.97123">
        <ele>2480.7110016</ele>
        <time>2019-04-13T11:39:22.009Z</time>
      </trkpt>
      <trkpt lat="45.16686" lon="5.97109">
        <ele>2479.7110016</ele>
        <time>2019-04-13T11:39:23.009Z</time>
      </trkpt>
      <trkpt lat="45.16681" lon="5.97096">
        <ele>2478.7110016</ele>
        <time>2019-04-13T11:39:24.009Z</time>
      </trkpt>
      <trkpt lat="45.16671" lon="5.97074">
        <ele>2477</ele>
        <time>2019-04-13T11:39:26.009Z</time>
      </trkpt>
      <trkpt lat="45.1666" lon="5.97057">
        <ele>2476.7110016</ele>
        <time>2019-04-13T11:39:28.009Z</time>
      </trkpt>
      <trkpt lat="45.16652" lon="5.97048">
        <ele>2475.2889984</ele>
        <time>2019-04-13T11:39:31.009Z</time>
      </trkpt>
      <trkpt lat="45.16644" lon="5.97047">
        <ele>2477</ele>
        <time>2019-04-13T11:39:47.009Z</time>
      </trkpt>
      <trkpt lat="45.16643" lon="5.97039">
        <ele>2475.9619291461</ele>
        <time>2019-04-13T11:41:10.009Z</time>
      </trkpt>
      <trkpt lat="45.16463" lon="5.96271">
        <ele>2408</ele>
        <time>2019-04-13T12:10:54.009Z</time>
      </trkpt>
      <trkpt lat="45.16462" lon="5.96269">
        <ele>2408</ele>
        <time>2019-04-13T12:10:55.009Z</time>
      </trkpt>
      <trkpt lat="45.16459" lon="5.96264">
        <ele>2408</ele>
        <time>2019-04-13T12:10:57.009Z</time>
      </trkpt>
      <trkpt lat="45.16456" lon="5.96259">
        <ele>2408</ele>
        <time>2019-04-13T12:10:59.009Z</time>
      </trkpt>
      <trkpt lat="45.1645" lon="5.96252">
        <ele>2407</ele>
        <time>2019-04-13T12:11:02.009Z</time>
      </trkpt>
      <trkpt lat="45.16446" lon="5.96245">
        <ele>2407</ele>
        <time>2019-04-13T12:11:06.009Z</time>
      </trkpt>
      <trkpt lat="45.16442" lon="5.96237">
        <ele>2407</ele>
        <time>2019-04-13T12:11:14.009Z</time>
      </trkpt>
      <trkpt lat="45.16438" lon="5.96229">
        <ele>2407</ele>
        <time>2019-04-13T12:11:18.009Z</time>
      </trkpt>
      <trkpt lat="45.16435" lon="5.96222">
        <ele>2406</ele>
        <time>2019-04-13T12:11:22.009Z</time>
      </trkpt>
      <trkpt lat="45.16432" lon="5.96211">
        <ele>2406</ele>
        <time>2019-04-13T12:11:28.009Z</time>
      </trkpt>
      <trkpt lat="45.16429" lon="5.96202">
        <ele>2405.7110016</ele>
        <time>2019-04-13T12:11:31.009Z</time>
      </trkpt>
      <trkpt lat="45.16427" lon="5.96195">
        <ele>2405</ele>
        <time>2019-04-13T12:11:33.009Z</time>
      </trkpt>
      <trkpt lat="45.16424" lon="5.96186">
        <ele>2405</ele>
        <time>2019-04-13T12:11:35.009Z</time>
      </trkpt>
      <trkpt lat="45.16422" lon="5.96182">
        <ele>2405</ele>
        <time>2019-04-13T12:11:36.009Z</time>
      </trkpt>
      <trkpt lat="45.1642" lon="5.96177">
        <ele>2405</ele>
        <time>2019-04-13T12:11:37.009Z</time>
      </trkpt>
      <trkpt lat="45.16418" lon="5.96172">
        <ele>2405</ele>
        <time>2019-04-13T12:11:38.009Z</time>
      </trkpt>
      <trkpt lat="45.16417" lon="5.96168">
        <ele>2405</ele>
        <time>2019-04-13T12:11:39.009Z</time>
      </trkpt>
      <trkpt lat="45.16415" lon="5.96163">
        <ele>2405</ele>
        <time>2019-04-13T12:11:40.009Z</time>
      </trkpt>
      <trkpt lat="45.16414" lon="5.96159">
        <ele>2404.7110016</ele>
        <time>2019-04-13T12:11:41.009Z</time>
      </trkpt>
      <trkpt lat="45.16412" lon="5.96155">
        <ele>2404</ele>
        <time>2019-04-13T12:11:42.009Z</time>
      </trkpt>
      <trkpt lat="45.16411" lon="5.9615">
        <ele>2404</ele>
        <time>2019-04-13T12:11:43.009Z</time>
      </trkpt>
      <trkpt lat="45.16409" lon="5.96146">
        <ele>2404</ele>
        <time>2019-04-13T12:11:44.009Z</time>
      </trkpt>
      <trkpt lat="45.16405" lon="5.96137">
        <ele>2404</ele>
        <time>2019-04-13T12:11:46.009Z</time>
      </trkpt>
      <trkpt lat="45.16403" lon="5.96132">
        <ele>2404</ele>
        <time>2019-04-13T12:11:47.009Z</time>
      </trkpt>
      <trkpt lat="45.16402" lon="5.96128">
        <ele>2404</ele>
        <time>2019-04-13T12:11:48.009Z</time>
      </trkpt>
      <trkpt lat="45.16399" lon="5.96121">
        <ele>2404</ele>
        <time>2019-04-13T12:11:50.009Z</time>
      </trkpt>
      <trkpt lat="45.16396" lon="5.96114">
        <ele>2403</ele>
        <time>2019-04-13T12:11:52.009Z</time>
      </trkpt>
      <trkpt lat="45.16393" lon="5.96106">
        <ele>2403</ele>
        <time>2019-04-13T12:11:54.009Z</time>
      </trkpt>
      <trkpt lat="45.1639" lon="5.96098">
        <ele>2403</ele>
        <time>2019-04-13T12:11:56.009Z</time>
      </trkpt>
      <trkpt lat="45.16387" lon="5.9609">
        <ele>2403</ele>
        <time>2019-04-13T12:11:58.009Z</time>
      </trkpt>
      <trkpt lat="45.16384" lon="5.96083">
        <ele>2403</ele>
        <time>2019-04-13T12:12:00.009Z</time>
      </trkpt>
      <trkpt lat="45.16382" lon="5.96076">
        <ele>2400</ele>
        <time>2019-04-13T12:12:02.009Z</time>
      </trkpt>
      <trkpt lat="45.16379" lon="5.96069">
        <ele>2400</ele>
        <time>2019-04-13T12:12:04.009Z</time>
      </trkpt>
      <trkpt lat="45.16377" lon="5.96062">
        <ele>2400</ele>
        <time>2019-04-13T12:12:06.009Z</time>
      </trkpt>
      <trkpt lat="45.16374" lon="5.96055">
        <ele>2400</ele>
        <time>2019-04-13T12:12:08.009Z</time>
      </trkpt>
      <trkpt lat="45.16371" lon="5.96046">
        <ele>2400</ele>
        <time>2019-04-13T12:12:10.009Z</time>
      </trkpt>
      <trkpt lat="45.1637" lon="5.96042">
        <ele>2399.7110016</ele>
        <time>2019-04-13T12:12:11.009Z</time>
      </trkpt>
      <trkpt lat="45.16368" lon="5.96035">
        <ele>2399</ele>
        <time>2019-04-13T12:12:13.009Z</time>
      </trkpt>
      <trkpt lat="45.16367" lon="5.96027">
        <ele>2399</ele>
        <time>2019-04-13T12:12:15.009Z</time>
      </trkpt>
      <trkpt lat="45.16366" lon="5.96023">
        <ele>2399</ele>
        <time>2019-04-13T12:12:16.009Z</time>
      </trkpt>
      <trkpt lat="45.16364" lon="5.96016">
        <ele>2399</ele>
        <time>2019-04-13T12:12:18.009Z</time>
      </trkpt>
      <trkpt lat="45.16363" lon="5.96008">
        <ele>2399</ele>
        <time>2019-04-13T12:12:20.009Z</time>
      </trkpt>
      <trkpt lat="45.16362" lon="5.96001">
        <ele>2398</ele>
        <time>2019-04-13T12:12:22.009Z</time>
      </trkpt>
      <trkpt lat="45.16361" lon="5.95994">
        <ele>2398</ele>
        <time>2019-04-13T12:12:24.009Z</time>
      </trkpt>
      <trkpt lat="45.16359" lon="5.95983">
        <ele>2398</ele>
        <time>2019-04-13T12:12:27.009Z</time>
      </trkpt>
      <trkpt lat="45.16358" lon="5.95974">
        <ele>2398</ele>
        <time>2019-04-13T12:12:30.009Z</time>
      </trkpt>
      <trkpt lat="45.16356" lon="5.95963">
        <ele>2397</ele>
        <time>2019-04-13T12:12:34.009Z</time>
      </trkpt>
      <trkpt lat="45.16354" lon="5.95951">
        <ele>2397</ele>
        <time>2019-04-13T12:12:38.009Z</time>
      </trkpt>
      <trkpt lat="45.16352" lon="5.9594">
        <ele>2396.7181811129</ele>
        <time>2019-04-13T12:12:41.009Z</time>
      </trkpt>
      <trkpt lat="45.16351" lon="5.95929">
        <ele>2396</ele>
        <time>2019-04-13T12:12:44.009Z</time>
      </trkpt>
      <trkpt lat="45.1635" lon="5.95922">
        <ele>2396</ele>
        <time>2019-04-13T12:12:46.009Z</time>
      </trkpt>
      <trkpt lat="45.16348" lon="5.95914">
        <ele>2396</ele>
        <time>2019-04-13T12:12:48.009Z</time>
      </trkpt>
      <trkpt lat="45.16347" lon="5.95905">
        <ele>2396</ele>
        <time>2019-04-13T12:12:50.009Z</time>
      </trkpt>
      <trkpt lat="45.16347" lon="5.95896">
        <ele>2394</ele>
        <time>2019-04-13T12:12:52.009Z</time>
      </trkpt>
      <trkpt lat="45.16347" lon="5.95884">
        <ele>2394</ele>
        <time>2019-04-13T12:12:54.009Z</time>
      </trkpt>
      <trkpt lat="45.16346" lon="5.95862">
        <ele>2387.7110016</ele>
        <time>2019-04-13T12:12:57.009Z</time>
      </trkpt>
      <trkpt lat="45.16348" lon="5.9585">
        <ele>2387</ele>
        <time>2019-04-13T12:12:58.009Z</time>
      </trkpt>
      <trkpt lat="45.16357" lon="5.95828">
        <ele>2387</ele>
        <time>2019-04-13T12:13:00.009Z</time>
      </trkpt>
      <trkpt lat="45.16366" lon="5.95813">
        <ele>2383</ele>
        <time>2019-04-13T12:13:02.009Z</time>
      </trkpt>
      <trkpt lat="45.16373" lon="5.95801">
        <ele>2383</ele>
        <time>2019-04-13T12:13:04.009Z</time>
      </trkpt>
      <trkpt lat="45.16383" lon="5.9579">
        <ele>2382</ele>
        <time>2019-04-13T12:13:07.009Z</time>
      </trkpt>
      <trkpt lat="45.16389" lon="5.95784">
        <ele>2381.7110016</ele>
        <time>2019-04-13T12:13:09.009Z</time>
      </trkpt>
      <trkpt lat="45.16394" lon="5.95779">
        <ele>2382</ele>
        <time>2019-04-13T12:13:11.009Z</time>
      </trkpt>
      <trkpt lat="45.164" lon="5.95774">
        <ele>2382</ele>
        <time>2019-04-13T12:13:13.009Z</time>
      </trkpt>
      <trkpt lat="45.16405" lon="5.95768">
        <ele>2382</ele>
        <time>2019-04-13T12:13:15.009Z</time>
      </trkpt>
      <trkpt lat="45.16412" lon="5.95762">
        <ele>2382</ele>
        <time>2019-04-13T12:13:17.009Z</time>
      </trkpt>
      <trkpt lat="45.16421" lon="5.95752">
        <ele>2382</ele>
        <time>2019-04-13T12:13:20.009Z</time>
      </trkpt>
      <trkpt lat="45.1643" lon="5.95742">
        <ele>2380</ele>
        <time>2019-04-13T12:13:23.009Z</time>
      </trkpt>
      <trkpt lat="45.16434" lon="5.95722">
        <ele>2379.1330048</ele>
        <time>2019-04-13T12:13:26.009Z</time>
      </trkpt>
      <trkpt lat="45.16436" lon="5.95702">
        <ele>2377</ele>
        <time>2019-04-13T12:13:28.009Z</time>
      </trkpt>
      <trkpt lat="45.16438" lon="5.95692">
        <ele>2377</ele>
        <time>2019-04-13T12:13:29.009Z</time>
      </trkpt>
      <trkpt lat="45.16442" lon="5.95669">
        <ele>2376.1330048</ele>
        <time>2019-04-13T12:13:31.009Z</time>
      </trkpt>
      <trkpt lat="45.16444" lon="5.95657">
        <ele>2373.7110016</ele>
        <time>2019-04-13T12:13:32.009Z</time>
      </trkpt>
      <trkpt lat="45.16445" lon="5.95636">
        <ele>2371</ele>
        <time>2019-04-13T12:13:34.009Z</time>
      </trkpt>
      <trkpt lat="45.16445" lon="5.95621">
        <ele>2371</ele>
        <time>2019-04-13T12:13:36.009Z</time>
      </trkpt>
      <trkpt lat="45.16445" lon="5.9561">
        <ele>2371</ele>
        <time>2019-04-13T12:13:38.009Z</time>
      </trkpt>
      <trkpt lat="45.16445" lon="5.95596">
        <ele>2371</ele>
        <time>2019-04-13T12:13:41.009Z</time>
      </trkpt>
      <trkpt lat="45.16444" lon="5.95584">
        <ele>2371</ele>
        <time>2019-04-13T12:13:44.009Z</time>
      </trkpt>
      <trkpt lat="45.16444" lon="5.95569">
        <ele>2371</ele>
        <time>2019-04-13T12:13:48.009Z</time>
      </trkpt>
      <trkpt lat="45.16445" lon="5.95556">
        <ele>2370.7110016</ele>
        <time>2019-04-13T12:13:51.009Z</time>
      </trkpt>
      <trkpt lat="45.16445" lon="5.95543">
        <ele>2370</ele>
        <time>2019-04-13T12:13:54.009Z</time>
      </trkpt>
      <trkpt lat="45.16446" lon="5.95536">
        <ele>2370</ele>
        <time>2019-04-13T12:13:56.009Z</time>
      </trkpt>
      <trkpt lat="45.16448" lon="5.95523">
        <ele>2370</ele>
        <time>2019-04-13T12:14:00.009Z</time>
      </trkpt>
      <trkpt lat="45.16451" lon="5.9551">
        <ele>2369</ele>
        <time>2019-04-13T12:14:04.009Z</time>
      </trkpt>
      <trkpt lat="45.16454" lon="5.95502">
        <ele>2369</ele>
        <time>2019-04-13T12:14:07.009Z</time>
      </trkpt>
      <trkpt lat="45.16459" lon="5.95492">
        <ele>2369</ele>
        <time>2019-04-13T12:14:13.009Z</time>
      </trkpt>
      <trkpt lat="45.16464" lon="5.95482">
        <ele>2369</ele>
        <time>2019-04-13T12:14:17.009Z</time>
      </trkpt>
      <trkpt lat="45.16468" lon="5.95471">
        <ele>2369</ele>
        <time>2019-04-13T12:14:21.009Z</time>
      </trkpt>
      <trkpt lat="45.16471" lon="5.95463">
        <ele>2369</ele>
        <time>2019-04-13T12:14:24.009Z</time>
      </trkpt>
      <trkpt lat="45.16476" lon="5.95454">
        <ele>2369</ele>
        <time>2019-04-13T12:14:28.009Z</time>
      </trkpt>
      <trkpt lat="45.1648" lon="5.95446">
        <ele>2369</ele>
        <time>2019-04-13T12:14:31.009Z</time>
      </trkpt>
      <trkpt lat="45.16484" lon="5.95439">
        <ele>2369</ele>
        <time>2019-04-13T12:14:34.009Z</time>
      </trkpt>
      <trkpt lat="45.16488" lon="5.95435">
        <ele>2369</ele>
        <time>2019-04-13T12:14:37.009Z</time>
      </trkpt>
      <trkpt lat="45.1649" lon="5.9543">
        <ele>2369</ele>
        <time>2019-04-13T12:14:43.009Z</time>
      </trkpt>
      <trkpt lat="45.16494" lon="5.95424">
        <ele>2369</ele>
        <time>2019-04-13T12:14:48.009Z</time>
      </trkpt>
      <trkpt lat="45.16498" lon="5.95419">
        <ele>2369</ele>
        <time>2019-04-13T12:14:51.009Z</time>
      </trkpt>
      <trkpt lat="45.16502" lon="5.9541">
        <ele>2369</ele>
        <time>2019-04-13T12:15:00.009Z</time>
      </trkpt>
      <trkpt lat="45.16506" lon="5.95405">
        <ele>2370</ele>
        <time>2019-04-13T12:15:06.009Z</time>
      </trkpt>
      <trkpt lat="45.16511" lon="5.95395">
        <ele>2370</ele>
        <time>2019-04-13T12:15:10.009Z</time>
      </trkpt>
      <trkpt lat="45.16518" lon="5.95383">
        <ele>2368</ele>
        <time>2019-04-13T12:15:13.009Z</time>
      </trkpt>
      <trkpt lat="45.16527" lon="5.95376">
        <ele>2367.7110016</ele>
        <time>2019-04-13T12:15:16.009Z</time>
      </trkpt>
      <trkpt lat="45.16534" lon="5.95374">
        <ele>2368</ele>
        <time>2019-04-13T12:15:27.009Z</time>
      </trkpt>
      <trkpt lat="45.16539" lon="5.95374">
        <ele>2366</ele>
        <time>2019-04-13T12:15:32.009Z</time>
      </trkpt>
      <trkpt lat="45.16541" lon="5.95368">
        <ele>2365</ele>
        <time>2019-04-13T12:16:05.009Z</time>
      </trkpt>
      <trkpt lat="45.16541" lon="5.9536">
        <ele>2365</ele>
        <time>2019-04-13T12:16:07.009Z</time>
      </trkpt>
      <trkpt lat="45.16544" lon="5.95346">
        <ele>2365</ele>
        <time>2019-04-13T12:16:10.009Z</time>
      </trkpt>
      <trkpt lat="45.16555" lon="5.95338">
        <ele>2350.9770112</ele>
        <time>2019-04-13T12:16:12.009Z</time>
      </trkpt>
      <trkpt lat="45.16567" lon="5.95329">
        <ele>2342.7110016</ele>
        <time>2019-04-13T12:16:14.009Z</time>
      </trkpt>
      <trkpt lat="45.16578" lon="5.95328">
        <ele>2340.7181811129</ele>
        <time>2019-04-13T12:16:17.009Z</time>
      </trkpt>
      <trkpt lat="45.16575" lon="5.95325">
        <ele>2340</ele>
        <time>2019-04-13T12:16:38.009Z</time>
      </trkpt>
      <trkpt lat="45.16567" lon="5.9532">
        <ele>2339</ele>
        <time>2019-04-13T12:16:46.009Z</time>
      </trkpt>
      <trkpt lat="45.16565" lon="5.95316">
        <ele>2339</ele>
        <time>2019-04-13T12:16:47.009Z</time>
      </trkpt>
      <trkpt lat="45.16565" lon="5.95295">
        <ele>2339</ele>
        <time>2019-04-13T12:16:50.009Z</time>
      </trkpt>
      <trkpt lat="45.16574" lon="5.95285">
        <ele>2326.2660096</ele>
        <time>2019-04-13T12:16:52.009Z</time>
      </trkpt>
      <trkpt lat="45.16589" lon="5.95285">
        <ele>2319.7110016</ele>
        <time>2019-04-13T12:16:54.009Z</time>
      </trkpt>
      <trkpt lat="45.16599" lon="5.95281">
        <ele>2316.1330048</ele>
        <time>2019-04-13T12:16:56.009Z</time>
      </trkpt>
      <trkpt lat="45.16608" lon="5.95268">
        <ele>2308.4220032</ele>
        <time>2019-04-13T12:16:59.009Z</time>
      </trkpt>
      <trkpt lat="45.16617" lon="5.9526">
        <ele>2304.7110016</ele>
        <time>2019-04-13T12:17:03.009Z</time>
      </trkpt>
      <trkpt lat="45.16616" lon="5.95243">
        <ele>2291.7110016</ele>
        <time>2019-04-13T12:17:11.009Z</time>
      </trkpt>
      <trkpt lat="45.16629" lon="5.95239">
        <ele>2287</ele>
        <time>2019-04-13T12:17:14.009Z</time>
      </trkpt>
      <trkpt lat="45.16639" lon="5.95235">
        <ele>2287</ele>
        <time>2019-04-13T12:17:17.009Z</time>
      </trkpt>
      <trkpt lat="45.16642" lon="5.95231">
        <ele>2286</ele>
        <time>2019-04-13T12:17:40.009Z</time>
      </trkpt>
      <trkpt lat="45.16644" lon="5.95226">
        <ele>2285.7110016</ele>
        <time>2019-04-13T12:17:41.009Z</time>
      </trkpt>
      <trkpt lat="45.16647" lon="5.95221">
        <ele>2285</ele>
        <time>2019-04-13T12:17:42.009Z</time>
      </trkpt>
      <trkpt lat="45.16649" lon="5.95216">
        <ele>2285</ele>
        <time>2019-04-13T12:17:43.009Z</time>
      </trkpt>
      <trkpt lat="45.16651" lon="5.95211">
        <ele>2285</ele>
        <time>2019-04-13T12:17:44.009Z</time>
      </trkpt>
      <trkpt lat="45.16653" lon="5.95207">
        <ele>2285</ele>
        <time>2019-04-13T12:17:45.009Z</time>
      </trkpt>
      <trkpt lat="45.16655" lon="5.95198">
        <ele>2285</ele>
        <time>2019-04-13T12:17:47.009Z</time>
      </trkpt>
      <trkpt lat="45.16655" lon="5.95194">
        <ele>2285</ele>
        <time>2019-04-13T12:17:48.009Z</time>
      </trkpt>
      <trkpt lat="45.16655" lon="5.95188">
        <ele>2285</ele>
        <time>2019-04-13T12:17:49.009Z</time>
      </trkpt>
      <trkpt lat="45.16654" lon="5.95182">
        <ele>2285</ele>
        <time>2019-04-13T12:17:50.009Z</time>
      </trkpt>
      <trkpt lat="45.16653" lon="5.95168">
        <ele>2282</ele>
        <time>2019-04-13T12:17:52.009Z</time>
      </trkpt>
      <trkpt lat="45.16653" lon="5.95161">
        <ele>2282</ele>
        <time>2019-04-13T12:17:53.009Z</time>
      </trkpt>
      <trkpt lat="45.16653" lon="5.95155">
        <ele>2282</ele>
        <time>2019-04-13T12:17:54.009Z</time>
      </trkpt>
      <trkpt lat="45.16653" lon="5.95149">
        <ele>2282</ele>
        <time>2019-04-13T12:17:55.009Z</time>
      </trkpt>
      <trkpt lat="45.16653" lon="5.95144">
        <ele>2281.4220032</ele>
        <time>2019-04-13T12:17:56.009Z</time>
      </trkpt>
      <trkpt lat="45.16653" lon="5.95139">
        <ele>2280</ele>
        <time>2019-04-13T12:17:57.009Z</time>
      </trkpt>
      <trkpt lat="45.16653" lon="5.95133">
        <ele>2280</ele>
        <time>2019-04-13T12:17:58.009Z</time>
      </trkpt>
      <trkpt lat="45.16654" lon="5.95128">
        <ele>2280</ele>
        <time>2019-04-13T12:17:59.009Z</time>
      </trkpt>
      <trkpt lat="45.16654" lon="5.95122">
        <ele>2280</ele>
        <time>2019-04-13T12:18:00.009Z</time>
      </trkpt>
      <trkpt lat="45.16653" lon="5.95117">
        <ele>2279.4220032</ele>
        <time>2019-04-13T12:18:01.009Z</time>
      </trkpt>
      <trkpt lat="45.16651" lon="5.95111">
        <ele>2278</ele>
        <time>2019-04-13T12:18:02.009Z</time>
      </trkpt>
      <trkpt lat="45.16651" lon="5.95106">
        <ele>2278</ele>
        <time>2019-04-13T12:18:03.009Z</time>
      </trkpt>
      <trkpt lat="45.1665" lon="5.951">
        <ele>2278</ele>
        <time>2019-04-13T12:18:04.009Z</time>
      </trkpt>
      <trkpt lat="45.16642" lon="5.95089">
        <ele>2276</ele>
        <time>2019-04-13T12:18:07.009Z</time>
      </trkpt>
      <trkpt lat="45.16638" lon="5.9508">
        <ele>2276</ele>
        <time>2019-04-13T12:18:09.009Z</time>
      </trkpt>
      <trkpt lat="45.16636" lon="5.95069">
        <ele>2270</ele>
        <time>2019-04-13T12:18:14.009Z</time>
      </trkpt>
      <trkpt lat="45.16631" lon="5.95061">
        <ele>2268</ele>
        <time>2019-04-13T12:18:19.009Z</time>
      </trkpt>
      <trkpt lat="45.16631" lon="5.95051">
        <ele>2267.4220032</ele>
        <time>2019-04-13T12:18:31.009Z</time>
      </trkpt>
      <trkpt lat="45.16631" lon="5.95044">
        <ele>2266</ele>
        <time>2019-04-13T12:18:32.009Z</time>
      </trkpt>
      <trkpt lat="45.16631" lon="5.95035">
        <ele>2266</ele>
        <time>2019-04-13T12:18:33.009Z</time>
      </trkpt>
      <trkpt lat="45.1663" lon="5.95026">
        <ele>2266</ele>
        <time>2019-04-13T12:18:34.009Z</time>
      </trkpt>
      <trkpt lat="45.16628" lon="5.95018">
        <ele>2266</ele>
        <time>2019-04-13T12:18:35.009Z</time>
      </trkpt>
      <trkpt lat="45.16627" lon="5.95011">
        <ele>2265.7110016</ele>
        <time>2019-04-13T12:18:36.009Z</time>
      </trkpt>
      <trkpt lat="45.16625" lon="5.95004">
        <ele>2265</ele>
        <time>2019-04-13T12:18:37.009Z</time>
      </trkpt>
      <trkpt lat="45.16622" lon="5.94998">
        <ele>2265</ele>
        <time>2019-04-13T12:18:38.009Z</time>
      </trkpt>
      <trkpt lat="45.16619" lon="5.94993">
        <ele>2265</ele>
        <time>2019-04-13T12:18:39.009Z</time>
      </trkpt>
      <trkpt lat="45.16617" lon="5.94988">
        <ele>2265</ele>
        <time>2019-04-13T12:18:40.009Z</time>
      </trkpt>
      <trkpt lat="45.16614" lon="5.94983">
        <ele>2264.1330048</ele>
        <time>2019-04-13T12:18:41.009Z</time>
      </trkpt>
      <trkpt lat="45.16612" lon="5.9498">
        <ele>2262</ele>
        <time>2019-04-13T12:18:42.009Z</time>
      </trkpt>
      <trkpt lat="45.16609" lon="5.94974">
        <ele>2262</ele>
        <time>2019-04-13T12:18:44.009Z</time>
      </trkpt>
      <trkpt lat="45.16606" lon="5.94963">
        <ele>2263</ele>
        <time>2019-04-13T12:19:01.009Z</time>
      </trkpt>
      <trkpt lat="45.16603" lon="5.94955">
        <ele>2265</ele>
        <time>2019-04-13T12:19:19.009Z</time>
      </trkpt>
      <trkpt lat="45.16601" lon="5.94947">
        <ele>2265</ele>
        <time>2019-04-13T12:19:29.009Z</time>
      </trkpt>
      <trkpt lat="45.166" lon="5.94945">
        <ele>2265</ele>
        <time>2019-04-13T12:19:31.009Z</time>
      </trkpt>
      <trkpt lat="45.16599" lon="5.94943">
        <ele>2265</ele>
        <time>2019-04-13T12:19:33.009Z</time>
      </trkpt>
      <trkpt lat="45.16598" lon="5.9494">
        <ele>2265</ele>
        <time>2019-04-13T12:19:35.009Z</time>
      </trkpt>
      <trkpt lat="45.16597" lon="5.94938">
        <ele>2265</ele>
        <time>2019-04-13T12:19:36.009Z</time>
      </trkpt>
      <trkpt lat="45.16596" lon="5.94936">
        <ele>2265</ele>
        <time>2019-04-13T12:19:37.009Z</time>
      </trkpt>
      <trkpt lat="45.16595" lon="5.94933">
        <ele>2265</ele>
        <time>2019-04-13T12:19:38.009Z</time>
      </trkpt>
      <trkpt lat="45.16594" lon="5.9493">
        <ele>2265</ele>
        <time>2019-04-13T12:19:39.009Z</time>
      </trkpt>
      <trkpt lat="45.16593" lon="5.94928">
        <ele>2265</ele>
        <time>2019-04-13T12:19:40.009Z</time>
      </trkpt>
      <trkpt lat="45.16592" lon="5.94925">
        <ele>2265</ele>
        <time>2019-04-13T12:19:41.009Z</time>
      </trkpt>
      <trkpt lat="45.16591" lon="5.94924">
        <ele>2265</ele>
        <time>2019-04-13T12:19:42.009Z</time>
      </trkpt>
      <trkpt lat="45.16591" lon="5.94921">
        <ele>2265</ele>
        <time>2019-04-13T12:19:43.009Z</time>
      </trkpt>
      <trkpt lat="45.1659" lon="5.94919">
        <ele>2265</ele>
        <time>2019-04-13T12:19:44.009Z</time>
      </trkpt>
      <trkpt lat="45.16589" lon="5.94916">
        <ele>2265</ele>
        <time>2019-04-13T12:19:45.009Z</time>
      </trkpt>
      <trkpt lat="45.16589" lon="5.94913">
        <ele>2265</ele>
        <time>2019-04-13T12:19:46.009Z</time>
      </trkpt>
      <trkpt lat="45.16588" lon="5.94909">
        <ele>2265</ele>
        <time>2019-04-13T12:19:47.009Z</time>
      </trkpt>
      <trkpt lat="45.16587" lon="5.94906">
        <ele>2265</ele>
        <time>2019-04-13T12:19:48.009Z</time>
      </trkpt>
      <trkpt lat="45.16587" lon="5.94903">
        <ele>2265</ele>
        <time>2019-04-13T12:19:49.009Z</time>
      </trkpt>
      <trkpt lat="45.16587" lon="5.949">
        <ele>2264.7110016</ele>
        <time>2019-04-13T12:19:51.009Z</time>
      </trkpt>
      <trkpt lat="45.16587" lon="5.94897">
        <ele>2264</ele>
        <time>2019-04-13T12:19:53.009Z</time>
      </trkpt>
      <trkpt lat="45.16587" lon="5.94891">
        <ele>2264</ele>
        <time>2019-04-13T12:19:55.009Z</time>
      </trkpt>
      <trkpt lat="45.16585" lon="5.94887">
        <ele>2264</ele>
        <time>2019-04-13T12:19:57.009Z</time>
      </trkpt>
      <trkpt lat="45.16592" lon="5.94876">
        <ele>2262</ele>
        <time>2019-04-13T12:20:18.009Z</time>
      </trkpt>
      <trkpt lat="45.16598" lon="5.94872">
        <ele>2261.1330048</ele>
        <time>2019-04-13T12:20:21.009Z</time>
      </trkpt>
      <trkpt lat="45.16594" lon="5.94864">
        <ele>2257</ele>
        <time>2019-04-13T12:20:29.009Z</time>
      </trkpt>
      <trkpt lat="45.16588" lon="5.94855">
        <ele>2254.9770112</ele>
        <time>2019-04-13T12:20:31.009Z</time>
      </trkpt>
      <trkpt lat="45.16581" lon="5.94848">
        <ele>2245.1545433389</ele>
        <time>2019-04-13T12:20:33.009Z</time>
      </trkpt>
      <trkpt lat="45.16584" lon="5.94834">
        <ele>2239.7110016</ele>
        <time>2019-04-13T12:20:35.009Z</time>
      </trkpt>
      <trkpt lat="45.16589" lon="5.94827">
        <ele>2238.7110016</ele>
        <time>2019-04-13T12:20:36.009Z</time>
      </trkpt>
      <trkpt lat="45.16592" lon="5.9482">
        <ele>2237.4220032</ele>
        <time>2019-04-13T12:20:37.009Z</time>
      </trkpt>
      <trkpt lat="45.16596" lon="5.94803">
        <ele>2235</ele>
        <time>2019-04-13T12:20:39.009Z</time>
      </trkpt>
      <trkpt lat="45.16598" lon="5.94788">
        <ele>2233.4220032</ele>
        <time>2019-04-13T12:20:41.009Z</time>
      </trkpt>
      <trkpt lat="45.16597" lon="5.94771">
        <ele>2230.2889984</ele>
        <time>2019-04-13T12:20:43.009Z</time>
      </trkpt>
      <trkpt lat="45.16593" lon="5.94756">
        <ele>2230.7110016</ele>
        <time>2019-04-13T12:20:45.009Z</time>
      </trkpt>
      <trkpt lat="45.1659" lon="5.94745">
        <ele>2229</ele>
        <time>2019-04-13T12:20:47.009Z</time>
      </trkpt>
      <trkpt lat="45.16584" lon="5.94739">
        <ele>2227.1330048</ele>
        <time>2019-04-13T12:20:49.009Z</time>
      </trkpt>
      <trkpt lat="45.16574" lon="5.94733">
        <ele>2222.8440064</ele>
        <time>2019-04-13T12:20:51.009Z</time>
      </trkpt>
      <trkpt lat="45.16569" lon="5.94729">
        <ele>2219.7110016</ele>
        <time>2019-04-13T12:20:52.009Z</time>
      </trkpt>
      <trkpt lat="45.16566" lon="5.94723">
        <ele>2219.2889984</ele>
        <time>2019-04-13T12:20:53.009Z</time>
      </trkpt>
      <trkpt lat="45.16561" lon="5.94709">
        <ele>2218.7110016</ele>
        <time>2019-04-13T12:20:55.009Z</time>
      </trkpt>
      <trkpt lat="45.16556" lon="5.94697">
        <ele>2216.4220032</ele>
        <time>2019-04-13T12:20:57.009Z</time>
      </trkpt>
      <trkpt lat="45.16554" lon="5.94689">
        <ele>2214.2889984</ele>
        <time>2019-04-13T12:20:59.009Z</time>
      </trkpt>
      <trkpt lat="45.16548" lon="5.9468">
        <ele>2215</ele>
        <time>2019-04-13T12:21:14.009Z</time>
      </trkpt>
      <trkpt lat="45.16544" lon="5.94668">
        <ele>2215</ele>
        <time>2019-04-13T12:21:16.009Z</time>
      </trkpt>
      <trkpt lat="45.16541" lon="5.94657">
        <ele>2215</ele>
        <time>2019-04-13T12:21:18.009Z</time>
      </trkpt>
      <trkpt lat="45.16538" lon="5.94648">
        <ele>2215</ele>
        <time>2019-04-13T12:21:20.009Z</time>
      </trkpt>
      <trkpt lat="45.16532" lon="5.94641">
        <ele>2204.555008</ele>
        <time>2019-04-13T12:21:22.009Z</time>
      </trkpt>
      <trkpt lat="45.16523" lon="5.94637">
        <ele>2198.7110016</ele>
        <time>2019-04-13T12:21:24.009Z</time>
      </trkpt>
      <trkpt lat="45.16516" lon="5.94628">
        <ele>2197.4220032</ele>
        <time>2019-04-13T12:21:26.009Z</time>
      </trkpt>
      <trkpt lat="45.16513" lon="5.94616">
        <ele>2196.1330048</ele>
        <time>2019-04-13T12:21:28.009Z</time>
      </trkpt>
      <trkpt lat="45.16513" lon="5.94596">
        <ele>2190.4220032</ele>
        <time>2019-04-13T12:21:31.009Z</time>
      </trkpt>
      <trkpt lat="45.16507" lon="5.94581">
        <ele>2185</ele>
        <time>2019-04-13T12:21:34.009Z</time>
      </trkpt>
      <trkpt lat="45.16499" lon="5.94575">
        <ele>2182.4220032</ele>
        <time>2019-04-13T12:21:36.009Z</time>
      </trkpt>
      <trkpt lat="45.165" lon="5.94561">
        <ele>2178.7110016</ele>
        <time>2019-04-13T12:21:39.009Z</time>
      </trkpt>
      <trkpt lat="45.16491" lon="5.94558">
        <ele>2174.7110016</ele>
        <time>2019-04-13T12:21:43.009Z</time>
      </trkpt>
      <trkpt lat="45.16484" lon="5.94557">
        <ele>2173.7110016</ele>
        <time>2019-04-13T12:21:45.009Z</time>
      </trkpt>
      <trkpt lat="45.16477" lon="5.94552">
        <ele>2172</ele>
        <time>2019-04-13T12:21:47.009Z</time>
      </trkpt>
      <trkpt lat="45.16471" lon="5.94548">
        <ele>2171</ele>
        <time>2019-04-13T12:21:49.009Z</time>
      </trkpt>
      <trkpt lat="45.16466" lon="5.94544">
        <ele>2169.4220032</ele>
        <time>2019-04-13T12:21:51.009Z</time>
      </trkpt>
      <trkpt lat="45.16461" lon="5.94543">
        <ele>2167</ele>
        <time>2019-04-13T12:21:53.009Z</time>
      </trkpt>
      <trkpt lat="45.16454" lon="5.94545">
        <ele>2165.7110016</ele>
        <time>2019-04-13T12:21:55.009Z</time>
      </trkpt>
      <trkpt lat="45.16449" lon="5.94549">
        <ele>2163.7110016</ele>
        <time>2019-04-13T12:21:57.009Z</time>
      </trkpt>
      <trkpt lat="45.16446" lon="5.94551">
        <ele>2164</ele>
        <time>2019-04-13T12:21:59.009Z</time>
      </trkpt>
      <trkpt lat="45.16441" lon="5.94548">
        <ele>2161.4220032</ele>
        <time>2019-04-13T12:22:01.009Z</time>
      </trkpt>
      <trkpt lat="45.16438" lon="5.94543">
        <ele>2160</ele>
        <time>2019-04-13T12:22:02.009Z</time>
      </trkpt>
      <trkpt lat="45.16432" lon="5.94534">
        <ele>2158.4220032</ele>
        <time>2019-04-13T12:22:04.009Z</time>
      </trkpt>
      <trkpt lat="45.16432" lon="5.94528">
        <ele>2154.7110016</ele>
        <time>2019-04-13T12:22:21.009Z</time>
      </trkpt>
      <trkpt lat="45.16425" lon="5.94525">
        <ele>2154</ele>
        <time>2019-04-13T12:22:23.009Z</time>
      </trkpt>
      <trkpt lat="45.16417" lon="5.94522">
        <ele>2154</ele>
        <time>2019-04-13T12:22:25.009Z</time>
      </trkpt>
      <trkpt lat="45.16412" lon="5.94515">
        <ele>2154</ele>
        <time>2019-04-13T12:22:27.009Z</time>
      </trkpt>
      <trkpt lat="45.16409" lon="5.94504">
        <ele>2154</ele>
        <time>2019-04-13T12:22:29.009Z</time>
      </trkpt>
      <trkpt lat="45.16408" lon="5.94494">
        <ele>2151.9770112</ele>
        <time>2019-04-13T12:22:31.009Z</time>
      </trkpt>
      <trkpt lat="45.16414" lon="5.94487">
        <ele>2144.1330048</ele>
        <time>2019-04-13T12:22:33.009Z</time>
      </trkpt>
      <trkpt lat="45.16413" lon="5.9447">
        <ele>2137.7110016</ele>
        <time>2019-04-13T12:22:37.009Z</time>
      </trkpt>
      <trkpt lat="45.1641" lon="5.94459">
        <ele>2134.4220032</ele>
        <time>2019-04-13T12:22:41.009Z</time>
      </trkpt>
      <trkpt lat="45.16424" lon="5.9446">
        <ele>2128.4220032</ele>
        <time>2019-04-13T12:22:46.009Z</time>
      </trkpt>
      <trkpt lat="45.16436" lon="5.94464">
        <ele>2126</ele>
        <time>2019-04-13T12:22:48.009Z</time>
      </trkpt>
      <trkpt lat="45.16446" lon="5.94466">
        <ele>2123.7110016</ele>
        <time>2019-04-13T12:22:51.009Z</time>
      </trkpt>
      <trkpt lat="45.16441" lon="5.94452">
        <ele>2120</ele>
        <time>2019-04-13T12:22:55.009Z</time>
      </trkpt>
      <trkpt lat="45.16446" lon="5.94438">
        <ele>2118.1330048</ele>
        <time>2019-04-13T12:22:57.009Z</time>
      </trkpt>
      <trkpt lat="45.16452" lon="5.94428">
        <ele>2114.7110016</ele>
        <time>2019-04-13T12:22:59.009Z</time>
      </trkpt>
      <trkpt lat="45.16461" lon="5.94415">
        <ele>2114</ele>
        <time>2019-04-13T12:23:02.009Z</time>
      </trkpt>
      <trkpt lat="45.16467" lon="5.94401">
        <ele>2109.7110016</ele>
        <time>2019-04-13T12:23:05.009Z</time>
      </trkpt>
      <trkpt lat="45.16459" lon="5.94386">
        <ele>2104.1330048</ele>
        <time>2019-04-13T12:23:08.009Z</time>
      </trkpt>
      <trkpt lat="45.16459" lon="5.94368">
        <ele>2097.1330048</ele>
        <time>2019-04-13T12:23:11.009Z</time>
      </trkpt>
      <trkpt lat="45.16468" lon="5.94355">
        <ele>2094</ele>
        <time>2019-04-13T12:23:13.009Z</time>
      </trkpt>
      <trkpt lat="45.16475" lon="5.9434">
        <ele>2092.1330048</ele>
        <time>2019-04-13T12:23:15.009Z</time>
      </trkpt>
      <trkpt lat="45.16477" lon="5.94328">
        <ele>2088.1330048</ele>
        <time>2019-04-13T12:23:17.009Z</time>
      </trkpt>
      <trkpt lat="45.16471" lon="5.94314">
        <ele>2085</ele>
        <time>2019-04-13T12:23:19.009Z</time>
      </trkpt>
      <trkpt lat="45.16476" lon="5.94298">
        <ele>2083.4220032</ele>
        <time>2019-04-13T12:23:21.009Z</time>
      </trkpt>
      <trkpt lat="45.16485" lon="5.94285">
        <ele>2079</ele>
        <time>2019-04-13T12:23:23.009Z</time>
      </trkpt>
      <trkpt lat="45.16495" lon="5.94277">
        <ele>2078.7110016</ele>
        <time>2019-04-13T12:23:25.009Z</time>
      </trkpt>
      <trkpt lat="45.16505" lon="5.94266">
        <ele>2078</ele>
        <time>2019-04-13T12:23:29.009Z</time>
      </trkpt>
      <trkpt lat="45.16512" lon="5.9426">
        <ele>2076</ele>
        <time>2019-04-13T12:23:31.009Z</time>
      </trkpt>
      <trkpt lat="45.16523" lon="5.94251">
        <ele>2075</ele>
        <time>2019-04-13T12:23:34.009Z</time>
      </trkpt>
      <trkpt lat="45.1653" lon="5.94247">
        <ele>2075</ele>
        <time>2019-04-13T12:23:36.009Z</time>
      </trkpt>
      <trkpt lat="45.16532" lon="5.94239">
        <ele>2076</ele>
        <time>2019-04-13T12:23:47.009Z</time>
      </trkpt>
      <trkpt lat="45.16535" lon="5.94229">
        <ele>2076</ele>
        <time>2019-04-13T12:23:57.009Z</time>
      </trkpt>
      <trkpt lat="45.1654" lon="5.94218">
        <ele>2075</ele>
        <time>2019-04-13T12:24:02.009Z</time>
      </trkpt>
      <trkpt lat="45.16546" lon="5.9421">
        <ele>2075</ele>
        <time>2019-04-13T12:24:05.009Z</time>
      </trkpt>
      <trkpt lat="45.16553" lon="5.94203">
        <ele>2075</ele>
        <time>2019-04-13T12:24:07.009Z</time>
      </trkpt>
      <trkpt lat="45.16563" lon="5.94191">
        <ele>2075</ele>
        <time>2019-04-13T12:24:09.009Z</time>
      </trkpt>
      <trkpt lat="45.16567" lon="5.94184">
        <ele>2075</ele>
        <time>2019-04-13T12:24:10.009Z</time>
      </trkpt>
      <trkpt lat="45.16575" lon="5.94172">
        <ele>2073</ele>
        <time>2019-04-13T12:24:12.009Z</time>
      </trkpt>
      <trkpt lat="45.16582" lon="5.94164">
        <ele>2073</ele>
        <time>2019-04-13T12:24:15.009Z</time>
      </trkpt>
      <trkpt lat="45.1659" lon="5.94162">
        <ele>2070</ele>
        <time>2019-04-13T12:24:20.009Z</time>
      </trkpt>
      <trkpt lat="45.16603" lon="5.9416">
        <ele>2069</ele>
        <time>2019-04-13T12:24:43.009Z</time>
      </trkpt>
      <trkpt lat="45.16618" lon="5.94158">
        <ele>2069</ele>
        <time>2019-04-13T12:24:45.009Z</time>
      </trkpt>
      <trkpt lat="45.16624" lon="5.94156">
        <ele>2069</ele>
        <time>2019-04-13T12:24:46.009Z</time>
      </trkpt>
      <trkpt lat="45.16631" lon="5.94156">
        <ele>2069</ele>
        <time>2019-04-13T12:24:47.009Z</time>
      </trkpt>
      <trkpt lat="45.16644" lon="5.94156">
        <ele>2069</ele>
        <time>2019-04-13T12:24:49.009Z</time>
      </trkpt>
      <trkpt lat="45.1665" lon="5.94154">
        <ele>2069</ele>
        <time>2019-04-13T12:24:50.009Z</time>
      </trkpt>
      <trkpt lat="45.16663" lon="5.94147">
        <ele>2062.1330048</ele>
        <time>2019-04-13T12:24:52.009Z</time>
      </trkpt>
      <trkpt lat="45.16676" lon="5.94135">
        <ele>2057</ele>
        <time>2019-04-13T12:24:54.009Z</time>
      </trkpt>
      <trkpt lat="45.16686" lon="5.94124">
        <ele>2056.7110016</ele>
        <time>2019-04-13T12:24:56.009Z</time>
      </trkpt>
      <trkpt lat="45.16693" lon="5.94113">
        <ele>2054.7110016</ele>
        <time>2019-04-13T12:24:58.009Z</time>
      </trkpt>
      <trkpt lat="45.16701" lon="5.94101">
        <ele>2053</ele>
        <time>2019-04-13T12:25:00.009Z</time>
      </trkpt>
      <trkpt lat="45.16709" lon="5.94088">
        <ele>2051</ele>
        <time>2019-04-13T12:25:02.009Z</time>
      </trkpt>
      <trkpt lat="45.16719" lon="5.94076">
        <ele>2050</ele>
        <time>2019-04-13T12:25:04.009Z</time>
      </trkpt>
      <trkpt lat="45.16723" lon="5.94071">
        <ele>2050</ele>
        <time>2019-04-13T12:25:05.009Z</time>
      </trkpt>
      <trkpt lat="45.16728" lon="5.94065">
        <ele>2049.7110016</ele>
        <time>2019-04-13T12:25:06.009Z</time>
      </trkpt>
      <trkpt lat="45.16733" lon="5.94059">
        <ele>2049</ele>
        <time>2019-04-13T12:25:07.009Z</time>
      </trkpt>
      <trkpt lat="45.16738" lon="5.94054">
        <ele>2049</ele>
        <time>2019-04-13T12:25:08.009Z</time>
      </trkpt>
      <trkpt lat="45.16743" lon="5.94047">
        <ele>2048.7110016</ele>
        <time>2019-04-13T12:25:09.009Z</time>
      </trkpt>
      <trkpt lat="45.16748" lon="5.9404">
        <ele>2047.7110016</ele>
        <time>2019-04-13T12:25:10.009Z</time>
      </trkpt>
      <trkpt lat="45.16751" lon="5.94031">
        <ele>2046.1330048</ele>
        <time>2019-04-13T12:25:11.009Z</time>
      </trkpt>
      <trkpt lat="45.16752" lon="5.94009">
        <ele>2041.7110016</ele>
        <time>2019-04-13T12:25:13.009Z</time>
      </trkpt>
      <trkpt lat="45.16752" lon="5.93985">
        <ele>2039.4220032</ele>
        <time>2019-04-13T12:25:15.009Z</time>
      </trkpt>
      <trkpt lat="45.16752" lon="5.93962">
        <ele>2038</ele>
        <time>2019-04-13T12:25:17.009Z</time>
      </trkpt>
      <trkpt lat="45.16755" lon="5.93943">
        <ele>2036.7110016</ele>
        <time>2019-04-13T12:25:19.009Z</time>
      </trkpt>
      <trkpt lat="45.16757" lon="5.93935">
        <ele>2036</ele>
        <time>2019-04-13T12:25:20.009Z</time>
      </trkpt>
      <trkpt lat="45.16759" lon="5.93928">
        <ele>2035.7110016</ele>
        <time>2019-04-13T12:25:21.009Z</time>
      </trkpt>
      <trkpt lat="45.16762" lon="5.93921">
        <ele>2035</ele>
        <time>2019-04-13T12:25:22.009Z</time>
      </trkpt>
      <trkpt lat="45.16769" lon="5.93911">
        <ele>2034.4220032</ele>
        <time>2019-04-13T12:25:24.009Z</time>
      </trkpt>
      <trkpt lat="45.16778" lon="5.93906">
        <ele>2032</ele>
        <time>2019-04-13T12:25:26.009Z</time>
      </trkpt>
      <trkpt lat="45.16788" lon="5.93907">
        <ele>2030</ele>
        <time>2019-04-13T12:25:28.009Z</time>
      </trkpt>
      <trkpt lat="45.16795" lon="5.93911">
        <ele>2029</ele>
        <time>2019-04-13T12:25:31.009Z</time>
      </trkpt>
      <trkpt lat="45.16805" lon="5.93913">
        <ele>2026.7110016</ele>
        <time>2019-04-13T12:25:35.009Z</time>
      </trkpt>
      <trkpt lat="45.16809" lon="5.93913">
        <ele>2025.7110016</ele>
        <time>2019-04-13T12:25:36.009Z</time>
      </trkpt>
      <trkpt lat="45.16821" lon="5.93914">
        <ele>2022.7110016</ele>
        <time>2019-04-13T12:25:38.009Z</time>
      </trkpt>
      <trkpt lat="45.16831" lon="5.93913">
        <ele>2020.7110016</ele>
        <time>2019-04-13T12:25:40.009Z</time>
      </trkpt>
      <trkpt lat="45.16842" lon="5.93907">
        <ele>2018.7110016</ele>
        <time>2019-04-13T12:25:42.009Z</time>
      </trkpt>
      <trkpt lat="45.16852" lon="5.93899">
        <ele>2016.7110016</ele>
        <time>2019-04-13T12:25:44.009Z</time>
      </trkpt>
      <trkpt lat="45.16861" lon="5.93888">
        <ele>2015.7110016</ele>
        <time>2019-04-13T12:25:46.009Z</time>
      </trkpt>
      <trkpt lat="45.16871" lon="5.93877">
        <ele>2014</ele>
        <time>2019-04-13T12:25:48.009Z</time>
      </trkpt>
      <trkpt lat="45.16879" lon="5.93868">
        <ele>2013.1330048</ele>
        <time>2019-04-13T12:25:50.009Z</time>
      </trkpt>
      <trkpt lat="45.16885" lon="5.93858">
        <ele>2010.7110016</ele>
        <time>2019-04-13T12:25:52.009Z</time>
      </trkpt>
      <trkpt lat="45.16894" lon="5.93844">
        <ele>2009</ele>
        <time>2019-04-13T12:25:55.009Z</time>
      </trkpt>
      <trkpt lat="45.16904" lon="5.93832">
        <ele>2008</ele>
        <time>2019-04-13T12:25:58.009Z</time>
      </trkpt>
      <trkpt lat="45.16913" lon="5.93818">
        <ele>2005.7110016</ele>
        <time>2019-04-13T12:26:01.009Z</time>
      </trkpt>
      <trkpt lat="45.16922" lon="5.93803">
        <ele>2004.7110016</ele>
        <time>2019-04-13T12:26:04.009Z</time>
      </trkpt>
      <trkpt lat="45.16931" lon="5.93789">
        <ele>2003</ele>
        <time>2019-04-13T12:26:07.009Z</time>
      </trkpt>
      <trkpt lat="45.16941" lon="5.93781">
        <ele>2001.7110016</ele>
        <time>2019-04-13T12:26:10.009Z</time>
      </trkpt>
      <trkpt lat="45.16951" lon="5.93772">
        <ele>2000</ele>
        <time>2019-04-13T12:26:13.009Z</time>
      </trkpt>
      <trkpt lat="45.16962" lon="5.93763">
        <ele>1998.7110016</ele>
        <time>2019-04-13T12:26:17.009Z</time>
      </trkpt>
      <trkpt lat="45.16972" lon="5.93753">
        <ele>1996.4220032</ele>
        <time>2019-04-13T12:26:20.009Z</time>
      </trkpt>
      <trkpt lat="45.16981" lon="5.93746">
        <ele>1995</ele>
        <time>2019-04-13T12:26:22.009Z</time>
      </trkpt>
      <trkpt lat="45.16993" lon="5.93739">
        <ele>1993</ele>
        <time>2019-04-13T12:26:25.009Z</time>
      </trkpt>
      <trkpt lat="45.17005" lon="5.93734">
        <ele>1990</ele>
        <time>2019-04-13T12:26:28.009Z</time>
      </trkpt>
      <trkpt lat="45.17013" lon="5.93731">
        <ele>1989.7110016</ele>
        <time>2019-04-13T12:26:30.009Z</time>
      </trkpt>
      <trkpt lat="45.17024" lon="5.9373">
        <ele>1988</ele>
        <time>2019-04-13T12:26:33.009Z</time>
      </trkpt>
      <trkpt lat="45.17035" lon="5.93729">
        <ele>1985.7110016</ele>
        <time>2019-04-13T12:26:36.009Z</time>
      </trkpt>
      <trkpt lat="45.17051" lon="5.93723">
        <ele>1980.7110016</ele>
        <time>2019-04-13T12:26:39.009Z</time>
      </trkpt>
      <trkpt lat="45.17063" lon="5.93715">
        <ele>1979.7110016</ele>
        <time>2019-04-13T12:26:41.009Z</time>
      </trkpt>
      <trkpt lat="45.17072" lon="5.93706">
        <ele>1977.7110016</ele>
        <time>2019-04-13T12:26:43.009Z</time>
      </trkpt>
      <trkpt lat="45.17082" lon="5.93694">
        <ele>1976</ele>
        <time>2019-04-13T12:26:46.009Z</time>
      </trkpt>
      <trkpt lat="45.1709" lon="5.93686">
        <ele>1976</ele>
        <time>2019-04-13T12:26:56.009Z</time>
      </trkpt>
      <trkpt lat="45.171" lon="5.93678">
        <ele>1975.7110016</ele>
        <time>2019-04-13T12:27:01.009Z</time>
      </trkpt>
      <trkpt lat="45.17106" lon="5.93668">
        <ele>1975</ele>
        <time>2019-04-13T12:27:08.009Z</time>
      </trkpt>
      <trkpt lat="45.17109" lon="5.93655">
        <ele>1976</ele>
        <time>2019-04-13T12:27:22.009Z</time>
      </trkpt>
      <trkpt lat="45.17114" lon="5.93645">
        <ele>1976</ele>
        <time>2019-04-13T12:27:31.009Z</time>
      </trkpt>
      <trkpt lat="45.17122" lon="5.93636">
        <ele>1976</ele>
        <time>2019-04-13T12:27:41.009Z</time>
      </trkpt>
      <trkpt lat="45.1713" lon="5.9363">
        <ele>1976</ele>
        <time>2019-04-13T12:27:49.009Z</time>
      </trkpt>
      <trkpt lat="45.17138" lon="5.93626">
        <ele>1976</ele>
        <time>2019-04-13T12:28:01.009Z</time>
      </trkpt>
      <trkpt lat="45.17146" lon="5.93619">
        <ele>1977</ele>
        <time>2019-04-13T12:29:53.009Z</time>
      </trkpt>
      <trkpt lat="45.17156" lon="5.9362">
        <ele>1977</ele>
        <time>2019-04-13T12:30:00.009Z</time>
      </trkpt>
      <trkpt lat="45.17162" lon="5.93625">
        <ele>1976</ele>
        <time>2019-04-13T12:30:05.009Z</time>
      </trkpt>
      <trkpt lat="45.17171" lon="5.93637">
        <ele>1976</ele>
        <time>2019-04-13T12:30:08.009Z</time>
      </trkpt>
      <trkpt lat="45.17181" lon="5.93642">
        <ele>1975.7110016</ele>
        <time>2019-04-13T12:30:11.009Z</time>
      </trkpt>
      <trkpt lat="45.17191" lon="5.93644">
        <ele>1975</ele>
        <time>2019-04-13T12:30:14.009Z</time>
      </trkpt>
      <trkpt lat="45.17201" lon="5.93645">
        <ele>1975</ele>
        <time>2019-04-13T12:30:17.009Z</time>
      </trkpt>
      <trkpt lat="45.17211" lon="5.93643">
        <ele>1975</ele>
        <time>2019-04-13T12:30:20.009Z</time>
      </trkpt>
      <trkpt lat="45.17221" lon="5.9364">
        <ele>1973</ele>
        <time>2019-04-13T12:30:23.009Z</time>
      </trkpt>
      <trkpt lat="45.17232" lon="5.93636">
        <ele>1971</ele>
        <time>2019-04-13T12:30:27.009Z</time>
      </trkpt>
      <trkpt lat="45.17243" lon="5.93632">
        <ele>1969</ele>
        <time>2019-04-13T12:30:32.009Z</time>
      </trkpt>
      <trkpt lat="45.17255" lon="5.93629">
        <ele>1969</ele>
        <time>2019-04-13T12:30:37.009Z</time>
      </trkpt>
      <trkpt lat="45.17266" lon="5.93628">
        <ele>1968.7110016</ele>
        <time>2019-04-13T12:30:41.009Z</time>
      </trkpt>
      <trkpt lat="45.17274" lon="5.93626">
        <ele>1968</ele>
        <time>2019-04-13T12:30:46.009Z</time>
      </trkpt>
      <trkpt lat="45.17282" lon="5.93622">
        <ele>1968</ele>
        <time>2019-04-13T12:30:59.009Z</time>
      </trkpt>
      <trkpt lat="45.17286" lon="5.93617">
        <ele>1968</ele>
        <time>2019-04-13T12:31:02.009Z</time>
      </trkpt>
      <trkpt lat="45.17288" lon="5.93604">
        <ele>1968</ele>
        <time>2019-04-13T12:31:06.009Z</time>
      </trkpt>
      <trkpt lat="45.17285" lon="5.93593">
        <ele>1968</ele>
        <time>2019-04-13T12:31:09.009Z</time>
      </trkpt>
      <trkpt lat="45.17291" lon="5.93583">
        <ele>1964</ele>
        <time>2019-04-13T12:31:12.009Z</time>
      </trkpt>
      <trkpt lat="45.17293" lon="5.93566">
        <ele>1961.6880128</ele>
        <time>2019-04-13T12:31:16.009Z</time>
      </trkpt>
      <trkpt lat="45.17297" lon="5.9356">
        <ele>1956</ele>
        <time>2019-04-13T12:31:20.009Z</time>
      </trkpt>
      <trkpt lat="45.17307" lon="5.93562">
        <ele>1953</ele>
        <time>2019-04-13T12:31:26.009Z</time>
      </trkpt>
      <trkpt lat="45.17314" lon="5.93564">
        <ele>1950.7110016</ele>
        <time>2019-04-13T12:31:30.009Z</time>
      </trkpt>
      <trkpt lat="45.17322" lon="5.93568">
        <ele>1950</ele>
        <time>2019-04-13T12:31:34.009Z</time>
      </trkpt>
      <trkpt lat="45.17328" lon="5.93561">
        <ele>1946</ele>
        <time>2019-04-13T12:31:42.009Z</time>
      </trkpt>
      <trkpt lat="45.17335" lon="5.93571">
        <ele>1944</ele>
        <time>2019-04-13T12:31:48.009Z</time>
      </trkpt>
      <trkpt lat="45.1734" lon="5.93576">
        <ele>1943</ele>
        <time>2019-04-13T12:31:52.009Z</time>
      </trkpt>
      <trkpt lat="45.17352" lon="5.93572">
        <ele>1937</ele>
        <time>2019-04-13T12:31:58.009Z</time>
      </trkpt>
      <trkpt lat="45.17363" lon="5.93576">
        <ele>1937</ele>
        <time>2019-04-13T12:32:00.009Z</time>
      </trkpt>
      <trkpt lat="45.17374" lon="5.93576">
        <ele>1928.7110016</ele>
        <time>2019-04-13T12:32:03.009Z</time>
      </trkpt>
      <trkpt lat="45.17385" lon="5.93574">
        <ele>1925.7110016</ele>
        <time>2019-04-13T12:32:06.009Z</time>
      </trkpt>
      <trkpt lat="45.17378" lon="5.9356">
        <ele>1922</ele>
        <time>2019-04-13T12:32:13.009Z</time>
      </trkpt>
      <trkpt lat="45.1737" lon="5.93549">
        <ele>1920.7110016</ele>
        <time>2019-04-13T12:32:16.009Z</time>
      </trkpt>
      <trkpt lat="45.17361" lon="5.93535">
        <ele>1918</ele>
        <time>2019-04-13T12:32:19.009Z</time>
      </trkpt>
      <trkpt lat="45.17359" lon="5.93514">
        <ele>1913.4220032</ele>
        <time>2019-04-13T12:32:22.009Z</time>
      </trkpt>
      <trkpt lat="45.17364" lon="5.93497">
        <ele>1910.1330048</ele>
        <time>2019-04-13T12:32:25.009Z</time>
      </trkpt>
      <trkpt lat="45.17373" lon="5.93486">
        <ele>1906.7110016</ele>
        <time>2019-04-13T12:32:28.009Z</time>
      </trkpt>
      <trkpt lat="45.17365" lon="5.93473">
        <ele>1905.7110016</ele>
        <time>2019-04-13T12:32:31.009Z</time>
      </trkpt>
      <trkpt lat="45.1736" lon="5.93463">
        <ele>1903.7110016</ele>
        <time>2019-04-13T12:32:33.009Z</time>
      </trkpt>
      <trkpt lat="45.17354" lon="5.93458">
        <ele>1901.7110016</ele>
        <time>2019-04-13T12:32:35.009Z</time>
      </trkpt>
      <trkpt lat="45.17351" lon="5.93449">
        <ele>1899.7110016</ele>
        <time>2019-04-13T12:32:37.009Z</time>
      </trkpt>
      <trkpt lat="45.17356" lon="5.93434">
        <ele>1898.7110016</ele>
        <time>2019-04-13T12:32:39.009Z</time>
      </trkpt>
      <trkpt lat="45.17354" lon="5.9342">
        <ele>1896</ele>
        <time>2019-04-13T12:32:41.009Z</time>
      </trkpt>
      <trkpt lat="45.17347" lon="5.93414">
        <ele>1896</ele>
        <time>2019-04-13T12:32:49.009Z</time>
      </trkpt>
      <trkpt lat="45.17345" lon="5.93396">
        <ele>1897</ele>
        <time>2019-04-13T12:32:59.009Z</time>
      </trkpt>
      <trkpt lat="45.17343" lon="5.93384">
        <ele>1897</ele>
        <time>2019-04-13T12:33:00.009Z</time>
      </trkpt>
      <trkpt lat="45.17339" lon="5.93359">
        <ele>1887.2889984</ele>
        <time>2019-04-13T12:33:02.009Z</time>
      </trkpt>
      <trkpt lat="45.17342" lon="5.93339">
        <ele>1887.2889984</ele>
        <time>2019-04-13T12:33:04.009Z</time>
      </trkpt>
      <trkpt lat="45.17345" lon="5.93323">
        <ele>1888.7110016</ele>
        <time>2019-04-13T12:33:07.009Z</time>
      </trkpt>
      <trkpt lat="45.17348" lon="5.93311">
        <ele>1889</ele>
        <time>2019-04-13T12:33:18.009Z</time>
      </trkpt>
      <trkpt lat="45.17351" lon="5.93301">
        <ele>1890</ele>
        <time>2019-04-13T12:33:26.009Z</time>
      </trkpt>
      <trkpt lat="45.17354" lon="5.93296">
        <ele>1890</ele>
        <time>2019-04-13T12:33:30.009Z</time>
      </trkpt>
      <trkpt lat="45.17358" lon="5.93285">
        <ele>1891</ele>
        <time>2019-04-13T12:33:34.009Z</time>
      </trkpt>
      <trkpt lat="45.17359" lon="5.93279">
        <ele>1891</ele>
        <time>2019-04-13T12:33:35.009Z</time>
      </trkpt>
      <trkpt lat="45.17361" lon="5.93272">
        <ele>1891</ele>
        <time>2019-04-13T12:33:36.009Z</time>
      </trkpt>
      <trkpt lat="45.17362" lon="5.93263">
        <ele>1891</ele>
        <time>2019-04-13T12:33:37.009Z</time>
      </trkpt>
      <trkpt lat="45.17364" lon="5.93249">
        <ele>1891</ele>
        <time>2019-04-13T12:33:39.009Z</time>
      </trkpt>
      <trkpt lat="45.17367" lon="5.93234">
        <ele>1886</ele>
        <time>2019-04-13T12:33:42.009Z</time>
      </trkpt>
      <trkpt lat="45.17364" lon="5.93219">
        <ele>1886</ele>
        <time>2019-04-13T12:33:44.009Z</time>
      </trkpt>
      <trkpt lat="45.17361" lon="5.93201">
        <ele>1885.1330048</ele>
        <time>2019-04-13T12:33:46.009Z</time>
      </trkpt>
      <trkpt lat="45.17359" lon="5.93184">
        <ele>1883</ele>
        <time>2019-04-13T12:33:48.009Z</time>
      </trkpt>
      <trkpt lat="45.17359" lon="5.93168">
        <ele>1883</ele>
        <time>2019-04-13T12:33:51.009Z</time>
      </trkpt>
      <trkpt lat="45.17357" lon="5.93159">
        <ele>1883</ele>
        <time>2019-04-13T12:33:53.009Z</time>
      </trkpt>
      <trkpt lat="45.17354" lon="5.93151">
        <ele>1883</ele>
        <time>2019-04-13T12:33:55.009Z</time>
      </trkpt>
      <trkpt lat="45.17352" lon="5.93144">
        <ele>1881</ele>
        <time>2019-04-13T12:33:57.009Z</time>
      </trkpt>
      <trkpt lat="45.17347" lon="5.93132">
        <ele>1881</ele>
        <time>2019-04-13T12:34:01.009Z</time>
      </trkpt>
      <trkpt lat="45.17344" lon="5.93123">
        <ele>1881</ele>
        <time>2019-04-13T12:34:13.009Z</time>
      </trkpt>
      <trkpt lat="45.1734" lon="5.93115">
        <ele>1881</ele>
        <time>2019-04-13T12:34:16.009Z</time>
      </trkpt>
      <trkpt lat="45.17338" lon="5.93108">
        <ele>1881</ele>
        <time>2019-04-13T12:34:18.009Z</time>
      </trkpt>
      <trkpt lat="45.17334" lon="5.93097">
        <ele>1881</ele>
        <time>2019-04-13T12:34:20.009Z</time>
      </trkpt>
      <trkpt lat="45.17331" lon="5.93087">
        <ele>1879</ele>
        <time>2019-04-13T12:34:22.009Z</time>
      </trkpt>
      <trkpt lat="45.17329" lon="5.93081">
        <ele>1879</ele>
        <time>2019-04-13T12:34:23.009Z</time>
      </trkpt>
      <trkpt lat="45.17325" lon="5.9307">
        <ele>1879</ele>
        <time>2019-04-13T12:34:25.009Z</time>
      </trkpt>
      <trkpt lat="45.17319" lon="5.93059">
        <ele>1879</ele>
        <time>2019-04-13T12:34:27.009Z</time>
      </trkpt>
      <trkpt lat="45.17317" lon="5.93054">
        <ele>1879</ele>
        <time>2019-04-13T12:34:28.009Z</time>
      </trkpt>
      <trkpt lat="45.17314" lon="5.93045">
        <ele>1879</ele>
        <time>2019-04-13T12:34:30.009Z</time>
      </trkpt>
      <trkpt lat="45.17311" lon="5.93037">
        <ele>1876</ele>
        <time>2019-04-13T12:34:32.009Z</time>
      </trkpt>
      <trkpt lat="45.17306" lon="5.93025">
        <ele>1876</ele>
        <time>2019-04-13T12:34:34.009Z</time>
      </trkpt>
      <trkpt lat="45.17299" lon="5.93012">
        <ele>1874.2660096</ele>
        <time>2019-04-13T12:34:36.009Z</time>
      </trkpt>
      <trkpt lat="45.17292" lon="5.93">
        <ele>1870</ele>
        <time>2019-04-13T12:34:38.009Z</time>
      </trkpt>
      <trkpt lat="45.17287" lon="5.9299">
        <ele>1870</ele>
        <time>2019-04-13T12:34:40.009Z</time>
      </trkpt>
      <trkpt lat="45.17281" lon="5.9298">
        <ele>1865</ele>
        <time>2019-04-13T12:34:43.009Z</time>
      </trkpt>
      <trkpt lat="45.17277" lon="5.92975">
        <ele>1864</ele>
        <time>2019-04-13T12:34:45.009Z</time>
      </trkpt>
      <trkpt lat="45.17275" lon="5.92972">
        <ele>1864</ele>
        <time>2019-04-13T12:34:46.009Z</time>
      </trkpt>
      <trkpt lat="45.1727" lon="5.92965">
        <ele>1863.7110016</ele>
        <time>2019-04-13T12:34:48.009Z</time>
      </trkpt>
      <trkpt lat="45.17265" lon="5.92959">
        <ele>1862.7110016</ele>
        <time>2019-04-13T12:34:50.009Z</time>
      </trkpt>
      <trkpt lat="45.17259" lon="5.9295">
        <ele>1862</ele>
        <time>2019-04-13T12:34:52.009Z</time>
      </trkpt>
      <trkpt lat="45.17256" lon="5.92945">
        <ele>1862</ele>
        <time>2019-04-13T12:34:53.009Z</time>
      </trkpt>
      <trkpt lat="45.17253" lon="5.9294">
        <ele>1862</ele>
        <time>2019-04-13T12:34:54.009Z</time>
      </trkpt>
      <trkpt lat="45.17247" lon="5.92931">
        <ele>1861.4220032</ele>
        <time>2019-04-13T12:34:56.009Z</time>
      </trkpt>
      <trkpt lat="45.17241" lon="5.92921">
        <ele>1860</ele>
        <time>2019-04-13T12:34:58.009Z</time>
      </trkpt>
      <trkpt lat="45.17232" lon="5.92911">
        <ele>1856</ele>
        <time>2019-04-13T12:35:02.009Z</time>
      </trkpt>
      <trkpt lat="45.17227" lon="5.92907">
        <ele>1855</ele>
        <time>2019-04-13T12:35:04.009Z</time>
      </trkpt>
      <trkpt lat="45.17221" lon="5.92902">
        <ele>1854</ele>
        <time>2019-04-13T12:35:06.009Z</time>
      </trkpt>
      <trkpt lat="45.17214" lon="5.92898">
        <ele>1852.7110016</ele>
        <time>2019-04-13T12:35:08.009Z</time>
      </trkpt>
      <trkpt lat="45.17209" lon="5.92894">
        <ele>1852</ele>
        <time>2019-04-13T12:35:10.009Z</time>
      </trkpt>
      <trkpt lat="45.17203" lon="5.9289">
        <ele>1851</ele>
        <time>2019-04-13T12:35:12.009Z</time>
      </trkpt>
      <trkpt lat="45.17197" lon="5.92883">
        <ele>1851</ele>
        <time>2019-04-13T12:35:14.009Z</time>
      </trkpt>
      <trkpt lat="45.1719" lon="5.92874">
        <ele>1850.1330048</ele>
        <time>2019-04-13T12:35:16.009Z</time>
      </trkpt>
      <trkpt lat="45.17186" lon="5.92864">
        <ele>1848</ele>
        <time>2019-04-13T12:35:18.009Z</time>
      </trkpt>
      <trkpt lat="45.17185" lon="5.92852">
        <ele>1848</ele>
        <time>2019-04-13T12:35:20.009Z</time>
      </trkpt>
      <trkpt lat="45.17185" lon="5.92843">
        <ele>1847.1330048</ele>
        <time>2019-04-13T12:35:21.009Z</time>
      </trkpt>
      <trkpt lat="45.17185" lon="5.92834">
        <ele>1844.4220032</ele>
        <time>2019-04-13T12:35:22.009Z</time>
      </trkpt>
      <trkpt lat="45.17186" lon="5.92825">
        <ele>1842.7110016</ele>
        <time>2019-04-13T12:35:23.009Z</time>
      </trkpt>
      <trkpt lat="45.17187" lon="5.92817">
        <ele>1841.7110016</ele>
        <time>2019-04-13T12:35:24.009Z</time>
      </trkpt>
      <trkpt lat="45.17187" lon="5.9281">
        <ele>1841</ele>
        <time>2019-04-13T12:35:25.009Z</time>
      </trkpt>
      <trkpt lat="45.17187" lon="5.92803">
        <ele>1840.7110016</ele>
        <time>2019-04-13T12:35:26.009Z</time>
      </trkpt>
      <trkpt lat="45.17184" lon="5.92786">
        <ele>1840</ele>
        <time>2019-04-13T12:35:29.009Z</time>
      </trkpt>
      <trkpt lat="45.17183" lon="5.92776">
        <ele>1837</ele>
        <time>2019-04-13T12:35:31.009Z</time>
      </trkpt>
      <trkpt lat="45.17194" lon="5.92769">
        <ele>1836</ele>
        <time>2019-04-13T12:36:26.009Z</time>
      </trkpt>
      <trkpt lat="45.17203" lon="5.92758">
        <ele>1836</ele>
        <time>2019-04-13T12:36:29.009Z</time>
      </trkpt>
      <trkpt lat="45.17209" lon="5.92749">
        <ele>1831.9540224</ele>
        <time>2019-04-13T12:36:31.009Z</time>
      </trkpt>
      <trkpt lat="45.17213" lon="5.92739">
        <ele>1810.8440064</ele>
        <time>2019-04-13T12:36:33.009Z</time>
      </trkpt>
      <trkpt lat="45.17218" lon="5.92728">
        <ele>1802</ele>
        <time>2019-04-13T12:36:35.009Z</time>
      </trkpt>
      <trkpt lat="45.17225" lon="5.92719">
        <ele>1796.555008</ele>
        <time>2019-04-13T12:36:37.009Z</time>
      </trkpt>
      <trkpt lat="45.17233" lon="5.9271">
        <ele>1788.7138620637</ele>
        <time>2019-04-13T12:36:39.009Z</time>
      </trkpt>
      <trkpt lat="45.17234" lon="5.92698">
        <ele>1780.8440064</ele>
        <time>2019-04-13T12:36:42.009Z</time>
      </trkpt>
      <trkpt lat="45.17241" lon="5.92691">
        <ele>1776.1330048</ele>
        <time>2019-04-13T12:36:44.009Z</time>
      </trkpt>
      <trkpt lat="45.17244" lon="5.92678">
        <ele>1769.7110016</ele>
        <time>2019-04-13T12:36:46.009Z</time>
      </trkpt>
      <trkpt lat="45.17249" lon="5.92664">
        <ele>1766.1330048</ele>
        <time>2019-04-13T12:36:48.009Z</time>
      </trkpt>
      <trkpt lat="45.17251" lon="5.92645">
        <ele>1764</ele>
        <time>2019-04-13T12:36:50.009Z</time>
      </trkpt>
      <trkpt lat="45.17252" lon="5.92628">
        <ele>1762.7110016</ele>
        <time>2019-04-13T12:36:52.009Z</time>
      </trkpt>
      <trkpt lat="45.17257" lon="5.92612">
        <ele>1760.7110016</ele>
        <time>2019-04-13T12:36:54.009Z</time>
      </trkpt>
      <trkpt lat="45.17265" lon="5.92596">
        <ele>1758.7110016</ele>
        <time>2019-04-13T12:36:56.009Z</time>
      </trkpt>
      <trkpt lat="45.1727" lon="5.92587">
        <ele>1757.1330048</ele>
        <time>2019-04-13T12:36:57.009Z</time>
      </trkpt>
      <trkpt lat="45.17274" lon="5.92578">
        <ele>1754.7110016</ele>
        <time>2019-04-13T12:36:58.009Z</time>
      </trkpt>
      <trkpt lat="45.17278" lon="5.92569">
        <ele>1753.4220032</ele>
        <time>2019-04-13T12:36:59.009Z</time>
      </trkpt>
      <trkpt lat="45.17286" lon="5.92556">
        <ele>1751</ele>
        <time>2019-04-13T12:37:01.009Z</time>
      </trkpt>
      <trkpt lat="45.17292" lon="5.92544">
        <ele>1750.7110016</ele>
        <time>2019-04-13T12:37:03.009Z</time>
      </trkpt>
      <trkpt lat="45.17299" lon="5.92532">
        <ele>1748.7110016</ele>
        <time>2019-04-13T12:37:05.009Z</time>
      </trkpt>
      <trkpt lat="45.17306" lon="5.9252">
        <ele>1746.7110016</ele>
        <time>2019-04-13T12:37:07.009Z</time>
      </trkpt>
      <trkpt lat="45.17309" lon="5.92514">
        <ele>1746.2889984</ele>
        <time>2019-04-13T12:37:08.009Z</time>
      </trkpt>
      <trkpt lat="45.17315" lon="5.92502">
        <ele>1746.7110016</ele>
        <time>2019-04-13T12:37:10.009Z</time>
      </trkpt>
      <trkpt lat="45.17323" lon="5.92491">
        <ele>1742.1330048</ele>
        <time>2019-04-13T12:37:12.009Z</time>
      </trkpt>
      <trkpt lat="45.17334" lon="5.92489">
        <ele>1739.8440064</ele>
        <time>2019-04-13T12:37:14.009Z</time>
      </trkpt>
      <trkpt lat="45.17348" lon="5.9249">
        <ele>1730.7110016</ele>
        <time>2019-04-13T12:37:16.009Z</time>
      </trkpt>
      <trkpt lat="45.1736" lon="5.92495">
        <ele>1726.8440064</ele>
        <time>2019-04-13T12:37:18.009Z</time>
      </trkpt>
      <trkpt lat="45.17368" lon="5.92478">
        <ele>1722.4220032</ele>
        <time>2019-04-13T12:37:20.009Z</time>
      </trkpt>
      <trkpt lat="45.17375" lon="5.92458">
        <ele>1718.7110016</ele>
        <time>2019-04-13T12:37:22.009Z</time>
      </trkpt>
      <trkpt lat="45.17382" lon="5.92442">
        <ele>1714.7110016</ele>
        <time>2019-04-13T12:37:24.009Z</time>
      </trkpt>
      <trkpt lat="45.17392" lon="5.92435">
        <ele>1712.555008</ele>
        <time>2019-04-13T12:37:26.009Z</time>
      </trkpt>
      <trkpt lat="45.17404" lon="5.92431">
        <ele>1707.4220032</ele>
        <time>2019-04-13T12:37:28.009Z</time>
      </trkpt>
      <trkpt lat="45.17417" lon="5.92428">
        <ele>1700.1330048</ele>
        <time>2019-04-13T12:37:30.009Z</time>
      </trkpt>
      <trkpt lat="45.17432" lon="5.92434">
        <ele>1698</ele>
        <time>2019-04-13T12:37:32.009Z</time>
      </trkpt>
      <trkpt lat="45.17447" lon="5.92439">
        <ele>1698.4220032</ele>
        <time>2019-04-13T12:37:34.009Z</time>
      </trkpt>
      <trkpt lat="45.17462" lon="5.92437">
        <ele>1695.7110016</ele>
        <time>2019-04-13T12:37:36.009Z</time>
      </trkpt>
      <trkpt lat="45.17469" lon="5.92426">
        <ele>1693.2889984</ele>
        <time>2019-04-13T12:37:39.009Z</time>
      </trkpt>
      <trkpt lat="45.17472" lon="5.92417">
        <ele>1693</ele>
        <time>2019-04-13T12:37:44.009Z</time>
      </trkpt>
      <trkpt lat="45.1748" lon="5.92423">
        <ele>1692</ele>
        <time>2019-04-13T12:38:08.009Z</time>
      </trkpt>
      <trkpt lat="45.17485" lon="5.92414">
        <ele>1691.1415861912</ele>
        <time>2019-04-13T12:38:11.009Z</time>
      </trkpt>
      <trkpt lat="45.17487" lon="5.92403">
        <ele>1689</ele>
        <time>2019-04-13T12:38:13.009Z</time>
      </trkpt>
      <trkpt lat="45.1749" lon="5.92396">
        <ele>1689</ele>
        <time>2019-04-13T12:38:15.009Z</time>
      </trkpt>
      <trkpt lat="45.17499" lon="5.92389">
        <ele>1687</ele>
        <time>2019-04-13T12:38:20.009Z</time>
      </trkpt>
      <trkpt lat="45.17511" lon="5.92384">
        <ele>1686</ele>
        <time>2019-04-13T12:38:25.009Z</time>
      </trkpt>
      <trkpt lat="45.17521" lon="5.92378">
        <ele>1685</ele>
        <time>2019-04-13T12:38:30.009Z</time>
      </trkpt>
      <trkpt lat="45.17533" lon="5.9237">
        <ele>1684</ele>
        <time>2019-04-13T12:38:36.009Z</time>
      </trkpt>
      <trkpt lat="45.17541" lon="5.92359">
        <ele>1683.7110016</ele>
        <time>2019-04-13T12:38:41.009Z</time>
      </trkpt>
      <trkpt lat="45.1754" lon="5.92346">
        <ele>1683</ele>
        <time>2019-04-13T12:38:48.009Z</time>
      </trkpt>
      <trkpt lat="45.17537" lon="5.92336">
        <ele>1683</ele>
        <time>2019-04-13T12:39:08.009Z</time>
      </trkpt>
      <trkpt lat="45.17531" lon="5.92328">
        <ele>1683</ele>
        <time>2019-04-13T12:39:16.009Z</time>
      </trkpt>
      <trkpt lat="45.17524" lon="5.92314">
        <ele>1682</ele>
        <time>2019-04-13T12:39:22.009Z</time>
      </trkpt>
      <trkpt lat="45.17524" lon="5.92297">
        <ele>1681.7110016</ele>
        <time>2019-04-13T12:39:31.009Z</time>
      </trkpt>
      <trkpt lat="45.17528" lon="5.92281">
        <ele>1681</ele>
        <time>2019-04-13T12:39:37.009Z</time>
      </trkpt>
      <trkpt lat="45.17532" lon="5.9227">
        <ele>1682</ele>
        <time>2019-04-13T12:39:42.009Z</time>
      </trkpt>
      <trkpt lat="45.17535" lon="5.9226">
        <ele>1682</ele>
        <time>2019-04-13T12:39:47.009Z</time>
      </trkpt>
      <trkpt lat="45.17537" lon="5.92252">
        <ele>1682</ele>
        <time>2019-04-13T12:39:54.009Z</time>
      </trkpt>
      <trkpt lat="45.1754" lon="5.92241">
        <ele>1682</ele>
        <time>2019-04-13T12:39:59.009Z</time>
      </trkpt>
      <trkpt lat="45.17544" lon="5.92229">
        <ele>1680</ele>
        <time>2019-04-13T12:40:03.009Z</time>
      </trkpt>
      <trkpt lat="45.1755" lon="5.92216">
        <ele>1680</ele>
        <time>2019-04-13T12:40:07.009Z</time>
      </trkpt>
      <trkpt lat="45.17559" lon="5.92205">
        <ele>1680</ele>
        <time>2019-04-13T12:40:12.009Z</time>
      </trkpt>
      <trkpt lat="45.17567" lon="5.92191">
        <ele>1680</ele>
        <time>2019-04-13T12:40:16.009Z</time>
      </trkpt>
      <trkpt lat="45.17573" lon="5.92176">
        <ele>1679.1330048</ele>
        <time>2019-04-13T12:40:21.009Z</time>
      </trkpt>
      <trkpt lat="45.17583" lon="5.92167">
        <ele>1676.7110016</ele>
        <time>2019-04-13T12:40:26.009Z</time>
      </trkpt>
      <trkpt lat="45.1759" lon="5.92157">
        <ele>1675.7110016</ele>
        <time>2019-04-13T12:40:31.009Z</time>
      </trkpt>
      <trkpt lat="45.17599" lon="5.92145">
        <ele>1675</ele>
        <time>2019-04-13T12:40:39.009Z</time>
      </trkpt>
      <trkpt lat="45.17604" lon="5.92131">
        <ele>1675</ele>
        <time>2019-04-13T12:40:44.009Z</time>
      </trkpt>
      <trkpt lat="45.17608" lon="5.92118">
        <ele>1675</ele>
        <time>2019-04-13T12:40:50.009Z</time>
      </trkpt>
      <trkpt lat="45.17615" lon="5.92102">
        <ele>1674</ele>
        <time>2019-04-13T12:40:55.009Z</time>
      </trkpt>
      <trkpt lat="45.17619" lon="5.92089">
        <ele>1674</ele>
        <time>2019-04-13T12:40:58.009Z</time>
      </trkpt>
      <trkpt lat="45.17626" lon="5.92078">
        <ele>1672</ele>
        <time>2019-04-13T12:41:02.009Z</time>
      </trkpt>
      <trkpt lat="45.17636" lon="5.92073">
        <ele>1672</ele>
        <time>2019-04-13T12:41:06.009Z</time>
      </trkpt>
      <trkpt lat="45.17646" lon="5.92068">
        <ele>1672</ele>
        <time>2019-04-13T12:41:09.009Z</time>
      </trkpt>
      <trkpt lat="45.17655" lon="5.92061">
        <ele>1670</ele>
        <time>2019-04-13T12:41:12.009Z</time>
      </trkpt>
      <trkpt lat="45.17663" lon="5.9205">
        <ele>1670</ele>
        <time>2019-04-13T12:41:16.009Z</time>
      </trkpt>
      <trkpt lat="45.17667" lon="5.92035">
        <ele>1670</ele>
        <time>2019-04-13T12:41:20.009Z</time>
      </trkpt>
      <trkpt lat="45.17668" lon="5.92021">
        <ele>1669</ele>
        <time>2019-04-13T12:41:25.009Z</time>
      </trkpt>
      <trkpt lat="45.17673" lon="5.92009">
        <ele>1669</ele>
        <time>2019-04-13T12:41:30.009Z</time>
      </trkpt>
      <trkpt lat="45.17682" lon="5.91995">
        <ele>1667</ele>
        <time>2019-04-13T12:41:34.009Z</time>
      </trkpt>
      <trkpt lat="45.17692" lon="5.91987">
        <ele>1667</ele>
        <time>2019-04-13T12:41:37.009Z</time>
      </trkpt>
      <trkpt lat="45.17702" lon="5.91976">
        <ele>1667</ele>
        <time>2019-04-13T12:41:40.009Z</time>
      </trkpt>
      <trkpt lat="45.17705" lon="5.91955">
        <ele>1665</ele>
        <time>2019-04-13T12:41:43.009Z</time>
      </trkpt>
      <trkpt lat="45.17708" lon="5.91939">
        <ele>1665</ele>
        <time>2019-04-13T12:41:45.009Z</time>
      </trkpt>
      <trkpt lat="45.17712" lon="5.91925">
        <ele>1662.0704581818</ele>
        <time>2019-04-13T12:41:47.009Z</time>
      </trkpt>
      <trkpt lat="45.17711" lon="5.91911">
        <ele>1655</ele>
        <time>2019-04-13T12:41:54.009Z</time>
      </trkpt>
      <trkpt lat="45.17722" lon="5.91909">
        <ele>1655</ele>
        <time>2019-04-13T12:42:14.009Z</time>
      </trkpt>
      <trkpt lat="45.17727" lon="5.91896">
        <ele>1653</ele>
        <time>2019-04-13T12:42:23.009Z</time>
      </trkpt>
      <trkpt lat="45.17735" lon="5.91882">
        <ele>1653</ele>
        <time>2019-04-13T12:42:27.009Z</time>
      </trkpt>
      <trkpt lat="45.17742" lon="5.9187">
        <ele>1650.9770112</ele>
        <time>2019-04-13T12:42:31.009Z</time>
      </trkpt>
      <trkpt lat="45.17749" lon="5.91859">
        <ele>1638</ele>
        <time>2019-04-13T12:42:36.009Z</time>
      </trkpt>
      <trkpt lat="45.17759" lon="5.91864">
        <ele>1637</ele>
        <time>2019-04-13T12:42:41.009Z</time>
      </trkpt>
      <trkpt lat="45.17768" lon="5.91855">
        <ele>1633.7110016</ele>
        <time>2019-04-13T12:42:47.009Z</time>
      </trkpt>
      <trkpt lat="45.17763" lon="5.91841">
        <ele>1629</ele>
        <time>2019-04-13T12:42:53.009Z</time>
      </trkpt>
      <trkpt lat="45.17752" lon="5.91834">
        <ele>1629</ele>
        <time>2019-04-13T12:43:05.009Z</time>
      </trkpt>
      <trkpt lat="45.17756" lon="5.91825">
        <ele>1626</ele>
        <time>2019-04-13T12:43:25.009Z</time>
      </trkpt>
      <trkpt lat="45.17763" lon="5.91821">
        <ele>1625</ele>
        <time>2019-04-13T12:43:37.009Z</time>
      </trkpt>
      <trkpt lat="45.17772" lon="5.9182">
        <ele>1623</ele>
        <time>2019-04-13T12:43:59.009Z</time>
      </trkpt>
      <trkpt lat="45.17781" lon="5.91823">
        <ele>1622</ele>
        <time>2019-04-13T12:44:17.009Z</time>
      </trkpt>
      <trkpt lat="45.1779" lon="5.91827">
        <ele>1620</ele>
        <time>2019-04-13T12:44:30.009Z</time>
      </trkpt>
      <trkpt lat="45.17795" lon="5.91819">
        <ele>1617</ele>
        <time>2019-04-13T12:45:25.009Z</time>
      </trkpt>
      <trkpt lat="45.17802" lon="5.9182">
        <ele>1617</ele>
        <time>2019-04-13T12:45:40.009Z</time>
      </trkpt>
      <trkpt lat="45.17809" lon="5.91809">
        <ele>1611</ele>
        <time>2019-04-13T12:45:57.009Z</time>
      </trkpt>
      <trkpt lat="45.17809" lon="5.91799">
        <ele>1610</ele>
        <time>2019-04-13T12:46:10.009Z</time>
      </trkpt>
      <trkpt lat="45.1781" lon="5.91784">
        <ele>1604.1330048</ele>
        <time>2019-04-13T12:46:21.009Z</time>
      </trkpt>
      <trkpt lat="45.17819" lon="5.9178">
        <ele>1599</ele>
        <time>2019-04-13T12:46:29.009Z</time>
      </trkpt>
      <trkpt lat="45.17826" lon="5.91767">
        <ele>1593</ele>
        <time>2019-04-13T12:47:08.009Z</time>
      </trkpt>
      <trkpt lat="45.17836" lon="5.91761">
        <ele>1583</ele>
        <time>2019-04-13T12:47:14.009Z</time>
      </trkpt>
      <trkpt lat="45.1784" lon="5.91747">
        <ele>1577</ele>
        <time>2019-04-13T12:47:26.009Z</time>
      </trkpt>
      <trkpt lat="45.17847" lon="5.91739">
        <ele>1575.7110016</ele>
        <time>2019-04-13T12:47:41.009Z</time>
      </trkpt>
      <trkpt lat="45.17851" lon="5.91725">
        <ele>1573</ele>
        <time>2019-04-13T12:47:59.009Z</time>
      </trkpt>
      <trkpt lat="45.17862" lon="5.91724">
        <ele>1568.4220032</ele>
        <time>2019-04-13T12:48:06.009Z</time>
      </trkpt>
      <trkpt lat="45.17863" lon="5.9171">
        <ele>1564</ele>
        <time>2019-04-13T12:48:25.009Z</time>
      </trkpt>
      <trkpt lat="45.17871" lon="5.91699">
        <ele>1564</ele>
        <time>2019-04-13T12:48:30.009Z</time>
      </trkpt>
      <trkpt lat="45.17879" lon="5.91695">
        <ele>1557</ele>
        <time>2019-04-13T12:48:39.009Z</time>
      </trkpt>
      <trkpt lat="45.17889" lon="5.91688">
        <ele>1554.1330048</ele>
        <time>2019-04-13T12:48:46.009Z</time>
      </trkpt>
      <trkpt lat="45.17891" lon="5.91677">
        <ele>1546</ele>
        <time>2019-04-13T12:49:03.009Z</time>
      </trkpt>
      <trkpt lat="45.17897" lon="5.91668">
        <ele>1545</ele>
        <time>2019-04-13T12:49:16.009Z</time>
      </trkpt>
      <trkpt lat="45.17905" lon="5.91662">
        <ele>1541</ele>
        <time>2019-04-13T12:49:28.009Z</time>
      </trkpt>
      <trkpt lat="45.17912" lon="5.91655">
        <ele>1540</ele>
        <time>2019-04-13T12:49:40.009Z</time>
      </trkpt>
      <trkpt lat="45.17923" lon="5.91658">
        <ele>1538</ele>
        <time>2019-04-13T12:49:46.009Z</time>
      </trkpt>
      <trkpt lat="45.17929" lon="5.9166">
        <ele>1538</ele>
        <time>2019-04-13T12:49:50.009Z</time>
      </trkpt>
      <trkpt lat="45.1793" lon="5.91648">
        <ele>1531</ele>
        <time>2019-04-13T12:50:07.009Z</time>
      </trkpt>
      <trkpt lat="45.17934" lon="5.91637">
        <ele>1529</ele>
        <time>2019-04-13T12:50:14.009Z</time>
      </trkpt>
      <trkpt lat="45.17945" lon="5.91636">
        <ele>1523.7138620637</ele>
        <time>2019-04-13T12:50:26.009Z</time>
      </trkpt>
      <trkpt lat="45.17951" lon="5.91633">
        <ele>1523</ele>
        <time>2019-04-13T12:50:49.009Z</time>
      </trkpt>
      <trkpt lat="45.17959" lon="5.91632">
        <ele>1522</ele>
        <time>2019-04-13T12:50:55.009Z</time>
      </trkpt>
      <trkpt lat="45.17956" lon="5.91618">
        <ele>1517</ele>
        <time>2019-04-13T12:51:04.009Z</time>
      </trkpt>
      <trkpt lat="45.17948" lon="5.91609">
        <ele>1515</ele>
        <time>2019-04-13T12:51:07.009Z</time>
      </trkpt>
      <trkpt lat="45.17942" lon="5.916">
        <ele>1512</ele>
        <time>2019-04-13T12:51:27.009Z</time>
      </trkpt>
      <trkpt lat="45.1795" lon="5.91592">
        <ele>1510</ele>
        <time>2019-04-13T12:51:33.009Z</time>
      </trkpt>
      <trkpt lat="45.17958" lon="5.91589">
        <ele>1509.1330048</ele>
        <time>2019-04-13T12:51:36.009Z</time>
      </trkpt>
      <trkpt lat="45.17966" lon="5.91587">
        <ele>1507</ele>
        <time>2019-04-13T12:51:38.009Z</time>
      </trkpt>
      <trkpt lat="45.17975" lon="5.91586">
        <ele>1507</ele>
        <time>2019-04-13T12:51:40.009Z</time>
      </trkpt>
      <trkpt lat="45.17982" lon="5.91584">
        <ele>1501.4220032</ele>
        <time>2019-04-13T12:51:42.009Z</time>
      </trkpt>
      <trkpt lat="45.17991" lon="5.91584">
        <ele>1498</ele>
        <time>2019-04-13T12:51:45.009Z</time>
      </trkpt>
      <trkpt lat="45.17996" lon="5.91583">
        <ele>1497</ele>
        <time>2019-04-13T12:51:47.009Z</time>
      </trkpt>
      <trkpt lat="45.18003" lon="5.91581">
        <ele>1495</ele>
        <time>2019-04-13T12:51:50.009Z</time>
      </trkpt>
      <trkpt lat="45.18009" lon="5.91579">
        <ele>1494</ele>
        <time>2019-04-13T12:52:40.009Z</time>
      </trkpt>
      <trkpt lat="45.18009" lon="5.91585">
        <ele>1499</ele>
        <time>2019-04-13T12:55:10.009Z</time>
      </trkpt>
      <trkpt lat="45.18015" lon="5.91584">
        <ele>1505</ele>
        <time>2019-04-13T12:56:24.009Z</time>
      </trkpt>
      <trkpt lat="45.18023" lon="5.91585">
        <ele>1505</ele>
        <time>2019-04-13T12:56:33.009Z</time>
      </trkpt>
      <trkpt lat="45.1803" lon="5.91583">
        <ele>1504.7110016</ele>
        <time>2019-04-13T12:56:41.009Z</time>
      </trkpt>
      <trkpt lat="45.18037" lon="5.91583">
        <ele>1504</ele>
        <time>2019-04-13T12:56:49.009Z</time>
      </trkpt>
      <trkpt lat="45.18045" lon="5.91581">
        <ele>1505</ele>
        <time>2019-04-13T12:56:55.009Z</time>
      </trkpt>
      <trkpt lat="45.18055" lon="5.91581">
        <ele>1503</ele>
        <time>2019-04-13T12:57:06.009Z</time>
      </trkpt>
      <trkpt lat="45.18065" lon="5.91578">
        <ele>1503.2889984</ele>
        <time>2019-04-13T12:57:15.009Z</time>
      </trkpt>
      <trkpt lat="45.18073" lon="5.91574">
        <ele>1503</ele>
        <time>2019-04-13T12:57:23.009Z</time>
      </trkpt>
      <trkpt lat="45.1808" lon="5.91572">
        <ele>1503</ele>
        <time>2019-04-13T12:57:29.009Z</time>
      </trkpt>
      <trkpt lat="45.18087" lon="5.9157">
        <ele>1502</ele>
        <time>2019-04-13T12:57:37.009Z</time>
      </trkpt>
      <trkpt lat="45.18098" lon="5.9157">
        <ele>1503</ele>
        <time>2019-04-13T12:57:46.009Z</time>
      </trkpt>
      <trkpt lat="45.18109" lon="5.91567">
        <ele>1502</ele>
        <time>2019-04-13T12:57:55.009Z</time>
      </trkpt>
      <trkpt lat="45.18116" lon="5.91557">
        <ele>1501</ele>
        <time>2019-04-13T12:58:04.009Z</time>
      </trkpt>
      <trkpt lat="45.18121" lon="5.91545">
        <ele>1501</ele>
        <time>2019-04-13T12:58:13.009Z</time>
      </trkpt>
      <trkpt lat="45.18125" lon="5.91532">
        <ele>1499</ele>
        <time>2019-04-13T12:58:22.009Z</time>
      </trkpt>
      <trkpt lat="45.18122" lon="5.91519">
        <ele>1499</ele>
        <time>2019-04-13T12:58:39.009Z</time>
      </trkpt>
      <trkpt lat="45.18119" lon="5.91506">
        <ele>1497</ele>
        <time>2019-04-13T12:58:44.009Z</time>
      </trkpt>
      <trkpt lat="45.18119" lon="5.91496">
        <ele>1496</ele>
        <time>2019-04-13T12:58:52.009Z</time>
      </trkpt>
      <trkpt lat="45.18118" lon="5.91486">
        <ele>1496</ele>
        <time>2019-04-13T12:58:59.009Z</time>
      </trkpt>
      <trkpt lat="45.1812" lon="5.91477">
        <ele>1495</ele>
        <time>2019-04-13T12:59:04.009Z</time>
      </trkpt>
      <trkpt lat="45.18125" lon="5.91469">
        <ele>1496</ele>
        <time>2019-04-13T12:59:09.009Z</time>
      </trkpt>
      <trkpt lat="45.18131" lon="5.91464">
        <ele>1495</ele>
        <time>2019-04-13T12:59:14.009Z</time>
      </trkpt>
      <trkpt lat="45.18138" lon="5.91461">
        <ele>1495</ele>
        <time>2019-04-13T12:59:19.009Z</time>
      </trkpt>
      <trkpt lat="45.18146" lon="5.91456">
        <ele>1492</ele>
        <time>2019-04-13T12:59:25.009Z</time>
      </trkpt>
      <trkpt lat="45.18153" lon="5.91451">
        <ele>1489</ele>
        <time>2019-04-13T12:59:32.009Z</time>
      </trkpt>
      <trkpt lat="45.18161" lon="5.91451">
        <ele>1488</ele>
        <time>2019-04-13T12:59:40.009Z</time>
      </trkpt>
      <trkpt lat="45.18172" lon="5.9145">
        <ele>1486</ele>
        <time>2019-04-13T12:59:48.009Z</time>
      </trkpt>
      <trkpt lat="45.18182" lon="5.91449">
        <ele>1485</ele>
        <time>2019-04-13T12:59:57.009Z</time>
      </trkpt>
      <trkpt lat="45.18192" lon="5.91444">
        <ele>1481</ele>
        <time>2019-04-13T13:00:04.009Z</time>
      </trkpt>
      <trkpt lat="45.18201" lon="5.91435">
        <ele>1481</ele>
        <time>2019-04-13T13:00:12.009Z</time>
      </trkpt>
      <trkpt lat="45.18208" lon="5.9143">
        <ele>1481</ele>
        <time>2019-04-13T13:00:18.009Z</time>
      </trkpt>
      <trkpt lat="45.18214" lon="5.91427">
        <ele>1479</ele>
        <time>2019-04-13T13:00:23.009Z</time>
      </trkpt>
      <trkpt lat="45.18222" lon="5.91424">
        <ele>1479</ele>
        <time>2019-04-13T13:00:28.009Z</time>
      </trkpt>
      <trkpt lat="45.18229" lon="5.91421">
        <ele>1476</ele>
        <time>2019-04-13T13:00:34.009Z</time>
      </trkpt>
      <trkpt lat="45.18236" lon="5.91419">
        <ele>1474</ele>
        <time>2019-04-13T13:00:40.009Z</time>
      </trkpt>
      <trkpt lat="45.18243" lon="5.91414">
        <ele>1473</ele>
        <time>2019-04-13T13:00:45.009Z</time>
      </trkpt>
      <trkpt lat="45.1825" lon="5.91414">
        <ele>1472</ele>
        <time>2019-04-13T13:01:28.009Z</time>
      </trkpt>
      <trkpt lat="45.18256" lon="5.9141">
        <ele>1472</ele>
        <time>2019-04-13T13:01:30.009Z</time>
      </trkpt>
      <trkpt lat="45.18265" lon="5.91406">
        <ele>1469</ele>
        <time>2019-04-13T13:01:33.009Z</time>
      </trkpt>
      <trkpt lat="45.18277" lon="5.91406">
        <ele>1468.1330048</ele>
        <time>2019-04-13T13:01:36.009Z</time>
      </trkpt>
      <trkpt lat="45.18284" lon="5.91404">
        <ele>1466</ele>
        <time>2019-04-13T13:01:38.009Z</time>
      </trkpt>
      <trkpt lat="45.18294" lon="5.91403">
        <ele>1466</ele>
        <time>2019-04-13T13:01:40.009Z</time>
      </trkpt>
      <trkpt lat="45.18303" lon="5.91401">
        <ele>1461.1330048</ele>
        <time>2019-04-13T13:01:42.009Z</time>
      </trkpt>
      <trkpt lat="45.18311" lon="5.914">
        <ele>1458</ele>
        <time>2019-04-13T13:01:45.009Z</time>
      </trkpt>
      <trkpt lat="45.18321" lon="5.91396">
        <ele>1455.7810618182</ele>
        <time>2019-04-13T13:01:48.009Z</time>
      </trkpt>
      <trkpt lat="45.18329" lon="5.91392">
        <ele>1453.7110016</ele>
        <time>2019-04-13T13:01:50.009Z</time>
      </trkpt>
      <trkpt lat="45.18335" lon="5.91386">
        <ele>1450.7110016</ele>
        <time>2019-04-13T13:01:54.009Z</time>
      </trkpt>
      <trkpt lat="45.18347" lon="5.9138">
        <ele>1448.4220032</ele>
        <time>2019-04-13T13:02:01.009Z</time>
      </trkpt>
      <trkpt lat="45.18359" lon="5.91379">
        <ele>1447</ele>
        <time>2019-04-13T13:02:04.009Z</time>
      </trkpt>
      <trkpt lat="45.18368" lon="5.91378">
        <ele>1445.2889984</ele>
        <time>2019-04-13T13:02:07.009Z</time>
      </trkpt>
      <trkpt lat="45.18377" lon="5.91377">
        <ele>1442</ele>
        <time>2019-04-13T13:02:17.009Z</time>
      </trkpt>
      <trkpt lat="45.18385" lon="5.91373">
        <ele>1442</ele>
        <time>2019-04-13T13:02:20.009Z</time>
      </trkpt>
      <trkpt lat="45.18398" lon="5.91372">
        <ele>1439</ele>
        <time>2019-04-13T13:02:23.009Z</time>
      </trkpt>
      <trkpt lat="45.18408" lon="5.91371">
        <ele>1436</ele>
        <time>2019-04-13T13:02:28.009Z</time>
      </trkpt>
      <trkpt lat="45.18418" lon="5.91369">
        <ele>1435.1330048</ele>
        <time>2019-04-13T13:02:31.009Z</time>
      </trkpt>
      <trkpt lat="45.18425" lon="5.91364">
        <ele>1429</ele>
        <time>2019-04-13T13:03:07.009Z</time>
      </trkpt>
      <trkpt lat="45.18434" lon="5.91363">
        <ele>1429</ele>
        <time>2019-04-13T13:03:15.009Z</time>
      </trkpt>
      <trkpt lat="45.18443" lon="5.91364">
        <ele>1428.1330048</ele>
        <time>2019-04-13T13:03:21.009Z</time>
      </trkpt>
      <trkpt lat="45.18449" lon="5.91365">
        <ele>1425.4220032</ele>
        <time>2019-04-13T13:03:26.009Z</time>
      </trkpt>
      <trkpt lat="45.18458" lon="5.91362">
        <ele>1423.2889984</ele>
        <time>2019-04-13T13:03:33.009Z</time>
      </trkpt>
      <trkpt lat="45.18465" lon="5.91363">
        <ele>1423</ele>
        <time>2019-04-13T13:03:37.009Z</time>
      </trkpt>
      <trkpt lat="45.18471" lon="5.91365">
        <ele>1422</ele>
        <time>2019-04-13T13:03:44.009Z</time>
      </trkpt>
      <trkpt lat="45.18478" lon="5.91366">
        <ele>1422</ele>
        <time>2019-04-13T13:03:49.009Z</time>
      </trkpt>
      <trkpt lat="45.18486" lon="5.91372">
        <ele>1420</ele>
        <time>2019-04-13T13:03:55.009Z</time>
      </trkpt>
      <trkpt lat="45.18495" lon="5.91379">
        <ele>1416</ele>
        <time>2019-04-13T13:04:06.009Z</time>
      </trkpt>
      <trkpt lat="45.18504" lon="5.91373">
        <ele>1415</ele>
        <time>2019-04-13T13:04:17.009Z</time>
      </trkpt>
      <trkpt lat="45.18513" lon="5.9137">
        <ele>1413</ele>
        <time>2019-04-13T13:04:25.009Z</time>
      </trkpt>
      <trkpt lat="45.18521" lon="5.91362">
        <ele>1408</ele>
        <time>2019-04-13T13:04:32.009Z</time>
      </trkpt>
      <trkpt lat="45.18527" lon="5.91353">
        <ele>1406</ele>
        <time>2019-04-13T13:04:38.009Z</time>
      </trkpt>
      <trkpt lat="45.18535" lon="5.91349">
        <ele>1406</ele>
        <time>2019-04-13T13:04:43.009Z</time>
      </trkpt>
      <trkpt lat="45.18543" lon="5.91346">
        <ele>1403.7110016</ele>
        <time>2019-04-13T13:04:51.009Z</time>
      </trkpt>
      <trkpt lat="45.18553" lon="5.9134">
        <ele>1402</ele>
        <time>2019-04-13T13:04:58.009Z</time>
      </trkpt>
      <trkpt lat="45.1856" lon="5.91333">
        <ele>1398</ele>
        <time>2019-04-13T13:05:04.009Z</time>
      </trkpt>
      <trkpt lat="45.18567" lon="5.91322">
        <ele>1396</ele>
        <time>2019-04-13T13:05:17.009Z</time>
      </trkpt>
      <trkpt lat="45.18575" lon="5.91311">
        <ele>1395</ele>
        <time>2019-04-13T13:05:26.009Z</time>
      </trkpt>
      <trkpt lat="45.18583" lon="5.91305">
        <ele>1393</ele>
        <time>2019-04-13T13:05:32.009Z</time>
      </trkpt>
      <trkpt lat="45.18593" lon="5.913">
        <ele>1393</ele>
        <time>2019-04-13T13:05:40.009Z</time>
      </trkpt>
      <trkpt lat="45.186" lon="5.91293">
        <ele>1391</ele>
        <time>2019-04-13T13:05:47.009Z</time>
      </trkpt>
      <trkpt lat="45.1861" lon="5.91294">
        <ele>1390</ele>
        <time>2019-04-13T13:05:55.009Z</time>
      </trkpt>
      <trkpt lat="45.18618" lon="5.91296">
        <ele>1388</ele>
        <time>2019-04-13T13:06:04.009Z</time>
      </trkpt>
      <trkpt lat="45.18629" lon="5.91296">
        <ele>1388</ele>
        <time>2019-04-13T13:06:13.009Z</time>
      </trkpt>
      <trkpt lat="45.1864" lon="5.91294">
        <ele>1385</ele>
        <time>2019-04-13T13:06:22.009Z</time>
      </trkpt>
      <trkpt lat="45.1865" lon="5.91294">
        <ele>1384</ele>
        <time>2019-04-13T13:06:29.009Z</time>
      </trkpt>
      <trkpt lat="45.18659" lon="5.91296">
        <ele>1382</ele>
        <time>2019-04-13T13:06:35.009Z</time>
      </trkpt>
      <trkpt lat="45.18667" lon="5.91296">
        <ele>1380.7110016</ele>
        <time>2019-04-13T13:06:41.009Z</time>
      </trkpt>
      <trkpt lat="45.18673" lon="5.9129">
        <ele>1378</ele>
        <time>2019-04-13T13:06:47.009Z</time>
      </trkpt>
      <trkpt lat="45.18681" lon="5.91288">
        <ele>1377</ele>
        <time>2019-04-13T13:07:00.009Z</time>
      </trkpt>
      <trkpt lat="45.1869" lon="5.91285">
        <ele>1376</ele>
        <time>2019-04-13T13:08:25.009Z</time>
      </trkpt>
      <trkpt lat="45.18696" lon="5.91276">
        <ele>1376</ele>
        <time>2019-04-13T13:08:33.009Z</time>
      </trkpt>
      <trkpt lat="45.18703" lon="5.91267">
        <ele>1376</ele>
        <time>2019-04-13T13:08:40.009Z</time>
      </trkpt>
      <trkpt lat="45.1871" lon="5.91256">
        <ele>1375</ele>
        <time>2019-04-13T13:08:48.009Z</time>
      </trkpt>
      <trkpt lat="45.18714" lon="5.91246">
        <ele>1374</ele>
        <time>2019-04-13T13:08:55.009Z</time>
      </trkpt>
      <trkpt lat="45.18721" lon="5.91237">
        <ele>1372</ele>
        <time>2019-04-13T13:09:03.009Z</time>
      </trkpt>
      <trkpt lat="45.18727" lon="5.91228">
        <ele>1372</ele>
        <time>2019-04-13T13:09:10.009Z</time>
      </trkpt>
      <trkpt lat="45.18734" lon="5.91219">
        <ele>1372</ele>
        <time>2019-04-13T13:09:19.009Z</time>
      </trkpt>
      <trkpt lat="45.18741" lon="5.91209">
        <ele>1369.7110016</ele>
        <time>2019-04-13T13:09:26.009Z</time>
      </trkpt>
      <trkpt lat="45.18745" lon="5.91197">
        <ele>1368</ele>
        <time>2019-04-13T13:09:32.009Z</time>
      </trkpt>
      <trkpt lat="45.18753" lon="5.91187">
        <ele>1368</ele>
        <time>2019-04-13T13:09:39.009Z</time>
      </trkpt>
      <trkpt lat="45.1876" lon="5.91178">
        <ele>1366</ele>
        <time>2019-04-13T13:09:46.009Z</time>
      </trkpt>
      <trkpt lat="45.18768" lon="5.91169">
        <ele>1363</ele>
        <time>2019-04-13T13:09:54.009Z</time>
      </trkpt>
      <trkpt lat="45.18776" lon="5.91162">
        <ele>1361.4220032</ele>
        <time>2019-04-13T13:10:01.009Z</time>
      </trkpt>
      <trkpt lat="45.18785" lon="5.91155">
        <ele>1359</ele>
        <time>2019-04-13T13:10:09.009Z</time>
      </trkpt>
      <trkpt lat="45.1879" lon="5.91146">
        <ele>1358</ele>
        <time>2019-04-13T13:10:17.009Z</time>
      </trkpt>
      <trkpt lat="45.18787" lon="5.91135">
        <ele>1354.4220032</ele>
        <time>2019-04-13T13:10:26.009Z</time>
      </trkpt>
      <trkpt lat="45.1878" lon="5.91127">
        <ele>1351</ele>
        <time>2019-04-13T13:10:34.009Z</time>
      </trkpt>
      <trkpt lat="45.18771" lon="5.9112">
        <ele>1349</ele>
        <time>2019-04-13T13:10:44.009Z</time>
      </trkpt>
      <trkpt lat="45.18763" lon="5.91118">
        <ele>1346</ele>
        <time>2019-04-13T13:10:53.009Z</time>
      </trkpt>
      <trkpt lat="45.18753" lon="5.91119">
        <ele>1344</ele>
        <time>2019-04-13T13:11:00.009Z</time>
      </trkpt>
      <trkpt lat="45.18745" lon="5.91118">
        <ele>1342</ele>
        <time>2019-04-13T13:11:05.009Z</time>
      </trkpt>
      <trkpt lat="45.18735" lon="5.91117">
        <ele>1340</ele>
        <time>2019-04-13T13:11:13.009Z</time>
      </trkpt>
      <trkpt lat="45.18726" lon="5.91115">
        <ele>1340</ele>
        <time>2019-04-13T13:11:20.009Z</time>
      </trkpt>
      <trkpt lat="45.18718" lon="5.91113">
        <ele>1338</ele>
        <time>2019-04-13T13:11:24.009Z</time>
      </trkpt>
      <trkpt lat="45.18708" lon="5.91111">
        <ele>1337.1330048</ele>
        <time>2019-04-13T13:11:31.009Z</time>
      </trkpt>
      <trkpt lat="45.18699" lon="5.91102">
        <ele>1333</ele>
        <time>2019-04-13T13:11:38.009Z</time>
      </trkpt>
      <trkpt lat="45.18693" lon="5.91091">
        <ele>1330</ele>
        <time>2019-04-13T13:11:48.009Z</time>
      </trkpt>
      <trkpt lat="45.18685" lon="5.91082">
        <ele>1327.4220032</ele>
        <time>2019-04-13T13:11:56.009Z</time>
      </trkpt>
      <trkpt lat="45.18679" lon="5.91073">
        <ele>1325</ele>
        <time>2019-04-13T13:12:28.009Z</time>
      </trkpt>
      <trkpt lat="45.18673" lon="5.91062">
        <ele>1323</ele>
        <time>2019-04-13T13:14:10.009Z</time>
      </trkpt>
      <trkpt lat="45.18667" lon="5.91048">
        <ele>1322</ele>
        <time>2019-04-13T13:14:20.009Z</time>
      </trkpt>
      <trkpt lat="45.18659" lon="5.9104">
        <ele>1318</ele>
        <time>2019-04-13T13:14:28.009Z</time>
      </trkpt>
      <trkpt lat="45.18654" lon="5.91027">
        <ele>1316</ele>
        <time>2019-04-13T13:14:37.009Z</time>
      </trkpt>
      <trkpt lat="45.18647" lon="5.91017">
        <ele>1315</ele>
        <time>2019-04-13T13:14:44.009Z</time>
      </trkpt>
      <trkpt lat="45.18641" lon="5.91012">
        <ele>1315</ele>
        <time>2019-04-13T13:14:48.009Z</time>
      </trkpt>
      <trkpt lat="45.18638" lon="5.91003">
        <ele>1312</ele>
        <time>2019-04-13T13:14:54.009Z</time>
      </trkpt>
      <trkpt lat="45.18631" lon="5.90999">
        <ele>1310</ele>
        <time>2019-04-13T13:15:00.009Z</time>
      </trkpt>
      <trkpt lat="45.18627" lon="5.90991">
        <ele>1307</ele>
        <time>2019-04-13T13:15:05.009Z</time>
      </trkpt>
      <trkpt lat="45.18621" lon="5.90981">
        <ele>1304</ele>
        <time>2019-04-13T13:15:12.009Z</time>
      </trkpt>
      <trkpt lat="45.18617" lon="5.90969">
        <ele>1304</ele>
        <time>2019-04-13T13:15:19.009Z</time>
      </trkpt>
      <trkpt lat="45.1861" lon="5.90958">
        <ele>1303</ele>
        <time>2019-04-13T13:15:27.009Z</time>
      </trkpt>
      <trkpt lat="45.18604" lon="5.9095">
        <ele>1300</ele>
        <time>2019-04-13T13:15:34.009Z</time>
      </trkpt>
      <trkpt lat="45.18598" lon="5.90943">
        <ele>1298</ele>
        <time>2019-04-13T13:15:40.009Z</time>
      </trkpt>
      <trkpt lat="45.18591" lon="5.90936">
        <ele>1297</ele>
        <time>2019-04-13T13:15:44.009Z</time>
      </trkpt>
      <trkpt lat="45.18587" lon="5.90926">
        <ele>1295.2889984</ele>
        <time>2019-04-13T13:15:50.009Z</time>
      </trkpt>
      <trkpt lat="45.18581" lon="5.9092">
        <ele>1295</ele>
        <time>2019-04-13T13:15:55.009Z</time>
      </trkpt>
      <trkpt lat="45.18574" lon="5.9091">
        <ele>1291</ele>
        <time>2019-04-13T13:16:02.009Z</time>
      </trkpt>
      <trkpt lat="45.18569" lon="5.90901">
        <ele>1290</ele>
        <time>2019-04-13T13:16:08.009Z</time>
      </trkpt>
      <trkpt lat="45.18563" lon="5.90892">
        <ele>1290</ele>
        <time>2019-04-13T13:16:14.009Z</time>
      </trkpt>
      <trkpt lat="45.18554" lon="5.90886">
        <ele>1289.1330048</ele>
        <time>2019-04-13T13:16:21.009Z</time>
      </trkpt>
      <trkpt lat="45.18547" lon="5.90879">
        <ele>1285.2889984</ele>
        <time>2019-04-13T13:16:28.009Z</time>
      </trkpt>
      <trkpt lat="45.18542" lon="5.9087">
        <ele>1284</ele>
        <time>2019-04-13T13:16:35.009Z</time>
      </trkpt>
      <trkpt lat="45.18537" lon="5.90863">
        <ele>1283</ele>
        <time>2019-04-13T13:16:40.009Z</time>
      </trkpt>
      <trkpt lat="45.18531" lon="5.90856">
        <ele>1282</ele>
        <time>2019-04-13T13:16:47.009Z</time>
      </trkpt>
      <trkpt lat="45.18525" lon="5.90849">
        <ele>1280</ele>
        <time>2019-04-13T13:16:54.009Z</time>
      </trkpt>
      <trkpt lat="45.18522" lon="5.90837">
        <ele>1278</ele>
        <time>2019-04-13T13:17:00.009Z</time>
      </trkpt>
      <trkpt lat="45.18516" lon="5.9083">
        <ele>1275</ele>
        <time>2019-04-13T13:17:05.009Z</time>
      </trkpt>
      <trkpt lat="45.1851" lon="5.90826">
        <ele>1276</ele>
        <time>2019-04-13T13:17:10.009Z</time>
      </trkpt>
      <trkpt lat="45.18502" lon="5.90819">
        <ele>1275</ele>
        <time>2019-04-13T13:17:16.009Z</time>
      </trkpt>
      <trkpt lat="45.18494" lon="5.90811">
        <ele>1272</ele>
        <time>2019-04-13T13:17:24.009Z</time>
      </trkpt>
      <trkpt lat="45.18488" lon="5.90803">
        <ele>1270</ele>
        <time>2019-04-13T13:17:32.009Z</time>
      </trkpt>
      <trkpt lat="45.1848" lon="5.90797">
        <ele>1267</ele>
        <time>2019-04-13T13:17:37.009Z</time>
      </trkpt>
      <trkpt lat="45.18474" lon="5.90791">
        <ele>1265</ele>
        <time>2019-04-13T13:17:42.009Z</time>
      </trkpt>
      <trkpt lat="45.1847" lon="5.90782">
        <ele>1264</ele>
        <time>2019-04-13T13:17:47.009Z</time>
      </trkpt>
      <trkpt lat="45.18463" lon="5.90779">
        <ele>1264</ele>
        <time>2019-04-13T13:17:53.009Z</time>
      </trkpt>
      <trkpt lat="45.18458" lon="5.90771">
        <ele>1264</ele>
        <time>2019-04-13T13:18:00.009Z</time>
      </trkpt>
      <trkpt lat="45.18449" lon="5.90765">
        <ele>1258</ele>
        <time>2019-04-13T13:18:08.009Z</time>
      </trkpt>
      <trkpt lat="45.18443" lon="5.90759">
        <ele>1258</ele>
        <time>2019-04-13T13:18:13.009Z</time>
      </trkpt>
      <trkpt lat="45.18438" lon="5.90751">
        <ele>1257</ele>
        <time>2019-04-13T13:18:18.009Z</time>
      </trkpt>
      <trkpt lat="45.18433" lon="5.90743">
        <ele>1256</ele>
        <time>2019-04-13T13:18:23.009Z</time>
      </trkpt>
      <trkpt lat="45.18426" lon="5.90736">
        <ele>1256</ele>
        <time>2019-04-13T13:18:29.009Z</time>
      </trkpt>
      <trkpt lat="45.18424" lon="5.90725">
        <ele>1253</ele>
        <time>2019-04-13T13:18:35.009Z</time>
      </trkpt>
      <trkpt lat="45.18424" lon="5.90713">
        <ele>1252.2889984</ele>
        <time>2019-04-13T13:18:40.009Z</time>
      </trkpt>
      <trkpt lat="45.18425" lon="5.90703">
        <ele>1251</ele>
        <time>2019-04-13T13:18:44.009Z</time>
      </trkpt>
      <trkpt lat="45.18427" lon="5.90692">
        <ele>1250</ele>
        <time>2019-04-13T13:18:48.009Z</time>
      </trkpt>
      <trkpt lat="45.1843" lon="5.90684">
        <ele>1248</ele>
        <time>2019-04-13T13:18:53.009Z</time>
      </trkpt>
      <trkpt lat="45.18434" lon="5.90675">
        <ele>1247</ele>
        <time>2019-04-13T13:19:00.009Z</time>
      </trkpt>
      <trkpt lat="45.18439" lon="5.90663">
        <ele>1246</ele>
        <time>2019-04-13T13:19:06.009Z</time>
      </trkpt>
      <trkpt lat="45.18441" lon="5.90654">
        <ele>1246</ele>
        <time>2019-04-13T13:19:13.009Z</time>
      </trkpt>
      <trkpt lat="45.18447" lon="5.90645">
        <ele>1246</ele>
        <time>2019-04-13T13:19:19.009Z</time>
      </trkpt>
      <trkpt lat="45.18451" lon="5.90639">
        <ele>1245</ele>
        <time>2019-04-13T13:19:28.009Z</time>
      </trkpt>
      <trkpt lat="45.18457" lon="5.90631">
        <ele>1244</ele>
        <time>2019-04-13T13:19:34.009Z</time>
      </trkpt>
      <trkpt lat="45.18462" lon="5.90624">
        <ele>1244</ele>
        <time>2019-04-13T13:19:40.009Z</time>
      </trkpt>
      <trkpt lat="45.18468" lon="5.9062">
        <ele>1243</ele>
        <time>2019-04-13T13:19:44.009Z</time>
      </trkpt>
      <trkpt lat="45.18477" lon="5.90614">
        <ele>1243</ele>
        <time>2019-04-13T13:19:50.009Z</time>
      </trkpt>
      <trkpt lat="45.18484" lon="5.90609">
        <ele>1240</ele>
        <time>2019-04-13T13:19:57.009Z</time>
      </trkpt>
      <trkpt lat="45.18488" lon="5.90602">
        <ele>1237</ele>
        <time>2019-04-13T13:20:02.009Z</time>
      </trkpt>
      <trkpt lat="45.18496" lon="5.90593">
        <ele>1236</ele>
        <time>2019-04-13T13:20:10.009Z</time>
      </trkpt>
      <trkpt lat="45.18505" lon="5.90587">
        <ele>1233</ele>
        <time>2019-04-13T13:20:22.009Z</time>
      </trkpt>
      <trkpt lat="45.18514" lon="5.90581">
        <ele>1233</ele>
        <time>2019-04-13T13:20:30.009Z</time>
      </trkpt>
      <trkpt lat="45.18522" lon="5.90572">
        <ele>1229.4220032</ele>
        <time>2019-04-13T13:20:36.009Z</time>
      </trkpt>
      <trkpt lat="45.18531" lon="5.90566">
        <ele>1225</ele>
        <time>2019-04-13T13:20:49.009Z</time>
      </trkpt>
      <trkpt lat="45.18539" lon="5.90557">
        <ele>1221</ele>
        <time>2019-04-13T13:20:57.009Z</time>
      </trkpt>
      <trkpt lat="45.18549" lon="5.90545">
        <ele>1219</ele>
        <time>2019-04-13T13:21:05.009Z</time>
      </trkpt>
      <trkpt lat="45.18557" lon="5.90536">
        <ele>1218</ele>
        <time>2019-04-13T13:21:12.009Z</time>
      </trkpt>
      <trkpt lat="45.18567" lon="5.90529">
        <ele>1218</ele>
        <time>2019-04-13T13:21:18.009Z</time>
      </trkpt>
      <trkpt lat="45.18576" lon="5.9052">
        <ele>1216</ele>
        <time>2019-04-13T13:21:23.009Z</time>
      </trkpt>
      <trkpt lat="45.18581" lon="5.90514">
        <ele>1216</ele>
        <time>2019-04-13T13:21:27.009Z</time>
      </trkpt>
      <trkpt lat="45.18584" lon="5.90507">
        <ele>1215.4220032</ele>
        <time>2019-04-13T13:21:31.009Z</time>
      </trkpt>
      <trkpt lat="45.18589" lon="5.90499">
        <ele>1212</ele>
        <time>2019-04-13T13:21:40.009Z</time>
      </trkpt>
      <trkpt lat="45.18592" lon="5.90491">
        <ele>1211</ele>
        <time>2019-04-13T13:21:44.009Z</time>
      </trkpt>
      <trkpt lat="45.18592" lon="5.90483">
        <ele>1210</ele>
        <time>2019-04-13T13:21:49.009Z</time>
      </trkpt>
      <trkpt lat="45.18595" lon="5.90475">
        <ele>1209</ele>
        <time>2019-04-13T13:21:54.009Z</time>
      </trkpt>
      <trkpt lat="45.18596" lon="5.90468">
        <ele>1209</ele>
        <time>2019-04-13T13:22:00.009Z</time>
      </trkpt>
      <trkpt lat="45.18594" lon="5.90462">
        <ele>1206</ele>
        <time>2019-04-13T13:22:08.009Z</time>
      </trkpt>
      <trkpt lat="45.18595" lon="5.90456">
        <ele>1206</ele>
        <time>2019-04-13T13:22:12.009Z</time>
      </trkpt>
      <trkpt lat="45.18599" lon="5.9045">
        <ele>1206</ele>
        <time>2019-04-13T13:22:16.009Z</time>
      </trkpt>
      <trkpt lat="45.18603" lon="5.90445">
        <ele>1206</ele>
        <time>2019-04-13T13:22:19.009Z</time>
      </trkpt>
      <trkpt lat="45.18608" lon="5.90441">
        <ele>1204</ele>
        <time>2019-04-13T13:22:22.009Z</time>
      </trkpt>
      <trkpt lat="45.18615" lon="5.90437">
        <ele>1204</ele>
        <time>2019-04-13T13:22:28.009Z</time>
      </trkpt>
      <trkpt lat="45.18621" lon="5.90429">
        <ele>1200.7110016</ele>
        <time>2019-04-13T13:22:36.009Z</time>
      </trkpt>
      <trkpt lat="45.18626" lon="5.90419">
        <ele>1197.4220032</ele>
        <time>2019-04-13T13:22:46.009Z</time>
      </trkpt>
      <trkpt lat="45.18629" lon="5.90409">
        <ele>1194</ele>
        <time>2019-04-13T13:22:54.009Z</time>
      </trkpt>
      <trkpt lat="45.18633" lon="5.90398">
        <ele>1193</ele>
        <time>2019-04-13T13:23:00.009Z</time>
      </trkpt>
      <trkpt lat="45.18634" lon="5.90388">
        <ele>1191</ele>
        <time>2019-04-13T13:23:08.009Z</time>
      </trkpt>
      <trkpt lat="45.18634" lon="5.90377">
        <ele>1189</ele>
        <time>2019-04-13T13:23:15.009Z</time>
      </trkpt>
      <trkpt lat="45.18636" lon="5.90364">
        <ele>1186</ele>
        <time>2019-04-13T13:23:22.009Z</time>
      </trkpt>
      <trkpt lat="45.1864" lon="5.90352">
        <ele>1185</ele>
        <time>2019-04-13T13:23:30.009Z</time>
      </trkpt>
      <trkpt lat="45.18642" lon="5.9034">
        <ele>1183.7110016</ele>
        <time>2019-04-13T13:23:36.009Z</time>
      </trkpt>
      <trkpt lat="45.18646" lon="5.90328">
        <ele>1181</ele>
        <time>2019-04-13T13:23:43.009Z</time>
      </trkpt>
      <trkpt lat="45.1865" lon="5.90314">
        <ele>1178</ele>
        <time>2019-04-13T13:23:52.009Z</time>
      </trkpt>
      <trkpt lat="45.1865" lon="5.903">
        <ele>1177</ele>
        <time>2019-04-13T13:23:59.009Z</time>
      </trkpt>
      <trkpt lat="45.18654" lon="5.90289">
        <ele>1175</ele>
        <time>2019-04-13T13:24:04.009Z</time>
      </trkpt>
      <trkpt lat="45.1866" lon="5.90277">
        <ele>1174.7110016</ele>
        <time>2019-04-13T13:24:11.009Z</time>
      </trkpt>
      <trkpt lat="45.18662" lon="5.90266">
        <ele>1174</ele>
        <time>2019-04-13T13:24:17.009Z</time>
      </trkpt>
      <trkpt lat="45.18657" lon="5.90256">
        <ele>1172</ele>
        <time>2019-04-13T13:24:24.009Z</time>
      </trkpt>
      <trkpt lat="45.18654" lon="5.90244">
        <ele>1172</ele>
        <time>2019-04-13T13:24:30.009Z</time>
      </trkpt>
      <trkpt lat="45.18652" lon="5.90231">
        <ele>1169</ele>
        <time>2019-04-13T13:24:37.009Z</time>
      </trkpt>
      <trkpt lat="45.18649" lon="5.90221">
        <ele>1169</ele>
        <time>2019-04-13T13:24:43.009Z</time>
      </trkpt>
      <trkpt lat="45.18646" lon="5.90212">
        <ele>1169</ele>
        <time>2019-04-13T13:24:48.009Z</time>
      </trkpt>
      <trkpt lat="45.18645" lon="5.90198">
        <ele>1166</ele>
        <time>2019-04-13T13:24:54.009Z</time>
      </trkpt>
      <trkpt lat="45.18641" lon="5.90187">
        <ele>1165</ele>
        <time>2019-04-13T13:25:00.009Z</time>
      </trkpt>
      <trkpt lat="45.18637" lon="5.90178">
        <ele>1165</ele>
        <time>2019-04-13T13:25:05.009Z</time>
      </trkpt>
      <trkpt lat="45.18632" lon="5.90167">
        <ele>1165</ele>
        <time>2019-04-13T13:25:11.009Z</time>
      </trkpt>
      <trkpt lat="45.1863" lon="5.90155">
        <ele>1165</ele>
        <time>2019-04-13T13:25:17.009Z</time>
      </trkpt>
      <trkpt lat="45.18631" lon="5.90143">
        <ele>1163</ele>
        <time>2019-04-13T13:25:22.009Z</time>
      </trkpt>
      <trkpt lat="45.18632" lon="5.90131">
        <ele>1163</ele>
        <time>2019-04-13T13:25:28.009Z</time>
      </trkpt>
      <trkpt lat="45.18633" lon="5.90119">
        <ele>1162</ele>
        <time>2019-04-13T13:25:33.009Z</time>
      </trkpt>
      <trkpt lat="45.18639" lon="5.90106">
        <ele>1162</ele>
        <time>2019-04-13T13:25:40.009Z</time>
      </trkpt>
      <trkpt lat="45.18643" lon="5.90094">
        <ele>1159</ele>
        <time>2019-04-13T13:25:44.009Z</time>
      </trkpt>
      <trkpt lat="45.1865" lon="5.90083">
        <ele>1156</ele>
        <time>2019-04-13T13:25:52.009Z</time>
      </trkpt>
      <trkpt lat="45.18659" lon="5.90076">
        <ele>1156</ele>
        <time>2019-04-13T13:25:58.009Z</time>
      </trkpt>
      <trkpt lat="45.18668" lon="5.90068">
        <ele>1155</ele>
        <time>2019-04-13T13:26:05.009Z</time>
      </trkpt>
      <trkpt lat="45.18676" lon="5.90061">
        <ele>1155</ele>
        <time>2019-04-13T13:26:10.009Z</time>
      </trkpt>
      <trkpt lat="45.18683" lon="5.90049">
        <ele>1154</ele>
        <time>2019-04-13T13:26:19.009Z</time>
      </trkpt>
      <trkpt lat="45.18684" lon="5.90035">
        <ele>1153</ele>
        <time>2019-04-13T13:26:26.009Z</time>
      </trkpt>
      <trkpt lat="45.18688" lon="5.90021">
        <ele>1152</ele>
        <time>2019-04-13T13:26:33.009Z</time>
      </trkpt>
      <trkpt lat="45.18692" lon="5.90008">
        <ele>1152</ele>
        <time>2019-04-13T13:26:40.009Z</time>
      </trkpt>
      <trkpt lat="45.18694" lon="5.89994">
        <ele>1150</ele>
        <time>2019-04-13T13:26:48.009Z</time>
      </trkpt>
      <trkpt lat="45.18694" lon="5.89979">
        <ele>1149</ele>
        <time>2019-04-13T13:26:55.009Z</time>
      </trkpt>
      <trkpt lat="45.18692" lon="5.89963">
        <ele>1146</ele>
        <time>2019-04-13T13:27:03.009Z</time>
      </trkpt>
      <trkpt lat="45.18692" lon="5.89951">
        <ele>1145</ele>
        <time>2019-04-13T13:27:09.009Z</time>
      </trkpt>
      <trkpt lat="45.18698" lon="5.89943">
        <ele>1144</ele>
        <time>2019-04-13T13:27:15.009Z</time>
      </trkpt>
      <trkpt lat="45.18698" lon="5.89941">
        <ele>1144</ele>
        <time>2019-04-13T13:27:23.009Z</time>
      </trkpt>
    </trkseg>
  </trk>
</gpx>